<?xml version="1.0" encoding="UTF-8" standalone="no" ?>
<gpx xmlns="http://www.topografix.com/GPX/1/1" xmlns:xsi="http://www.w3.org/2001/XMLSchema-instance" xsi:schemaLocation="http://www.topografix.com/GPX/1/1 http://www.topografix.com/GPX/1/1/gpx.xsd" version="1.1" creator="VisuGPX - https://www.visugpx.com">
  <metadata>
    <name>Boucle Mandailles</name>
  </metadata>
  <trk>
    <name><![CDATA[Boucle Mandailles]]></name>
    <extensions>
      <line xmlns="http://www.topografix.com/GPX/gpx_style/0/2">
        <color>0000FF</color>
        <width>4</width>
      </line>
    </extensions>
    <trkseg>
      <trkpt lat="45.06843" lon="2.65674">
        <ele>922.6</ele>
        <time>2000-01-01T18:06:28.000Z</time>
      </trkpt>
      <trkpt lat="45.06832" lon="2.65697">
        <ele>924.2</ele>
        <time>2000-01-01T18:06:18.000Z</time>
      </trkpt>
      <trkpt lat="45.06831" lon="2.65703">
        <ele>924.5</ele>
        <time>2000-01-01T18:06:08.000Z</time>
      </trkpt>
      <trkpt lat="45.06831" lon="2.65713">
        <ele>924.9</ele>
        <time>2000-01-01T18:05:58.000Z</time>
      </trkpt>
      <trkpt lat="45.06828" lon="2.65722">
        <ele>925</ele>
        <time>2000-01-01T18:05:48.000Z</time>
      </trkpt>
      <trkpt lat="45.06826" lon="2.65736">
        <ele>926.4</ele>
        <time>2000-01-01T18:05:38.000Z</time>
      </trkpt>
      <trkpt lat="45.06824" lon="2.6575">
        <ele>927.3</ele>
        <time>2000-01-01T18:05:28.000Z</time>
      </trkpt>
      <trkpt lat="45.06824" lon="2.6576">
        <ele>926</ele>
        <time>2000-01-01T18:05:18.000Z</time>
      </trkpt>
      <trkpt lat="45.06828" lon="2.65774">
        <ele>929.1</ele>
        <time>2000-01-01T18:05:08.000Z</time>
      </trkpt>
      <trkpt lat="45.06826" lon="2.6579">
        <ele>928</ele>
        <time>2000-01-01T18:04:58.000Z</time>
      </trkpt>
      <trkpt lat="45.06823" lon="2.65817">
        <ele>933.1</ele>
        <time>2000-01-01T18:04:48.000Z</time>
      </trkpt>
      <trkpt lat="45.06822" lon="2.65827">
        <ele>934.4</ele>
        <time>2000-01-01T18:04:38.000Z</time>
      </trkpt>
      <trkpt lat="45.06821" lon="2.65843">
        <ele>933</ele>
        <time>2000-01-01T18:04:28.000Z</time>
      </trkpt>
      <trkpt lat="45.0682" lon="2.65864">
        <ele>938.2</ele>
        <time>2000-01-01T18:04:18.000Z</time>
      </trkpt>
      <trkpt lat="45.0682" lon="2.65871">
        <ele>938.8</ele>
        <time>2000-01-01T18:04:08.000Z</time>
      </trkpt>
      <trkpt lat="45.0682" lon="2.65884">
        <ele>936</ele>
        <time>2000-01-01T18:03:58.000Z</time>
      </trkpt>
      <trkpt lat="45.06821" lon="2.65893">
        <ele>940.8</ele>
        <time>2000-01-01T18:03:48.000Z</time>
      </trkpt>
      <trkpt lat="45.06823" lon="2.65902">
        <ele>941.6</ele>
        <time>2000-01-01T18:03:38.000Z</time>
      </trkpt>
      <trkpt lat="45.06824" lon="2.65905">
        <ele>941.8</ele>
        <time>2000-01-01T18:03:28.000Z</time>
      </trkpt>
      <trkpt lat="45.06824" lon="2.65907">
        <ele>942.1</ele>
        <time>2000-01-01T18:03:18.000Z</time>
      </trkpt>
      <trkpt lat="45.06823" lon="2.65915">
        <ele>938</ele>
        <time>2000-01-01T18:03:08.000Z</time>
      </trkpt>
      <trkpt lat="45.06824" lon="2.65927">
        <ele>943.7</ele>
        <time>2000-01-01T18:02:58.000Z</time>
      </trkpt>
      <trkpt lat="45.06825" lon="2.65935">
        <ele>943.9</ele>
        <time>2000-01-01T18:02:48.000Z</time>
      </trkpt>
      <trkpt lat="45.06828" lon="2.65943">
        <ele>944.1</ele>
        <time>2000-01-01T18:02:38.000Z</time>
      </trkpt>
      <trkpt lat="45.0683" lon="2.65951">
        <ele>944</ele>
        <time>2000-01-01T18:02:28.000Z</time>
      </trkpt>
      <trkpt lat="45.06833" lon="2.65968">
        <ele>946.5</ele>
        <time>2000-01-01T18:02:18.000Z</time>
      </trkpt>
      <trkpt lat="45.06833" lon="2.65974">
        <ele>947.2</ele>
        <time>2000-01-01T18:02:08.000Z</time>
      </trkpt>
      <trkpt lat="45.06833" lon="2.65976">
        <ele>947.4</ele>
        <time>2000-01-01T18:01:58.000Z</time>
      </trkpt>
      <trkpt lat="45.0683" lon="2.65982">
        <ele>947</ele>
        <time>2000-01-01T18:01:48.000Z</time>
      </trkpt>
      <trkpt lat="45.06827" lon="2.65986">
        <ele>948.7</ele>
        <time>2000-01-01T18:01:38.000Z</time>
      </trkpt>
      <trkpt lat="45.06818" lon="2.65991">
        <ele>949.8</ele>
        <time>2000-01-01T18:01:28.000Z</time>
      </trkpt>
      <trkpt lat="45.06816" lon="2.65993">
        <ele>950.2</ele>
        <time>2000-01-01T18:01:18.000Z</time>
      </trkpt>
      <trkpt lat="45.06815" lon="2.65996">
        <ele>950.7</ele>
        <time>2000-01-01T18:01:08.000Z</time>
      </trkpt>
      <trkpt lat="45.06811" lon="2.65996">
        <ele>949</ele>
        <time>2000-01-01T18:00:58.000Z</time>
      </trkpt>
      <trkpt lat="45.06802" lon="2.65995">
        <ele>950.9</ele>
        <time>2000-01-01T18:00:48.000Z</time>
      </trkpt>
      <trkpt lat="45.06791" lon="2.65994">
        <ele>950</ele>
        <time>2000-01-01T18:00:38.000Z</time>
      </trkpt>
      <trkpt lat="45.06781" lon="2.65995">
        <ele>950</ele>
        <time>2000-01-01T18:00:28.000Z</time>
      </trkpt>
      <trkpt lat="45.06781" lon="2.65993">
        <ele>949.9</ele>
        <time>2000-01-01T18:00:18.000Z</time>
      </trkpt>
      <trkpt lat="45.06778" lon="2.6599">
        <ele>949.6</ele>
        <time>2000-01-01T18:00:08.000Z</time>
      </trkpt>
      <trkpt lat="45.06775" lon="2.65986">
        <ele>950.2</ele>
        <time>2000-01-01T17:59:58.000Z</time>
      </trkpt>
      <trkpt lat="45.06773" lon="2.65984">
        <ele>950.7</ele>
        <time>2000-01-01T17:59:48.000Z</time>
      </trkpt>
      <trkpt lat="45.06773" lon="2.65981">
        <ele>950.7</ele>
        <time>2000-01-01T17:59:38.000Z</time>
      </trkpt>
      <trkpt lat="45.06773" lon="2.65978">
        <ele>950</ele>
        <time>2000-01-01T17:59:28.000Z</time>
      </trkpt>
      <trkpt lat="45.06775" lon="2.65971">
        <ele>950.2</ele>
        <time>2000-01-01T17:59:18.000Z</time>
      </trkpt>
      <trkpt lat="45.06778" lon="2.65959">
        <ele>950.9</ele>
        <time>2000-01-01T17:59:08.000Z</time>
      </trkpt>
      <trkpt lat="45.0677" lon="2.6596">
        <ele>953</ele>
        <time>2000-01-01T17:58:58.000Z</time>
      </trkpt>
      <trkpt lat="45.06755" lon="2.65953">
        <ele>957.7</ele>
        <time>2000-01-01T17:58:48.000Z</time>
      </trkpt>
      <trkpt lat="45.06747" lon="2.6595">
        <ele>963</ele>
        <time>2000-01-01T17:58:38.000Z</time>
      </trkpt>
      <trkpt lat="45.06741" lon="2.65947">
        <ele>962.1</ele>
        <time>2000-01-01T17:58:28.000Z</time>
      </trkpt>
      <trkpt lat="45.06722" lon="2.65949">
        <ele>967</ele>
        <time>2000-01-01T17:58:18.000Z</time>
      </trkpt>
      <trkpt lat="45.0672" lon="2.65966">
        <ele>973.8</ele>
        <time>2000-01-01T17:58:08.000Z</time>
      </trkpt>
      <trkpt lat="45.0672" lon="2.65977">
        <ele>982</ele>
        <time>2000-01-01T17:57:58.000Z</time>
      </trkpt>
      <trkpt lat="45.06719" lon="2.65996">
        <ele>975.4</ele>
        <time>2000-01-01T17:57:48.000Z</time>
      </trkpt>
      <trkpt lat="45.06713" lon="2.66009">
        <ele>984</ele>
        <time>2000-01-01T17:57:38.000Z</time>
      </trkpt>
      <trkpt lat="45.06694" lon="2.66009">
        <ele>986</ele>
        <time>2000-01-01T17:57:28.000Z</time>
      </trkpt>
      <trkpt lat="45.06673" lon="2.66008">
        <ele>985.5</ele>
        <time>2000-01-01T17:57:18.000Z</time>
      </trkpt>
      <trkpt lat="45.06664" lon="2.66017">
        <ele>987</ele>
        <time>2000-01-01T17:57:08.000Z</time>
      </trkpt>
      <trkpt lat="45.06654" lon="2.66034">
        <ele>988.1</ele>
        <time>2000-01-01T17:56:58.000Z</time>
      </trkpt>
      <trkpt lat="45.06646" lon="2.66051">
        <ele>991</ele>
        <time>2000-01-01T17:56:48.000Z</time>
      </trkpt>
      <trkpt lat="45.06627" lon="2.66085">
        <ele>1001</ele>
        <time>2000-01-01T17:56:38.000Z</time>
      </trkpt>
      <trkpt lat="45.06615" lon="2.66105">
        <ele>1002.8</ele>
        <time>2000-01-01T17:56:28.000Z</time>
      </trkpt>
      <trkpt lat="45.06608" lon="2.66114">
        <ele>1007</ele>
        <time>2000-01-01T17:56:18.000Z</time>
      </trkpt>
      <trkpt lat="45.06595" lon="2.66126">
        <ele>1007.1</ele>
        <time>2000-01-01T17:56:08.000Z</time>
      </trkpt>
      <trkpt lat="45.0658" lon="2.66126">
        <ele>1015</ele>
        <time>2000-01-01T17:55:58.000Z</time>
      </trkpt>
      <trkpt lat="45.06556" lon="2.66127">
        <ele>1019</ele>
        <time>2000-01-01T17:55:48.000Z</time>
      </trkpt>
      <trkpt lat="45.06528" lon="2.66123">
        <ele>1021</ele>
        <time>2000-01-01T17:55:38.000Z</time>
      </trkpt>
      <trkpt lat="45.0651" lon="2.66122">
        <ele>1024.2</ele>
        <time>2000-01-01T17:55:28.000Z</time>
      </trkpt>
      <trkpt lat="45.06504" lon="2.66125">
        <ele>1025</ele>
        <time>2000-01-01T17:55:18.000Z</time>
      </trkpt>
      <trkpt lat="45.06493" lon="2.66128">
        <ele>1025.8</ele>
        <time>2000-01-01T17:55:08.000Z</time>
      </trkpt>
      <trkpt lat="45.06483" lon="2.66127">
        <ele>1031</ele>
        <time>2000-01-01T17:54:58.000Z</time>
      </trkpt>
      <trkpt lat="45.06469" lon="2.66123">
        <ele>1031.3</ele>
        <time>2000-01-01T17:54:48.000Z</time>
      </trkpt>
      <trkpt lat="45.06459" lon="2.66122">
        <ele>1035</ele>
        <time>2000-01-01T17:54:38.000Z</time>
      </trkpt>
      <trkpt lat="45.06448" lon="2.66119">
        <ele>1036.3</ele>
        <time>2000-01-01T17:54:28.000Z</time>
      </trkpt>
      <trkpt lat="45.06436" lon="2.66122">
        <ele>1040</ele>
        <time>2000-01-01T17:54:18.000Z</time>
      </trkpt>
      <trkpt lat="45.06425" lon="2.6613">
        <ele>1040.5</ele>
        <time>2000-01-01T17:54:08.000Z</time>
      </trkpt>
      <trkpt lat="45.06411" lon="2.66134">
        <ele>1047</ele>
        <time>2000-01-01T17:53:58.000Z</time>
      </trkpt>
      <trkpt lat="45.06401" lon="2.66138">
        <ele>1047.8</ele>
        <time>2000-01-01T17:53:48.000Z</time>
      </trkpt>
      <trkpt lat="45.06388" lon="2.66142">
        <ele>1054</ele>
        <time>2000-01-01T17:53:38.000Z</time>
      </trkpt>
      <trkpt lat="45.06375" lon="2.66148">
        <ele>1053.4</ele>
        <time>2000-01-01T17:53:28.000Z</time>
      </trkpt>
      <trkpt lat="45.06368" lon="2.66152">
        <ele>1056</ele>
        <time>2000-01-01T17:53:18.000Z</time>
      </trkpt>
      <trkpt lat="45.06361" lon="2.66156">
        <ele>1055.7</ele>
        <time>2000-01-01T17:53:08.000Z</time>
      </trkpt>
      <trkpt lat="45.06355" lon="2.6616">
        <ele>1056.9</ele>
        <time>2000-01-01T17:52:58.000Z</time>
      </trkpt>
      <trkpt lat="45.06347" lon="2.66167">
        <ele>1061</ele>
        <time>2000-01-01T17:52:48.000Z</time>
      </trkpt>
      <trkpt lat="45.06338" lon="2.66162">
        <ele>1062.9</ele>
        <time>2000-01-01T17:52:38.000Z</time>
      </trkpt>
      <trkpt lat="45.0633" lon="2.66154">
        <ele>1066.7</ele>
        <time>2000-01-01T17:52:28.000Z</time>
      </trkpt>
      <trkpt lat="45.06325" lon="2.66146">
        <ele>1070</ele>
        <time>2000-01-01T17:52:18.000Z</time>
      </trkpt>
      <trkpt lat="45.06318" lon="2.66142">
        <ele>1071.9</ele>
        <time>2000-01-01T17:52:08.000Z</time>
      </trkpt>
      <trkpt lat="45.06311" lon="2.66138">
        <ele>1074.6</ele>
        <time>2000-01-01T17:51:58.000Z</time>
      </trkpt>
      <trkpt lat="45.06306" lon="2.66136">
        <ele>1078</ele>
        <time>2000-01-01T17:51:48.000Z</time>
      </trkpt>
      <trkpt lat="45.063" lon="2.66137">
        <ele>1078.5</ele>
        <time>2000-01-01T17:51:38.000Z</time>
      </trkpt>
      <trkpt lat="45.06293" lon="2.66135">
        <ele>1081.5</ele>
        <time>2000-01-01T17:51:28.000Z</time>
      </trkpt>
      <trkpt lat="45.0629" lon="2.66132">
        <ele>1083</ele>
        <time>2000-01-01T17:51:18.000Z</time>
      </trkpt>
      <trkpt lat="45.06286" lon="2.66123">
        <ele>1086</ele>
        <time>2000-01-01T17:51:08.000Z</time>
      </trkpt>
      <trkpt lat="45.06282" lon="2.66109">
        <ele>1088</ele>
        <time>2000-01-01T17:50:58.000Z</time>
      </trkpt>
      <trkpt lat="45.06276" lon="2.66095">
        <ele>1093</ele>
        <time>2000-01-01T17:50:48.000Z</time>
      </trkpt>
      <trkpt lat="45.06269" lon="2.66086">
        <ele>1094.2</ele>
        <time>2000-01-01T17:50:38.000Z</time>
      </trkpt>
      <trkpt lat="45.06262" lon="2.66078">
        <ele>1096.8</ele>
        <time>2000-01-01T17:50:28.000Z</time>
      </trkpt>
      <trkpt lat="45.06253" lon="2.66072">
        <ele>1100</ele>
        <time>2000-01-01T17:50:18.000Z</time>
      </trkpt>
      <trkpt lat="45.06245" lon="2.66066">
        <ele>1101.8</ele>
        <time>2000-01-01T17:50:08.000Z</time>
      </trkpt>
      <trkpt lat="45.06235" lon="2.66062">
        <ele>1106</ele>
        <time>2000-01-01T17:49:58.000Z</time>
      </trkpt>
      <trkpt lat="45.06226" lon="2.66057">
        <ele>1106.2</ele>
        <time>2000-01-01T17:49:48.000Z</time>
      </trkpt>
      <trkpt lat="45.06218" lon="2.66052">
        <ele>1108.1</ele>
        <time>2000-01-01T17:49:38.000Z</time>
      </trkpt>
      <trkpt lat="45.06209" lon="2.66046">
        <ele>1112</ele>
        <time>2000-01-01T17:49:28.000Z</time>
      </trkpt>
      <trkpt lat="45.06201" lon="2.66039">
        <ele>1112.8</ele>
        <time>2000-01-01T17:49:18.000Z</time>
      </trkpt>
      <trkpt lat="45.062" lon="2.66041">
        <ele>1113</ele>
        <time>2000-01-01T17:49:08.000Z</time>
      </trkpt>
      <trkpt lat="45.06199" lon="2.6604">
        <ele>1113.3</ele>
        <time>2000-01-01T17:48:58.000Z</time>
      </trkpt>
      <trkpt lat="45.06187" lon="2.66054">
        <ele>1115</ele>
        <time>2000-01-01T17:48:48.000Z</time>
      </trkpt>
      <trkpt lat="45.06171" lon="2.66071">
        <ele>1118</ele>
        <time>2000-01-01T17:48:38.000Z</time>
      </trkpt>
      <trkpt lat="45.06156" lon="2.66094">
        <ele>1124</ele>
        <time>2000-01-01T17:48:28.000Z</time>
      </trkpt>
      <trkpt lat="45.06142" lon="2.66111">
        <ele>1124</ele>
        <time>2000-01-01T17:48:18.000Z</time>
      </trkpt>
      <trkpt lat="45.06123" lon="2.66126">
        <ele>1127</ele>
        <time>2000-01-01T17:48:08.000Z</time>
      </trkpt>
      <trkpt lat="45.06099" lon="2.66141">
        <ele>1130</ele>
        <time>2000-01-01T17:47:58.000Z</time>
      </trkpt>
      <trkpt lat="45.0608" lon="2.66155">
        <ele>1132</ele>
        <time>2000-01-01T17:47:48.000Z</time>
      </trkpt>
      <trkpt lat="45.06063" lon="2.66187">
        <ele>1133</ele>
        <time>2000-01-01T17:47:38.000Z</time>
      </trkpt>
      <trkpt lat="45.06048" lon="2.66211">
        <ele>1136</ele>
        <time>2000-01-01T17:47:28.000Z</time>
      </trkpt>
      <trkpt lat="45.06025" lon="2.66226">
        <ele>1138</ele>
        <time>2000-01-01T17:47:18.000Z</time>
      </trkpt>
      <trkpt lat="45.06004" lon="2.66252">
        <ele>1142</ele>
        <time>2000-01-01T17:47:08.000Z</time>
      </trkpt>
      <trkpt lat="45.05978" lon="2.66271">
        <ele>1147</ele>
        <time>2000-01-01T17:46:58.000Z</time>
      </trkpt>
      <trkpt lat="45.05968" lon="2.66271">
        <ele>1150.5</ele>
        <time>2000-01-01T17:46:48.000Z</time>
      </trkpt>
      <trkpt lat="45.05969" lon="2.66268">
        <ele>1150.9</ele>
        <time>2000-01-01T17:46:38.000Z</time>
      </trkpt>
      <trkpt lat="45.05977" lon="2.66254">
        <ele>1151.2</ele>
        <time>2000-01-01T17:46:28.000Z</time>
      </trkpt>
      <trkpt lat="45.05979" lon="2.66249">
        <ele>1152</ele>
        <time>2000-01-01T17:46:18.000Z</time>
      </trkpt>
      <trkpt lat="45.0598" lon="2.66241">
        <ele>1153</ele>
        <time>2000-01-01T17:46:08.000Z</time>
      </trkpt>
      <trkpt lat="45.05984" lon="2.66231">
        <ele>1153.5</ele>
        <time>2000-01-01T17:45:58.000Z</time>
      </trkpt>
      <trkpt lat="45.05986" lon="2.66225">
        <ele>1157</ele>
        <time>2000-01-01T17:45:48.000Z</time>
      </trkpt>
      <trkpt lat="45.0599" lon="2.66212">
        <ele>1153.2</ele>
        <time>2000-01-01T17:45:38.000Z</time>
      </trkpt>
      <trkpt lat="45.05989" lon="2.66194">
        <ele>1157</ele>
        <time>2000-01-01T17:45:28.000Z</time>
      </trkpt>
      <trkpt lat="45.05985" lon="2.66185">
        <ele>1158.7</ele>
        <time>2000-01-01T17:45:18.000Z</time>
      </trkpt>
      <trkpt lat="45.05987" lon="2.66172">
        <ele>1161</ele>
        <time>2000-01-01T17:45:08.000Z</time>
      </trkpt>
      <trkpt lat="45.05989" lon="2.66168">
        <ele>1161.4</ele>
        <time>2000-01-01T17:44:58.000Z</time>
      </trkpt>
      <trkpt lat="45.05994" lon="2.66167">
        <ele>1165</ele>
        <time>2000-01-01T17:44:48.000Z</time>
      </trkpt>
      <trkpt lat="45.05998" lon="2.66162">
        <ele>1160.9</ele>
        <time>2000-01-01T17:44:38.000Z</time>
      </trkpt>
      <trkpt lat="45.06" lon="2.66155">
        <ele>1162.4</ele>
        <time>2000-01-01T17:44:28.000Z</time>
      </trkpt>
      <trkpt lat="45.06004" lon="2.66139">
        <ele>1166</ele>
        <time>2000-01-01T17:44:18.000Z</time>
      </trkpt>
      <trkpt lat="45.06003" lon="2.66121">
        <ele>1169.7</ele>
        <time>2000-01-01T17:44:08.000Z</time>
      </trkpt>
      <trkpt lat="45.06009" lon="2.66104">
        <ele>1171.1</ele>
        <time>2000-01-01T17:43:58.000Z</time>
      </trkpt>
      <trkpt lat="45.06014" lon="2.66103">
        <ele>1168</ele>
        <time>2000-01-01T17:43:48.000Z</time>
      </trkpt>
      <trkpt lat="45.06034" lon="2.66089">
        <ele>1168</ele>
        <time>2000-01-01T17:43:38.000Z</time>
      </trkpt>
      <trkpt lat="45.06051" lon="2.6606">
        <ele>1165.4</ele>
        <time>2000-01-01T17:43:28.000Z</time>
      </trkpt>
      <trkpt lat="45.06054" lon="2.66054">
        <ele>1165.6</ele>
        <time>2000-01-01T17:43:18.000Z</time>
      </trkpt>
      <trkpt lat="45.06063" lon="2.66042">
        <ele>1165</ele>
        <time>2000-01-01T17:43:08.000Z</time>
      </trkpt>
      <trkpt lat="45.06076" lon="2.66024">
        <ele>1163</ele>
        <time>2000-01-01T17:42:58.000Z</time>
      </trkpt>
      <trkpt lat="45.06072" lon="2.66019">
        <ele>1162</ele>
        <time>2000-01-01T17:42:38.000Z</time>
      </trkpt>
      <trkpt lat="45.06077" lon="2.66004">
        <ele>1163.7</ele>
        <time>2000-01-01T17:42:28.000Z</time>
      </trkpt>
      <trkpt lat="45.06074" lon="2.65987">
        <ele>1160</ele>
        <time>2000-01-01T17:42:18.000Z</time>
      </trkpt>
      <trkpt lat="45.06068" lon="2.6597">
        <ele>1159.9</ele>
        <time>2000-01-01T17:42:08.000Z</time>
      </trkpt>
      <trkpt lat="45.06063" lon="2.65953">
        <ele>1160</ele>
        <time>2000-01-01T17:41:58.000Z</time>
      </trkpt>
      <trkpt lat="45.06047" lon="2.65937">
        <ele>1160</ele>
        <time>2000-01-01T17:41:48.000Z</time>
      </trkpt>
      <trkpt lat="45.06036" lon="2.65915">
        <ele>1161</ele>
        <time>2000-01-01T17:41:38.000Z</time>
      </trkpt>
      <trkpt lat="45.06022" lon="2.65882">
        <ele>1162</ele>
        <time>2000-01-01T17:41:28.000Z</time>
      </trkpt>
      <trkpt lat="45.06001" lon="2.65846">
        <ele>1163</ele>
        <time>2000-01-01T17:41:18.000Z</time>
      </trkpt>
      <trkpt lat="45.05993" lon="2.65816">
        <ele>1164</ele>
        <time>2000-01-01T17:40:58.000Z</time>
      </trkpt>
      <trkpt lat="45.05985" lon="2.65792">
        <ele>1163</ele>
        <time>2000-01-01T17:40:48.000Z</time>
      </trkpt>
      <trkpt lat="45.05977" lon="2.65763">
        <ele>1161</ele>
        <time>2000-01-01T17:40:38.000Z</time>
      </trkpt>
      <trkpt lat="45.05985" lon="2.65792">
        <ele>1161</ele>
        <time>2000-01-01T17:40:28.000Z</time>
      </trkpt>
      <trkpt lat="45.05977" lon="2.65763">
        <ele>1161</ele>
        <time>2000-01-01T17:40:18.000Z</time>
      </trkpt>
      <trkpt lat="45.05959" lon="2.65749">
        <ele>1157</ele>
        <time>2000-01-01T17:40:08.000Z</time>
      </trkpt>
      <trkpt lat="45.05938" lon="2.65744">
        <ele>1153</ele>
        <time>2000-01-01T17:39:48.000Z</time>
      </trkpt>
      <trkpt lat="45.0591" lon="2.65739">
        <ele>1150</ele>
        <time>2000-01-01T17:39:38.000Z</time>
      </trkpt>
      <trkpt lat="45.05893" lon="2.65716">
        <ele>1145</ele>
        <time>2000-01-01T17:39:28.000Z</time>
      </trkpt>
      <trkpt lat="45.05879" lon="2.65684">
        <ele>1143</ele>
        <time>2000-01-01T17:39:08.000Z</time>
      </trkpt>
      <trkpt lat="45.05864" lon="2.65641">
        <ele>1141.8</ele>
        <time>2000-01-01T17:38:58.000Z</time>
      </trkpt>
      <trkpt lat="45.05857" lon="2.65617">
        <ele>1142</ele>
        <time>2000-01-01T17:38:28.000Z</time>
      </trkpt>
      <trkpt lat="45.05846" lon="2.65599">
        <ele>1141.5</ele>
        <time>2000-01-01T17:38:08.000Z</time>
      </trkpt>
      <trkpt lat="45.05833" lon="2.65585">
        <ele>1139.2</ele>
        <time>2000-01-01T17:37:48.000Z</time>
      </trkpt>
      <trkpt lat="45.05832" lon="2.65584">
        <ele>1138</ele>
        <time>2000-01-01T17:37:38.000Z</time>
      </trkpt>
      <trkpt lat="45.05824" lon="2.65584">
        <ele>1138.5</ele>
        <time>2000-01-01T17:37:28.000Z</time>
      </trkpt>
      <trkpt lat="45.05813" lon="2.65584">
        <ele>1136</ele>
        <time>2000-01-01T17:37:18.000Z</time>
      </trkpt>
      <trkpt lat="45.05803" lon="2.65587">
        <ele>1136.8</ele>
        <time>2000-01-01T17:37:08.000Z</time>
      </trkpt>
      <trkpt lat="45.05794" lon="2.65594">
        <ele>1131</ele>
        <time>2000-01-01T17:36:58.000Z</time>
      </trkpt>
      <trkpt lat="45.05785" lon="2.656">
        <ele>1131.7</ele>
        <time>2000-01-01T17:36:48.000Z</time>
      </trkpt>
      <trkpt lat="45.05776" lon="2.65601">
        <ele>1127.8</ele>
        <time>2000-01-01T17:36:38.000Z</time>
      </trkpt>
      <trkpt lat="45.0577" lon="2.65599">
        <ele>1118</ele>
        <time>2000-01-01T17:36:28.000Z</time>
      </trkpt>
      <trkpt lat="45.05769" lon="2.65584">
        <ele>1120.6</ele>
        <time>2000-01-01T17:36:18.000Z</time>
      </trkpt>
      <trkpt lat="45.05768" lon="2.65569">
        <ele>1112</ele>
        <time>2000-01-01T17:36:08.000Z</time>
      </trkpt>
      <trkpt lat="45.05764" lon="2.65558">
        <ele>1113.6</ele>
        <time>2000-01-01T17:35:58.000Z</time>
      </trkpt>
      <trkpt lat="45.05765" lon="2.65541">
        <ele>1110</ele>
        <time>2000-01-01T17:35:48.000Z</time>
      </trkpt>
      <trkpt lat="45.05764" lon="2.65527">
        <ele>1109.4</ele>
        <time>2000-01-01T17:35:38.000Z</time>
      </trkpt>
      <trkpt lat="45.05762" lon="2.65508">
        <ele>1107.7</ele>
        <time>2000-01-01T17:35:28.000Z</time>
      </trkpt>
      <trkpt lat="45.05761" lon="2.65504">
        <ele>1105</ele>
        <time>2000-01-01T17:35:18.000Z</time>
      </trkpt>
      <trkpt lat="45.0576" lon="2.65481">
        <ele>1105.6</ele>
        <time>2000-01-01T17:35:08.000Z</time>
      </trkpt>
      <trkpt lat="45.05767" lon="2.65459">
        <ele>1105</ele>
        <time>2000-01-01T17:34:58.000Z</time>
      </trkpt>
      <trkpt lat="45.0578" lon="2.65437">
        <ele>1095.7</ele>
        <time>2000-01-01T17:34:48.000Z</time>
      </trkpt>
      <trkpt lat="45.05782" lon="2.65432">
        <ele>1100</ele>
        <time>2000-01-01T17:34:38.000Z</time>
      </trkpt>
      <trkpt lat="45.05771" lon="2.65423">
        <ele>1098.7</ele>
        <time>2000-01-01T17:34:28.000Z</time>
      </trkpt>
      <trkpt lat="45.05777" lon="2.65402">
        <ele>1095</ele>
        <time>2000-01-01T17:34:18.000Z</time>
      </trkpt>
      <trkpt lat="45.05772" lon="2.65366">
        <ele>1097</ele>
        <time>2000-01-01T17:34:08.000Z</time>
      </trkpt>
      <trkpt lat="45.05792" lon="2.65341">
        <ele>1095</ele>
        <time>2000-01-01T17:33:58.000Z</time>
      </trkpt>
      <trkpt lat="45.05809" lon="2.65311">
        <ele>1092</ele>
        <time>2000-01-01T17:33:48.000Z</time>
      </trkpt>
      <trkpt lat="45.05823" lon="2.65274">
        <ele>1089</ele>
        <time>2000-01-01T17:33:38.000Z</time>
      </trkpt>
      <trkpt lat="45.05835" lon="2.6525">
        <ele>1086</ele>
        <time>2000-01-01T17:33:18.000Z</time>
      </trkpt>
      <trkpt lat="45.0585" lon="2.6523">
        <ele>1076</ele>
        <time>2000-01-01T17:33:08.000Z</time>
      </trkpt>
      <trkpt lat="45.05859" lon="2.65216">
        <ele>1073.9</ele>
        <time>2000-01-01T17:32:58.000Z</time>
      </trkpt>
      <trkpt lat="45.05855" lon="2.65206">
        <ele>1075.5</ele>
        <time>2000-01-01T17:32:48.000Z</time>
      </trkpt>
      <trkpt lat="45.05859" lon="2.65216">
        <ele>1076</ele>
        <time>2000-01-01T17:32:38.000Z</time>
      </trkpt>
      <trkpt lat="45.05855" lon="2.65206">
        <ele>1075.5</ele>
        <time>2000-01-01T17:32:28.000Z</time>
      </trkpt>
      <trkpt lat="45.05847" lon="2.65184">
        <ele>1079</ele>
        <time>2000-01-01T17:32:18.000Z</time>
      </trkpt>
      <trkpt lat="45.05841" lon="2.65167">
        <ele>1079.5</ele>
        <time>2000-01-01T17:32:08.000Z</time>
      </trkpt>
      <trkpt lat="45.05835" lon="2.65144">
        <ele>1083</ele>
        <time>2000-01-01T17:31:58.000Z</time>
      </trkpt>
      <trkpt lat="45.05825" lon="2.65109">
        <ele>1083</ele>
        <time>2000-01-01T17:31:48.000Z</time>
      </trkpt>
      <trkpt lat="45.05818" lon="2.65063">
        <ele>1083</ele>
        <time>2000-01-01T17:31:38.000Z</time>
      </trkpt>
      <trkpt lat="45.05799" lon="2.65017">
        <ele>1081</ele>
        <time>2000-01-01T17:31:28.000Z</time>
      </trkpt>
      <trkpt lat="45.05774" lon="2.64977">
        <ele>1080</ele>
        <time>2000-01-01T17:31:18.000Z</time>
      </trkpt>
      <trkpt lat="45.05746" lon="2.64947">
        <ele>1080</ele>
        <time>2000-01-01T17:31:08.000Z</time>
      </trkpt>
      <trkpt lat="45.0572" lon="2.64922">
        <ele>1082</ele>
        <time>2000-01-01T17:30:58.000Z</time>
      </trkpt>
      <trkpt lat="45.057" lon="2.64904">
        <ele>1083.2</ele>
        <time>2000-01-01T17:30:48.000Z</time>
      </trkpt>
      <trkpt lat="45.05683" lon="2.64893">
        <ele>1082</ele>
        <time>2000-01-01T17:30:38.000Z</time>
      </trkpt>
      <trkpt lat="45.05657" lon="2.64875">
        <ele>1082</ele>
        <time>2000-01-01T17:30:28.000Z</time>
      </trkpt>
      <trkpt lat="45.05642" lon="2.64855">
        <ele>1078</ele>
        <time>2000-01-01T17:30:18.000Z</time>
      </trkpt>
      <trkpt lat="45.0563" lon="2.64835">
        <ele>1076.8</ele>
        <time>2000-01-01T17:30:08.000Z</time>
      </trkpt>
      <trkpt lat="45.05623" lon="2.64818">
        <ele>1071</ele>
        <time>2000-01-01T17:29:58.000Z</time>
      </trkpt>
      <trkpt lat="45.05604" lon="2.64805">
        <ele>1063</ele>
        <time>2000-01-01T17:29:48.000Z</time>
      </trkpt>
      <trkpt lat="45.05582" lon="2.64802">
        <ele>1063</ele>
        <time>2000-01-01T17:29:38.000Z</time>
      </trkpt>
      <trkpt lat="45.05573" lon="2.64801">
        <ele>1068.9</ele>
        <time>2000-01-01T17:29:28.000Z</time>
      </trkpt>
      <trkpt lat="45.05564" lon="2.6479">
        <ele>1066</ele>
        <time>2000-01-01T17:29:18.000Z</time>
      </trkpt>
      <trkpt lat="45.05571" lon="2.64755">
        <ele>1070</ele>
        <time>2000-01-01T17:29:08.000Z</time>
      </trkpt>
      <trkpt lat="45.05584" lon="2.64731">
        <ele>1067</ele>
        <time>2000-01-01T17:28:58.000Z</time>
      </trkpt>
      <trkpt lat="45.05602" lon="2.64716">
        <ele>1077</ele>
        <time>2000-01-01T17:28:48.000Z</time>
      </trkpt>
      <trkpt lat="45.05623" lon="2.64696">
        <ele>1077</ele>
        <time>2000-01-01T17:28:38.000Z</time>
      </trkpt>
      <trkpt lat="45.05647" lon="2.64641">
        <ele>1077</ele>
        <time>2000-01-01T17:28:28.000Z</time>
      </trkpt>
      <trkpt lat="45.0565" lon="2.64608">
        <ele>1077.1</ele>
        <time>2000-01-01T17:28:18.000Z</time>
      </trkpt>
      <trkpt lat="45.05648" lon="2.64607">
        <ele>1077.7</ele>
        <time>2000-01-01T17:28:08.000Z</time>
      </trkpt>
      <trkpt lat="45.05641" lon="2.6461">
        <ele>1079</ele>
        <time>2000-01-01T17:27:58.000Z</time>
      </trkpt>
      <trkpt lat="45.0563" lon="2.64615">
        <ele>1082</ele>
        <time>2000-01-01T17:27:48.000Z</time>
      </trkpt>
      <trkpt lat="45.05616" lon="2.64628">
        <ele>1087</ele>
        <time>2000-01-01T17:27:38.000Z</time>
      </trkpt>
      <trkpt lat="45.056" lon="2.64631">
        <ele>1089.4</ele>
        <time>2000-01-01T17:27:28.000Z</time>
      </trkpt>
      <trkpt lat="45.05581" lon="2.64632">
        <ele>1092</ele>
        <time>2000-01-01T17:27:18.000Z</time>
      </trkpt>
      <trkpt lat="45.05559" lon="2.64634">
        <ele>1094.9</ele>
        <time>2000-01-01T17:27:08.000Z</time>
      </trkpt>
      <trkpt lat="45.05543" lon="2.64631">
        <ele>1095</ele>
        <time>2000-01-01T17:26:58.000Z</time>
      </trkpt>
      <trkpt lat="45.0553" lon="2.64623">
        <ele>1098.3</ele>
        <time>2000-01-01T17:26:48.000Z</time>
      </trkpt>
      <trkpt lat="45.05515" lon="2.64628">
        <ele>1104</ele>
        <time>2000-01-01T17:26:38.000Z</time>
      </trkpt>
      <trkpt lat="45.05504" lon="2.6464">
        <ele>1101.8</ele>
        <time>2000-01-01T17:26:28.000Z</time>
      </trkpt>
      <trkpt lat="45.05492" lon="2.64656">
        <ele>1104</ele>
        <time>2000-01-01T17:26:18.000Z</time>
      </trkpt>
      <trkpt lat="45.05483" lon="2.64667">
        <ele>1106.9</ele>
        <time>2000-01-01T17:26:08.000Z</time>
      </trkpt>
      <trkpt lat="45.05469" lon="2.64668">
        <ele>1118</ele>
        <time>2000-01-01T17:25:58.000Z</time>
      </trkpt>
      <trkpt lat="45.05455" lon="2.64666">
        <ele>1114.6</ele>
        <time>2000-01-01T17:25:48.000Z</time>
      </trkpt>
      <trkpt lat="45.05438" lon="2.64659">
        <ele>1121</ele>
        <time>2000-01-01T17:25:38.000Z</time>
      </trkpt>
      <trkpt lat="45.05426" lon="2.64643">
        <ele>1121</ele>
        <time>2000-01-01T17:25:28.000Z</time>
      </trkpt>
      <trkpt lat="45.05414" lon="2.64625">
        <ele>1128</ele>
        <time>2000-01-01T17:25:18.000Z</time>
      </trkpt>
      <trkpt lat="45.05405" lon="2.64606">
        <ele>1128.4</ele>
        <time>2000-01-01T17:25:08.000Z</time>
      </trkpt>
      <trkpt lat="45.05403" lon="2.6458">
        <ele>1140</ele>
        <time>2000-01-01T17:24:58.000Z</time>
      </trkpt>
      <trkpt lat="45.054" lon="2.64558">
        <ele>1142.3</ele>
        <time>2000-01-01T17:24:48.000Z</time>
      </trkpt>
      <trkpt lat="45.05397" lon="2.64543">
        <ele>1149</ele>
        <time>2000-01-01T17:24:38.000Z</time>
      </trkpt>
      <trkpt lat="45.05379" lon="2.64532">
        <ele>1152</ele>
        <time>2000-01-01T17:24:28.000Z</time>
      </trkpt>
      <trkpt lat="45.05368" lon="2.64519">
        <ele>1153</ele>
        <time>2000-01-01T17:24:18.000Z</time>
      </trkpt>
      <trkpt lat="45.05358" lon="2.64496">
        <ele>1162</ele>
        <time>2000-01-01T17:24:08.000Z</time>
      </trkpt>
      <trkpt lat="45.05345" lon="2.64475">
        <ele>1173</ele>
        <time>2000-01-01T17:23:58.000Z</time>
      </trkpt>
      <trkpt lat="45.05331" lon="2.64452">
        <ele>1181.3</ele>
        <time>2000-01-01T17:23:48.000Z</time>
      </trkpt>
      <trkpt lat="45.05317" lon="2.64439">
        <ele>1192</ele>
        <time>2000-01-01T17:23:38.000Z</time>
      </trkpt>
      <trkpt lat="45.053" lon="2.64425">
        <ele>1194.6</ele>
        <time>2000-01-01T17:23:28.000Z</time>
      </trkpt>
      <trkpt lat="45.05286" lon="2.64411">
        <ele>1199</ele>
        <time>2000-01-01T17:23:18.000Z</time>
      </trkpt>
      <trkpt lat="45.05271" lon="2.64399">
        <ele>1205</ele>
        <time>2000-01-01T17:23:08.000Z</time>
      </trkpt>
      <trkpt lat="45.05259" lon="2.64383">
        <ele>1212</ele>
        <time>2000-01-01T17:22:58.000Z</time>
      </trkpt>
      <trkpt lat="45.05252" lon="2.64368">
        <ele>1219.1</ele>
        <time>2000-01-01T17:22:48.000Z</time>
      </trkpt>
      <trkpt lat="45.05257" lon="2.64359">
        <ele>1226</ele>
        <time>2000-01-01T17:22:38.000Z</time>
      </trkpt>
      <trkpt lat="45.05274" lon="2.64349">
        <ele>1226.3</ele>
        <time>2000-01-01T17:22:28.000Z</time>
      </trkpt>
      <trkpt lat="45.05284" lon="2.64342">
        <ele>1231</ele>
        <time>2000-01-01T17:22:18.000Z</time>
      </trkpt>
      <trkpt lat="45.053" lon="2.64332">
        <ele>1236.4</ele>
        <time>2000-01-01T17:22:08.000Z</time>
      </trkpt>
      <trkpt lat="45.05312" lon="2.64322">
        <ele>1242</ele>
        <time>2000-01-01T17:21:58.000Z</time>
      </trkpt>
      <trkpt lat="45.05321" lon="2.64316">
        <ele>1246.9</ele>
        <time>2000-01-01T17:21:48.000Z</time>
      </trkpt>
      <trkpt lat="45.0533" lon="2.6431">
        <ele>1250</ele>
        <time>2000-01-01T17:21:38.000Z</time>
      </trkpt>
      <trkpt lat="45.0533" lon="2.64297">
        <ele>1258</ele>
        <time>2000-01-01T17:21:28.000Z</time>
      </trkpt>
      <trkpt lat="45.0532" lon="2.64284">
        <ele>1255.7</ele>
        <time>2000-01-01T17:21:18.000Z</time>
      </trkpt>
      <trkpt lat="45.05305" lon="2.64276">
        <ele>1269</ele>
        <time>2000-01-01T17:21:08.000Z</time>
      </trkpt>
      <trkpt lat="45.05288" lon="2.64265">
        <ele>1275</ele>
        <time>2000-01-01T17:20:58.000Z</time>
      </trkpt>
      <trkpt lat="45.05272" lon="2.64251">
        <ele>1280.4</ele>
        <time>2000-01-01T17:20:48.000Z</time>
      </trkpt>
      <trkpt lat="45.05261" lon="2.64236">
        <ele>1297</ele>
        <time>2000-01-01T17:20:38.000Z</time>
      </trkpt>
      <trkpt lat="45.05256" lon="2.6422">
        <ele>1297.1</ele>
        <time>2000-01-01T17:20:28.000Z</time>
      </trkpt>
      <trkpt lat="45.05253" lon="2.64203">
        <ele>1298</ele>
        <time>2000-01-01T17:20:18.000Z</time>
      </trkpt>
      <trkpt lat="45.05238" lon="2.64201">
        <ele>1301.2</ele>
        <time>2000-01-01T17:20:08.000Z</time>
      </trkpt>
      <trkpt lat="45.05224" lon="2.64193">
        <ele>1308</ele>
        <time>2000-01-01T17:19:58.000Z</time>
      </trkpt>
      <trkpt lat="45.05208" lon="2.64182">
        <ele>1308.6</ele>
        <time>2000-01-01T17:19:48.000Z</time>
      </trkpt>
      <trkpt lat="45.05193" lon="2.64177">
        <ele>1315</ele>
        <time>2000-01-01T17:19:38.000Z</time>
      </trkpt>
      <trkpt lat="45.05176" lon="2.64171">
        <ele>1320.3</ele>
        <time>2000-01-01T17:19:28.000Z</time>
      </trkpt>
      <trkpt lat="45.0516" lon="2.64173">
        <ele>1329</ele>
        <time>2000-01-01T17:19:18.000Z</time>
      </trkpt>
      <trkpt lat="45.05146" lon="2.64172">
        <ele>1329.2</ele>
        <time>2000-01-01T17:19:08.000Z</time>
      </trkpt>
      <trkpt lat="45.05134" lon="2.64177">
        <ele>1333</ele>
        <time>2000-01-01T17:18:58.000Z</time>
      </trkpt>
      <trkpt lat="45.05117" lon="2.64176">
        <ele>1336.3</ele>
        <time>2000-01-01T17:18:48.000Z</time>
      </trkpt>
      <trkpt lat="45.05102" lon="2.64171">
        <ele>1343</ele>
        <time>2000-01-01T17:18:38.000Z</time>
      </trkpt>
      <trkpt lat="45.05089" lon="2.64161">
        <ele>1349.9</ele>
        <time>2000-01-01T17:18:28.000Z</time>
      </trkpt>
      <trkpt lat="45.05077" lon="2.64152">
        <ele>1357</ele>
        <time>2000-01-01T17:18:18.000Z</time>
      </trkpt>
      <trkpt lat="45.0508" lon="2.64131">
        <ele>1360.3</ele>
        <time>2000-01-01T17:18:08.000Z</time>
      </trkpt>
      <trkpt lat="45.05074" lon="2.6412">
        <ele>1364</ele>
        <time>2000-01-01T17:17:58.000Z</time>
      </trkpt>
      <trkpt lat="45.05065" lon="2.64112">
        <ele>1364.9</ele>
        <time>2000-01-01T17:17:48.000Z</time>
      </trkpt>
      <trkpt lat="45.05059" lon="2.64107">
        <ele>1365.9</ele>
        <time>2000-01-01T17:17:38.000Z</time>
      </trkpt>
      <trkpt lat="45.05053" lon="2.6412">
        <ele>1367</ele>
        <time>2000-01-01T17:17:28.000Z</time>
      </trkpt>
      <trkpt lat="45.0504" lon="2.64128">
        <ele>1367.9</ele>
        <time>2000-01-01T17:17:18.000Z</time>
      </trkpt>
      <trkpt lat="45.05032" lon="2.64143">
        <ele>1372</ele>
        <time>2000-01-01T17:17:08.000Z</time>
      </trkpt>
      <trkpt lat="45.05026" lon="2.64153">
        <ele>1372.4</ele>
        <time>2000-01-01T17:16:58.000Z</time>
      </trkpt>
      <trkpt lat="45.05018" lon="2.6417">
        <ele>1376</ele>
        <time>2000-01-01T17:16:48.000Z</time>
      </trkpt>
      <trkpt lat="45.05007" lon="2.6418">
        <ele>1376</ele>
        <time>2000-01-01T17:16:38.000Z</time>
      </trkpt>
      <trkpt lat="45.04997" lon="2.64196">
        <ele>1380</ele>
        <time>2000-01-01T17:16:28.000Z</time>
      </trkpt>
      <trkpt lat="45.04984" lon="2.6421">
        <ele>1387.9</ele>
        <time>2000-01-01T17:16:18.000Z</time>
      </trkpt>
      <trkpt lat="45.04971" lon="2.64227">
        <ele>1395</ele>
        <time>2000-01-01T17:16:08.000Z</time>
      </trkpt>
      <trkpt lat="45.04974" lon="2.64238">
        <ele>1397.6</ele>
        <time>2000-01-01T17:15:58.000Z</time>
      </trkpt>
      <trkpt lat="45.04964" lon="2.64239">
        <ele>1403</ele>
        <time>2000-01-01T17:15:48.000Z</time>
      </trkpt>
      <trkpt lat="45.0495" lon="2.64242">
        <ele>1408</ele>
        <time>2000-01-01T17:15:38.000Z</time>
      </trkpt>
      <trkpt lat="45.04936" lon="2.6425">
        <ele>1413</ele>
        <time>2000-01-01T17:15:28.000Z</time>
      </trkpt>
      <trkpt lat="45.04923" lon="2.64261">
        <ele>1422.6</ele>
        <time>2000-01-01T17:15:18.000Z</time>
      </trkpt>
      <trkpt lat="45.04908" lon="2.64269">
        <ele>1431</ele>
        <time>2000-01-01T17:15:08.000Z</time>
      </trkpt>
      <trkpt lat="45.04891" lon="2.64277">
        <ele>1438.1</ele>
        <time>2000-01-01T17:14:58.000Z</time>
      </trkpt>
      <trkpt lat="45.04872" lon="2.64278">
        <ele>1439</ele>
        <time>2000-01-01T17:14:48.000Z</time>
      </trkpt>
      <trkpt lat="45.04853" lon="2.64277">
        <ele>1441</ele>
        <time>2000-01-01T17:14:38.000Z</time>
      </trkpt>
      <trkpt lat="45.04829" lon="2.64274">
        <ele>1451.8</ele>
        <time>2000-01-01T17:14:28.000Z</time>
      </trkpt>
      <trkpt lat="45.04811" lon="2.64277">
        <ele>1460</ele>
        <time>2000-01-01T17:14:18.000Z</time>
      </trkpt>
      <trkpt lat="45.04804" lon="2.64288">
        <ele>1464.9</ele>
        <time>2000-01-01T17:14:08.000Z</time>
      </trkpt>
      <trkpt lat="45.04799" lon="2.643">
        <ele>1472</ele>
        <time>2000-01-01T17:13:58.000Z</time>
      </trkpt>
      <trkpt lat="45.04785" lon="2.64301">
        <ele>1475.5</ele>
        <time>2000-01-01T17:13:48.000Z</time>
      </trkpt>
      <trkpt lat="45.04775" lon="2.64302">
        <ele>1481</ele>
        <time>2000-01-01T17:13:38.000Z</time>
      </trkpt>
      <trkpt lat="45.04765" lon="2.6431">
        <ele>1482.6</ele>
        <time>2000-01-01T17:13:28.000Z</time>
      </trkpt>
      <trkpt lat="45.04756" lon="2.6431">
        <ele>1484.5</ele>
        <time>2000-01-01T17:13:08.000Z</time>
      </trkpt>
      <trkpt lat="45.04753" lon="2.6431">
        <ele>1482</ele>
        <time>2000-01-01T17:12:58.000Z</time>
      </trkpt>
      <trkpt lat="45.04755" lon="2.64317">
        <ele>1484</ele>
        <time>2000-01-01T17:12:48.000Z</time>
      </trkpt>
      <trkpt lat="45.04754" lon="2.64326">
        <ele>1483.4</ele>
        <time>2000-01-01T17:12:38.000Z</time>
      </trkpt>
      <trkpt lat="45.04749" lon="2.64339">
        <ele>1483</ele>
        <time>2000-01-01T17:12:28.000Z</time>
      </trkpt>
      <trkpt lat="45.04742" lon="2.64351">
        <ele>1477.4</ele>
        <time>2000-01-01T17:12:18.000Z</time>
      </trkpt>
      <trkpt lat="45.04736" lon="2.64363">
        <ele>1476</ele>
        <time>2000-01-01T17:12:08.000Z</time>
      </trkpt>
      <trkpt lat="45.04729" lon="2.64376">
        <ele>1469.3</ele>
        <time>2000-01-01T17:11:58.000Z</time>
      </trkpt>
      <trkpt lat="45.04725" lon="2.64395">
        <ele>1465</ele>
        <time>2000-01-01T17:11:48.000Z</time>
      </trkpt>
      <trkpt lat="45.04722" lon="2.64414">
        <ele>1458.7</ele>
        <time>2000-01-01T17:11:38.000Z</time>
      </trkpt>
      <trkpt lat="45.04722" lon="2.64422">
        <ele>1456</ele>
        <time>2000-01-01T17:11:28.000Z</time>
      </trkpt>
      <trkpt lat="45.04726" lon="2.64436">
        <ele>1452</ele>
        <time>2000-01-01T17:11:18.000Z</time>
      </trkpt>
      <trkpt lat="45.04732" lon="2.64449">
        <ele>1443.8</ele>
        <time>2000-01-01T17:11:08.000Z</time>
      </trkpt>
      <trkpt lat="45.04739" lon="2.64464">
        <ele>1443</ele>
        <time>2000-01-01T17:10:58.000Z</time>
      </trkpt>
      <trkpt lat="45.04746" lon="2.64477">
        <ele>1436.4</ele>
        <time>2000-01-01T17:10:48.000Z</time>
      </trkpt>
      <trkpt lat="45.04751" lon="2.64495">
        <ele>1433</ele>
        <time>2000-01-01T17:10:38.000Z</time>
      </trkpt>
      <trkpt lat="45.04755" lon="2.64519">
        <ele>1424.3</ele>
        <time>2000-01-01T17:10:28.000Z</time>
      </trkpt>
      <trkpt lat="45.04757" lon="2.64538">
        <ele>1423</ele>
        <time>2000-01-01T17:10:18.000Z</time>
      </trkpt>
      <trkpt lat="45.04757" lon="2.64552">
        <ele>1416.7</ele>
        <time>2000-01-01T17:10:08.000Z</time>
      </trkpt>
      <trkpt lat="45.04758" lon="2.64571">
        <ele>1412</ele>
        <time>2000-01-01T17:09:58.000Z</time>
      </trkpt>
      <trkpt lat="45.04758" lon="2.64573">
        <ele>1411.5</ele>
        <time>2000-01-01T17:09:38.000Z</time>
      </trkpt>
      <trkpt lat="45.04758" lon="2.64575">
        <ele>1412</ele>
        <time>2000-01-01T17:09:28.000Z</time>
      </trkpt>
      <trkpt lat="45.04759" lon="2.64599">
        <ele>1405.1</ele>
        <time>2000-01-01T17:09:18.000Z</time>
      </trkpt>
      <trkpt lat="45.04758" lon="2.64621">
        <ele>1402</ele>
        <time>2000-01-01T17:09:08.000Z</time>
      </trkpt>
      <trkpt lat="45.04759" lon="2.64641">
        <ele>1397</ele>
        <time>2000-01-01T17:08:58.000Z</time>
      </trkpt>
      <trkpt lat="45.04756" lon="2.64659">
        <ele>1396</ele>
        <time>2000-01-01T17:08:48.000Z</time>
      </trkpt>
      <trkpt lat="45.04754" lon="2.64679">
        <ele>1392.1</ele>
        <time>2000-01-01T17:08:38.000Z</time>
      </trkpt>
      <trkpt lat="45.04751" lon="2.64698">
        <ele>1391</ele>
        <time>2000-01-01T17:08:28.000Z</time>
      </trkpt>
      <trkpt lat="45.04749" lon="2.64735">
        <ele>1387</ele>
        <time>2000-01-01T17:08:18.000Z</time>
      </trkpt>
      <trkpt lat="45.04748" lon="2.64761">
        <ele>1384.9</ele>
        <time>2000-01-01T17:08:08.000Z</time>
      </trkpt>
      <trkpt lat="45.04747" lon="2.64779">
        <ele>1385</ele>
        <time>2000-01-01T17:07:58.000Z</time>
      </trkpt>
      <trkpt lat="45.0475" lon="2.64801">
        <ele>1384.8</ele>
        <time>2000-01-01T17:07:48.000Z</time>
      </trkpt>
      <trkpt lat="45.04754" lon="2.64816">
        <ele>1384</ele>
        <time>2000-01-01T17:07:38.000Z</time>
      </trkpt>
      <trkpt lat="45.0476" lon="2.6483">
        <ele>1382.3</ele>
        <time>2000-01-01T17:07:28.000Z</time>
      </trkpt>
      <trkpt lat="45.04771" lon="2.6485">
        <ele>1384</ele>
        <time>2000-01-01T17:07:18.000Z</time>
      </trkpt>
      <trkpt lat="45.04782" lon="2.64872">
        <ele>1388</ele>
        <time>2000-01-01T17:07:08.000Z</time>
      </trkpt>
      <trkpt lat="45.04788" lon="2.64884">
        <ele>1386.1</ele>
        <time>2000-01-01T17:06:58.000Z</time>
      </trkpt>
      <trkpt lat="45.04795" lon="2.64894">
        <ele>1390</ele>
        <time>2000-01-01T17:06:48.000Z</time>
      </trkpt>
      <trkpt lat="45.04805" lon="2.64905">
        <ele>1386</ele>
        <time>2000-01-01T17:06:38.000Z</time>
      </trkpt>
      <trkpt lat="45.04817" lon="2.64914">
        <ele>1390</ele>
        <time>2000-01-01T17:06:28.000Z</time>
      </trkpt>
      <trkpt lat="45.04826" lon="2.6492">
        <ele>1389.6</ele>
        <time>2000-01-01T17:06:18.000Z</time>
      </trkpt>
      <trkpt lat="45.04835" lon="2.64921">
        <ele>1390</ele>
        <time>2000-01-01T17:06:08.000Z</time>
      </trkpt>
      <trkpt lat="45.04845" lon="2.6492">
        <ele>1395.5</ele>
        <time>2000-01-01T17:05:58.000Z</time>
      </trkpt>
      <trkpt lat="45.04856" lon="2.64923">
        <ele>1399.5</ele>
        <time>2000-01-01T17:05:48.000Z</time>
      </trkpt>
      <trkpt lat="45.04863" lon="2.64925">
        <ele>1402</ele>
        <time>2000-01-01T17:05:38.000Z</time>
      </trkpt>
      <trkpt lat="45.04873" lon="2.64929">
        <ele>1403.5</ele>
        <time>2000-01-01T17:05:28.000Z</time>
      </trkpt>
      <trkpt lat="45.04879" lon="2.64928">
        <ele>1405</ele>
        <time>2000-01-01T17:05:18.000Z</time>
      </trkpt>
      <trkpt lat="45.04885" lon="2.64927">
        <ele>1406.6</ele>
        <time>2000-01-01T17:05:08.000Z</time>
      </trkpt>
      <trkpt lat="45.04891" lon="2.64927">
        <ele>1410</ele>
        <time>2000-01-01T17:04:58.000Z</time>
      </trkpt>
      <trkpt lat="45.049" lon="2.64925">
        <ele>1410.3</ele>
        <time>2000-01-01T17:04:48.000Z</time>
      </trkpt>
      <trkpt lat="45.04908" lon="2.64928">
        <ele>1411.8</ele>
        <time>2000-01-01T17:04:38.000Z</time>
      </trkpt>
      <trkpt lat="45.04919" lon="2.6493">
        <ele>1415</ele>
        <time>2000-01-01T17:04:28.000Z</time>
      </trkpt>
      <trkpt lat="45.04929" lon="2.64931">
        <ele>1415.9</ele>
        <time>2000-01-01T17:04:18.000Z</time>
      </trkpt>
      <trkpt lat="45.04941" lon="2.64929">
        <ele>1416</ele>
        <time>2000-01-01T17:04:08.000Z</time>
      </trkpt>
      <trkpt lat="45.04951" lon="2.64927">
        <ele>1419</ele>
        <time>2000-01-01T17:03:58.000Z</time>
      </trkpt>
      <trkpt lat="45.04961" lon="2.64928">
        <ele>1418.5</ele>
        <time>2000-01-01T17:03:48.000Z</time>
      </trkpt>
      <trkpt lat="45.04968" lon="2.64934">
        <ele>1418</ele>
        <time>2000-01-01T17:03:38.000Z</time>
      </trkpt>
      <trkpt lat="45.04972" lon="2.64944">
        <ele>1418</ele>
        <time>2000-01-01T17:03:28.000Z</time>
      </trkpt>
      <trkpt lat="45.04979" lon="2.64959">
        <ele>1418</ele>
        <time>2000-01-01T17:03:18.000Z</time>
      </trkpt>
      <trkpt lat="45.04984" lon="2.64975">
        <ele>1409.5</ele>
        <time>2000-01-01T17:03:08.000Z</time>
      </trkpt>
      <trkpt lat="45.0499" lon="2.6499">
        <ele>1408</ele>
        <time>2000-01-01T17:02:58.000Z</time>
      </trkpt>
      <trkpt lat="45.04995" lon="2.65007">
        <ele>1404.4</ele>
        <time>2000-01-01T17:02:48.000Z</time>
      </trkpt>
      <trkpt lat="45.04997" lon="2.65025">
        <ele>1401</ele>
        <time>2000-01-01T17:02:38.000Z</time>
      </trkpt>
      <trkpt lat="45.04999" lon="2.65041">
        <ele>1400.5</ele>
        <time>2000-01-01T17:02:28.000Z</time>
      </trkpt>
      <trkpt lat="45.05002" lon="2.65055">
        <ele>1401</ele>
        <time>2000-01-01T17:02:18.000Z</time>
      </trkpt>
      <trkpt lat="45.05005" lon="2.65071">
        <ele>1399.2</ele>
        <time>2000-01-01T17:02:08.000Z</time>
      </trkpt>
      <trkpt lat="45.05009" lon="2.65089">
        <ele>1401</ele>
        <time>2000-01-01T17:01:58.000Z</time>
      </trkpt>
      <trkpt lat="45.05013" lon="2.65109">
        <ele>1401.4</ele>
        <time>2000-01-01T17:01:48.000Z</time>
      </trkpt>
      <trkpt lat="45.05018" lon="2.65125">
        <ele>1401</ele>
        <time>2000-01-01T17:01:38.000Z</time>
      </trkpt>
      <trkpt lat="45.0502" lon="2.6514">
        <ele>1402.2</ele>
        <time>2000-01-01T17:01:28.000Z</time>
      </trkpt>
      <trkpt lat="45.0502" lon="2.65157">
        <ele>1402</ele>
        <time>2000-01-01T17:01:18.000Z</time>
      </trkpt>
      <trkpt lat="45.05019" lon="2.65179">
        <ele>1394.2</ele>
        <time>2000-01-01T17:01:08.000Z</time>
      </trkpt>
      <trkpt lat="45.05018" lon="2.65197">
        <ele>1393</ele>
        <time>2000-01-01T17:00:58.000Z</time>
      </trkpt>
      <trkpt lat="45.05015" lon="2.65211">
        <ele>1388.7</ele>
        <time>2000-01-01T17:00:48.000Z</time>
      </trkpt>
      <trkpt lat="45.05013" lon="2.65223">
        <ele>1386.5</ele>
        <time>2000-01-01T17:00:38.000Z</time>
      </trkpt>
      <trkpt lat="45.05012" lon="2.65224">
        <ele>1387</ele>
        <time>2000-01-01T17:00:28.000Z</time>
      </trkpt>
      <trkpt lat="45.05012" lon="2.65226">
        <ele>1386.4</ele>
        <time>2000-01-01T17:00:18.000Z</time>
      </trkpt>
      <trkpt lat="45.05012" lon="2.65236">
        <ele>1386.4</ele>
        <time>2000-01-01T17:00:08.000Z</time>
      </trkpt>
      <trkpt lat="45.05015" lon="2.65251">
        <ele>1387</ele>
        <time>2000-01-01T16:59:48.000Z</time>
      </trkpt>
      <trkpt lat="45.05019" lon="2.6528">
        <ele>1391</ele>
        <time>2000-01-01T16:59:28.000Z</time>
      </trkpt>
      <trkpt lat="45.05026" lon="2.6531">
        <ele>1399</ele>
        <time>2000-01-01T16:59:08.000Z</time>
      </trkpt>
      <trkpt lat="45.05033" lon="2.65342">
        <ele>1406</ele>
        <time>2000-01-01T16:58:48.000Z</time>
      </trkpt>
      <trkpt lat="45.05042" lon="2.65369">
        <ele>1413</ele>
        <time>2000-01-01T16:58:28.000Z</time>
      </trkpt>
      <trkpt lat="45.05054" lon="2.65383">
        <ele>1414.4</ele>
        <time>2000-01-01T16:58:08.000Z</time>
      </trkpt>
      <trkpt lat="45.05068" lon="2.65399">
        <ele>1416</ele>
        <time>2000-01-01T16:57:48.000Z</time>
      </trkpt>
      <trkpt lat="45.05074" lon="2.65416">
        <ele>1415.5</ele>
        <time>2000-01-01T16:57:38.000Z</time>
      </trkpt>
      <trkpt lat="45.05078" lon="2.65435">
        <ele>1421</ele>
        <time>2000-01-01T16:57:18.000Z</time>
      </trkpt>
      <trkpt lat="45.05085" lon="2.65466">
        <ele>1422</ele>
        <time>2000-01-01T16:56:58.000Z</time>
      </trkpt>
      <trkpt lat="45.05089" lon="2.65488">
        <ele>1415.8</ele>
        <time>2000-01-01T16:56:38.000Z</time>
      </trkpt>
      <trkpt lat="45.05096" lon="2.65511">
        <ele>1423</ele>
        <time>2000-01-01T16:56:18.000Z</time>
      </trkpt>
      <trkpt lat="45.05093" lon="2.6553">
        <ele>1413.3</ele>
        <time>2000-01-01T16:55:58.000Z</time>
      </trkpt>
      <trkpt lat="45.05096" lon="2.65553">
        <ele>1423</ele>
        <time>2000-01-01T16:55:38.000Z</time>
      </trkpt>
      <trkpt lat="45.05099" lon="2.65573">
        <ele>1415.1</ele>
        <time>2000-01-01T16:55:18.000Z</time>
      </trkpt>
      <trkpt lat="45.051" lon="2.65595">
        <ele>1423</ele>
        <time>2000-01-01T16:54:58.000Z</time>
      </trkpt>
      <trkpt lat="45.05095" lon="2.65617">
        <ele>1423</ele>
        <time>2000-01-01T16:54:48.000Z</time>
      </trkpt>
      <trkpt lat="45.05101" lon="2.65638">
        <ele>1428</ele>
        <time>2000-01-01T16:54:28.000Z</time>
      </trkpt>
      <trkpt lat="45.05103" lon="2.65671">
        <ele>1436</ele>
        <time>2000-01-01T16:54:08.000Z</time>
      </trkpt>
      <trkpt lat="45.05103" lon="2.65701">
        <ele>1447</ele>
        <time>2000-01-01T16:53:48.000Z</time>
      </trkpt>
      <trkpt lat="45.05103" lon="2.65727">
        <ele>1453.2</ele>
        <time>2000-01-01T16:53:28.000Z</time>
      </trkpt>
      <trkpt lat="45.05105" lon="2.65743">
        <ele>1456</ele>
        <time>2000-01-01T16:53:08.000Z</time>
      </trkpt>
      <trkpt lat="45.05102" lon="2.65759">
        <ele>1456.6</ele>
        <time>2000-01-01T16:52:48.000Z</time>
      </trkpt>
      <trkpt lat="45.05094" lon="2.65778">
        <ele>1458</ele>
        <time>2000-01-01T16:52:28.000Z</time>
      </trkpt>
      <trkpt lat="45.05095" lon="2.65799">
        <ele>1460.2</ele>
        <time>2000-01-01T16:52:08.000Z</time>
      </trkpt>
      <trkpt lat="45.05093" lon="2.65813">
        <ele>1469</ele>
        <time>2000-01-01T16:51:48.000Z</time>
      </trkpt>
      <trkpt lat="45.05091" lon="2.65829">
        <ele>1464.1</ele>
        <time>2000-01-01T16:51:28.000Z</time>
      </trkpt>
      <trkpt lat="45.0509" lon="2.65841">
        <ele>1465.7</ele>
        <time>2000-01-01T16:51:08.000Z</time>
      </trkpt>
      <trkpt lat="45.05085" lon="2.6585">
        <ele>1470</ele>
        <time>2000-01-01T16:50:58.000Z</time>
      </trkpt>
      <trkpt lat="45.05084" lon="2.65863">
        <ele>1471.7</ele>
        <time>2000-01-01T16:50:38.000Z</time>
      </trkpt>
      <trkpt lat="45.05079" lon="2.65887">
        <ele>1472</ele>
        <time>2000-01-01T16:50:18.000Z</time>
      </trkpt>
      <trkpt lat="45.05069" lon="2.65902">
        <ele>1472.6</ele>
        <time>2000-01-01T16:49:58.000Z</time>
      </trkpt>
      <trkpt lat="45.05065" lon="2.65917">
        <ele>1475</ele>
        <time>2000-01-01T16:49:38.000Z</time>
      </trkpt>
      <trkpt lat="45.05064" lon="2.65942">
        <ele>1479.8</ele>
        <time>2000-01-01T16:49:18.000Z</time>
      </trkpt>
      <trkpt lat="45.0506" lon="2.65959">
        <ele>1483</ele>
        <time>2000-01-01T16:48:58.000Z</time>
      </trkpt>
      <trkpt lat="45.05046" lon="2.6599">
        <ele>1496.1</ele>
        <time>2000-01-01T16:48:48.000Z</time>
      </trkpt>
      <trkpt lat="45.05034" lon="2.6601">
        <ele>1502</ele>
        <time>2000-01-01T16:48:28.000Z</time>
      </trkpt>
      <trkpt lat="45.05001" lon="2.66053">
        <ele>1517</ele>
        <time>2000-01-01T16:47:38.000Z</time>
      </trkpt>
      <trkpt lat="45.04998" lon="2.66066">
        <ele>1518</ele>
        <time>2000-01-01T16:47:28.000Z</time>
      </trkpt>
      <trkpt lat="45.04996" lon="2.6608">
        <ele>1523.2</ele>
        <time>2000-01-01T16:45:58.000Z</time>
      </trkpt>
      <trkpt lat="45.04999" lon="2.66093">
        <ele>1523</ele>
        <time>2000-01-01T16:45:48.000Z</time>
      </trkpt>
      <trkpt lat="45.05006" lon="2.661">
        <ele>1527.5</ele>
        <time>2000-01-01T16:44:58.000Z</time>
      </trkpt>
      <trkpt lat="45.05014" lon="2.6611">
        <ele>1530</ele>
        <time>2000-01-01T16:44:08.000Z</time>
      </trkpt>
      <trkpt lat="45.0502" lon="2.66122">
        <ele>1533.5</ele>
        <time>2000-01-01T16:43:18.000Z</time>
      </trkpt>
      <trkpt lat="45.05026" lon="2.66131">
        <ele>1535</ele>
        <time>2000-01-01T16:42:28.000Z</time>
      </trkpt>
      <trkpt lat="45.05032" lon="2.6614">
        <ele>1539.3</ele>
        <time>2000-01-01T16:41:38.000Z</time>
      </trkpt>
      <trkpt lat="45.05038" lon="2.66155">
        <ele>1541</ele>
        <time>2000-01-01T16:40:48.000Z</time>
      </trkpt>
      <trkpt lat="45.0505" lon="2.66167">
        <ele>1547.6</ele>
        <time>2000-01-01T16:40:28.000Z</time>
      </trkpt>
      <trkpt lat="45.05053" lon="2.66181">
        <ele>1550.3</ele>
        <time>2000-01-01T16:40:08.000Z</time>
      </trkpt>
      <trkpt lat="45.05056" lon="2.66192">
        <ele>1551</ele>
        <time>2000-01-01T16:39:48.000Z</time>
      </trkpt>
      <trkpt lat="45.05055" lon="2.66206">
        <ele>1552.8</ele>
        <time>2000-01-01T16:39:28.000Z</time>
      </trkpt>
      <trkpt lat="45.05059" lon="2.66224">
        <ele>1551</ele>
        <time>2000-01-01T16:39:08.000Z</time>
      </trkpt>
      <trkpt lat="45.05063" lon="2.66243">
        <ele>1550.5</ele>
        <time>2000-01-01T16:38:48.000Z</time>
      </trkpt>
      <trkpt lat="45.05068" lon="2.66262">
        <ele>1553</ele>
        <time>2000-01-01T16:38:28.000Z</time>
      </trkpt>
      <trkpt lat="45.05074" lon="2.66272">
        <ele>1554.9</ele>
        <time>2000-01-01T16:38:08.000Z</time>
      </trkpt>
      <trkpt lat="45.05077" lon="2.66283">
        <ele>1558</ele>
        <time>2000-01-01T16:37:48.000Z</time>
      </trkpt>
      <trkpt lat="45.05077" lon="2.66298">
        <ele>1558</ele>
        <time>2000-01-01T16:37:38.000Z</time>
      </trkpt>
      <trkpt lat="45.05079" lon="2.66311">
        <ele>1562.3</ele>
        <time>2000-01-01T16:37:18.000Z</time>
      </trkpt>
      <trkpt lat="45.05082" lon="2.66324">
        <ele>1562</ele>
        <time>2000-01-01T16:36:58.000Z</time>
      </trkpt>
      <trkpt lat="45.05086" lon="2.66336">
        <ele>1561.7</ele>
        <time>2000-01-01T16:36:38.000Z</time>
      </trkpt>
      <trkpt lat="45.05091" lon="2.66343">
        <ele>1559.2</ele>
        <time>2000-01-01T16:36:18.000Z</time>
      </trkpt>
      <trkpt lat="45.05094" lon="2.66356">
        <ele>1562</ele>
        <time>2000-01-01T16:35:58.000Z</time>
      </trkpt>
      <trkpt lat="45.05095" lon="2.66369">
        <ele>1556.2</ele>
        <time>2000-01-01T16:35:38.000Z</time>
      </trkpt>
      <trkpt lat="45.05096" lon="2.66383">
        <ele>1560</ele>
        <time>2000-01-01T16:35:18.000Z</time>
      </trkpt>
      <trkpt lat="45.05096" lon="2.66398">
        <ele>1555.2</ele>
        <time>2000-01-01T16:34:58.000Z</time>
      </trkpt>
      <trkpt lat="45.05096" lon="2.6641">
        <ele>1554.7</ele>
        <time>2000-01-01T16:34:38.000Z</time>
      </trkpt>
      <trkpt lat="45.05101" lon="2.66423">
        <ele>1558</ele>
        <time>2000-01-01T16:34:18.000Z</time>
      </trkpt>
      <trkpt lat="45.05106" lon="2.6643">
        <ele>1555.3</ele>
        <time>2000-01-01T16:33:58.000Z</time>
      </trkpt>
      <trkpt lat="45.0511" lon="2.66441">
        <ele>1556.5</ele>
        <time>2000-01-01T16:33:38.000Z</time>
      </trkpt>
      <trkpt lat="45.05114" lon="2.66451">
        <ele>1558</ele>
        <time>2000-01-01T16:33:28.000Z</time>
      </trkpt>
      <trkpt lat="45.05116" lon="2.66465">
        <ele>1556.4</ele>
        <time>2000-01-01T16:33:08.000Z</time>
      </trkpt>
      <trkpt lat="45.05111" lon="2.66475">
        <ele>1554.9</ele>
        <time>2000-01-01T16:32:48.000Z</time>
      </trkpt>
      <trkpt lat="45.05102" lon="2.66477">
        <ele>1554</ele>
        <time>2000-01-01T16:32:28.000Z</time>
      </trkpt>
      <trkpt lat="45.05092" lon="2.66477">
        <ele>1548.8</ele>
        <time>2000-01-01T16:32:08.000Z</time>
      </trkpt>
      <trkpt lat="45.05081" lon="2.66484">
        <ele>1544</ele>
        <time>2000-01-01T16:31:48.000Z</time>
      </trkpt>
      <trkpt lat="45.05074" lon="2.66493">
        <ele>1539</ele>
        <time>2000-01-01T16:31:28.000Z</time>
      </trkpt>
      <trkpt lat="45.05067" lon="2.66503">
        <ele>1535</ele>
        <time>2000-01-01T16:31:08.000Z</time>
      </trkpt>
      <trkpt lat="45.05058" lon="2.66512">
        <ele>1532</ele>
        <time>2000-01-01T16:30:48.000Z</time>
      </trkpt>
      <trkpt lat="45.05049" lon="2.66522">
        <ele>1528</ele>
        <time>2000-01-01T16:30:28.000Z</time>
      </trkpt>
      <trkpt lat="45.05036" lon="2.6652">
        <ele>1525.6</ele>
        <time>2000-01-01T16:30:08.000Z</time>
      </trkpt>
      <trkpt lat="45.05033" lon="2.66537">
        <ele>1523</ele>
        <time>2000-01-01T16:29:48.000Z</time>
      </trkpt>
      <trkpt lat="45.05028" lon="2.66551">
        <ele>1519.6</ele>
        <time>2000-01-01T16:29:28.000Z</time>
      </trkpt>
      <trkpt lat="45.05015" lon="2.6656">
        <ele>1516</ele>
        <time>2000-01-01T16:29:08.000Z</time>
      </trkpt>
      <trkpt lat="45.05006" lon="2.66566">
        <ele>1512.8</ele>
        <time>2000-01-01T16:28:48.000Z</time>
      </trkpt>
      <trkpt lat="45.05002" lon="2.66575">
        <ele>1511.1</ele>
        <time>2000-01-01T16:28:28.000Z</time>
      </trkpt>
      <trkpt lat="45.04994" lon="2.66582">
        <ele>1509</ele>
        <time>2000-01-01T16:28:08.000Z</time>
      </trkpt>
      <trkpt lat="45.04983" lon="2.66591">
        <ele>1505</ele>
        <time>2000-01-01T16:27:48.000Z</time>
      </trkpt>
      <trkpt lat="45.04976" lon="2.66596">
        <ele>1503.6</ele>
        <time>2000-01-01T16:27:28.000Z</time>
      </trkpt>
      <trkpt lat="45.04972" lon="2.66609">
        <ele>1504</ele>
        <time>2000-01-01T16:27:08.000Z</time>
      </trkpt>
      <trkpt lat="45.04962" lon="2.66621">
        <ele>1497.6</ele>
        <time>2000-01-01T16:26:48.000Z</time>
      </trkpt>
      <trkpt lat="45.04949" lon="2.66633">
        <ele>1497</ele>
        <time>2000-01-01T16:26:28.000Z</time>
      </trkpt>
      <trkpt lat="45.04942" lon="2.66644">
        <ele>1494.2</ele>
        <time>2000-01-01T16:26:08.000Z</time>
      </trkpt>
      <trkpt lat="45.04933" lon="2.66655">
        <ele>1494</ele>
        <time>2000-01-01T16:25:48.000Z</time>
      </trkpt>
      <trkpt lat="45.04922" lon="2.66659">
        <ele>1490</ele>
        <time>2000-01-01T16:25:28.000Z</time>
      </trkpt>
      <trkpt lat="45.04914" lon="2.66656">
        <ele>1493</ele>
        <time>2000-01-01T16:25:08.000Z</time>
      </trkpt>
      <trkpt lat="45.04898" lon="2.6665">
        <ele>1491.9</ele>
        <time>2000-01-01T16:24:58.000Z</time>
      </trkpt>
      <trkpt lat="45.04902" lon="2.66661">
        <ele>1490</ele>
        <time>2000-01-01T16:24:38.000Z</time>
      </trkpt>
      <trkpt lat="45.04908" lon="2.66674">
        <ele>1488.8</ele>
        <time>2000-01-01T16:24:18.000Z</time>
      </trkpt>
      <trkpt lat="45.04914" lon="2.6669">
        <ele>1482.6</ele>
        <time>2000-01-01T16:23:58.000Z</time>
      </trkpt>
      <trkpt lat="45.04917" lon="2.66695">
        <ele>1481</ele>
        <time>2000-01-01T16:23:38.000Z</time>
      </trkpt>
      <trkpt lat="45.04925" lon="2.66696">
        <ele>1477.2</ele>
        <time>2000-01-01T16:23:18.000Z</time>
      </trkpt>
      <trkpt lat="45.04939" lon="2.66698">
        <ele>1478</ele>
        <time>2000-01-01T16:22:58.000Z</time>
      </trkpt>
      <trkpt lat="45.04947" lon="2.667">
        <ele>1470</ele>
        <time>2000-01-01T16:22:38.000Z</time>
      </trkpt>
      <trkpt lat="45.04957" lon="2.66709">
        <ele>1469</ele>
        <time>2000-01-01T16:22:18.000Z</time>
      </trkpt>
      <trkpt lat="45.04967" lon="2.66715">
        <ele>1459.6</ele>
        <time>2000-01-01T16:21:58.000Z</time>
      </trkpt>
      <trkpt lat="45.04978" lon="2.66715">
        <ele>1460</ele>
        <time>2000-01-01T16:21:38.000Z</time>
      </trkpt>
      <trkpt lat="45.04986" lon="2.66713">
        <ele>1454.7</ele>
        <time>2000-01-01T16:21:18.000Z</time>
      </trkpt>
      <trkpt lat="45.04997" lon="2.66712">
        <ele>1455</ele>
        <time>2000-01-01T16:20:58.000Z</time>
      </trkpt>
      <trkpt lat="45.05011" lon="2.66716">
        <ele>1445.6</ele>
        <time>2000-01-01T16:20:38.000Z</time>
      </trkpt>
      <trkpt lat="45.05028" lon="2.66721">
        <ele>1441</ele>
        <time>2000-01-01T16:20:18.000Z</time>
      </trkpt>
      <trkpt lat="45.05041" lon="2.66728">
        <ele>1434.5</ele>
        <time>2000-01-01T16:19:58.000Z</time>
      </trkpt>
      <trkpt lat="45.05054" lon="2.66736">
        <ele>1432</ele>
        <time>2000-01-01T16:19:38.000Z</time>
      </trkpt>
      <trkpt lat="45.05066" lon="2.66744">
        <ele>1427.3</ele>
        <time>2000-01-01T16:19:18.000Z</time>
      </trkpt>
      <trkpt lat="45.05077" lon="2.66755">
        <ele>1424</ele>
        <time>2000-01-01T16:19:08.000Z</time>
      </trkpt>
      <trkpt lat="45.05082" lon="2.66772">
        <ele>1417.8</ele>
        <time>2000-01-01T16:18:48.000Z</time>
      </trkpt>
      <trkpt lat="45.05086" lon="2.66788">
        <ele>1415</ele>
        <time>2000-01-01T16:18:28.000Z</time>
      </trkpt>
      <trkpt lat="45.05095" lon="2.66805">
        <ele>1408.2</ele>
        <time>2000-01-01T16:18:08.000Z</time>
      </trkpt>
      <trkpt lat="45.05105" lon="2.66817">
        <ele>1405</ele>
        <time>2000-01-01T16:17:48.000Z</time>
      </trkpt>
      <trkpt lat="45.05116" lon="2.66832">
        <ele>1401.7</ele>
        <time>2000-01-01T16:17:28.000Z</time>
      </trkpt>
      <trkpt lat="45.05129" lon="2.66841">
        <ele>1400</ele>
        <time>2000-01-01T16:17:08.000Z</time>
      </trkpt>
      <trkpt lat="45.05139" lon="2.66847">
        <ele>1408.1</ele>
        <time>2000-01-01T16:16:48.000Z</time>
      </trkpt>
      <trkpt lat="45.05146" lon="2.66863">
        <ele>1399</ele>
        <time>2000-01-01T16:16:28.000Z</time>
      </trkpt>
      <trkpt lat="45.05152" lon="2.66876">
        <ele>1398.5</ele>
        <time>2000-01-01T16:16:08.000Z</time>
      </trkpt>
      <trkpt lat="45.05159" lon="2.66886">
        <ele>1399</ele>
        <time>2000-01-01T16:15:48.000Z</time>
      </trkpt>
      <trkpt lat="45.05168" lon="2.66903">
        <ele>1389</ele>
        <time>2000-01-01T16:15:28.000Z</time>
      </trkpt>
      <trkpt lat="45.05178" lon="2.66912">
        <ele>1397</ele>
        <time>2000-01-01T16:15:08.000Z</time>
      </trkpt>
      <trkpt lat="45.0519" lon="2.66927">
        <ele>1393.5</ele>
        <time>2000-01-01T16:14:48.000Z</time>
      </trkpt>
      <trkpt lat="45.052" lon="2.66941">
        <ele>1396</ele>
        <time>2000-01-01T16:14:28.000Z</time>
      </trkpt>
      <trkpt lat="45.05212" lon="2.66948">
        <ele>1398.4</ele>
        <time>2000-01-01T16:14:18.000Z</time>
      </trkpt>
      <trkpt lat="45.05229" lon="2.66957">
        <ele>1398</ele>
        <time>2000-01-01T16:13:58.000Z</time>
      </trkpt>
      <trkpt lat="45.05248" lon="2.66966">
        <ele>1401.2</ele>
        <time>2000-01-01T16:13:38.000Z</time>
      </trkpt>
      <trkpt lat="45.05263" lon="2.66976">
        <ele>1400</ele>
        <time>2000-01-01T16:13:18.000Z</time>
      </trkpt>
      <trkpt lat="45.05278" lon="2.66985">
        <ele>1396</ele>
        <time>2000-01-01T16:12:58.000Z</time>
      </trkpt>
      <trkpt lat="45.05295" lon="2.66994">
        <ele>1393</ele>
        <time>2000-01-01T16:12:38.000Z</time>
      </trkpt>
      <trkpt lat="45.05313" lon="2.67004">
        <ele>1390.9</ele>
        <time>2000-01-01T16:12:18.000Z</time>
      </trkpt>
      <trkpt lat="45.05329" lon="2.67017">
        <ele>1392</ele>
        <time>2000-01-01T16:11:58.000Z</time>
      </trkpt>
      <trkpt lat="45.0534" lon="2.67029">
        <ele>1382.9</ele>
        <time>2000-01-01T16:11:38.000Z</time>
      </trkpt>
      <trkpt lat="45.05355" lon="2.67042">
        <ele>1378</ele>
        <time>2000-01-01T16:11:18.000Z</time>
      </trkpt>
      <trkpt lat="45.05367" lon="2.67056">
        <ele>1371.7</ele>
        <time>2000-01-01T16:10:58.000Z</time>
      </trkpt>
      <trkpt lat="45.05381" lon="2.67069">
        <ele>1368</ele>
        <time>2000-01-01T16:10:38.000Z</time>
      </trkpt>
      <trkpt lat="45.05398" lon="2.67083">
        <ele>1365</ele>
        <time>2000-01-01T16:10:18.000Z</time>
      </trkpt>
      <trkpt lat="45.05412" lon="2.67088">
        <ele>1363.4</ele>
        <time>2000-01-01T16:09:58.000Z</time>
      </trkpt>
      <trkpt lat="45.0543" lon="2.67095">
        <ele>1363</ele>
        <time>2000-01-01T16:09:38.000Z</time>
      </trkpt>
      <trkpt lat="45.05448" lon="2.67097">
        <ele>1360.4</ele>
        <time>2000-01-01T16:09:28.000Z</time>
      </trkpt>
      <trkpt lat="45.05457" lon="2.67106">
        <ele>1361</ele>
        <time>2000-01-01T16:09:08.000Z</time>
      </trkpt>
      <trkpt lat="45.05466" lon="2.67109">
        <ele>1356.8</ele>
        <time>2000-01-01T16:08:48.000Z</time>
      </trkpt>
      <trkpt lat="45.05471" lon="2.67131">
        <ele>1355</ele>
        <time>2000-01-01T16:08:28.000Z</time>
      </trkpt>
      <trkpt lat="45.05479" lon="2.67148">
        <ele>1352.2</ele>
        <time>2000-01-01T16:08:08.000Z</time>
      </trkpt>
      <trkpt lat="45.05487" lon="2.67158">
        <ele>1351</ele>
        <time>2000-01-01T16:07:48.000Z</time>
      </trkpt>
      <trkpt lat="45.05501" lon="2.6718">
        <ele>1345.7</ele>
        <time>2000-01-01T16:07:28.000Z</time>
      </trkpt>
      <trkpt lat="45.05509" lon="2.67187">
        <ele>1345</ele>
        <time>2000-01-01T16:07:08.000Z</time>
      </trkpt>
      <trkpt lat="45.0552" lon="2.67192">
        <ele>1341.1</ele>
        <time>2000-01-01T16:06:48.000Z</time>
      </trkpt>
      <trkpt lat="45.05527" lon="2.67205">
        <ele>1340</ele>
        <time>2000-01-01T16:06:28.000Z</time>
      </trkpt>
      <trkpt lat="45.05539" lon="2.67214">
        <ele>1337</ele>
        <time>2000-01-01T16:06:08.000Z</time>
      </trkpt>
      <trkpt lat="45.05547" lon="2.67218">
        <ele>1337</ele>
        <time>2000-01-01T16:05:48.000Z</time>
      </trkpt>
      <trkpt lat="45.05555" lon="2.67228">
        <ele>1334.1</ele>
        <time>2000-01-01T16:05:28.000Z</time>
      </trkpt>
      <trkpt lat="45.05572" lon="2.6723">
        <ele>1332</ele>
        <time>2000-01-01T16:05:08.000Z</time>
      </trkpt>
      <trkpt lat="45.05592" lon="2.67232">
        <ele>1329</ele>
        <time>2000-01-01T16:04:48.000Z</time>
      </trkpt>
      <trkpt lat="45.05611" lon="2.67233">
        <ele>1328.8</ele>
        <time>2000-01-01T16:04:28.000Z</time>
      </trkpt>
      <trkpt lat="45.05624" lon="2.67232">
        <ele>1329</ele>
        <time>2000-01-01T16:04:08.000Z</time>
      </trkpt>
      <trkpt lat="45.05641" lon="2.67238">
        <ele>1327.7</ele>
        <time>2000-01-01T16:03:48.000Z</time>
      </trkpt>
      <trkpt lat="45.05654" lon="2.67236">
        <ele>1326</ele>
        <time>2000-01-01T16:03:28.000Z</time>
      </trkpt>
      <trkpt lat="45.05669" lon="2.67235">
        <ele>1324</ele>
        <time>2000-01-01T16:03:08.000Z</time>
      </trkpt>
      <trkpt lat="45.05681" lon="2.67244">
        <ele>1323</ele>
        <time>2000-01-01T16:02:48.000Z</time>
      </trkpt>
      <trkpt lat="45.05689" lon="2.6726">
        <ele>1322.8</ele>
        <time>2000-01-01T16:02:28.000Z</time>
      </trkpt>
      <trkpt lat="45.05697" lon="2.67275">
        <ele>1322</ele>
        <time>2000-01-01T16:02:08.000Z</time>
      </trkpt>
      <trkpt lat="45.05711" lon="2.67284">
        <ele>1319.5</ele>
        <time>2000-01-01T16:01:48.000Z</time>
      </trkpt>
      <trkpt lat="45.05729" lon="2.67286">
        <ele>1321</ele>
        <time>2000-01-01T16:01:28.000Z</time>
      </trkpt>
      <trkpt lat="45.05738" lon="2.67291">
        <ele>1316.6</ele>
        <time>2000-01-01T16:01:08.000Z</time>
      </trkpt>
      <trkpt lat="45.05747" lon="2.67303">
        <ele>1316</ele>
        <time>2000-01-01T16:00:48.000Z</time>
      </trkpt>
      <trkpt lat="45.05752" lon="2.67319">
        <ele>1310.8</ele>
        <time>2000-01-01T16:00:28.000Z</time>
      </trkpt>
      <trkpt lat="45.05759" lon="2.67325">
        <ele>1310</ele>
        <time>2000-01-01T16:00:08.000Z</time>
      </trkpt>
      <trkpt lat="45.05776" lon="2.67329">
        <ele>1307.9</ele>
        <time>2000-01-01T15:59:48.000Z</time>
      </trkpt>
      <trkpt lat="45.05786" lon="2.67331">
        <ele>1309</ele>
        <time>2000-01-01T15:59:38.000Z</time>
      </trkpt>
      <trkpt lat="45.05796" lon="2.67343">
        <ele>1309</ele>
        <time>2000-01-01T15:59:18.000Z</time>
      </trkpt>
      <trkpt lat="45.05807" lon="2.67352">
        <ele>1309</ele>
        <time>2000-01-01T15:58:58.000Z</time>
      </trkpt>
      <trkpt lat="45.05813" lon="2.67368">
        <ele>1310.2</ele>
        <time>2000-01-01T15:58:38.000Z</time>
      </trkpt>
      <trkpt lat="45.05821" lon="2.67386">
        <ele>1311</ele>
        <time>2000-01-01T15:58:18.000Z</time>
      </trkpt>
      <trkpt lat="45.05838" lon="2.67406">
        <ele>1311</ele>
        <time>2000-01-01T15:57:58.000Z</time>
      </trkpt>
      <trkpt lat="45.05854" lon="2.67426">
        <ele>1311.8</ele>
        <time>2000-01-01T15:57:38.000Z</time>
      </trkpt>
      <trkpt lat="45.05864" lon="2.67439">
        <ele>1312</ele>
        <time>2000-01-01T15:57:18.000Z</time>
      </trkpt>
      <trkpt lat="45.05883" lon="2.67456">
        <ele>1312.1</ele>
        <time>2000-01-01T15:56:58.000Z</time>
      </trkpt>
      <trkpt lat="45.05895" lon="2.67471">
        <ele>1312</ele>
        <time>2000-01-01T15:56:38.000Z</time>
      </trkpt>
      <trkpt lat="45.0591" lon="2.6749">
        <ele>1312</ele>
        <time>2000-01-01T15:56:18.000Z</time>
      </trkpt>
      <trkpt lat="45.05928" lon="2.6751">
        <ele>1314</ele>
        <time>2000-01-01T15:55:58.000Z</time>
      </trkpt>
      <trkpt lat="45.05945" lon="2.67526">
        <ele>1318</ele>
        <time>2000-01-01T15:55:38.000Z</time>
      </trkpt>
      <trkpt lat="45.05962" lon="2.67545">
        <ele>1326</ele>
        <time>2000-01-01T15:55:28.000Z</time>
      </trkpt>
      <trkpt lat="45.05975" lon="2.67562">
        <ele>1327.3</ele>
        <time>2000-01-01T15:55:08.000Z</time>
      </trkpt>
      <trkpt lat="45.0598" lon="2.67582">
        <ele>1326</ele>
        <time>2000-01-01T15:54:48.000Z</time>
      </trkpt>
      <trkpt lat="45.05993" lon="2.67608">
        <ele>1326</ele>
        <time>2000-01-01T15:54:28.000Z</time>
      </trkpt>
      <trkpt lat="45.06001" lon="2.67637">
        <ele>1327.6</ele>
        <time>2000-01-01T15:54:08.000Z</time>
      </trkpt>
      <trkpt lat="45.06007" lon="2.67655">
        <ele>1327</ele>
        <time>2000-01-01T15:53:48.000Z</time>
      </trkpt>
      <trkpt lat="45.06016" lon="2.67679">
        <ele>1330</ele>
        <time>2000-01-01T15:53:28.000Z</time>
      </trkpt>
      <trkpt lat="45.06031" lon="2.67705">
        <ele>1335</ele>
        <time>2000-01-01T15:53:08.000Z</time>
      </trkpt>
      <trkpt lat="45.06036" lon="2.67723">
        <ele>1334.5</ele>
        <time>2000-01-01T15:52:48.000Z</time>
      </trkpt>
      <trkpt lat="45.0605" lon="2.67738">
        <ele>1335</ele>
        <time>2000-01-01T15:52:28.000Z</time>
      </trkpt>
      <trkpt lat="45.06071" lon="2.67757">
        <ele>1339</ele>
        <time>2000-01-01T15:52:08.000Z</time>
      </trkpt>
      <trkpt lat="45.0609" lon="2.67781">
        <ele>1339.6</ele>
        <time>2000-01-01T15:51:48.000Z</time>
      </trkpt>
      <trkpt lat="45.06104" lon="2.67796">
        <ele>1341</ele>
        <time>2000-01-01T15:51:28.000Z</time>
      </trkpt>
      <trkpt lat="45.0612" lon="2.67809">
        <ele>1342.1</ele>
        <time>2000-01-01T15:51:08.000Z</time>
      </trkpt>
      <trkpt lat="45.06136" lon="2.67823">
        <ele>1341</ele>
        <time>2000-01-01T15:50:48.000Z</time>
      </trkpt>
      <trkpt lat="45.06158" lon="2.67838">
        <ele>1342</ele>
        <time>2000-01-01T15:50:28.000Z</time>
      </trkpt>
      <trkpt lat="45.06177" lon="2.67851">
        <ele>1343.3</ele>
        <time>2000-01-01T15:50:08.000Z</time>
      </trkpt>
      <trkpt lat="45.06186" lon="2.67867">
        <ele>1342</ele>
        <time>2000-01-01T15:49:48.000Z</time>
      </trkpt>
      <trkpt lat="45.06191" lon="2.67888">
        <ele>1342.7</ele>
        <time>2000-01-01T15:49:28.000Z</time>
      </trkpt>
      <trkpt lat="45.06196" lon="2.67913">
        <ele>1340</ele>
        <time>2000-01-01T15:49:08.000Z</time>
      </trkpt>
      <trkpt lat="45.06199" lon="2.67942">
        <ele>1339</ele>
        <time>2000-01-01T15:48:48.000Z</time>
      </trkpt>
      <trkpt lat="45.06204" lon="2.67974">
        <ele>1338</ele>
        <time>2000-01-01T15:48:28.000Z</time>
      </trkpt>
      <trkpt lat="45.06207" lon="2.68002">
        <ele>1339</ele>
        <time>2000-01-01T15:48:08.000Z</time>
      </trkpt>
      <trkpt lat="45.06209" lon="2.68025">
        <ele>1339</ele>
        <time>2000-01-01T15:47:58.000Z</time>
      </trkpt>
      <trkpt lat="45.06208" lon="2.6804">
        <ele>1339</ele>
        <time>2000-01-01T15:47:48.000Z</time>
      </trkpt>
      <trkpt lat="45.06203" lon="2.68059">
        <ele>1340.3</ele>
        <time>2000-01-01T15:47:28.000Z</time>
      </trkpt>
      <trkpt lat="45.06208" lon="2.68076">
        <ele>1340</ele>
        <time>2000-01-01T15:47:08.000Z</time>
      </trkpt>
      <trkpt lat="45.06218" lon="2.68099">
        <ele>1341</ele>
        <time>2000-01-01T15:46:48.000Z</time>
      </trkpt>
      <trkpt lat="45.06227" lon="2.68126">
        <ele>1343.8</ele>
        <time>2000-01-01T15:46:28.000Z</time>
      </trkpt>
      <trkpt lat="45.06232" lon="2.68142">
        <ele>1343</ele>
        <time>2000-01-01T15:46:08.000Z</time>
      </trkpt>
      <trkpt lat="45.06242" lon="2.68155">
        <ele>1346.8</ele>
        <time>2000-01-01T15:45:48.000Z</time>
      </trkpt>
      <trkpt lat="45.06248" lon="2.68174">
        <ele>1345</ele>
        <time>2000-01-01T15:45:28.000Z</time>
      </trkpt>
      <trkpt lat="45.06253" lon="2.6819">
        <ele>1347.5</ele>
        <time>2000-01-01T15:45:08.000Z</time>
      </trkpt>
      <trkpt lat="45.0626" lon="2.68201">
        <ele>1347.6</ele>
        <time>2000-01-01T15:44:58.000Z</time>
      </trkpt>
      <trkpt lat="45.06268" lon="2.68206">
        <ele>1346</ele>
        <time>2000-01-01T15:44:48.000Z</time>
      </trkpt>
      <trkpt lat="45.06276" lon="2.68213">
        <ele>1347.5</ele>
        <time>2000-01-01T15:44:38.000Z</time>
      </trkpt>
      <trkpt lat="45.06281" lon="2.68229">
        <ele>1347</ele>
        <time>2000-01-01T15:44:28.000Z</time>
      </trkpt>
      <trkpt lat="45.06287" lon="2.68251">
        <ele>1348.5</ele>
        <time>2000-01-01T15:44:18.000Z</time>
      </trkpt>
      <trkpt lat="45.06294" lon="2.6827">
        <ele>1347</ele>
        <time>2000-01-01T15:43:58.000Z</time>
      </trkpt>
      <trkpt lat="45.06297" lon="2.68278">
        <ele>1346.7</ele>
        <time>2000-01-01T15:43:48.000Z</time>
      </trkpt>
      <trkpt lat="45.063" lon="2.68283">
        <ele>1346.5</ele>
        <time>2000-01-01T15:43:38.000Z</time>
      </trkpt>
      <trkpt lat="45.06307" lon="2.68293">
        <ele>1345</ele>
        <time>2000-01-01T15:43:28.000Z</time>
      </trkpt>
      <trkpt lat="45.06312" lon="2.68299">
        <ele>1344.8</ele>
        <time>2000-01-01T15:43:18.000Z</time>
      </trkpt>
      <trkpt lat="45.06325" lon="2.68309">
        <ele>1343</ele>
        <time>2000-01-01T15:43:08.000Z</time>
      </trkpt>
      <trkpt lat="45.06336" lon="2.68312">
        <ele>1342.2</ele>
        <time>2000-01-01T15:42:58.000Z</time>
      </trkpt>
      <trkpt lat="45.06345" lon="2.68316">
        <ele>1341</ele>
        <time>2000-01-01T15:42:38.000Z</time>
      </trkpt>
      <trkpt lat="45.06354" lon="2.68329">
        <ele>1340.2</ele>
        <time>2000-01-01T15:42:28.000Z</time>
      </trkpt>
      <trkpt lat="45.06357" lon="2.68339">
        <ele>1339.8</ele>
        <time>2000-01-01T15:42:18.000Z</time>
      </trkpt>
      <trkpt lat="45.06358" lon="2.68347">
        <ele>1339</ele>
        <time>2000-01-01T15:42:08.000Z</time>
      </trkpt>
      <trkpt lat="45.06361" lon="2.68367">
        <ele>1339.2</ele>
        <time>2000-01-01T15:41:48.000Z</time>
      </trkpt>
      <trkpt lat="45.06362" lon="2.68389">
        <ele>1339</ele>
        <time>2000-01-01T15:41:28.000Z</time>
      </trkpt>
      <trkpt lat="45.06366" lon="2.68416">
        <ele>1337</ele>
        <time>2000-01-01T15:41:08.000Z</time>
      </trkpt>
      <trkpt lat="45.06371" lon="2.68442">
        <ele>1339</ele>
        <time>2000-01-01T15:40:48.000Z</time>
      </trkpt>
      <trkpt lat="45.06377" lon="2.68464">
        <ele>1337</ele>
        <time>2000-01-01T15:40:28.000Z</time>
      </trkpt>
      <trkpt lat="45.06385" lon="2.68496">
        <ele>1340</ele>
        <time>2000-01-01T15:40:08.000Z</time>
      </trkpt>
      <trkpt lat="45.06392" lon="2.68531">
        <ele>1344</ele>
        <time>2000-01-01T15:39:48.000Z</time>
      </trkpt>
      <trkpt lat="45.06397" lon="2.68567">
        <ele>1345</ele>
        <time>2000-01-01T15:39:28.000Z</time>
      </trkpt>
      <trkpt lat="45.06394" lon="2.686">
        <ele>1348</ele>
        <time>2000-01-01T15:39:08.000Z</time>
      </trkpt>
      <trkpt lat="45.06395" lon="2.68627">
        <ele>1352.9</ele>
        <time>2000-01-01T15:38:48.000Z</time>
      </trkpt>
      <trkpt lat="45.06396" lon="2.6865">
        <ele>1357</ele>
        <time>2000-01-01T15:38:28.000Z</time>
      </trkpt>
      <trkpt lat="45.06391" lon="2.68673">
        <ele>1360.1</ele>
        <time>2000-01-01T15:38:18.000Z</time>
      </trkpt>
      <trkpt lat="45.0639" lon="2.687">
        <ele>1367</ele>
        <time>2000-01-01T15:37:58.000Z</time>
      </trkpt>
      <trkpt lat="45.06389" lon="2.6873">
        <ele>1368</ele>
        <time>2000-01-01T15:37:38.000Z</time>
      </trkpt>
      <trkpt lat="45.06386" lon="2.6876">
        <ele>1368</ele>
        <time>2000-01-01T15:37:18.000Z</time>
      </trkpt>
      <trkpt lat="45.06387" lon="2.68789">
        <ele>1368</ele>
        <time>2000-01-01T15:37:08.000Z</time>
      </trkpt>
      <trkpt lat="45.06388" lon="2.68813">
        <ele>1368.3</ele>
        <time>2000-01-01T15:36:58.000Z</time>
      </trkpt>
      <trkpt lat="45.06387" lon="2.68838">
        <ele>1367</ele>
        <time>2000-01-01T15:36:38.000Z</time>
      </trkpt>
      <trkpt lat="45.06391" lon="2.68893">
        <ele>1364</ele>
        <time>2000-01-01T15:36:28.000Z</time>
      </trkpt>
      <trkpt lat="45.06393" lon="2.68918">
        <ele>1363.6</ele>
        <time>2000-01-01T15:36:18.000Z</time>
      </trkpt>
      <trkpt lat="45.064" lon="2.68938">
        <ele>1362</ele>
        <time>2000-01-01T15:35:58.000Z</time>
      </trkpt>
      <trkpt lat="45.06416" lon="2.68953">
        <ele>1360</ele>
        <time>2000-01-01T15:35:38.000Z</time>
      </trkpt>
      <trkpt lat="45.06433" lon="2.68961">
        <ele>1357.8</ele>
        <time>2000-01-01T15:35:28.000Z</time>
      </trkpt>
      <trkpt lat="45.06442" lon="2.6896">
        <ele>1354</ele>
        <time>2000-01-01T15:35:08.000Z</time>
      </trkpt>
      <trkpt lat="45.06454" lon="2.68968">
        <ele>1354</ele>
        <time>2000-01-01T15:34:58.000Z</time>
      </trkpt>
      <trkpt lat="45.06465" lon="2.6897">
        <ele>1350</ele>
        <time>2000-01-01T15:34:48.000Z</time>
      </trkpt>
      <trkpt lat="45.06479" lon="2.6898">
        <ele>1349.5</ele>
        <time>2000-01-01T15:34:38.000Z</time>
      </trkpt>
      <trkpt lat="45.06495" lon="2.6899">
        <ele>1345</ele>
        <time>2000-01-01T15:34:18.000Z</time>
      </trkpt>
      <trkpt lat="45.06509" lon="2.68992">
        <ele>1346.4</ele>
        <time>2000-01-01T15:34:08.000Z</time>
      </trkpt>
      <trkpt lat="45.06521" lon="2.68987">
        <ele>1340</ele>
        <time>2000-01-01T15:33:58.000Z</time>
      </trkpt>
      <trkpt lat="45.06509" lon="2.68992">
        <ele>1346.4</ele>
        <time>2000-01-01T15:33:48.000Z</time>
      </trkpt>
      <trkpt lat="45.06521" lon="2.68987">
        <ele>1340</ele>
        <time>2000-01-01T15:33:38.000Z</time>
      </trkpt>
      <trkpt lat="45.06538" lon="2.68983">
        <ele>1342.9</ele>
        <time>2000-01-01T15:33:18.000Z</time>
      </trkpt>
      <trkpt lat="45.06556" lon="2.68981">
        <ele>1339</ele>
        <time>2000-01-01T15:33:08.000Z</time>
      </trkpt>
      <trkpt lat="45.06568" lon="2.68985">
        <ele>1340.5</ele>
        <time>2000-01-01T15:32:58.000Z</time>
      </trkpt>
      <trkpt lat="45.06581" lon="2.68995">
        <ele>1339</ele>
        <time>2000-01-01T15:32:48.000Z</time>
      </trkpt>
      <trkpt lat="45.06588" lon="2.69003">
        <ele>1338.5</ele>
        <time>2000-01-01T15:32:28.000Z</time>
      </trkpt>
      <trkpt lat="45.06602" lon="2.69016">
        <ele>1336</ele>
        <time>2000-01-01T15:32:18.000Z</time>
      </trkpt>
      <trkpt lat="45.06612" lon="2.69043">
        <ele>1332</ele>
        <time>2000-01-01T15:32:08.000Z</time>
      </trkpt>
      <trkpt lat="45.06616" lon="2.6906">
        <ele>1329.1</ele>
        <time>2000-01-01T15:31:48.000Z</time>
      </trkpt>
      <trkpt lat="45.06621" lon="2.69081">
        <ele>1331</ele>
        <time>2000-01-01T15:31:28.000Z</time>
      </trkpt>
      <trkpt lat="45.06618" lon="2.69099">
        <ele>1324</ele>
        <time>2000-01-01T15:31:18.000Z</time>
      </trkpt>
      <trkpt lat="45.0661" lon="2.69114">
        <ele>1330</ele>
        <time>2000-01-01T15:31:08.000Z</time>
      </trkpt>
      <trkpt lat="45.06594" lon="2.69132">
        <ele>1330</ele>
        <time>2000-01-01T15:30:58.000Z</time>
      </trkpt>
      <trkpt lat="45.0658" lon="2.69155">
        <ele>1328.1</ele>
        <time>2000-01-01T15:30:48.000Z</time>
      </trkpt>
      <trkpt lat="45.06573" lon="2.69175">
        <ele>1331</ele>
        <time>2000-01-01T15:30:38.000Z</time>
      </trkpt>
      <trkpt lat="45.06571" lon="2.69199">
        <ele>1340.7</ele>
        <time>2000-01-01T15:30:28.000Z</time>
      </trkpt>
      <trkpt lat="45.06577" lon="2.6922">
        <ele>1331</ele>
        <time>2000-01-01T15:30:18.000Z</time>
      </trkpt>
      <trkpt lat="45.06598" lon="2.69223">
        <ele>1340.8</ele>
        <time>2000-01-01T15:29:58.000Z</time>
      </trkpt>
      <trkpt lat="45.06614" lon="2.69222">
        <ele>1331</ele>
        <time>2000-01-01T15:29:48.000Z</time>
      </trkpt>
      <trkpt lat="45.06639" lon="2.6923">
        <ele>1331</ele>
        <time>2000-01-01T15:29:38.000Z</time>
      </trkpt>
      <trkpt lat="45.06657" lon="2.69245">
        <ele>1335</ele>
        <time>2000-01-01T15:29:28.000Z</time>
      </trkpt>
      <trkpt lat="45.06682" lon="2.69258">
        <ele>1336</ele>
        <time>2000-01-01T15:29:18.000Z</time>
      </trkpt>
      <trkpt lat="45.06707" lon="2.69281">
        <ele>1338</ele>
        <time>2000-01-01T15:28:58.000Z</time>
      </trkpt>
      <trkpt lat="45.06718" lon="2.69304">
        <ele>1343</ele>
        <time>2000-01-01T15:28:48.000Z</time>
      </trkpt>
      <trkpt lat="45.06734" lon="2.69332">
        <ele>1343</ele>
        <time>2000-01-01T15:28:08.000Z</time>
      </trkpt>
      <trkpt lat="45.0674" lon="2.69362">
        <ele>1343</ele>
        <time>2000-01-01T15:27:58.000Z</time>
      </trkpt>
      <trkpt lat="45.06746" lon="2.69381">
        <ele>1346.1</ele>
        <time>2000-01-01T15:27:38.000Z</time>
      </trkpt>
      <trkpt lat="45.06752" lon="2.69398">
        <ele>1346</ele>
        <time>2000-01-01T15:26:58.000Z</time>
      </trkpt>
      <trkpt lat="45.06769" lon="2.69418">
        <ele>1344.9</ele>
        <time>2000-01-01T15:26:48.000Z</time>
      </trkpt>
      <trkpt lat="45.0677" lon="2.6942">
        <ele>1345.3</ele>
        <time>2000-01-01T15:26:18.000Z</time>
      </trkpt>
      <trkpt lat="45.06776" lon="2.69429">
        <ele>1349</ele>
        <time>2000-01-01T15:26:08.000Z</time>
      </trkpt>
      <trkpt lat="45.06788" lon="2.69445">
        <ele>1349.2</ele>
        <time>2000-01-01T15:25:58.000Z</time>
      </trkpt>
      <trkpt lat="45.06798" lon="2.69466">
        <ele>1352</ele>
        <time>2000-01-01T15:25:48.000Z</time>
      </trkpt>
      <trkpt lat="45.06814" lon="2.69507">
        <ele>1353</ele>
        <time>2000-01-01T15:25:38.000Z</time>
      </trkpt>
      <trkpt lat="45.06825" lon="2.69541">
        <ele>1355</ele>
        <time>2000-01-01T15:25:28.000Z</time>
      </trkpt>
      <trkpt lat="45.06837" lon="2.69565">
        <ele>1355</ele>
        <time>2000-01-01T15:25:18.000Z</time>
      </trkpt>
      <trkpt lat="45.06843" lon="2.69578">
        <ele>1354.9</ele>
        <time>2000-01-01T15:25:08.000Z</time>
      </trkpt>
      <trkpt lat="45.06849" lon="2.69594">
        <ele>1357</ele>
        <time>2000-01-01T15:24:58.000Z</time>
      </trkpt>
      <trkpt lat="45.06856" lon="2.69616">
        <ele>1355.8</ele>
        <time>2000-01-01T15:24:48.000Z</time>
      </trkpt>
      <trkpt lat="45.06856" lon="2.69619">
        <ele>1356.1</ele>
        <time>2000-01-01T15:24:38.000Z</time>
      </trkpt>
      <trkpt lat="45.06851" lon="2.69625">
        <ele>1357.9</ele>
        <time>2000-01-01T15:24:28.000Z</time>
      </trkpt>
      <trkpt lat="45.06851" lon="2.69632">
        <ele>1358.5</ele>
        <time>2000-01-01T15:24:18.000Z</time>
      </trkpt>
      <trkpt lat="45.06851" lon="2.69639">
        <ele>1358</ele>
        <time>2000-01-01T15:24:08.000Z</time>
      </trkpt>
      <trkpt lat="45.06851" lon="2.69645">
        <ele>1359.6</ele>
        <time>2000-01-01T15:23:58.000Z</time>
      </trkpt>
      <trkpt lat="45.06853" lon="2.69667">
        <ele>1359</ele>
        <time>2000-01-01T15:23:48.000Z</time>
      </trkpt>
      <trkpt lat="45.06855" lon="2.69674">
        <ele>1361.1</ele>
        <time>2000-01-01T15:23:38.000Z</time>
      </trkpt>
      <trkpt lat="45.06857" lon="2.6968">
        <ele>1361.3</ele>
        <time>2000-01-01T15:23:28.000Z</time>
      </trkpt>
      <trkpt lat="45.06858" lon="2.69686">
        <ele>1361.7</ele>
        <time>2000-01-01T15:23:08.000Z</time>
      </trkpt>
      <trkpt lat="45.0686" lon="2.69682">
        <ele>1361.2</ele>
        <time>2000-01-01T15:22:58.000Z</time>
      </trkpt>
      <trkpt lat="45.06862" lon="2.69684">
        <ele>1361</ele>
        <time>2000-01-01T15:22:48.000Z</time>
      </trkpt>
      <trkpt lat="45.06867" lon="2.69685">
        <ele>1361.6</ele>
        <time>2000-01-01T15:22:38.000Z</time>
      </trkpt>
      <trkpt lat="45.06873" lon="2.69684">
        <ele>1361.8</ele>
        <time>2000-01-01T15:22:28.000Z</time>
      </trkpt>
      <trkpt lat="45.06879" lon="2.69685">
        <ele>1362.2</ele>
        <time>2000-01-01T15:22:18.000Z</time>
      </trkpt>
      <trkpt lat="45.06879" lon="2.69691">
        <ele>1362</ele>
        <time>2000-01-01T15:22:08.000Z</time>
      </trkpt>
      <trkpt lat="45.06889" lon="2.69688">
        <ele>1362.8</ele>
        <time>2000-01-01T15:21:58.000Z</time>
      </trkpt>
      <trkpt lat="45.06899" lon="2.69687">
        <ele>1363</ele>
        <time>2000-01-01T15:21:48.000Z</time>
      </trkpt>
      <trkpt lat="45.06912" lon="2.69684">
        <ele>1364.9</ele>
        <time>2000-01-01T15:21:38.000Z</time>
      </trkpt>
      <trkpt lat="45.0692" lon="2.69676">
        <ele>1364</ele>
        <time>2000-01-01T15:21:28.000Z</time>
      </trkpt>
      <trkpt lat="45.06928" lon="2.69671">
        <ele>1368.6</ele>
        <time>2000-01-01T15:21:18.000Z</time>
      </trkpt>
      <trkpt lat="45.06934" lon="2.69659">
        <ele>1366</ele>
        <time>2000-01-01T15:21:08.000Z</time>
      </trkpt>
      <trkpt lat="45.06943" lon="2.69649">
        <ele>1370.1</ele>
        <time>2000-01-01T15:20:58.000Z</time>
      </trkpt>
      <trkpt lat="45.06951" lon="2.6964">
        <ele>1369</ele>
        <time>2000-01-01T15:20:48.000Z</time>
      </trkpt>
      <trkpt lat="45.06957" lon="2.6963">
        <ele>1371.6</ele>
        <time>2000-01-01T15:20:38.000Z</time>
      </trkpt>
      <trkpt lat="45.06966" lon="2.69622">
        <ele>1371</ele>
        <time>2000-01-01T15:20:28.000Z</time>
      </trkpt>
      <trkpt lat="45.06976" lon="2.69615">
        <ele>1375.2</ele>
        <time>2000-01-01T15:20:18.000Z</time>
      </trkpt>
      <trkpt lat="45.06978" lon="2.69613">
        <ele>1375.5</ele>
        <time>2000-01-01T15:20:08.000Z</time>
      </trkpt>
      <trkpt lat="45.06983" lon="2.6961">
        <ele>1376.6</ele>
        <time>2000-01-01T15:19:58.000Z</time>
      </trkpt>
      <trkpt lat="45.06988" lon="2.69606">
        <ele>1374</ele>
        <time>2000-01-01T15:19:48.000Z</time>
      </trkpt>
      <trkpt lat="45.06993" lon="2.69602">
        <ele>1378.4</ele>
        <time>2000-01-01T15:19:38.000Z</time>
      </trkpt>
      <trkpt lat="45.06998" lon="2.69597">
        <ele>1379.2</ele>
        <time>2000-01-01T15:19:28.000Z</time>
      </trkpt>
      <trkpt lat="45.07003" lon="2.69593">
        <ele>1380.4</ele>
        <time>2000-01-01T15:19:18.000Z</time>
      </trkpt>
      <trkpt lat="45.07006" lon="2.69589">
        <ele>1376</ele>
        <time>2000-01-01T15:19:08.000Z</time>
      </trkpt>
      <trkpt lat="45.07017" lon="2.6958">
        <ele>1383.5</ele>
        <time>2000-01-01T15:18:58.000Z</time>
      </trkpt>
      <trkpt lat="45.07027" lon="2.69571">
        <ele>1382</ele>
        <time>2000-01-01T15:18:48.000Z</time>
      </trkpt>
      <trkpt lat="45.07036" lon="2.69564">
        <ele>1386.6</ele>
        <time>2000-01-01T15:18:38.000Z</time>
      </trkpt>
      <trkpt lat="45.07046" lon="2.69556">
        <ele>1385</ele>
        <time>2000-01-01T15:18:28.000Z</time>
      </trkpt>
      <trkpt lat="45.07056" lon="2.69551">
        <ele>1390.8</ele>
        <time>2000-01-01T15:18:18.000Z</time>
      </trkpt>
      <trkpt lat="45.07067" lon="2.69546">
        <ele>1388</ele>
        <time>2000-01-01T15:18:08.000Z</time>
      </trkpt>
      <trkpt lat="45.07071" lon="2.69543">
        <ele>1391.2</ele>
        <time>2000-01-01T15:17:58.000Z</time>
      </trkpt>
      <trkpt lat="45.07076" lon="2.69541">
        <ele>1391.5</ele>
        <time>2000-01-01T15:17:48.000Z</time>
      </trkpt>
      <trkpt lat="45.07079" lon="2.6954">
        <ele>1391.6</ele>
        <time>2000-01-01T15:17:38.000Z</time>
      </trkpt>
      <trkpt lat="45.07087" lon="2.69536">
        <ele>1389</ele>
        <time>2000-01-01T15:17:28.000Z</time>
      </trkpt>
      <trkpt lat="45.07098" lon="2.69526">
        <ele>1391.1</ele>
        <time>2000-01-01T15:17:18.000Z</time>
      </trkpt>
      <trkpt lat="45.07108" lon="2.69519">
        <ele>1390</ele>
        <time>2000-01-01T15:17:08.000Z</time>
      </trkpt>
      <trkpt lat="45.07113" lon="2.69516">
        <ele>1391.8</ele>
        <time>2000-01-01T15:16:58.000Z</time>
      </trkpt>
      <trkpt lat="45.07119" lon="2.69515">
        <ele>1393.3</ele>
        <time>2000-01-01T15:16:48.000Z</time>
      </trkpt>
      <trkpt lat="45.07122" lon="2.69513">
        <ele>1393.6</ele>
        <time>2000-01-01T15:16:38.000Z</time>
      </trkpt>
      <trkpt lat="45.07128" lon="2.69511">
        <ele>1392</ele>
        <time>2000-01-01T15:16:28.000Z</time>
      </trkpt>
      <trkpt lat="45.07135" lon="2.69508">
        <ele>1396.1</ele>
        <time>2000-01-01T15:16:18.000Z</time>
      </trkpt>
      <trkpt lat="45.07141" lon="2.69504">
        <ele>1396</ele>
        <time>2000-01-01T15:16:08.000Z</time>
      </trkpt>
      <trkpt lat="45.07146" lon="2.69502">
        <ele>1395.1</ele>
        <time>2000-01-01T15:15:58.000Z</time>
      </trkpt>
      <trkpt lat="45.0715" lon="2.69502">
        <ele>1398</ele>
        <time>2000-01-01T15:15:48.000Z</time>
      </trkpt>
      <trkpt lat="45.07152" lon="2.69504">
        <ele>1394.9</ele>
        <time>2000-01-01T15:15:38.000Z</time>
      </trkpt>
      <trkpt lat="45.07151" lon="2.69507">
        <ele>1395.4</ele>
        <time>2000-01-01T15:15:28.000Z</time>
      </trkpt>
      <trkpt lat="45.07155" lon="2.6953">
        <ele>1398</ele>
        <time>2000-01-01T15:15:18.000Z</time>
      </trkpt>
      <trkpt lat="45.07156" lon="2.69543">
        <ele>1396.2</ele>
        <time>2000-01-01T15:15:08.000Z</time>
      </trkpt>
      <trkpt lat="45.0716" lon="2.69557">
        <ele>1398</ele>
        <time>2000-01-01T15:14:58.000Z</time>
      </trkpt>
      <trkpt lat="45.07163" lon="2.69572">
        <ele>1394.7</ele>
        <time>2000-01-01T15:14:48.000Z</time>
      </trkpt>
      <trkpt lat="45.07166" lon="2.69585">
        <ele>1396</ele>
        <time>2000-01-01T15:14:38.000Z</time>
      </trkpt>
      <trkpt lat="45.0717" lon="2.696">
        <ele>1394.4</ele>
        <time>2000-01-01T15:14:28.000Z</time>
      </trkpt>
      <trkpt lat="45.07174" lon="2.69613">
        <ele>1395</ele>
        <time>2000-01-01T15:14:18.000Z</time>
      </trkpt>
      <trkpt lat="45.07175" lon="2.69627">
        <ele>1394.6</ele>
        <time>2000-01-01T15:14:08.000Z</time>
      </trkpt>
      <trkpt lat="45.0718" lon="2.69642">
        <ele>1393</ele>
        <time>2000-01-01T15:13:58.000Z</time>
      </trkpt>
      <trkpt lat="45.07185" lon="2.69656">
        <ele>1392.9</ele>
        <time>2000-01-01T15:13:48.000Z</time>
      </trkpt>
      <trkpt lat="45.07191" lon="2.69666">
        <ele>1392</ele>
        <time>2000-01-01T15:13:38.000Z</time>
      </trkpt>
      <trkpt lat="45.07193" lon="2.6968">
        <ele>1391.3</ele>
        <time>2000-01-01T15:13:28.000Z</time>
      </trkpt>
      <trkpt lat="45.07195" lon="2.69694">
        <ele>1391</ele>
        <time>2000-01-01T15:13:18.000Z</time>
      </trkpt>
      <trkpt lat="45.07204" lon="2.69701">
        <ele>1389.9</ele>
        <time>2000-01-01T15:13:08.000Z</time>
      </trkpt>
      <trkpt lat="45.07211" lon="2.69708">
        <ele>1390</ele>
        <time>2000-01-01T15:12:58.000Z</time>
      </trkpt>
      <trkpt lat="45.07216" lon="2.69721">
        <ele>1390.9</ele>
        <time>2000-01-01T15:12:48.000Z</time>
      </trkpt>
      <trkpt lat="45.07224" lon="2.69728">
        <ele>1390</ele>
        <time>2000-01-01T15:12:38.000Z</time>
      </trkpt>
      <trkpt lat="45.07227" lon="2.69729">
        <ele>1390.9</ele>
        <time>2000-01-01T15:12:28.000Z</time>
      </trkpt>
      <trkpt lat="45.07233" lon="2.69731">
        <ele>1391.1</ele>
        <time>2000-01-01T15:12:18.000Z</time>
      </trkpt>
      <trkpt lat="45.07238" lon="2.69737">
        <ele>1391.4</ele>
        <time>2000-01-01T15:12:08.000Z</time>
      </trkpt>
      <trkpt lat="45.07242" lon="2.6974">
        <ele>1391.7</ele>
        <time>2000-01-01T15:11:58.000Z</time>
      </trkpt>
      <trkpt lat="45.07243" lon="2.69742">
        <ele>1392</ele>
        <time>2000-01-01T15:11:48.000Z</time>
      </trkpt>
      <trkpt lat="45.07246" lon="2.69746">
        <ele>1392.3</ele>
        <time>2000-01-01T15:11:38.000Z</time>
      </trkpt>
      <trkpt lat="45.07247" lon="2.69748">
        <ele>1392.6</ele>
        <time>2000-01-01T15:11:28.000Z</time>
      </trkpt>
      <trkpt lat="45.07248" lon="2.6975">
        <ele>1392.8</ele>
        <time>2000-01-01T15:11:18.000Z</time>
      </trkpt>
      <trkpt lat="45.07251" lon="2.69754">
        <ele>1393.2</ele>
        <time>2000-01-01T15:11:08.000Z</time>
      </trkpt>
      <trkpt lat="45.07261" lon="2.6976">
        <ele>1394</ele>
        <time>2000-01-01T15:10:58.000Z</time>
      </trkpt>
      <trkpt lat="45.07271" lon="2.69764">
        <ele>1395.4</ele>
        <time>2000-01-01T15:10:48.000Z</time>
      </trkpt>
      <trkpt lat="45.0728" lon="2.69771">
        <ele>1397</ele>
        <time>2000-01-01T15:10:38.000Z</time>
      </trkpt>
      <trkpt lat="45.07289" lon="2.6978">
        <ele>1396.7</ele>
        <time>2000-01-01T15:10:28.000Z</time>
      </trkpt>
      <trkpt lat="45.07298" lon="2.69789">
        <ele>1397</ele>
        <time>2000-01-01T15:10:18.000Z</time>
      </trkpt>
      <trkpt lat="45.07308" lon="2.69795">
        <ele>1397</ele>
        <time>2000-01-01T15:10:08.000Z</time>
      </trkpt>
      <trkpt lat="45.07318" lon="2.69795">
        <ele>1397</ele>
        <time>2000-01-01T15:09:58.000Z</time>
      </trkpt>
      <trkpt lat="45.07326" lon="2.69786">
        <ele>1398.3</ele>
        <time>2000-01-01T15:09:48.000Z</time>
      </trkpt>
      <trkpt lat="45.07334" lon="2.69779">
        <ele>1397</ele>
        <time>2000-01-01T15:09:38.000Z</time>
      </trkpt>
      <trkpt lat="45.07341" lon="2.69768">
        <ele>1399.3</ele>
        <time>2000-01-01T15:09:28.000Z</time>
      </trkpt>
      <trkpt lat="45.0735" lon="2.69757">
        <ele>1398</ele>
        <time>2000-01-01T15:09:18.000Z</time>
      </trkpt>
      <trkpt lat="45.07358" lon="2.69748">
        <ele>1402.9</ele>
        <time>2000-01-01T15:09:08.000Z</time>
      </trkpt>
      <trkpt lat="45.07366" lon="2.6974">
        <ele>1401</ele>
        <time>2000-01-01T15:08:58.000Z</time>
      </trkpt>
      <trkpt lat="45.07375" lon="2.69738">
        <ele>1404</ele>
        <time>2000-01-01T15:08:48.000Z</time>
      </trkpt>
      <trkpt lat="45.07384" lon="2.69736">
        <ele>1405.6</ele>
        <time>2000-01-01T15:08:38.000Z</time>
      </trkpt>
      <trkpt lat="45.07393" lon="2.69732">
        <ele>1403</ele>
        <time>2000-01-01T15:08:28.000Z</time>
      </trkpt>
      <trkpt lat="45.07402" lon="2.69727">
        <ele>1406.7</ele>
        <time>2000-01-01T15:08:18.000Z</time>
      </trkpt>
      <trkpt lat="45.07407" lon="2.69724">
        <ele>1406.9</ele>
        <time>2000-01-01T15:08:08.000Z</time>
      </trkpt>
      <trkpt lat="45.07411" lon="2.6972">
        <ele>1404</ele>
        <time>2000-01-01T15:07:58.000Z</time>
      </trkpt>
      <trkpt lat="45.07425" lon="2.69708">
        <ele>1406.5</ele>
        <time>2000-01-01T15:07:48.000Z</time>
      </trkpt>
      <trkpt lat="45.07434" lon="2.69707">
        <ele>1405</ele>
        <time>2000-01-01T15:07:38.000Z</time>
      </trkpt>
      <trkpt lat="45.07442" lon="2.69715">
        <ele>1409.7</ele>
        <time>2000-01-01T15:07:28.000Z</time>
      </trkpt>
      <trkpt lat="45.07449" lon="2.69727">
        <ele>1409</ele>
        <time>2000-01-01T15:07:18.000Z</time>
      </trkpt>
      <trkpt lat="45.07455" lon="2.69739">
        <ele>1406.6</ele>
        <time>2000-01-01T15:07:08.000Z</time>
      </trkpt>
      <trkpt lat="45.07455" lon="2.69753">
        <ele>1408.9</ele>
        <time>2000-01-01T15:06:58.000Z</time>
      </trkpt>
      <trkpt lat="45.07458" lon="2.69766">
        <ele>1409</ele>
        <time>2000-01-01T15:06:48.000Z</time>
      </trkpt>
      <trkpt lat="45.0746" lon="2.69778">
        <ele>1407</ele>
        <time>2000-01-01T15:06:38.000Z</time>
      </trkpt>
      <trkpt lat="45.07462" lon="2.69786">
        <ele>1406</ele>
        <time>2000-01-01T15:06:28.000Z</time>
      </trkpt>
      <trkpt lat="45.07464" lon="2.69793">
        <ele>1406</ele>
        <time>2000-01-01T15:06:18.000Z</time>
      </trkpt>
      <trkpt lat="45.07467" lon="2.69814">
        <ele>1403.4</ele>
        <time>2000-01-01T15:06:08.000Z</time>
      </trkpt>
      <trkpt lat="45.07471" lon="2.69834">
        <ele>1402</ele>
        <time>2000-01-01T15:05:58.000Z</time>
      </trkpt>
      <trkpt lat="45.07475" lon="2.69849">
        <ele>1400</ele>
        <time>2000-01-01T15:05:48.000Z</time>
      </trkpt>
      <trkpt lat="45.07479" lon="2.69862">
        <ele>1402</ele>
        <time>2000-01-01T15:05:38.000Z</time>
      </trkpt>
      <trkpt lat="45.0748" lon="2.69875">
        <ele>1397.6</ele>
        <time>2000-01-01T15:05:28.000Z</time>
      </trkpt>
      <trkpt lat="45.07482" lon="2.69889">
        <ele>1399</ele>
        <time>2000-01-01T15:05:18.000Z</time>
      </trkpt>
      <trkpt lat="45.07482" lon="2.69903">
        <ele>1395.4</ele>
        <time>2000-01-01T15:05:08.000Z</time>
      </trkpt>
      <trkpt lat="45.07482" lon="2.69918">
        <ele>1396</ele>
        <time>2000-01-01T15:04:58.000Z</time>
      </trkpt>
      <trkpt lat="45.07483" lon="2.69922">
        <ele>1393.4</ele>
        <time>2000-01-01T15:04:48.000Z</time>
      </trkpt>
      <trkpt lat="45.07482" lon="2.69929">
        <ele>1392.8</ele>
        <time>2000-01-01T15:04:38.000Z</time>
      </trkpt>
      <trkpt lat="45.07481" lon="2.69938">
        <ele>1391.7</ele>
        <time>2000-01-01T15:04:28.000Z</time>
      </trkpt>
      <trkpt lat="45.07481" lon="2.69947">
        <ele>1392</ele>
        <time>2000-01-01T15:04:18.000Z</time>
      </trkpt>
      <trkpt lat="45.07481" lon="2.69953">
        <ele>1390.7</ele>
        <time>2000-01-01T15:04:08.000Z</time>
      </trkpt>
      <trkpt lat="45.07479" lon="2.69957">
        <ele>1390.8</ele>
        <time>2000-01-01T15:03:58.000Z</time>
      </trkpt>
      <trkpt lat="45.07479" lon="2.69954">
        <ele>1390.8</ele>
        <time>2000-01-01T15:03:48.000Z</time>
      </trkpt>
      <trkpt lat="45.0748" lon="2.69954">
        <ele>1390.8</ele>
        <time>2000-01-01T15:03:38.000Z</time>
      </trkpt>
      <trkpt lat="45.07481" lon="2.69957">
        <ele>1390.7</ele>
        <time>2000-01-01T15:03:28.000Z</time>
      </trkpt>
      <trkpt lat="45.07485" lon="2.69962">
        <ele>1390.6</ele>
        <time>2000-01-01T15:03:18.000Z</time>
      </trkpt>
      <trkpt lat="45.07487" lon="2.69962">
        <ele>1391</ele>
        <time>2000-01-01T15:03:08.000Z</time>
      </trkpt>
      <trkpt lat="45.07491" lon="2.69966">
        <ele>1390.9</ele>
        <time>2000-01-01T15:02:58.000Z</time>
      </trkpt>
      <trkpt lat="45.07495" lon="2.69969">
        <ele>1391.3</ele>
        <time>2000-01-01T15:02:48.000Z</time>
      </trkpt>
      <trkpt lat="45.07501" lon="2.69972">
        <ele>1392</ele>
        <time>2000-01-01T15:02:38.000Z</time>
      </trkpt>
      <trkpt lat="45.07506" lon="2.69975">
        <ele>1391</ele>
        <time>2000-01-01T15:02:28.000Z</time>
      </trkpt>
      <trkpt lat="45.0751" lon="2.6998">
        <ele>1393.4</ele>
        <time>2000-01-01T15:02:18.000Z</time>
      </trkpt>
      <trkpt lat="45.07511" lon="2.6998">
        <ele>1393.4</ele>
        <time>2000-01-01T15:02:08.000Z</time>
      </trkpt>
      <trkpt lat="45.07511" lon="2.69983">
        <ele>1393.9</ele>
        <time>2000-01-01T15:01:58.000Z</time>
      </trkpt>
      <trkpt lat="45.07514" lon="2.69998">
        <ele>1395</ele>
        <time>2000-01-01T15:01:48.000Z</time>
      </trkpt>
      <trkpt lat="45.07517" lon="2.7001">
        <ele>1398.6</ele>
        <time>2000-01-01T15:01:38.000Z</time>
      </trkpt>
      <trkpt lat="45.07523" lon="2.70017">
        <ele>1400.3</ele>
        <time>2000-01-01T15:01:28.000Z</time>
      </trkpt>
      <trkpt lat="45.07526" lon="2.7003">
        <ele>1403</ele>
        <time>2000-01-01T15:01:18.000Z</time>
      </trkpt>
      <trkpt lat="45.07529" lon="2.70042">
        <ele>1405</ele>
        <time>2000-01-01T15:01:08.000Z</time>
      </trkpt>
      <trkpt lat="45.07537" lon="2.70054">
        <ele>1406</ele>
        <time>2000-01-01T15:00:58.000Z</time>
      </trkpt>
      <trkpt lat="45.07546" lon="2.70059">
        <ele>1407.4</ele>
        <time>2000-01-01T15:00:48.000Z</time>
      </trkpt>
      <trkpt lat="45.07554" lon="2.70065">
        <ele>1407</ele>
        <time>2000-01-01T15:00:38.000Z</time>
      </trkpt>
      <trkpt lat="45.07564" lon="2.70071">
        <ele>1410.6</ele>
        <time>2000-01-01T15:00:28.000Z</time>
      </trkpt>
      <trkpt lat="45.07567" lon="2.70072">
        <ele>1411</ele>
        <time>2000-01-01T15:00:18.000Z</time>
      </trkpt>
      <trkpt lat="45.07572" lon="2.70074">
        <ele>1411.9</ele>
        <time>2000-01-01T15:00:08.000Z</time>
      </trkpt>
      <trkpt lat="45.07579" lon="2.70082">
        <ele>1413</ele>
        <time>2000-01-01T14:59:58.000Z</time>
      </trkpt>
      <trkpt lat="45.07584" lon="2.7009">
        <ele>1415.9</ele>
        <time>2000-01-01T14:59:48.000Z</time>
      </trkpt>
      <trkpt lat="45.0759" lon="2.70106">
        <ele>1417</ele>
        <time>2000-01-01T14:59:38.000Z</time>
      </trkpt>
      <trkpt lat="45.07593" lon="2.70119">
        <ele>1418.6</ele>
        <time>2000-01-01T14:59:28.000Z</time>
      </trkpt>
      <trkpt lat="45.07597" lon="2.70128">
        <ele>1419</ele>
        <time>2000-01-01T14:59:18.000Z</time>
      </trkpt>
      <trkpt lat="45.076" lon="2.70135">
        <ele>1419.4</ele>
        <time>2000-01-01T14:59:08.000Z</time>
      </trkpt>
      <trkpt lat="45.07602" lon="2.70141">
        <ele>1421</ele>
        <time>2000-01-01T14:58:58.000Z</time>
      </trkpt>
      <trkpt lat="45.07601" lon="2.70144">
        <ele>1420.1</ele>
        <time>2000-01-01T14:58:48.000Z</time>
      </trkpt>
      <trkpt lat="45.07602" lon="2.70148">
        <ele>1420.3</ele>
        <time>2000-01-01T14:58:38.000Z</time>
      </trkpt>
      <trkpt lat="45.07603" lon="2.70152">
        <ele>1420.6</ele>
        <time>2000-01-01T14:58:28.000Z</time>
      </trkpt>
      <trkpt lat="45.07603" lon="2.70161">
        <ele>1421.3</ele>
        <time>2000-01-01T14:58:18.000Z</time>
      </trkpt>
      <trkpt lat="45.07604" lon="2.70168">
        <ele>1421</ele>
        <time>2000-01-01T14:58:08.000Z</time>
      </trkpt>
      <trkpt lat="45.07607" lon="2.70175">
        <ele>1422.3</ele>
        <time>2000-01-01T14:57:58.000Z</time>
      </trkpt>
      <trkpt lat="45.07609" lon="2.70181">
        <ele>1423.1</ele>
        <time>2000-01-01T14:57:48.000Z</time>
      </trkpt>
      <trkpt lat="45.07614" lon="2.70188">
        <ele>1424.4</ele>
        <time>2000-01-01T14:57:38.000Z</time>
      </trkpt>
      <trkpt lat="45.07617" lon="2.70194">
        <ele>1424</ele>
        <time>2000-01-01T14:57:28.000Z</time>
      </trkpt>
      <trkpt lat="45.07619" lon="2.70199">
        <ele>1425.6</ele>
        <time>2000-01-01T14:57:18.000Z</time>
      </trkpt>
      <trkpt lat="45.07622" lon="2.70204">
        <ele>1426.1</ele>
        <time>2000-01-01T14:57:08.000Z</time>
      </trkpt>
      <trkpt lat="45.07624" lon="2.70212">
        <ele>1427</ele>
        <time>2000-01-01T14:56:58.000Z</time>
      </trkpt>
      <trkpt lat="45.07627" lon="2.70217">
        <ele>1426</ele>
        <time>2000-01-01T14:56:48.000Z</time>
      </trkpt>
      <trkpt lat="45.07629" lon="2.70217">
        <ele>1428</ele>
        <time>2000-01-01T14:56:38.000Z</time>
      </trkpt>
      <trkpt lat="45.07631" lon="2.70218">
        <ele>1428.4</ele>
        <time>2000-01-01T14:56:28.000Z</time>
      </trkpt>
      <trkpt lat="45.07637" lon="2.70221">
        <ele>1429.6</ele>
        <time>2000-01-01T14:56:18.000Z</time>
      </trkpt>
      <trkpt lat="45.0764" lon="2.70225">
        <ele>1430</ele>
        <time>2000-01-01T14:56:08.000Z</time>
      </trkpt>
      <trkpt lat="45.07642" lon="2.70225">
        <ele>1429.9</ele>
        <time>2000-01-01T14:55:58.000Z</time>
      </trkpt>
      <trkpt lat="45.07645" lon="2.70225">
        <ele>1429</ele>
        <time>2000-01-01T14:55:48.000Z</time>
      </trkpt>
      <trkpt lat="45.07648" lon="2.70225">
        <ele>1429.5</ele>
        <time>2000-01-01T14:55:38.000Z</time>
      </trkpt>
      <trkpt lat="45.07654" lon="2.70224">
        <ele>1429</ele>
        <time>2000-01-01T14:55:28.000Z</time>
      </trkpt>
      <trkpt lat="45.07658" lon="2.70226">
        <ele>1428.9</ele>
        <time>2000-01-01T14:55:18.000Z</time>
      </trkpt>
      <trkpt lat="45.0766" lon="2.70228">
        <ele>1428.8</ele>
        <time>2000-01-01T14:55:08.000Z</time>
      </trkpt>
      <trkpt lat="45.07664" lon="2.70233">
        <ele>1429</ele>
        <time>2000-01-01T14:54:58.000Z</time>
      </trkpt>
      <trkpt lat="45.07667" lon="2.70236">
        <ele>1429</ele>
        <time>2000-01-01T14:54:48.000Z</time>
      </trkpt>
      <trkpt lat="45.07669" lon="2.70238">
        <ele>1429</ele>
        <time>2000-01-01T14:54:38.000Z</time>
      </trkpt>
      <trkpt lat="45.07671" lon="2.7024">
        <ele>1429</ele>
        <time>2000-01-01T14:54:28.000Z</time>
      </trkpt>
      <trkpt lat="45.07675" lon="2.70244">
        <ele>1429.2</ele>
        <time>2000-01-01T14:54:18.000Z</time>
      </trkpt>
      <trkpt lat="45.07678" lon="2.70248">
        <ele>1429.7</ele>
        <time>2000-01-01T14:54:08.000Z</time>
      </trkpt>
      <trkpt lat="45.0768" lon="2.70247">
        <ele>1430</ele>
        <time>2000-01-01T14:53:58.000Z</time>
      </trkpt>
      <trkpt lat="45.07693" lon="2.70248">
        <ele>1429.5</ele>
        <time>2000-01-01T14:53:48.000Z</time>
      </trkpt>
      <trkpt lat="45.07703" lon="2.70251">
        <ele>1430</ele>
        <time>2000-01-01T14:53:38.000Z</time>
      </trkpt>
      <trkpt lat="45.07713" lon="2.70259">
        <ele>1432.6</ele>
        <time>2000-01-01T14:53:28.000Z</time>
      </trkpt>
      <trkpt lat="45.07722" lon="2.70261">
        <ele>1433.6</ele>
        <time>2000-01-01T14:53:18.000Z</time>
      </trkpt>
      <trkpt lat="45.07725" lon="2.70261">
        <ele>1430</ele>
        <time>2000-01-01T14:53:08.000Z</time>
      </trkpt>
      <trkpt lat="45.07731" lon="2.70261">
        <ele>1434.5</ele>
        <time>2000-01-01T14:52:58.000Z</time>
      </trkpt>
      <trkpt lat="45.07737" lon="2.70257">
        <ele>1433.9</ele>
        <time>2000-01-01T14:52:48.000Z</time>
      </trkpt>
      <trkpt lat="45.07742" lon="2.70254">
        <ele>1433.4</ele>
        <time>2000-01-01T14:52:38.000Z</time>
      </trkpt>
      <trkpt lat="45.07747" lon="2.70252">
        <ele>1431</ele>
        <time>2000-01-01T14:52:28.000Z</time>
      </trkpt>
      <trkpt lat="45.07751" lon="2.70249">
        <ele>1432.7</ele>
        <time>2000-01-01T14:52:18.000Z</time>
      </trkpt>
      <trkpt lat="45.07757" lon="2.70247">
        <ele>1432.7</ele>
        <time>2000-01-01T14:52:08.000Z</time>
      </trkpt>
      <trkpt lat="45.07762" lon="2.70244">
        <ele>1432.1</ele>
        <time>2000-01-01T14:51:58.000Z</time>
      </trkpt>
      <trkpt lat="45.07767" lon="2.70243">
        <ele>1430</ele>
        <time>2000-01-01T14:51:48.000Z</time>
      </trkpt>
      <trkpt lat="45.07772" lon="2.70242">
        <ele>1432.5</ele>
        <time>2000-01-01T14:51:38.000Z</time>
      </trkpt>
      <trkpt lat="45.07785" lon="2.7024">
        <ele>1433.3</ele>
        <time>2000-01-01T14:51:28.000Z</time>
      </trkpt>
      <trkpt lat="45.07787" lon="2.70238">
        <ele>1429</ele>
        <time>2000-01-01T14:51:18.000Z</time>
      </trkpt>
      <trkpt lat="45.07791" lon="2.70236">
        <ele>1432.6</ele>
        <time>2000-01-01T14:51:08.000Z</time>
      </trkpt>
      <trkpt lat="45.07805" lon="2.70228">
        <ele>1431.2</ele>
        <time>2000-01-01T14:50:58.000Z</time>
      </trkpt>
      <trkpt lat="45.07807" lon="2.70227">
        <ele>1426</ele>
        <time>2000-01-01T14:50:48.000Z</time>
      </trkpt>
      <trkpt lat="45.07813" lon="2.70227">
        <ele>1431.4</ele>
        <time>2000-01-01T14:50:38.000Z</time>
      </trkpt>
      <trkpt lat="45.0782" lon="2.70224">
        <ele>1430.7</ele>
        <time>2000-01-01T14:50:28.000Z</time>
      </trkpt>
      <trkpt lat="45.07827" lon="2.7022">
        <ele>1426</ele>
        <time>2000-01-01T14:50:18.000Z</time>
      </trkpt>
      <trkpt lat="45.07832" lon="2.70217">
        <ele>1428.8</ele>
        <time>2000-01-01T14:50:08.000Z</time>
      </trkpt>
      <trkpt lat="45.07836" lon="2.70216">
        <ele>1428.5</ele>
        <time>2000-01-01T14:49:58.000Z</time>
      </trkpt>
      <trkpt lat="45.07841" lon="2.70214">
        <ele>1427.7</ele>
        <time>2000-01-01T14:49:48.000Z</time>
      </trkpt>
      <trkpt lat="45.07846" lon="2.70212">
        <ele>1425</ele>
        <time>2000-01-01T14:49:38.000Z</time>
      </trkpt>
      <trkpt lat="45.07858" lon="2.70211">
        <ele>1426.6</ele>
        <time>2000-01-01T14:49:28.000Z</time>
      </trkpt>
      <trkpt lat="45.07867" lon="2.70207">
        <ele>1425</ele>
        <time>2000-01-01T14:49:18.000Z</time>
      </trkpt>
      <trkpt lat="45.07869" lon="2.70207">
        <ele>1425.2</ele>
        <time>2000-01-01T14:49:08.000Z</time>
      </trkpt>
      <trkpt lat="45.07873" lon="2.70205">
        <ele>1424.5</ele>
        <time>2000-01-01T14:48:58.000Z</time>
      </trkpt>
      <trkpt lat="45.07877" lon="2.70204">
        <ele>1424.2</ele>
        <time>2000-01-01T14:48:48.000Z</time>
      </trkpt>
      <trkpt lat="45.07882" lon="2.70203">
        <ele>1423.9</ele>
        <time>2000-01-01T14:48:38.000Z</time>
      </trkpt>
      <trkpt lat="45.07888" lon="2.70202">
        <ele>1423</ele>
        <time>2000-01-01T14:48:28.000Z</time>
      </trkpt>
      <trkpt lat="45.07892" lon="2.70201">
        <ele>1423.3</ele>
        <time>2000-01-01T14:48:18.000Z</time>
      </trkpt>
      <trkpt lat="45.07895" lon="2.702">
        <ele>1423</ele>
        <time>2000-01-01T14:48:08.000Z</time>
      </trkpt>
      <trkpt lat="45.07901" lon="2.702">
        <ele>1423.4</ele>
        <time>2000-01-01T14:47:58.000Z</time>
      </trkpt>
      <trkpt lat="45.07906" lon="2.70202">
        <ele>1424.6</ele>
        <time>2000-01-01T14:47:48.000Z</time>
      </trkpt>
      <trkpt lat="45.07906" lon="2.70204">
        <ele>1425.5</ele>
        <time>2000-01-01T14:47:38.000Z</time>
      </trkpt>
      <trkpt lat="45.07908" lon="2.70205">
        <ele>1423</ele>
        <time>2000-01-01T14:47:28.000Z</time>
      </trkpt>
      <trkpt lat="45.07919" lon="2.70207">
        <ele>1427.6</ele>
        <time>2000-01-01T14:47:18.000Z</time>
      </trkpt>
      <trkpt lat="45.0793" lon="2.70205">
        <ele>1426</ele>
        <time>2000-01-01T14:47:08.000Z</time>
      </trkpt>
      <trkpt lat="45.07941" lon="2.70202">
        <ele>1427.7</ele>
        <time>2000-01-01T14:46:58.000Z</time>
      </trkpt>
      <trkpt lat="45.0795" lon="2.702">
        <ele>1427.8</ele>
        <time>2000-01-01T14:46:48.000Z</time>
      </trkpt>
      <trkpt lat="45.0796" lon="2.70199">
        <ele>1426</ele>
        <time>2000-01-01T14:46:38.000Z</time>
      </trkpt>
      <trkpt lat="45.0797" lon="2.70198">
        <ele>1429.3</ele>
        <time>2000-01-01T14:46:28.000Z</time>
      </trkpt>
      <trkpt lat="45.07981" lon="2.70196">
        <ele>1429.3</ele>
        <time>2000-01-01T14:46:18.000Z</time>
      </trkpt>
      <trkpt lat="45.07983" lon="2.70197">
        <ele>1426</ele>
        <time>2000-01-01T14:46:08.000Z</time>
      </trkpt>
      <trkpt lat="45.07989" lon="2.70197">
        <ele>1430.3</ele>
        <time>2000-01-01T14:45:58.000Z</time>
      </trkpt>
      <trkpt lat="45.07992" lon="2.70197">
        <ele>1430.5</ele>
        <time>2000-01-01T14:45:48.000Z</time>
      </trkpt>
      <trkpt lat="45.08" lon="2.70196">
        <ele>1430.6</ele>
        <time>2000-01-01T14:45:38.000Z</time>
      </trkpt>
      <trkpt lat="45.08006" lon="2.70195">
        <ele>1428</ele>
        <time>2000-01-01T14:45:28.000Z</time>
      </trkpt>
      <trkpt lat="45.08019" lon="2.70193">
        <ele>1429.5</ele>
        <time>2000-01-01T14:45:18.000Z</time>
      </trkpt>
      <trkpt lat="45.0803" lon="2.70192">
        <ele>1428</ele>
        <time>2000-01-01T14:45:08.000Z</time>
      </trkpt>
      <trkpt lat="45.08039" lon="2.70192">
        <ele>1429.5</ele>
        <time>2000-01-01T14:44:58.000Z</time>
      </trkpt>
      <trkpt lat="45.0805" lon="2.70194">
        <ele>1428</ele>
        <time>2000-01-01T14:44:48.000Z</time>
      </trkpt>
      <trkpt lat="45.0806" lon="2.70198">
        <ele>1431.7</ele>
        <time>2000-01-01T14:44:38.000Z</time>
      </trkpt>
      <trkpt lat="45.08069" lon="2.70198">
        <ele>1428</ele>
        <time>2000-01-01T14:44:28.000Z</time>
      </trkpt>
      <trkpt lat="45.08079" lon="2.702">
        <ele>1430.3</ele>
        <time>2000-01-01T14:44:18.000Z</time>
      </trkpt>
      <trkpt lat="45.08084" lon="2.70201">
        <ele>1430.1</ele>
        <time>2000-01-01T14:44:08.000Z</time>
      </trkpt>
      <trkpt lat="45.08088" lon="2.70204">
        <ele>1431</ele>
        <time>2000-01-01T14:43:58.000Z</time>
      </trkpt>
      <trkpt lat="45.08094" lon="2.70209">
        <ele>1431.9</ele>
        <time>2000-01-01T14:43:48.000Z</time>
      </trkpt>
      <trkpt lat="45.08097" lon="2.7021">
        <ele>1432.1</ele>
        <time>2000-01-01T14:43:38.000Z</time>
      </trkpt>
      <trkpt lat="45.08107" lon="2.70215">
        <ele>1432</ele>
        <time>2000-01-01T14:43:28.000Z</time>
      </trkpt>
      <trkpt lat="45.08115" lon="2.70215">
        <ele>1432.8</ele>
        <time>2000-01-01T14:43:18.000Z</time>
      </trkpt>
      <trkpt lat="45.08116" lon="2.70219">
        <ele>1434.2</ele>
        <time>2000-01-01T14:42:48.000Z</time>
      </trkpt>
      <trkpt lat="45.08125" lon="2.7022">
        <ele>1432</ele>
        <time>2000-01-01T14:42:38.000Z</time>
      </trkpt>
      <trkpt lat="45.08132" lon="2.7022">
        <ele>1435.1</ele>
        <time>2000-01-01T14:42:28.000Z</time>
      </trkpt>
      <trkpt lat="45.0814" lon="2.70219">
        <ele>1435.1</ele>
        <time>2000-01-01T14:42:18.000Z</time>
      </trkpt>
      <trkpt lat="45.08147" lon="2.70219">
        <ele>1432</ele>
        <time>2000-01-01T14:42:08.000Z</time>
      </trkpt>
      <trkpt lat="45.0814" lon="2.70219">
        <ele>1435.1</ele>
        <time>2000-01-01T14:41:58.000Z</time>
      </trkpt>
      <trkpt lat="45.08147" lon="2.70219">
        <ele>1435.4</ele>
        <time>2000-01-01T14:41:48.000Z</time>
      </trkpt>
      <trkpt lat="45.08155" lon="2.7022">
        <ele>1433</ele>
        <time>2000-01-01T14:41:38.000Z</time>
      </trkpt>
      <trkpt lat="45.08162" lon="2.70222">
        <ele>1436.8</ele>
        <time>2000-01-01T14:41:28.000Z</time>
      </trkpt>
      <trkpt lat="45.08155" lon="2.7022">
        <ele>1436</ele>
        <time>2000-01-01T14:41:18.000Z</time>
      </trkpt>
      <trkpt lat="45.08162" lon="2.70222">
        <ele>1436</ele>
        <time>2000-01-01T14:41:08.000Z</time>
      </trkpt>
      <trkpt lat="45.08169" lon="2.70223">
        <ele>1437.5</ele>
        <time>2000-01-01T14:40:58.000Z</time>
      </trkpt>
      <trkpt lat="45.08176" lon="2.70225">
        <ele>1438.7</ele>
        <time>2000-01-01T14:40:48.000Z</time>
      </trkpt>
      <trkpt lat="45.08182" lon="2.70226">
        <ele>1439.6</ele>
        <time>2000-01-01T14:40:28.000Z</time>
      </trkpt>
      <trkpt lat="45.08183" lon="2.70226">
        <ele>1439.7</ele>
        <time>2000-01-01T14:40:18.000Z</time>
      </trkpt>
      <trkpt lat="45.08184" lon="2.70228">
        <ele>1438</ele>
        <time>2000-01-01T14:40:08.000Z</time>
      </trkpt>
      <trkpt lat="45.08186" lon="2.7023">
        <ele>1440.9</ele>
        <time>2000-01-01T14:39:58.000Z</time>
      </trkpt>
      <trkpt lat="45.08188" lon="2.70232">
        <ele>1441.6</ele>
        <time>2000-01-01T14:39:48.000Z</time>
      </trkpt>
      <trkpt lat="45.0819" lon="2.70236">
        <ele>1442.7</ele>
        <time>2000-01-01T14:39:38.000Z</time>
      </trkpt>
      <trkpt lat="45.08193" lon="2.70239">
        <ele>1443.5</ele>
        <time>2000-01-01T14:39:28.000Z</time>
      </trkpt>
      <trkpt lat="45.08196" lon="2.70242">
        <ele>1444.5</ele>
        <time>2000-01-01T14:39:18.000Z</time>
      </trkpt>
      <trkpt lat="45.08199" lon="2.70245">
        <ele>1443</ele>
        <time>2000-01-01T14:39:08.000Z</time>
      </trkpt>
      <trkpt lat="45.08205" lon="2.70254">
        <ele>1448.4</ele>
        <time>2000-01-01T14:38:58.000Z</time>
      </trkpt>
      <trkpt lat="45.08207" lon="2.70257">
        <ele>1449.3</ele>
        <time>2000-01-01T14:38:48.000Z</time>
      </trkpt>
      <trkpt lat="45.08209" lon="2.7026">
        <ele>1450.2</ele>
        <time>2000-01-01T14:38:38.000Z</time>
      </trkpt>
      <trkpt lat="45.08212" lon="2.70264">
        <ele>1451.4</ele>
        <time>2000-01-01T14:38:28.000Z</time>
      </trkpt>
      <trkpt lat="45.08218" lon="2.7027">
        <ele>1450</ele>
        <time>2000-01-01T14:38:18.000Z</time>
      </trkpt>
      <trkpt lat="45.08223" lon="2.70273">
        <ele>1454.2</ele>
        <time>2000-01-01T14:38:08.000Z</time>
      </trkpt>
      <trkpt lat="45.08226" lon="2.70275">
        <ele>1454.7</ele>
        <time>2000-01-01T14:37:58.000Z</time>
      </trkpt>
      <trkpt lat="45.08229" lon="2.70278">
        <ele>1455.3</ele>
        <time>2000-01-01T14:37:48.000Z</time>
      </trkpt>
      <trkpt lat="45.08232" lon="2.7028">
        <ele>1455.8</ele>
        <time>2000-01-01T14:37:38.000Z</time>
      </trkpt>
      <trkpt lat="45.08235" lon="2.70281">
        <ele>1456.2</ele>
        <time>2000-01-01T14:37:28.000Z</time>
      </trkpt>
      <trkpt lat="45.08237" lon="2.70285">
        <ele>1455</ele>
        <time>2000-01-01T14:37:18.000Z</time>
      </trkpt>
      <trkpt lat="45.0824" lon="2.70291">
        <ele>1458.5</ele>
        <time>2000-01-01T14:37:08.000Z</time>
      </trkpt>
      <trkpt lat="45.08242" lon="2.70294">
        <ele>1459.2</ele>
        <time>2000-01-01T14:36:58.000Z</time>
      </trkpt>
      <trkpt lat="45.08243" lon="2.70298">
        <ele>1460.1</ele>
        <time>2000-01-01T14:36:48.000Z</time>
      </trkpt>
      <trkpt lat="45.08244" lon="2.703">
        <ele>1460.6</ele>
        <time>2000-01-01T14:36:38.000Z</time>
      </trkpt>
      <trkpt lat="45.08248" lon="2.70309">
        <ele>1462.7</ele>
        <time>2000-01-01T14:36:28.000Z</time>
      </trkpt>
      <trkpt lat="45.08249" lon="2.70311">
        <ele>1462</ele>
        <time>2000-01-01T14:36:18.000Z</time>
      </trkpt>
      <trkpt lat="45.08253" lon="2.70321">
        <ele>1465.1</ele>
        <time>2000-01-01T14:36:08.000Z</time>
      </trkpt>
      <trkpt lat="45.08254" lon="2.70323">
        <ele>1465.4</ele>
        <time>2000-01-01T14:35:58.000Z</time>
      </trkpt>
      <trkpt lat="45.08255" lon="2.70326">
        <ele>1465.9</ele>
        <time>2000-01-01T14:35:48.000Z</time>
      </trkpt>
      <trkpt lat="45.08258" lon="2.70334">
        <ele>1467.3</ele>
        <time>2000-01-01T14:35:38.000Z</time>
      </trkpt>
      <trkpt lat="45.08259" lon="2.70338">
        <ele>1467</ele>
        <time>2000-01-01T14:35:28.000Z</time>
      </trkpt>
      <trkpt lat="45.08259" lon="2.70342">
        <ele>1468.9</ele>
        <time>2000-01-01T14:35:18.000Z</time>
      </trkpt>
      <trkpt lat="45.0826" lon="2.70345">
        <ele>1469.4</ele>
        <time>2000-01-01T14:35:08.000Z</time>
      </trkpt>
      <trkpt lat="45.08261" lon="2.70353">
        <ele>1471.1</ele>
        <time>2000-01-01T14:34:58.000Z</time>
      </trkpt>
      <trkpt lat="45.08261" lon="2.70356">
        <ele>1471.7</ele>
        <time>2000-01-01T14:34:48.000Z</time>
      </trkpt>
      <trkpt lat="45.08263" lon="2.70364">
        <ele>1473.3</ele>
        <time>2000-01-01T14:34:38.000Z</time>
      </trkpt>
      <trkpt lat="45.08264" lon="2.70365">
        <ele>1473</ele>
        <time>2000-01-01T14:34:28.000Z</time>
      </trkpt>
      <trkpt lat="45.08266" lon="2.70376">
        <ele>1475.7</ele>
        <time>2000-01-01T14:34:18.000Z</time>
      </trkpt>
      <trkpt lat="45.08267" lon="2.70379">
        <ele>1476.3</ele>
        <time>2000-01-01T14:34:08.000Z</time>
      </trkpt>
      <trkpt lat="45.08269" lon="2.7039">
        <ele>1478.5</ele>
        <time>2000-01-01T14:33:58.000Z</time>
      </trkpt>
      <trkpt lat="45.08269" lon="2.70394">
        <ele>1479</ele>
        <time>2000-01-01T14:33:48.000Z</time>
      </trkpt>
      <trkpt lat="45.0827" lon="2.70398">
        <ele>1479.9</ele>
        <time>2000-01-01T14:33:38.000Z</time>
      </trkpt>
      <trkpt lat="45.08271" lon="2.70406">
        <ele>1481.2</ele>
        <time>2000-01-01T14:33:28.000Z</time>
      </trkpt>
      <trkpt lat="45.08273" lon="2.70412">
        <ele>1482</ele>
        <time>2000-01-01T14:33:18.000Z</time>
      </trkpt>
      <trkpt lat="45.08274" lon="2.70415">
        <ele>1482.4</ele>
        <time>2000-01-01T14:33:08.000Z</time>
      </trkpt>
      <trkpt lat="45.08275" lon="2.7042">
        <ele>1482</ele>
        <time>2000-01-01T14:32:58.000Z</time>
      </trkpt>
      <trkpt lat="45.08279" lon="2.70428">
        <ele>1484.3</ele>
        <time>2000-01-01T14:32:48.000Z</time>
      </trkpt>
      <trkpt lat="45.08282" lon="2.70435">
        <ele>1485.3</ele>
        <time>2000-01-01T14:32:38.000Z</time>
      </trkpt>
      <trkpt lat="45.08284" lon="2.70441">
        <ele>1486.2</ele>
        <time>2000-01-01T14:32:28.000Z</time>
      </trkpt>
      <trkpt lat="45.08288" lon="2.70449">
        <ele>1487</ele>
        <time>2000-01-01T14:32:18.000Z</time>
      </trkpt>
      <trkpt lat="45.08293" lon="2.70461">
        <ele>1489.1</ele>
        <time>2000-01-01T14:32:08.000Z</time>
      </trkpt>
      <trkpt lat="45.08295" lon="2.70466">
        <ele>1489.9</ele>
        <time>2000-01-01T14:31:58.000Z</time>
      </trkpt>
      <trkpt lat="45.08297" lon="2.70473">
        <ele>1491</ele>
        <time>2000-01-01T14:31:48.000Z</time>
      </trkpt>
      <trkpt lat="45.08298" lon="2.70477">
        <ele>1492</ele>
        <time>2000-01-01T14:31:38.000Z</time>
      </trkpt>
      <trkpt lat="45.08299" lon="2.70482">
        <ele>1492.3</ele>
        <time>2000-01-01T14:31:28.000Z</time>
      </trkpt>
      <trkpt lat="45.083" lon="2.70485">
        <ele>1492.6</ele>
        <time>2000-01-01T14:31:18.000Z</time>
      </trkpt>
      <trkpt lat="45.083" lon="2.70489">
        <ele>1493.3</ele>
        <time>2000-01-01T14:31:08.000Z</time>
      </trkpt>
      <trkpt lat="45.083" lon="2.70492">
        <ele>1493.9</ele>
        <time>2000-01-01T14:30:58.000Z</time>
      </trkpt>
      <trkpt lat="45.083" lon="2.70499">
        <ele>1495.2</ele>
        <time>2000-01-01T14:30:48.000Z</time>
      </trkpt>
      <trkpt lat="45.083" lon="2.70502">
        <ele>1495.8</ele>
        <time>2000-01-01T14:30:38.000Z</time>
      </trkpt>
      <trkpt lat="45.083" lon="2.70504">
        <ele>1497</ele>
        <time>2000-01-01T14:30:28.000Z</time>
      </trkpt>
      <trkpt lat="45.08299" lon="2.70508">
        <ele>1497.4</ele>
        <time>2000-01-01T14:30:18.000Z</time>
      </trkpt>
      <trkpt lat="45.08298" lon="2.70517">
        <ele>1499.6</ele>
        <time>2000-01-01T14:30:08.000Z</time>
      </trkpt>
      <trkpt lat="45.08298" lon="2.70521">
        <ele>1500.4</ele>
        <time>2000-01-01T14:29:58.000Z</time>
      </trkpt>
      <trkpt lat="45.08298" lon="2.70522">
        <ele>1500.7</ele>
        <time>2000-01-01T14:29:48.000Z</time>
      </trkpt>
      <trkpt lat="45.08299" lon="2.70526">
        <ele>1501.3</ele>
        <time>2000-01-01T14:29:38.000Z</time>
      </trkpt>
      <trkpt lat="45.08299" lon="2.70529">
        <ele>1501.8</ele>
        <time>2000-01-01T14:29:28.000Z</time>
      </trkpt>
      <trkpt lat="45.08299" lon="2.70531">
        <ele>1504</ele>
        <time>2000-01-01T14:29:18.000Z</time>
      </trkpt>
      <trkpt lat="45.08298" lon="2.70538">
        <ele>1503.5</ele>
        <time>2000-01-01T14:29:08.000Z</time>
      </trkpt>
      <trkpt lat="45.08298" lon="2.70544">
        <ele>1504.4</ele>
        <time>2000-01-01T14:28:58.000Z</time>
      </trkpt>
      <trkpt lat="45.08297" lon="2.70552">
        <ele>1505.9</ele>
        <time>2000-01-01T14:28:48.000Z</time>
      </trkpt>
      <trkpt lat="45.08296" lon="2.70559">
        <ele>1507.1</ele>
        <time>2000-01-01T14:28:38.000Z</time>
      </trkpt>
      <trkpt lat="45.08296" lon="2.70565">
        <ele>1509</ele>
        <time>2000-01-01T14:28:28.000Z</time>
      </trkpt>
      <trkpt lat="45.08296" lon="2.70574">
        <ele>1508.5</ele>
        <time>2000-01-01T14:28:18.000Z</time>
      </trkpt>
      <trkpt lat="45.08296" lon="2.7058">
        <ele>1509.1</ele>
        <time>2000-01-01T14:28:08.000Z</time>
      </trkpt>
      <trkpt lat="45.08296" lon="2.70591">
        <ele>1510.4</ele>
        <time>2000-01-01T14:27:58.000Z</time>
      </trkpt>
      <trkpt lat="45.08295" lon="2.70596">
        <ele>1513</ele>
        <time>2000-01-01T14:27:48.000Z</time>
      </trkpt>
      <trkpt lat="45.08296" lon="2.70606">
        <ele>1512.2</ele>
        <time>2000-01-01T14:27:38.000Z</time>
      </trkpt>
      <trkpt lat="45.08295" lon="2.70614">
        <ele>1513.6</ele>
        <time>2000-01-01T14:27:28.000Z</time>
      </trkpt>
      <trkpt lat="45.08295" lon="2.70623">
        <ele>1514.8</ele>
        <time>2000-01-01T14:27:18.000Z</time>
      </trkpt>
      <trkpt lat="45.08295" lon="2.70626">
        <ele>1515.2</ele>
        <time>2000-01-01T14:27:08.000Z</time>
      </trkpt>
      <trkpt lat="45.08294" lon="2.7063">
        <ele>1517</ele>
        <time>2000-01-01T14:26:58.000Z</time>
      </trkpt>
      <trkpt lat="45.0829" lon="2.70638">
        <ele>1518.4</ele>
        <time>2000-01-01T14:26:48.000Z</time>
      </trkpt>
      <trkpt lat="45.08287" lon="2.70647">
        <ele>1521</ele>
        <time>2000-01-01T14:26:38.000Z</time>
      </trkpt>
      <trkpt lat="45.08284" lon="2.70656">
        <ele>1523.6</ele>
        <time>2000-01-01T14:26:28.000Z</time>
      </trkpt>
      <trkpt lat="45.08284" lon="2.7066">
        <ele>1524.3</ele>
        <time>2000-01-01T14:26:18.000Z</time>
      </trkpt>
      <trkpt lat="45.08285" lon="2.70662">
        <ele>1524</ele>
        <time>2000-01-01T14:26:08.000Z</time>
      </trkpt>
      <trkpt lat="45.08288" lon="2.70671">
        <ele>1525.7</ele>
        <time>2000-01-01T14:25:58.000Z</time>
      </trkpt>
      <trkpt lat="45.08289" lon="2.70673">
        <ele>1525.9</ele>
        <time>2000-01-01T14:25:48.000Z</time>
      </trkpt>
      <trkpt lat="45.08292" lon="2.70684">
        <ele>1527.7</ele>
        <time>2000-01-01T14:25:38.000Z</time>
      </trkpt>
      <trkpt lat="45.08292" lon="2.7069">
        <ele>1530</ele>
        <time>2000-01-01T14:25:28.000Z</time>
      </trkpt>
      <trkpt lat="45.08291" lon="2.70699">
        <ele>1530.4</ele>
        <time>2000-01-01T14:25:18.000Z</time>
      </trkpt>
      <trkpt lat="45.08289" lon="2.70707">
        <ele>1531.4</ele>
        <time>2000-01-01T14:25:08.000Z</time>
      </trkpt>
      <trkpt lat="45.08287" lon="2.70716">
        <ele>1532.6</ele>
        <time>2000-01-01T14:24:58.000Z</time>
      </trkpt>
      <trkpt lat="45.08287" lon="2.7072">
        <ele>1534</ele>
        <time>2000-01-01T14:24:48.000Z</time>
      </trkpt>
      <trkpt lat="45.08287" lon="2.70728">
        <ele>1533.2</ele>
        <time>2000-01-01T14:24:38.000Z</time>
      </trkpt>
      <trkpt lat="45.08286" lon="2.70734">
        <ele>1533.7</ele>
        <time>2000-01-01T14:24:28.000Z</time>
      </trkpt>
      <trkpt lat="45.08283" lon="2.7074">
        <ele>1535.1</ele>
        <time>2000-01-01T14:24:18.000Z</time>
      </trkpt>
      <trkpt lat="45.08278" lon="2.7075">
        <ele>1541</ele>
        <time>2000-01-01T14:24:08.000Z</time>
      </trkpt>
      <trkpt lat="45.0827" lon="2.70764">
        <ele>1541.7</ele>
        <time>2000-01-01T14:23:58.000Z</time>
      </trkpt>
      <trkpt lat="45.08267" lon="2.7077">
        <ele>1543.3</ele>
        <time>2000-01-01T14:23:48.000Z</time>
      </trkpt>
      <trkpt lat="45.08264" lon="2.70776">
        <ele>1544.9</ele>
        <time>2000-01-01T14:23:38.000Z</time>
      </trkpt>
      <trkpt lat="45.08262" lon="2.70785">
        <ele>1546</ele>
        <time>2000-01-01T14:23:28.000Z</time>
      </trkpt>
      <trkpt lat="45.0826" lon="2.70797">
        <ele>1547.9</ele>
        <time>2000-01-01T14:23:18.000Z</time>
      </trkpt>
      <trkpt lat="45.08258" lon="2.70813">
        <ele>1549.8</ele>
        <time>2000-01-01T14:23:08.000Z</time>
      </trkpt>
      <trkpt lat="45.08258" lon="2.70818">
        <ele>1552</ele>
        <time>2000-01-01T14:22:58.000Z</time>
      </trkpt>
      <trkpt lat="45.08257" lon="2.70826">
        <ele>1551.5</ele>
        <time>2000-01-01T14:22:48.000Z</time>
      </trkpt>
      <trkpt lat="45.08255" lon="2.70834">
        <ele>1553.1</ele>
        <time>2000-01-01T14:22:38.000Z</time>
      </trkpt>
      <trkpt lat="45.08254" lon="2.70837">
        <ele>1553.7</ele>
        <time>2000-01-01T14:22:28.000Z</time>
      </trkpt>
      <trkpt lat="45.08252" lon="2.70848">
        <ele>1554</ele>
        <time>2000-01-01T14:22:18.000Z</time>
      </trkpt>
      <trkpt lat="45.0825" lon="2.70855">
        <ele>1556.6</ele>
        <time>2000-01-01T14:22:08.000Z</time>
      </trkpt>
      <trkpt lat="45.0825" lon="2.70878">
        <ele>1561</ele>
        <time>2000-01-01T14:21:58.000Z</time>
      </trkpt>
      <trkpt lat="45.08255" lon="2.7091">
        <ele>1560.5</ele>
        <time>2000-01-01T14:21:38.000Z</time>
      </trkpt>
      <trkpt lat="45.08256" lon="2.7092">
        <ele>1561.2</ele>
        <time>2000-01-01T14:21:28.000Z</time>
      </trkpt>
      <trkpt lat="45.08259" lon="2.70928">
        <ele>1563</ele>
        <time>2000-01-01T14:21:18.000Z</time>
      </trkpt>
      <trkpt lat="45.08265" lon="2.70949">
        <ele>1561.8</ele>
        <time>2000-01-01T14:21:08.000Z</time>
      </trkpt>
      <trkpt lat="45.08266" lon="2.7095">
        <ele>1561.7</ele>
        <time>2000-01-01T14:20:58.000Z</time>
      </trkpt>
      <trkpt lat="45.08267" lon="2.70952">
        <ele>1561.7</ele>
        <time>2000-01-01T14:20:48.000Z</time>
      </trkpt>
      <trkpt lat="45.08268" lon="2.70954">
        <ele>1561.7</ele>
        <time>2000-01-01T14:20:38.000Z</time>
      </trkpt>
      <trkpt lat="45.0827" lon="2.70957">
        <ele>1563</ele>
        <time>2000-01-01T14:20:28.000Z</time>
      </trkpt>
      <trkpt lat="45.08274" lon="2.7096">
        <ele>1561.3</ele>
        <time>2000-01-01T14:20:18.000Z</time>
      </trkpt>
      <trkpt lat="45.08277" lon="2.70964">
        <ele>1561.4</ele>
        <time>2000-01-01T14:20:08.000Z</time>
      </trkpt>
      <trkpt lat="45.0828" lon="2.70967">
        <ele>1561.4</ele>
        <time>2000-01-01T14:19:58.000Z</time>
      </trkpt>
      <trkpt lat="45.08282" lon="2.70969">
        <ele>1561.5</ele>
        <time>2000-01-01T14:19:48.000Z</time>
      </trkpt>
      <trkpt lat="45.08288" lon="2.70973">
        <ele>1561</ele>
        <time>2000-01-01T14:19:38.000Z</time>
      </trkpt>
      <trkpt lat="45.08293" lon="2.70977">
        <ele>1561.5</ele>
        <time>2000-01-01T14:19:28.000Z</time>
      </trkpt>
      <trkpt lat="45.08296" lon="2.70979">
        <ele>1561.5</ele>
        <time>2000-01-01T14:19:18.000Z</time>
      </trkpt>
      <trkpt lat="45.08308" lon="2.70984">
        <ele>1560</ele>
        <time>2000-01-01T14:19:08.000Z</time>
      </trkpt>
      <trkpt lat="45.08317" lon="2.70988">
        <ele>1560.5</ele>
        <time>2000-01-01T14:18:58.000Z</time>
      </trkpt>
      <trkpt lat="45.08321" lon="2.7099">
        <ele>1560.3</ele>
        <time>2000-01-01T14:18:48.000Z</time>
      </trkpt>
      <trkpt lat="45.08326" lon="2.70992">
        <ele>1560</ele>
        <time>2000-01-01T14:18:38.000Z</time>
      </trkpt>
      <trkpt lat="45.08331" lon="2.70994">
        <ele>1559</ele>
        <time>2000-01-01T14:18:28.000Z</time>
      </trkpt>
      <trkpt lat="45.08334" lon="2.70997">
        <ele>1559.8</ele>
        <time>2000-01-01T14:18:18.000Z</time>
      </trkpt>
      <trkpt lat="45.08337" lon="2.71">
        <ele>1559.3</ele>
        <time>2000-01-01T14:18:08.000Z</time>
      </trkpt>
      <trkpt lat="45.08342" lon="2.71005">
        <ele>1558.3</ele>
        <time>2000-01-01T14:17:58.000Z</time>
      </trkpt>
      <trkpt lat="45.08346" lon="2.71009">
        <ele>1557</ele>
        <time>2000-01-01T14:17:48.000Z</time>
      </trkpt>
      <trkpt lat="45.08353" lon="2.71019">
        <ele>1556.8</ele>
        <time>2000-01-01T14:17:38.000Z</time>
      </trkpt>
      <trkpt lat="45.08355" lon="2.71023">
        <ele>1556.8</ele>
        <time>2000-01-01T14:17:28.000Z</time>
      </trkpt>
      <trkpt lat="45.08357" lon="2.71026">
        <ele>1556.6</ele>
        <time>2000-01-01T14:17:18.000Z</time>
      </trkpt>
      <trkpt lat="45.08358" lon="2.71028">
        <ele>1556.6</ele>
        <time>2000-01-01T14:17:08.000Z</time>
      </trkpt>
      <trkpt lat="45.0836" lon="2.7103">
        <ele>1556.2</ele>
        <time>2000-01-01T14:16:58.000Z</time>
      </trkpt>
      <trkpt lat="45.08364" lon="2.71035">
        <ele>1555</ele>
        <time>2000-01-01T14:16:48.000Z</time>
      </trkpt>
      <trkpt lat="45.08368" lon="2.71042">
        <ele>1556.6</ele>
        <time>2000-01-01T14:16:38.000Z</time>
      </trkpt>
      <trkpt lat="45.08373" lon="2.7105">
        <ele>1556.9</ele>
        <time>2000-01-01T14:16:28.000Z</time>
      </trkpt>
      <trkpt lat="45.08375" lon="2.71053">
        <ele>1556.9</ele>
        <time>2000-01-01T14:16:18.000Z</time>
      </trkpt>
      <trkpt lat="45.08377" lon="2.71056">
        <ele>1554</ele>
        <time>2000-01-01T14:16:08.000Z</time>
      </trkpt>
      <trkpt lat="45.08379" lon="2.71059">
        <ele>1557.1</ele>
        <time>2000-01-01T14:15:58.000Z</time>
      </trkpt>
      <trkpt lat="45.08383" lon="2.71061">
        <ele>1556.3</ele>
        <time>2000-01-01T14:15:48.000Z</time>
      </trkpt>
      <trkpt lat="45.08387" lon="2.71064">
        <ele>1555.8</ele>
        <time>2000-01-01T14:15:38.000Z</time>
      </trkpt>
      <trkpt lat="45.08392" lon="2.71066">
        <ele>1555.4</ele>
        <time>2000-01-01T14:15:28.000Z</time>
      </trkpt>
      <trkpt lat="45.08395" lon="2.71067">
        <ele>1554</ele>
        <time>2000-01-01T14:15:18.000Z</time>
      </trkpt>
      <trkpt lat="45.08399" lon="2.71067">
        <ele>1554.9</ele>
        <time>2000-01-01T14:15:08.000Z</time>
      </trkpt>
      <trkpt lat="45.08401" lon="2.71069">
        <ele>1555.3</ele>
        <time>2000-01-01T14:14:58.000Z</time>
      </trkpt>
      <trkpt lat="45.08407" lon="2.71073">
        <ele>1555.9</ele>
        <time>2000-01-01T14:14:48.000Z</time>
      </trkpt>
      <trkpt lat="45.08411" lon="2.71076">
        <ele>1556.4</ele>
        <time>2000-01-01T14:14:38.000Z</time>
      </trkpt>
      <trkpt lat="45.08415" lon="2.71078">
        <ele>1553</ele>
        <time>2000-01-01T14:14:28.000Z</time>
      </trkpt>
      <trkpt lat="45.0842" lon="2.7108">
        <ele>1556.5</ele>
        <time>2000-01-01T14:14:18.000Z</time>
      </trkpt>
      <trkpt lat="45.08424" lon="2.71082">
        <ele>1556.5</ele>
        <time>2000-01-01T14:14:08.000Z</time>
      </trkpt>
      <trkpt lat="45.08431" lon="2.71087">
        <ele>1557.1</ele>
        <time>2000-01-01T14:13:58.000Z</time>
      </trkpt>
      <trkpt lat="45.08433" lon="2.71089">
        <ele>1557.3</ele>
        <time>2000-01-01T14:13:48.000Z</time>
      </trkpt>
      <trkpt lat="45.08437" lon="2.71091">
        <ele>1554</ele>
        <time>2000-01-01T14:13:38.000Z</time>
      </trkpt>
      <trkpt lat="45.08441" lon="2.71093">
        <ele>1557.1</ele>
        <time>2000-01-01T14:13:28.000Z</time>
      </trkpt>
      <trkpt lat="45.08444" lon="2.71095">
        <ele>1557</ele>
        <time>2000-01-01T14:13:18.000Z</time>
      </trkpt>
      <trkpt lat="45.08447" lon="2.71097">
        <ele>1557</ele>
        <time>2000-01-01T14:13:08.000Z</time>
      </trkpt>
      <trkpt lat="45.08451" lon="2.711">
        <ele>1557</ele>
        <time>2000-01-01T14:12:58.000Z</time>
      </trkpt>
      <trkpt lat="45.08457" lon="2.71104">
        <ele>1556</ele>
        <time>2000-01-01T14:12:48.000Z</time>
      </trkpt>
      <trkpt lat="45.08461" lon="2.71108">
        <ele>1556.8</ele>
        <time>2000-01-01T14:12:38.000Z</time>
      </trkpt>
      <trkpt lat="45.08466" lon="2.71111">
        <ele>1556.3</ele>
        <time>2000-01-01T14:12:28.000Z</time>
      </trkpt>
      <trkpt lat="45.08471" lon="2.71117">
        <ele>1555.7</ele>
        <time>2000-01-01T14:12:18.000Z</time>
      </trkpt>
      <trkpt lat="45.08473" lon="2.7112">
        <ele>1555</ele>
        <time>2000-01-01T14:12:08.000Z</time>
      </trkpt>
      <trkpt lat="45.08475" lon="2.71124">
        <ele>1555</ele>
        <time>2000-01-01T14:11:58.000Z</time>
      </trkpt>
      <trkpt lat="45.08477" lon="2.71128">
        <ele>1554.7</ele>
        <time>2000-01-01T14:11:48.000Z</time>
      </trkpt>
      <trkpt lat="45.08479" lon="2.71131">
        <ele>1554.4</ele>
        <time>2000-01-01T14:11:38.000Z</time>
      </trkpt>
      <trkpt lat="45.0848" lon="2.71135">
        <ele>1554.6</ele>
        <time>2000-01-01T14:11:28.000Z</time>
      </trkpt>
      <trkpt lat="45.08481" lon="2.71139">
        <ele>1554.8</ele>
        <time>2000-01-01T14:11:18.000Z</time>
      </trkpt>
      <trkpt lat="45.08483" lon="2.71141">
        <ele>1554.7</ele>
        <time>2000-01-01T14:11:08.000Z</time>
      </trkpt>
      <trkpt lat="45.08487" lon="2.71144">
        <ele>1555</ele>
        <time>2000-01-01T14:10:58.000Z</time>
      </trkpt>
      <trkpt lat="45.08494" lon="2.71155">
        <ele>1554.4</ele>
        <time>2000-01-01T14:10:48.000Z</time>
      </trkpt>
      <trkpt lat="45.08497" lon="2.7116">
        <ele>1554.6</ele>
        <time>2000-01-01T14:10:38.000Z</time>
      </trkpt>
      <trkpt lat="45.085" lon="2.71165">
        <ele>1554</ele>
        <time>2000-01-01T14:10:28.000Z</time>
      </trkpt>
      <trkpt lat="45.08504" lon="2.71171">
        <ele>1554.1</ele>
        <time>2000-01-01T14:10:18.000Z</time>
      </trkpt>
      <trkpt lat="45.08507" lon="2.71177">
        <ele>1554.4</ele>
        <time>2000-01-01T14:10:08.000Z</time>
      </trkpt>
      <trkpt lat="45.0851" lon="2.71181">
        <ele>1554.1</ele>
        <time>2000-01-01T14:09:58.000Z</time>
      </trkpt>
      <trkpt lat="45.08512" lon="2.71186">
        <ele>1554</ele>
        <time>2000-01-01T14:09:48.000Z</time>
      </trkpt>
      <trkpt lat="45.08515" lon="2.71192">
        <ele>1555.3</ele>
        <time>2000-01-01T14:09:38.000Z</time>
      </trkpt>
      <trkpt lat="45.08517" lon="2.71195">
        <ele>1555.5</ele>
        <time>2000-01-01T14:09:28.000Z</time>
      </trkpt>
      <trkpt lat="45.08519" lon="2.71198">
        <ele>1555.8</ele>
        <time>2000-01-01T14:09:18.000Z</time>
      </trkpt>
      <trkpt lat="45.08523" lon="2.712">
        <ele>1555.1</ele>
        <time>2000-01-01T14:09:08.000Z</time>
      </trkpt>
      <trkpt lat="45.08527" lon="2.71203">
        <ele>1554</ele>
        <time>2000-01-01T14:08:58.000Z</time>
      </trkpt>
      <trkpt lat="45.08532" lon="2.71203">
        <ele>1554.9</ele>
        <time>2000-01-01T14:08:48.000Z</time>
      </trkpt>
      <trkpt lat="45.08537" lon="2.71203">
        <ele>1555.2</ele>
        <time>2000-01-01T14:08:38.000Z</time>
      </trkpt>
      <trkpt lat="45.08544" lon="2.71203">
        <ele>1555.6</ele>
        <time>2000-01-01T14:08:28.000Z</time>
      </trkpt>
      <trkpt lat="45.08549" lon="2.71203">
        <ele>1554</ele>
        <time>2000-01-01T14:08:18.000Z</time>
      </trkpt>
      <trkpt lat="45.08559" lon="2.71203">
        <ele>1556.4</ele>
        <time>2000-01-01T14:08:08.000Z</time>
      </trkpt>
      <trkpt lat="45.08564" lon="2.71204">
        <ele>1557.1</ele>
        <time>2000-01-01T14:07:58.000Z</time>
      </trkpt>
      <trkpt lat="45.08566" lon="2.71205">
        <ele>1557.7</ele>
        <time>2000-01-01T14:07:48.000Z</time>
      </trkpt>
      <trkpt lat="45.0857" lon="2.71205">
        <ele>1553</ele>
        <time>2000-01-01T14:07:38.000Z</time>
      </trkpt>
      <trkpt lat="45.08572" lon="2.71205">
        <ele>1557.9</ele>
        <time>2000-01-01T14:07:28.000Z</time>
      </trkpt>
      <trkpt lat="45.08574" lon="2.71205">
        <ele>1558</ele>
        <time>2000-01-01T14:07:18.000Z</time>
      </trkpt>
      <trkpt lat="45.08577" lon="2.71203">
        <ele>1557.1</ele>
        <time>2000-01-01T14:07:08.000Z</time>
      </trkpt>
      <trkpt lat="45.0858" lon="2.71203">
        <ele>1557.2</ele>
        <time>2000-01-01T14:06:58.000Z</time>
      </trkpt>
      <trkpt lat="45.08585" lon="2.71202">
        <ele>1556.4</ele>
        <time>2000-01-01T14:06:48.000Z</time>
      </trkpt>
      <trkpt lat="45.08589" lon="2.71202">
        <ele>1553</ele>
        <time>2000-01-01T14:06:38.000Z</time>
      </trkpt>
      <trkpt lat="45.08597" lon="2.71204">
        <ele>1554</ele>
        <time>2000-01-01T14:06:28.000Z</time>
      </trkpt>
      <trkpt lat="45.08601" lon="2.71206">
        <ele>1553.7</ele>
        <time>2000-01-01T14:06:18.000Z</time>
      </trkpt>
      <trkpt lat="45.08603" lon="2.71207">
        <ele>1553.5</ele>
        <time>2000-01-01T14:06:08.000Z</time>
      </trkpt>
      <trkpt lat="45.08604" lon="2.71208">
        <ele>1553.6</ele>
        <time>2000-01-01T14:05:58.000Z</time>
      </trkpt>
      <trkpt lat="45.08608" lon="2.71213">
        <ele>1554.1</ele>
        <time>2000-01-01T14:05:48.000Z</time>
      </trkpt>
      <trkpt lat="45.08611" lon="2.71217">
        <ele>1552</ele>
        <time>2000-01-01T14:05:38.000Z</time>
      </trkpt>
      <trkpt lat="45.08621" lon="2.7123">
        <ele>1554</ele>
        <time>2000-01-01T14:05:28.000Z</time>
      </trkpt>
      <trkpt lat="45.08625" lon="2.71235">
        <ele>1553.9</ele>
        <time>2000-01-01T14:05:18.000Z</time>
      </trkpt>
      <trkpt lat="45.08626" lon="2.71238">
        <ele>1554.4</ele>
        <time>2000-01-01T14:05:08.000Z</time>
      </trkpt>
      <trkpt lat="45.08629" lon="2.71241">
        <ele>1554.1</ele>
        <time>2000-01-01T14:04:58.000Z</time>
      </trkpt>
      <trkpt lat="45.08631" lon="2.71243">
        <ele>1554</ele>
        <time>2000-01-01T14:04:48.000Z</time>
      </trkpt>
      <trkpt lat="45.08632" lon="2.71243">
        <ele>1553.5</ele>
        <time>2000-01-01T14:04:38.000Z</time>
      </trkpt>
      <trkpt lat="45.08636" lon="2.71243">
        <ele>1552</ele>
        <time>2000-01-01T14:04:28.000Z</time>
      </trkpt>
      <trkpt lat="45.08637" lon="2.71245">
        <ele>1552</ele>
        <time>2000-01-01T14:04:18.000Z</time>
      </trkpt>
      <trkpt lat="45.08641" lon="2.71248">
        <ele>1551.6</ele>
        <time>2000-01-01T14:04:08.000Z</time>
      </trkpt>
      <trkpt lat="45.08644" lon="2.71252">
        <ele>1552</ele>
        <time>2000-01-01T14:03:58.000Z</time>
      </trkpt>
      <trkpt lat="45.08647" lon="2.71255">
        <ele>1552</ele>
        <time>2000-01-01T14:03:48.000Z</time>
      </trkpt>
      <trkpt lat="45.08649" lon="2.71258">
        <ele>1552.4</ele>
        <time>2000-01-01T14:03:38.000Z</time>
      </trkpt>
      <trkpt lat="45.08652" lon="2.7126">
        <ele>1552</ele>
        <time>2000-01-01T14:03:28.000Z</time>
      </trkpt>
      <trkpt lat="45.08655" lon="2.71262">
        <ele>1551.9</ele>
        <time>2000-01-01T14:03:18.000Z</time>
      </trkpt>
      <trkpt lat="45.08657" lon="2.71264">
        <ele>1552</ele>
        <time>2000-01-01T14:03:08.000Z</time>
      </trkpt>
      <trkpt lat="45.0866" lon="2.71266">
        <ele>1551.8</ele>
        <time>2000-01-01T14:02:58.000Z</time>
      </trkpt>
      <trkpt lat="45.08666" lon="2.71269">
        <ele>1551</ele>
        <time>2000-01-01T14:02:48.000Z</time>
      </trkpt>
      <trkpt lat="45.0867" lon="2.71271">
        <ele>1549</ele>
        <time>2000-01-01T14:02:38.000Z</time>
      </trkpt>
      <trkpt lat="45.08676" lon="2.71273">
        <ele>1553.3</ele>
        <time>2000-01-01T14:02:28.000Z</time>
      </trkpt>
      <trkpt lat="45.08678" lon="2.71273">
        <ele>1553.6</ele>
        <time>2000-01-01T14:02:18.000Z</time>
      </trkpt>
      <trkpt lat="45.0868" lon="2.71274">
        <ele>1554.1</ele>
        <time>2000-01-01T14:01:58.000Z</time>
      </trkpt>
      <trkpt lat="45.08681" lon="2.71274">
        <ele>1554.3</ele>
        <time>2000-01-01T14:01:48.000Z</time>
      </trkpt>
      <trkpt lat="45.08682" lon="2.71274">
        <ele>1554.4</ele>
        <time>2000-01-01T14:01:38.000Z</time>
      </trkpt>
      <trkpt lat="45.08684" lon="2.71272">
        <ele>1553.9</ele>
        <time>2000-01-01T14:01:28.000Z</time>
      </trkpt>
      <trkpt lat="45.08686" lon="2.71269">
        <ele>1553.1</ele>
        <time>2000-01-01T14:01:18.000Z</time>
      </trkpt>
      <trkpt lat="45.08689" lon="2.71267">
        <ele>1546</ele>
        <time>2000-01-01T14:01:08.000Z</time>
      </trkpt>
      <trkpt lat="45.08691" lon="2.71265">
        <ele>1552.4</ele>
        <time>2000-01-01T14:00:58.000Z</time>
      </trkpt>
      <trkpt lat="45.08693" lon="2.71262">
        <ele>1551.7</ele>
        <time>2000-01-01T14:00:48.000Z</time>
      </trkpt>
      <trkpt lat="45.08699" lon="2.71256">
        <ele>1551.7</ele>
        <time>2000-01-01T14:00:38.000Z</time>
      </trkpt>
      <trkpt lat="45.08701" lon="2.71253">
        <ele>1551.5</ele>
        <time>2000-01-01T14:00:28.000Z</time>
      </trkpt>
      <trkpt lat="45.08705" lon="2.71249">
        <ele>1546</ele>
        <time>2000-01-01T14:00:18.000Z</time>
      </trkpt>
      <trkpt lat="45.08708" lon="2.71245">
        <ele>1551.7</ele>
        <time>2000-01-01T14:00:08.000Z</time>
      </trkpt>
      <trkpt lat="45.08709" lon="2.71244">
        <ele>1551.8</ele>
        <time>2000-01-01T13:59:58.000Z</time>
      </trkpt>
      <trkpt lat="45.08711" lon="2.71239">
        <ele>1551.1</ele>
        <time>2000-01-01T13:59:48.000Z</time>
      </trkpt>
      <trkpt lat="45.08713" lon="2.71237">
        <ele>1551.3</ele>
        <time>2000-01-01T13:59:38.000Z</time>
      </trkpt>
      <trkpt lat="45.08715" lon="2.71235">
        <ele>1551.5</ele>
        <time>2000-01-01T13:59:28.000Z</time>
      </trkpt>
      <trkpt lat="45.08716" lon="2.71233">
        <ele>1551.4</ele>
        <time>2000-01-01T13:59:18.000Z</time>
      </trkpt>
      <trkpt lat="45.08718" lon="2.7123">
        <ele>1551.3</ele>
        <time>2000-01-01T13:59:08.000Z</time>
      </trkpt>
      <trkpt lat="45.0872" lon="2.71229">
        <ele>1552</ele>
        <time>2000-01-01T13:58:58.000Z</time>
      </trkpt>
      <trkpt lat="45.0872" lon="2.71226">
        <ele>1548</ele>
        <time>2000-01-01T13:58:48.000Z</time>
      </trkpt>
      <trkpt lat="45.08721" lon="2.71224">
        <ele>1550.9</ele>
        <time>2000-01-01T13:58:38.000Z</time>
      </trkpt>
      <trkpt lat="45.08722" lon="2.71222">
        <ele>1550.8</ele>
        <time>2000-01-01T13:58:28.000Z</time>
      </trkpt>
      <trkpt lat="45.08726" lon="2.7122">
        <ele>1550.3</ele>
        <time>2000-01-01T13:58:18.000Z</time>
      </trkpt>
      <trkpt lat="45.08732" lon="2.71216">
        <ele>1549.2</ele>
        <time>2000-01-01T13:58:08.000Z</time>
      </trkpt>
      <trkpt lat="45.08737" lon="2.71214">
        <ele>1549</ele>
        <time>2000-01-01T13:57:58.000Z</time>
      </trkpt>
      <trkpt lat="45.08739" lon="2.71213">
        <ele>1548.9</ele>
        <time>2000-01-01T13:57:48.000Z</time>
      </trkpt>
      <trkpt lat="45.0874" lon="2.71212">
        <ele>1548.7</ele>
        <time>2000-01-01T13:57:38.000Z</time>
      </trkpt>
      <trkpt lat="45.08742" lon="2.71212">
        <ele>1548.9</ele>
        <time>2000-01-01T13:57:28.000Z</time>
      </trkpt>
      <trkpt lat="45.08743" lon="2.71213">
        <ele>1549.2</ele>
        <time>2000-01-01T13:57:18.000Z</time>
      </trkpt>
      <trkpt lat="45.08745" lon="2.71214">
        <ele>1549.5</ele>
        <time>2000-01-01T13:57:08.000Z</time>
      </trkpt>
      <trkpt lat="45.08747" lon="2.71217">
        <ele>1550.1</ele>
        <time>2000-01-01T13:56:58.000Z</time>
      </trkpt>
      <trkpt lat="45.08749" lon="2.7122">
        <ele>1550.7</ele>
        <time>2000-01-01T13:56:48.000Z</time>
      </trkpt>
      <trkpt lat="45.08753" lon="2.71225">
        <ele>1549</ele>
        <time>2000-01-01T13:56:38.000Z</time>
      </trkpt>
      <trkpt lat="45.0876" lon="2.71236">
        <ele>1548.9</ele>
        <time>2000-01-01T13:56:28.000Z</time>
      </trkpt>
      <trkpt lat="45.08761" lon="2.71239">
        <ele>1549</ele>
        <time>2000-01-01T13:56:18.000Z</time>
      </trkpt>
      <trkpt lat="45.08762" lon="2.71241">
        <ele>1549</ele>
        <time>2000-01-01T13:56:08.000Z</time>
      </trkpt>
      <trkpt lat="45.08766" lon="2.71249">
        <ele>1549</ele>
        <time>2000-01-01T13:55:58.000Z</time>
      </trkpt>
      <trkpt lat="45.08768" lon="2.71255">
        <ele>1548.4</ele>
        <time>2000-01-01T13:55:48.000Z</time>
      </trkpt>
      <trkpt lat="45.0877" lon="2.71257">
        <ele>1547.6</ele>
        <time>2000-01-01T13:55:38.000Z</time>
      </trkpt>
      <trkpt lat="45.08772" lon="2.7126">
        <ele>1547</ele>
        <time>2000-01-01T13:55:28.000Z</time>
      </trkpt>
      <trkpt lat="45.08774" lon="2.71263">
        <ele>1546.4</ele>
        <time>2000-01-01T13:55:18.000Z</time>
      </trkpt>
      <trkpt lat="45.08778" lon="2.7127">
        <ele>1548</ele>
        <time>2000-01-01T13:55:08.000Z</time>
      </trkpt>
      <trkpt lat="45.08781" lon="2.71275">
        <ele>1544.9</ele>
        <time>2000-01-01T13:54:58.000Z</time>
      </trkpt>
      <trkpt lat="45.08783" lon="2.71279">
        <ele>1544.6</ele>
        <time>2000-01-01T13:54:48.000Z</time>
      </trkpt>
      <trkpt lat="45.08784" lon="2.71283">
        <ele>1545.1</ele>
        <time>2000-01-01T13:54:38.000Z</time>
      </trkpt>
      <trkpt lat="45.08786" lon="2.71287">
        <ele>1545</ele>
        <time>2000-01-01T13:54:28.000Z</time>
      </trkpt>
      <trkpt lat="45.08788" lon="2.71289">
        <ele>1544.6</ele>
        <time>2000-01-01T13:54:18.000Z</time>
      </trkpt>
      <trkpt lat="45.0879" lon="2.71291">
        <ele>1544</ele>
        <time>2000-01-01T13:54:08.000Z</time>
      </trkpt>
      <trkpt lat="45.08793" lon="2.71296">
        <ele>1544</ele>
        <time>2000-01-01T13:53:58.000Z</time>
      </trkpt>
      <trkpt lat="45.08796" lon="2.71299">
        <ele>1543.4</ele>
        <time>2000-01-01T13:53:48.000Z</time>
      </trkpt>
      <trkpt lat="45.08799" lon="2.71301">
        <ele>1542.6</ele>
        <time>2000-01-01T13:53:38.000Z</time>
      </trkpt>
      <trkpt lat="45.08802" lon="2.71305">
        <ele>1542.4</ele>
        <time>2000-01-01T13:53:28.000Z</time>
      </trkpt>
      <trkpt lat="45.08806" lon="2.71309">
        <ele>1541</ele>
        <time>2000-01-01T13:53:18.000Z</time>
      </trkpt>
      <trkpt lat="45.08809" lon="2.71312">
        <ele>1540.7</ele>
        <time>2000-01-01T13:53:08.000Z</time>
      </trkpt>
      <trkpt lat="45.08811" lon="2.71313">
        <ele>1539.9</ele>
        <time>2000-01-01T13:52:58.000Z</time>
      </trkpt>
      <trkpt lat="45.08812" lon="2.71316">
        <ele>1540</ele>
        <time>2000-01-01T13:52:48.000Z</time>
      </trkpt>
      <trkpt lat="45.08813" lon="2.7132">
        <ele>1540.4</ele>
        <time>2000-01-01T13:52:38.000Z</time>
      </trkpt>
      <trkpt lat="45.08815" lon="2.71323">
        <ele>1540</ele>
        <time>2000-01-01T13:52:28.000Z</time>
      </trkpt>
      <trkpt lat="45.08817" lon="2.71326">
        <ele>1539.6</ele>
        <time>2000-01-01T13:52:18.000Z</time>
      </trkpt>
      <trkpt lat="45.08819" lon="2.7133">
        <ele>1539</ele>
        <time>2000-01-01T13:52:08.000Z</time>
      </trkpt>
      <trkpt lat="45.08821" lon="2.71335">
        <ele>1539.5</ele>
        <time>2000-01-01T13:51:58.000Z</time>
      </trkpt>
      <trkpt lat="45.08823" lon="2.71341">
        <ele>1539.6</ele>
        <time>2000-01-01T13:51:48.000Z</time>
      </trkpt>
      <trkpt lat="45.08829" lon="2.71353">
        <ele>1538.3</ele>
        <time>2000-01-01T13:51:38.000Z</time>
      </trkpt>
      <trkpt lat="45.0883" lon="2.71357">
        <ele>1537</ele>
        <time>2000-01-01T13:51:28.000Z</time>
      </trkpt>
      <trkpt lat="45.08831" lon="2.71362">
        <ele>1538.6</ele>
        <time>2000-01-01T13:51:18.000Z</time>
      </trkpt>
      <trkpt lat="45.08833" lon="2.71365">
        <ele>1537.8</ele>
        <time>2000-01-01T13:51:08.000Z</time>
      </trkpt>
      <trkpt lat="45.08833" lon="2.71368">
        <ele>1538.2</ele>
        <time>2000-01-01T13:50:58.000Z</time>
      </trkpt>
      <trkpt lat="45.08835" lon="2.7137">
        <ele>1537.4</ele>
        <time>2000-01-01T13:50:48.000Z</time>
      </trkpt>
      <trkpt lat="45.08837" lon="2.71373">
        <ele>1536.7</ele>
        <time>2000-01-01T13:50:38.000Z</time>
      </trkpt>
      <trkpt lat="45.08838" lon="2.71377">
        <ele>1536.7</ele>
        <time>2000-01-01T13:50:28.000Z</time>
      </trkpt>
      <trkpt lat="45.08839" lon="2.71381">
        <ele>1536.7</ele>
        <time>2000-01-01T13:50:18.000Z</time>
      </trkpt>
      <trkpt lat="45.0884" lon="2.71385">
        <ele>1537</ele>
        <time>2000-01-01T13:50:08.000Z</time>
      </trkpt>
      <trkpt lat="45.08842" lon="2.71387">
        <ele>1535.8</ele>
        <time>2000-01-01T13:49:58.000Z</time>
      </trkpt>
      <trkpt lat="45.08842" lon="2.7139">
        <ele>1536.2</ele>
        <time>2000-01-01T13:49:48.000Z</time>
      </trkpt>
      <trkpt lat="45.08844" lon="2.71397">
        <ele>1536.2</ele>
        <time>2000-01-01T13:49:38.000Z</time>
      </trkpt>
      <trkpt lat="45.08845" lon="2.714">
        <ele>1536.2</ele>
        <time>2000-01-01T13:49:28.000Z</time>
      </trkpt>
      <trkpt lat="45.08847" lon="2.71405">
        <ele>1536</ele>
        <time>2000-01-01T13:49:18.000Z</time>
      </trkpt>
      <trkpt lat="45.08849" lon="2.71409">
        <ele>1538</ele>
        <time>2000-01-01T13:49:08.000Z</time>
      </trkpt>
      <trkpt lat="45.0885" lon="2.71413">
        <ele>1536.1</ele>
        <time>2000-01-01T13:48:58.000Z</time>
      </trkpt>
      <trkpt lat="45.08852" lon="2.71415">
        <ele>1535.6</ele>
        <time>2000-01-01T13:48:48.000Z</time>
      </trkpt>
      <trkpt lat="45.08854" lon="2.71416">
        <ele>1534.9</ele>
        <time>2000-01-01T13:48:38.000Z</time>
      </trkpt>
      <trkpt lat="45.08856" lon="2.71417">
        <ele>1534.3</ele>
        <time>2000-01-01T13:48:28.000Z</time>
      </trkpt>
      <trkpt lat="45.08857" lon="2.71419">
        <ele>1534.4</ele>
        <time>2000-01-01T13:48:18.000Z</time>
      </trkpt>
      <trkpt lat="45.0886" lon="2.71422">
        <ele>1533.8</ele>
        <time>2000-01-01T13:48:08.000Z</time>
      </trkpt>
      <trkpt lat="45.08862" lon="2.71426">
        <ele>1533.9</ele>
        <time>2000-01-01T13:47:58.000Z</time>
      </trkpt>
      <trkpt lat="45.08863" lon="2.71431">
        <ele>1535</ele>
        <time>2000-01-01T13:47:48.000Z</time>
      </trkpt>
      <trkpt lat="45.08864" lon="2.71432">
        <ele>1534.5</ele>
        <time>2000-01-01T13:47:38.000Z</time>
      </trkpt>
      <trkpt lat="45.08867" lon="2.71436">
        <ele>1534.1</ele>
        <time>2000-01-01T13:47:28.000Z</time>
      </trkpt>
      <trkpt lat="45.08868" lon="2.71439">
        <ele>1534.4</ele>
        <time>2000-01-01T13:47:18.000Z</time>
      </trkpt>
      <trkpt lat="45.08869" lon="2.71441">
        <ele>1534.4</ele>
        <time>2000-01-01T13:47:08.000Z</time>
      </trkpt>
      <trkpt lat="45.0887" lon="2.71443">
        <ele>1534.5</ele>
        <time>2000-01-01T13:46:58.000Z</time>
      </trkpt>
      <trkpt lat="45.08872" lon="2.71445">
        <ele>1534</ele>
        <time>2000-01-01T13:46:48.000Z</time>
      </trkpt>
      <trkpt lat="45.08872" lon="2.71446">
        <ele>1534.3</ele>
        <time>2000-01-01T13:46:38.000Z</time>
      </trkpt>
      <trkpt lat="45.08874" lon="2.71449">
        <ele>1534.1</ele>
        <time>2000-01-01T13:46:28.000Z</time>
      </trkpt>
      <trkpt lat="45.08876" lon="2.71451">
        <ele>1532</ele>
        <time>2000-01-01T13:46:18.000Z</time>
      </trkpt>
      <trkpt lat="45.08878" lon="2.71454">
        <ele>1533.5</ele>
        <time>2000-01-01T13:46:08.000Z</time>
      </trkpt>
      <trkpt lat="45.0888" lon="2.71456">
        <ele>1533.1</ele>
        <time>2000-01-01T13:45:58.000Z</time>
      </trkpt>
      <trkpt lat="45.08881" lon="2.71459">
        <ele>1533.4</ele>
        <time>2000-01-01T13:45:48.000Z</time>
      </trkpt>
      <trkpt lat="45.08885" lon="2.7146">
        <ele>1531.7</ele>
        <time>2000-01-01T13:45:38.000Z</time>
      </trkpt>
      <trkpt lat="45.08887" lon="2.71463">
        <ele>1531.6</ele>
        <time>2000-01-01T13:45:28.000Z</time>
      </trkpt>
      <trkpt lat="45.08889" lon="2.71464">
        <ele>1530.9</ele>
        <time>2000-01-01T13:45:18.000Z</time>
      </trkpt>
      <trkpt lat="45.08893" lon="2.71468">
        <ele>1529</ele>
        <time>2000-01-01T13:45:08.000Z</time>
      </trkpt>
      <trkpt lat="45.08896" lon="2.71472">
        <ele>1529.9</ele>
        <time>2000-01-01T13:44:58.000Z</time>
      </trkpt>
      <trkpt lat="45.08898" lon="2.71475">
        <ele>1529.7</ele>
        <time>2000-01-01T13:44:48.000Z</time>
      </trkpt>
      <trkpt lat="45.089" lon="2.71477">
        <ele>1529.3</ele>
        <time>2000-01-01T13:44:38.000Z</time>
      </trkpt>
      <trkpt lat="45.08903" lon="2.71482">
        <ele>1529</ele>
        <time>2000-01-01T13:44:28.000Z</time>
      </trkpt>
      <trkpt lat="45.08905" lon="2.71485">
        <ele>1528.7</ele>
        <time>2000-01-01T13:44:18.000Z</time>
      </trkpt>
      <trkpt lat="45.08907" lon="2.71488">
        <ele>1528.4</ele>
        <time>2000-01-01T13:44:08.000Z</time>
      </trkpt>
      <trkpt lat="45.08908" lon="2.71492">
        <ele>1528</ele>
        <time>2000-01-01T13:43:58.000Z</time>
      </trkpt>
      <trkpt lat="45.08911" lon="2.71498">
        <ele>1528.5</ele>
        <time>2000-01-01T13:43:48.000Z</time>
      </trkpt>
      <trkpt lat="45.08912" lon="2.715">
        <ele>1528.4</ele>
        <time>2000-01-01T13:43:38.000Z</time>
      </trkpt>
      <trkpt lat="45.08914" lon="2.71502">
        <ele>1527.9</ele>
        <time>2000-01-01T13:43:28.000Z</time>
      </trkpt>
      <trkpt lat="45.08916" lon="2.71505">
        <ele>1527.8</ele>
        <time>2000-01-01T13:43:18.000Z</time>
      </trkpt>
      <trkpt lat="45.08918" lon="2.71508">
        <ele>1527.8</ele>
        <time>2000-01-01T13:43:08.000Z</time>
      </trkpt>
      <trkpt lat="45.0892" lon="2.7151">
        <ele>1527.7</ele>
        <time>2000-01-01T13:42:58.000Z</time>
      </trkpt>
      <trkpt lat="45.08923" lon="2.71512">
        <ele>1527</ele>
        <time>2000-01-01T13:42:48.000Z</time>
      </trkpt>
      <trkpt lat="45.08927" lon="2.71516">
        <ele>1526.8</ele>
        <time>2000-01-01T13:42:38.000Z</time>
      </trkpt>
      <trkpt lat="45.0893" lon="2.71519">
        <ele>1526.5</ele>
        <time>2000-01-01T13:42:28.000Z</time>
      </trkpt>
      <trkpt lat="45.08931" lon="2.7152">
        <ele>1526.4</ele>
        <time>2000-01-01T13:42:18.000Z</time>
      </trkpt>
      <trkpt lat="45.08932" lon="2.71521">
        <ele>1526.2</ele>
        <time>2000-01-01T13:42:08.000Z</time>
      </trkpt>
      <trkpt lat="45.08934" lon="2.71524">
        <ele>1526.2</ele>
        <time>2000-01-01T13:41:58.000Z</time>
      </trkpt>
      <trkpt lat="45.08935" lon="2.71528">
        <ele>1526.8</ele>
        <time>2000-01-01T13:41:48.000Z</time>
      </trkpt>
      <trkpt lat="45.08937" lon="2.71531">
        <ele>1527</ele>
        <time>2000-01-01T13:41:38.000Z</time>
      </trkpt>
      <trkpt lat="45.08939" lon="2.71534">
        <ele>1527</ele>
        <time>2000-01-01T13:41:28.000Z</time>
      </trkpt>
      <trkpt lat="45.08943" lon="2.71537">
        <ele>1526.5</ele>
        <time>2000-01-01T13:41:18.000Z</time>
      </trkpt>
      <trkpt lat="45.08947" lon="2.71539">
        <ele>1525.9</ele>
        <time>2000-01-01T13:41:08.000Z</time>
      </trkpt>
      <trkpt lat="45.08949" lon="2.71542">
        <ele>1526.3</ele>
        <time>2000-01-01T13:40:58.000Z</time>
      </trkpt>
      <trkpt lat="45.08952" lon="2.71546">
        <ele>1526.6</ele>
        <time>2000-01-01T13:40:48.000Z</time>
      </trkpt>
      <trkpt lat="45.08957" lon="2.71551">
        <ele>1528</ele>
        <time>2000-01-01T13:40:38.000Z</time>
      </trkpt>
      <trkpt lat="45.0896" lon="2.71555">
        <ele>1526.8</ele>
        <time>2000-01-01T13:40:28.000Z</time>
      </trkpt>
      <trkpt lat="45.08962" lon="2.71557">
        <ele>1526.7</ele>
        <time>2000-01-01T13:40:18.000Z</time>
      </trkpt>
      <trkpt lat="45.08967" lon="2.7156">
        <ele>1525.8</ele>
        <time>2000-01-01T13:40:08.000Z</time>
      </trkpt>
      <trkpt lat="45.08969" lon="2.71564">
        <ele>1526.2</ele>
        <time>2000-01-01T13:39:58.000Z</time>
      </trkpt>
      <trkpt lat="45.08973" lon="2.71569">
        <ele>1525</ele>
        <time>2000-01-01T13:39:48.000Z</time>
      </trkpt>
      <trkpt lat="45.08975" lon="2.71572">
        <ele>1526.3</ele>
        <time>2000-01-01T13:39:38.000Z</time>
      </trkpt>
      <trkpt lat="45.08977" lon="2.71575">
        <ele>1526.5</ele>
        <time>2000-01-01T13:39:28.000Z</time>
      </trkpt>
      <trkpt lat="45.0898" lon="2.71579">
        <ele>1526.5</ele>
        <time>2000-01-01T13:39:18.000Z</time>
      </trkpt>
      <trkpt lat="45.08984" lon="2.71584">
        <ele>1526.3</ele>
        <time>2000-01-01T13:39:08.000Z</time>
      </trkpt>
      <trkpt lat="45.08988" lon="2.71589">
        <ele>1524</ele>
        <time>2000-01-01T13:38:58.000Z</time>
      </trkpt>
      <trkpt lat="45.08991" lon="2.71593">
        <ele>1526.1</ele>
        <time>2000-01-01T13:38:48.000Z</time>
      </trkpt>
      <trkpt lat="45.08999" lon="2.71603">
        <ele>1525.6</ele>
        <time>2000-01-01T13:38:38.000Z</time>
      </trkpt>
      <trkpt lat="45.09001" lon="2.71606">
        <ele>1525.6</ele>
        <time>2000-01-01T13:38:28.000Z</time>
      </trkpt>
      <trkpt lat="45.09004" lon="2.71609">
        <ele>1523</ele>
        <time>2000-01-01T13:38:18.000Z</time>
      </trkpt>
      <trkpt lat="45.09006" lon="2.71612">
        <ele>1525.4</ele>
        <time>2000-01-01T13:38:08.000Z</time>
      </trkpt>
      <trkpt lat="45.0901" lon="2.71616">
        <ele>1525</ele>
        <time>2000-01-01T13:37:58.000Z</time>
      </trkpt>
      <trkpt lat="45.09012" lon="2.71618">
        <ele>1524.7</ele>
        <time>2000-01-01T13:37:48.000Z</time>
      </trkpt>
      <trkpt lat="45.09014" lon="2.71621">
        <ele>1524.6</ele>
        <time>2000-01-01T13:37:38.000Z</time>
      </trkpt>
      <trkpt lat="45.09015" lon="2.71624">
        <ele>1524.7</ele>
        <time>2000-01-01T13:37:28.000Z</time>
      </trkpt>
      <trkpt lat="45.09016" lon="2.71627">
        <ele>1524.8</ele>
        <time>2000-01-01T13:37:18.000Z</time>
      </trkpt>
      <trkpt lat="45.09018" lon="2.71632">
        <ele>1523</ele>
        <time>2000-01-01T13:37:08.000Z</time>
      </trkpt>
      <trkpt lat="45.09023" lon="2.71643">
        <ele>1524.8</ele>
        <time>2000-01-01T13:36:58.000Z</time>
      </trkpt>
      <trkpt lat="45.09026" lon="2.71649">
        <ele>1524.9</ele>
        <time>2000-01-01T13:36:48.000Z</time>
      </trkpt>
      <trkpt lat="45.09029" lon="2.71653">
        <ele>1525</ele>
        <time>2000-01-01T13:36:38.000Z</time>
      </trkpt>
      <trkpt lat="45.09032" lon="2.71656">
        <ele>1523</ele>
        <time>2000-01-01T13:36:28.000Z</time>
      </trkpt>
      <trkpt lat="45.09037" lon="2.71661">
        <ele>1526.4</ele>
        <time>2000-01-01T13:36:18.000Z</time>
      </trkpt>
      <trkpt lat="45.09041" lon="2.71664">
        <ele>1526.7</ele>
        <time>2000-01-01T13:36:08.000Z</time>
      </trkpt>
      <trkpt lat="45.09047" lon="2.71669">
        <ele>1526.9</ele>
        <time>2000-01-01T13:35:58.000Z</time>
      </trkpt>
      <trkpt lat="45.09049" lon="2.7167">
        <ele>1526.8</ele>
        <time>2000-01-01T13:35:48.000Z</time>
      </trkpt>
      <trkpt lat="45.09053" lon="2.71671">
        <ele>1523</ele>
        <time>2000-01-01T13:35:38.000Z</time>
      </trkpt>
      <trkpt lat="45.09057" lon="2.71673">
        <ele>1526.6</ele>
        <time>2000-01-01T13:35:28.000Z</time>
      </trkpt>
      <trkpt lat="45.09059" lon="2.71676">
        <ele>1527</ele>
        <time>2000-01-01T13:35:18.000Z</time>
      </trkpt>
      <trkpt lat="45.09061" lon="2.71678">
        <ele>1527.2</ele>
        <time>2000-01-01T13:35:08.000Z</time>
      </trkpt>
      <trkpt lat="45.09065" lon="2.71684">
        <ele>1527.5</ele>
        <time>2000-01-01T13:34:58.000Z</time>
      </trkpt>
      <trkpt lat="45.09068" lon="2.7169">
        <ele>1524</ele>
        <time>2000-01-01T13:34:48.000Z</time>
      </trkpt>
      <trkpt lat="45.09069" lon="2.71694">
        <ele>1527.1</ele>
        <time>2000-01-01T13:34:38.000Z</time>
      </trkpt>
      <trkpt lat="45.0907" lon="2.71698">
        <ele>1526.1</ele>
        <time>2000-01-01T13:34:28.000Z</time>
      </trkpt>
      <trkpt lat="45.09069" lon="2.71702">
        <ele>1525.1</ele>
        <time>2000-01-01T13:34:18.000Z</time>
      </trkpt>
      <trkpt lat="45.09068" lon="2.71707">
        <ele>1524</ele>
        <time>2000-01-01T13:34:08.000Z</time>
      </trkpt>
      <trkpt lat="45.09068" lon="2.71711">
        <ele>1523.1</ele>
        <time>2000-01-01T13:33:58.000Z</time>
      </trkpt>
      <trkpt lat="45.09068" lon="2.71714">
        <ele>1522.3</ele>
        <time>2000-01-01T13:33:48.000Z</time>
      </trkpt>
      <trkpt lat="45.09069" lon="2.71717">
        <ele>1524</ele>
        <time>2000-01-01T13:33:38.000Z</time>
      </trkpt>
      <trkpt lat="45.09077" lon="2.7172">
        <ele>1519</ele>
        <time>2000-01-01T13:33:28.000Z</time>
      </trkpt>
      <trkpt lat="45.09088" lon="2.71713">
        <ele>1524</ele>
        <time>2000-01-01T13:33:18.000Z</time>
      </trkpt>
      <trkpt lat="45.091" lon="2.7171">
        <ele>1521.2</ele>
        <time>2000-01-01T13:33:08.000Z</time>
      </trkpt>
      <trkpt lat="45.09107" lon="2.71707">
        <ele>1522.4</ele>
        <time>2000-01-01T13:32:58.000Z</time>
      </trkpt>
      <trkpt lat="45.09118" lon="2.71707">
        <ele>1524</ele>
        <time>2000-01-01T13:32:48.000Z</time>
      </trkpt>
      <trkpt lat="45.09127" lon="2.71707">
        <ele>1523.9</ele>
        <time>2000-01-01T13:32:38.000Z</time>
      </trkpt>
      <trkpt lat="45.09138" lon="2.71707">
        <ele>1527</ele>
        <time>2000-01-01T13:32:28.000Z</time>
      </trkpt>
      <trkpt lat="45.09143" lon="2.71707">
        <ele>1525</ele>
        <time>2000-01-01T13:32:18.000Z</time>
      </trkpt>
      <trkpt lat="45.09152" lon="2.71702">
        <ele>1526.8</ele>
        <time>2000-01-01T13:32:08.000Z</time>
      </trkpt>
      <trkpt lat="45.09159" lon="2.71701">
        <ele>1527</ele>
        <time>2000-01-01T13:31:58.000Z</time>
      </trkpt>
      <trkpt lat="45.09176" lon="2.71697">
        <ele>1527.1</ele>
        <time>2000-01-01T13:31:48.000Z</time>
      </trkpt>
      <trkpt lat="45.09181" lon="2.71696">
        <ele>1526.9</ele>
        <time>2000-01-01T13:31:38.000Z</time>
      </trkpt>
      <trkpt lat="45.09187" lon="2.71694">
        <ele>1529</ele>
        <time>2000-01-01T13:31:28.000Z</time>
      </trkpt>
      <trkpt lat="45.092" lon="2.71685">
        <ele>1528.7</ele>
        <time>2000-01-01T13:31:18.000Z</time>
      </trkpt>
      <trkpt lat="45.09207" lon="2.71682">
        <ele>1529</ele>
        <time>2000-01-01T13:31:08.000Z</time>
      </trkpt>
      <trkpt lat="45.09218" lon="2.7168">
        <ele>1529</ele>
        <time>2000-01-01T13:30:58.000Z</time>
      </trkpt>
      <trkpt lat="45.09226" lon="2.71676">
        <ele>1529.8</ele>
        <time>2000-01-01T13:30:48.000Z</time>
      </trkpt>
      <trkpt lat="45.09234" lon="2.71673">
        <ele>1529</ele>
        <time>2000-01-01T13:30:38.000Z</time>
      </trkpt>
      <trkpt lat="45.09243" lon="2.71673">
        <ele>1530.8</ele>
        <time>2000-01-01T13:30:28.000Z</time>
      </trkpt>
      <trkpt lat="45.09249" lon="2.71676">
        <ele>1531</ele>
        <time>2000-01-01T13:30:18.000Z</time>
      </trkpt>
      <trkpt lat="45.09253" lon="2.71676">
        <ele>1531</ele>
        <time>2000-01-01T13:30:08.000Z</time>
      </trkpt>
      <trkpt lat="45.09262" lon="2.71679">
        <ele>1533.4</ele>
        <time>2000-01-01T13:29:58.000Z</time>
      </trkpt>
      <trkpt lat="45.09278" lon="2.71683">
        <ele>1535</ele>
        <time>2000-01-01T13:29:48.000Z</time>
      </trkpt>
      <trkpt lat="45.09285" lon="2.71684">
        <ele>1537.9</ele>
        <time>2000-01-01T13:29:38.000Z</time>
      </trkpt>
      <trkpt lat="45.09292" lon="2.71682">
        <ele>1539.1</ele>
        <time>2000-01-01T13:29:28.000Z</time>
      </trkpt>
      <trkpt lat="45.09295" lon="2.7168">
        <ele>1539.6</ele>
        <time>2000-01-01T13:29:18.000Z</time>
      </trkpt>
      <trkpt lat="45.09297" lon="2.71678">
        <ele>1538</ele>
        <time>2000-01-01T13:29:08.000Z</time>
      </trkpt>
      <trkpt lat="45.09302" lon="2.71683">
        <ele>1540.9</ele>
        <time>2000-01-01T13:28:58.000Z</time>
      </trkpt>
      <trkpt lat="45.09313" lon="2.71692">
        <ele>1541</ele>
        <time>2000-01-01T13:28:48.000Z</time>
      </trkpt>
      <trkpt lat="45.09332" lon="2.71705">
        <ele>1542.2</ele>
        <time>2000-01-01T13:28:38.000Z</time>
      </trkpt>
      <trkpt lat="45.09347" lon="2.71714">
        <ele>1542</ele>
        <time>2000-01-01T13:28:28.000Z</time>
      </trkpt>
      <trkpt lat="45.09362" lon="2.71719">
        <ele>1542.3</ele>
        <time>2000-01-01T13:28:18.000Z</time>
      </trkpt>
      <trkpt lat="45.0937" lon="2.7172">
        <ele>1541.9</ele>
        <time>2000-01-01T13:28:08.000Z</time>
      </trkpt>
      <trkpt lat="45.09376" lon="2.71721">
        <ele>1542</ele>
        <time>2000-01-01T13:27:58.000Z</time>
      </trkpt>
      <trkpt lat="45.09388" lon="2.71728">
        <ele>1542.5</ele>
        <time>2000-01-01T13:27:48.000Z</time>
      </trkpt>
      <trkpt lat="45.09394" lon="2.71733">
        <ele>1542</ele>
        <time>2000-01-01T13:27:38.000Z</time>
      </trkpt>
      <trkpt lat="45.09415" lon="2.71743">
        <ele>1542</ele>
        <time>2000-01-01T13:27:28.000Z</time>
      </trkpt>
      <trkpt lat="45.09425" lon="2.71747">
        <ele>1543.6</ele>
        <time>2000-01-01T13:27:18.000Z</time>
      </trkpt>
      <trkpt lat="45.0943" lon="2.71748">
        <ele>1543.5</ele>
        <time>2000-01-01T13:27:08.000Z</time>
      </trkpt>
      <trkpt lat="45.09436" lon="2.71749">
        <ele>1542</ele>
        <time>2000-01-01T13:26:58.000Z</time>
      </trkpt>
      <trkpt lat="45.09457" lon="2.71757">
        <ele>1542</ele>
        <time>2000-01-01T13:26:48.000Z</time>
      </trkpt>
      <trkpt lat="45.09472" lon="2.71764">
        <ele>1544.6</ele>
        <time>2000-01-01T13:26:38.000Z</time>
      </trkpt>
      <trkpt lat="45.0948" lon="2.71765">
        <ele>1542</ele>
        <time>2000-01-01T13:26:28.000Z</time>
      </trkpt>
      <trkpt lat="45.09487" lon="2.71766">
        <ele>1544</ele>
        <time>2000-01-01T13:26:18.000Z</time>
      </trkpt>
      <trkpt lat="45.0949" lon="2.71769">
        <ele>1545</ele>
        <time>2000-01-01T13:26:08.000Z</time>
      </trkpt>
      <trkpt lat="45.09492" lon="2.7177">
        <ele>1545.3</ele>
        <time>2000-01-01T13:25:58.000Z</time>
      </trkpt>
      <trkpt lat="45.09495" lon="2.71769">
        <ele>1544.6</ele>
        <time>2000-01-01T13:25:48.000Z</time>
      </trkpt>
      <trkpt lat="45.09499" lon="2.71769">
        <ele>1544.3</ele>
        <time>2000-01-01T13:25:38.000Z</time>
      </trkpt>
      <trkpt lat="45.09501" lon="2.71769">
        <ele>1544.2</ele>
        <time>2000-01-01T13:25:28.000Z</time>
      </trkpt>
      <trkpt lat="45.09505" lon="2.71769">
        <ele>1541</ele>
        <time>2000-01-01T13:25:18.000Z</time>
      </trkpt>
      <trkpt lat="45.09513" lon="2.71768">
        <ele>1543.9</ele>
        <time>2000-01-01T13:25:08.000Z</time>
      </trkpt>
      <trkpt lat="45.09518" lon="2.71768">
        <ele>1544</ele>
        <time>2000-01-01T13:24:58.000Z</time>
      </trkpt>
      <trkpt lat="45.0953" lon="2.71769">
        <ele>1541</ele>
        <time>2000-01-01T13:24:48.000Z</time>
      </trkpt>
      <trkpt lat="45.09535" lon="2.71768">
        <ele>1544.1</ele>
        <time>2000-01-01T13:24:38.000Z</time>
      </trkpt>
      <trkpt lat="45.09545" lon="2.71768">
        <ele>1544.2</ele>
        <time>2000-01-01T13:24:28.000Z</time>
      </trkpt>
      <trkpt lat="45.09549" lon="2.71766">
        <ele>1543.5</ele>
        <time>2000-01-01T13:24:18.000Z</time>
      </trkpt>
      <trkpt lat="45.09546" lon="2.71768">
        <ele>1541</ele>
        <time>2000-01-01T13:24:08.000Z</time>
      </trkpt>
      <trkpt lat="45.0955" lon="2.71765">
        <ele>1543.2</ele>
        <time>2000-01-01T13:23:58.000Z</time>
      </trkpt>
      <trkpt lat="45.09553" lon="2.71764">
        <ele>1543</ele>
        <time>2000-01-01T13:23:48.000Z</time>
      </trkpt>
      <trkpt lat="45.09557" lon="2.71764">
        <ele>1543.1</ele>
        <time>2000-01-01T13:23:38.000Z</time>
      </trkpt>
      <trkpt lat="45.09562" lon="2.71765">
        <ele>1543.4</ele>
        <time>2000-01-01T13:23:28.000Z</time>
      </trkpt>
      <trkpt lat="45.09565" lon="2.71765">
        <ele>1542</ele>
        <time>2000-01-01T13:23:18.000Z</time>
      </trkpt>
      <trkpt lat="45.09573" lon="2.71764">
        <ele>1543.3</ele>
        <time>2000-01-01T13:23:08.000Z</time>
      </trkpt>
      <trkpt lat="45.0958" lon="2.71763">
        <ele>1543.2</ele>
        <time>2000-01-01T13:22:58.000Z</time>
      </trkpt>
      <trkpt lat="45.09587" lon="2.71762">
        <ele>1542</ele>
        <time>2000-01-01T13:22:48.000Z</time>
      </trkpt>
      <trkpt lat="45.09595" lon="2.71761">
        <ele>1542.9</ele>
        <time>2000-01-01T13:22:38.000Z</time>
      </trkpt>
      <trkpt lat="45.096" lon="2.71761">
        <ele>1543</ele>
        <time>2000-01-01T13:22:28.000Z</time>
      </trkpt>
      <trkpt lat="45.09609" lon="2.7176">
        <ele>1542</ele>
        <time>2000-01-01T13:22:18.000Z</time>
      </trkpt>
      <trkpt lat="45.09615" lon="2.7176">
        <ele>1543</ele>
        <time>2000-01-01T13:22:08.000Z</time>
      </trkpt>
      <trkpt lat="45.09621" lon="2.71762">
        <ele>1543.8</ele>
        <time>2000-01-01T13:21:58.000Z</time>
      </trkpt>
      <trkpt lat="45.09629" lon="2.71762">
        <ele>1544.1</ele>
        <time>2000-01-01T13:21:48.000Z</time>
      </trkpt>
      <trkpt lat="45.09632" lon="2.71761">
        <ele>1542</ele>
        <time>2000-01-01T13:21:38.000Z</time>
      </trkpt>
      <trkpt lat="45.0964" lon="2.71757">
        <ele>1543.2</ele>
        <time>2000-01-01T13:21:28.000Z</time>
      </trkpt>
      <trkpt lat="45.09645" lon="2.71755">
        <ele>1543.6</ele>
        <time>2000-01-01T13:21:18.000Z</time>
      </trkpt>
      <trkpt lat="45.09652" lon="2.71751">
        <ele>1542</ele>
        <time>2000-01-01T13:21:08.000Z</time>
      </trkpt>
      <trkpt lat="45.09658" lon="2.71751">
        <ele>1544.8</ele>
        <time>2000-01-01T13:20:58.000Z</time>
      </trkpt>
      <trkpt lat="45.09661" lon="2.7175">
        <ele>1545</ele>
        <time>2000-01-01T13:20:48.000Z</time>
      </trkpt>
      <trkpt lat="45.09666" lon="2.71748">
        <ele>1545.1</ele>
        <time>2000-01-01T13:20:38.000Z</time>
      </trkpt>
      <trkpt lat="45.09671" lon="2.71746">
        <ele>1542</ele>
        <time>2000-01-01T13:20:28.000Z</time>
      </trkpt>
      <trkpt lat="45.09676" lon="2.71745">
        <ele>1546.6</ele>
        <time>2000-01-01T13:20:18.000Z</time>
      </trkpt>
      <trkpt lat="45.09684" lon="2.7174">
        <ele>1546.6</ele>
        <time>2000-01-01T13:20:08.000Z</time>
      </trkpt>
      <trkpt lat="45.09689" lon="2.71737">
        <ele>1542</ele>
        <time>2000-01-01T13:19:58.000Z</time>
      </trkpt>
      <trkpt lat="45.09696" lon="2.71734">
        <ele>1546.9</ele>
        <time>2000-01-01T13:19:48.000Z</time>
      </trkpt>
      <trkpt lat="45.09702" lon="2.7173">
        <ele>1546.6</ele>
        <time>2000-01-01T13:19:38.000Z</time>
      </trkpt>
      <trkpt lat="45.09708" lon="2.71725">
        <ele>1541</ele>
        <time>2000-01-01T13:19:28.000Z</time>
      </trkpt>
      <trkpt lat="45.09715" lon="2.7172">
        <ele>1545.1</ele>
        <time>2000-01-01T13:19:18.000Z</time>
      </trkpt>
      <trkpt lat="45.09722" lon="2.71719">
        <ele>1546.3</ele>
        <time>2000-01-01T13:19:08.000Z</time>
      </trkpt>
      <trkpt lat="45.09728" lon="2.71714">
        <ele>1541</ele>
        <time>2000-01-01T13:18:58.000Z</time>
      </trkpt>
      <trkpt lat="45.09737" lon="2.71709">
        <ele>1544.3</ele>
        <time>2000-01-01T13:18:48.000Z</time>
      </trkpt>
      <trkpt lat="45.0975" lon="2.71704">
        <ele>1541</ele>
        <time>2000-01-01T13:18:38.000Z</time>
      </trkpt>
      <trkpt lat="45.09761" lon="2.71702">
        <ele>1544.7</ele>
        <time>2000-01-01T13:18:28.000Z</time>
      </trkpt>
      <trkpt lat="45.09772" lon="2.71699">
        <ele>1539</ele>
        <time>2000-01-01T13:18:18.000Z</time>
      </trkpt>
      <trkpt lat="45.0979" lon="2.71695">
        <ele>1544.6</ele>
        <time>2000-01-01T13:18:08.000Z</time>
      </trkpt>
      <trkpt lat="45.09805" lon="2.7169">
        <ele>1537</ele>
        <time>2000-01-01T13:17:58.000Z</time>
      </trkpt>
      <trkpt lat="45.09827" lon="2.71684">
        <ele>1543.1</ele>
        <time>2000-01-01T13:17:48.000Z</time>
      </trkpt>
      <trkpt lat="45.0984" lon="2.71677">
        <ele>1535</ele>
        <time>2000-01-01T13:17:38.000Z</time>
      </trkpt>
      <trkpt lat="45.09849" lon="2.71671">
        <ele>1540.5</ele>
        <time>2000-01-01T13:17:28.000Z</time>
      </trkpt>
      <trkpt lat="45.0984" lon="2.71677">
        <ele>1535</ele>
        <time>2000-01-01T13:17:18.000Z</time>
      </trkpt>
      <trkpt lat="45.09849" lon="2.71671">
        <ele>1540.5</ele>
        <time>2000-01-01T13:17:08.000Z</time>
      </trkpt>
      <trkpt lat="45.09858" lon="2.71669">
        <ele>1535</ele>
        <time>2000-01-01T13:16:58.000Z</time>
      </trkpt>
      <trkpt lat="45.09876" lon="2.71665">
        <ele>1542.2</ele>
        <time>2000-01-01T13:16:48.000Z</time>
      </trkpt>
      <trkpt lat="45.09879" lon="2.71664">
        <ele>1542.2</ele>
        <time>2000-01-01T13:16:38.000Z</time>
      </trkpt>
      <trkpt lat="45.09888" lon="2.71661">
        <ele>1542</ele>
        <time>2000-01-01T13:16:28.000Z</time>
      </trkpt>
      <trkpt lat="45.09893" lon="2.71661">
        <ele>1537</ele>
        <time>2000-01-01T13:16:18.000Z</time>
      </trkpt>
      <trkpt lat="45.09901" lon="2.71658">
        <ele>1541.5</ele>
        <time>2000-01-01T13:16:08.000Z</time>
      </trkpt>
      <trkpt lat="45.09905" lon="2.71656">
        <ele>1540.8</ele>
        <time>2000-01-01T13:15:58.000Z</time>
      </trkpt>
      <trkpt lat="45.09912" lon="2.71656">
        <ele>1541.3</ele>
        <time>2000-01-01T13:15:48.000Z</time>
      </trkpt>
      <trkpt lat="45.09914" lon="2.71655">
        <ele>1540.9</ele>
        <time>2000-01-01T13:15:38.000Z</time>
      </trkpt>
      <trkpt lat="45.09919" lon="2.71653">
        <ele>1539</ele>
        <time>2000-01-01T13:15:28.000Z</time>
      </trkpt>
      <trkpt lat="45.09932" lon="2.71652">
        <ele>1539.6</ele>
        <time>2000-01-01T13:15:18.000Z</time>
      </trkpt>
      <trkpt lat="45.0994" lon="2.71651">
        <ele>1536</ele>
        <time>2000-01-01T13:15:08.000Z</time>
      </trkpt>
      <trkpt lat="45.09944" lon="2.71652">
        <ele>1539.6</ele>
        <time>2000-01-01T13:14:58.000Z</time>
      </trkpt>
      <trkpt lat="45.09949" lon="2.7165">
        <ele>1538.6</ele>
        <time>2000-01-01T13:14:48.000Z</time>
      </trkpt>
      <trkpt lat="45.09953" lon="2.71649">
        <ele>1538.1</ele>
        <time>2000-01-01T13:14:38.000Z</time>
      </trkpt>
      <trkpt lat="45.0996" lon="2.71647">
        <ele>1533</ele>
        <time>2000-01-01T13:14:28.000Z</time>
      </trkpt>
      <trkpt lat="45.09969" lon="2.71647">
        <ele>1537.1</ele>
        <time>2000-01-01T13:14:18.000Z</time>
      </trkpt>
      <trkpt lat="45.09981" lon="2.71645">
        <ele>1534.8</ele>
        <time>2000-01-01T13:14:08.000Z</time>
      </trkpt>
      <trkpt lat="45.09986" lon="2.71646">
        <ele>1532</ele>
        <time>2000-01-01T13:13:58.000Z</time>
      </trkpt>
      <trkpt lat="45.09991" lon="2.7165">
        <ele>1535.9</ele>
        <time>2000-01-01T13:13:48.000Z</time>
      </trkpt>
      <trkpt lat="45.09997" lon="2.71652">
        <ele>1536</ele>
        <time>2000-01-01T13:13:38.000Z</time>
      </trkpt>
      <trkpt lat="45.10007" lon="2.71653">
        <ele>1530</ele>
        <time>2000-01-01T13:13:28.000Z</time>
      </trkpt>
      <trkpt lat="45.10017" lon="2.71654">
        <ele>1533.3</ele>
        <time>2000-01-01T13:13:18.000Z</time>
      </trkpt>
      <trkpt lat="45.10022" lon="2.71656">
        <ele>1533.4</ele>
        <time>2000-01-01T13:13:08.000Z</time>
      </trkpt>
      <trkpt lat="45.10029" lon="2.71659">
        <ele>1533.7</ele>
        <time>2000-01-01T13:12:58.000Z</time>
      </trkpt>
      <trkpt lat="45.10033" lon="2.7166">
        <ele>1529</ele>
        <time>2000-01-01T13:12:48.000Z</time>
      </trkpt>
      <trkpt lat="45.10037" lon="2.71658">
        <ele>1532</ele>
        <time>2000-01-01T13:12:38.000Z</time>
      </trkpt>
      <trkpt lat="45.10043" lon="2.71658">
        <ele>1531.1</ele>
        <time>2000-01-01T13:12:28.000Z</time>
      </trkpt>
      <trkpt lat="45.1005" lon="2.71658">
        <ele>1530.1</ele>
        <time>2000-01-01T13:12:18.000Z</time>
      </trkpt>
      <trkpt lat="45.10055" lon="2.7166">
        <ele>1528</ele>
        <time>2000-01-01T13:12:08.000Z</time>
      </trkpt>
      <trkpt lat="45.1006" lon="2.71665">
        <ele>1532</ele>
        <time>2000-01-01T13:11:58.000Z</time>
      </trkpt>
      <trkpt lat="45.10063" lon="2.71666">
        <ele>1532.2</ele>
        <time>2000-01-01T13:11:48.000Z</time>
      </trkpt>
      <trkpt lat="45.10069" lon="2.71667">
        <ele>1532.2</ele>
        <time>2000-01-01T13:11:38.000Z</time>
      </trkpt>
      <trkpt lat="45.10071" lon="2.71669">
        <ele>1533</ele>
        <time>2000-01-01T13:11:28.000Z</time>
      </trkpt>
      <trkpt lat="45.10076" lon="2.71668">
        <ele>1527</ele>
        <time>2000-01-01T13:11:18.000Z</time>
      </trkpt>
      <trkpt lat="45.10081" lon="2.71667">
        <ele>1531.3</ele>
        <time>2000-01-01T13:11:08.000Z</time>
      </trkpt>
      <trkpt lat="45.10085" lon="2.71668">
        <ele>1531.9</ele>
        <time>2000-01-01T13:10:58.000Z</time>
      </trkpt>
      <trkpt lat="45.10089" lon="2.7167">
        <ele>1533.4</ele>
        <time>2000-01-01T13:10:48.000Z</time>
      </trkpt>
      <trkpt lat="45.10093" lon="2.71669">
        <ele>1533.5</ele>
        <time>2000-01-01T13:10:38.000Z</time>
      </trkpt>
      <trkpt lat="45.10095" lon="2.71666">
        <ele>1527</ele>
        <time>2000-01-01T13:10:28.000Z</time>
      </trkpt>
      <trkpt lat="45.101" lon="2.7166">
        <ele>1530.6</ele>
        <time>2000-01-01T13:10:18.000Z</time>
      </trkpt>
      <trkpt lat="45.10113" lon="2.71655">
        <ele>1527</ele>
        <time>2000-01-01T13:10:08.000Z</time>
      </trkpt>
      <trkpt lat="45.10125" lon="2.7165">
        <ele>1531.1</ele>
        <time>2000-01-01T13:09:58.000Z</time>
      </trkpt>
      <trkpt lat="45.10139" lon="2.71642">
        <ele>1527</ele>
        <time>2000-01-01T13:09:48.000Z</time>
      </trkpt>
      <trkpt lat="45.1016" lon="2.71633">
        <ele>1529.7</ele>
        <time>2000-01-01T13:09:38.000Z</time>
      </trkpt>
      <trkpt lat="45.10172" lon="2.7163">
        <ele>1529.5</ele>
        <time>2000-01-01T13:09:28.000Z</time>
      </trkpt>
      <trkpt lat="45.10177" lon="2.71631">
        <ele>1527</ele>
        <time>2000-01-01T13:09:18.000Z</time>
      </trkpt>
      <trkpt lat="45.10182" lon="2.7163">
        <ele>1529.7</ele>
        <time>2000-01-01T13:09:08.000Z</time>
      </trkpt>
      <trkpt lat="45.10186" lon="2.71629">
        <ele>1529.3</ele>
        <time>2000-01-01T13:08:58.000Z</time>
      </trkpt>
      <trkpt lat="45.10195" lon="2.71632">
        <ele>1528</ele>
        <time>2000-01-01T13:08:48.000Z</time>
      </trkpt>
      <trkpt lat="45.10216" lon="2.71634">
        <ele>1528</ele>
        <time>2000-01-01T13:08:38.000Z</time>
      </trkpt>
      <trkpt lat="45.10226" lon="2.71635">
        <ele>1529.6</ele>
        <time>2000-01-01T13:08:28.000Z</time>
      </trkpt>
      <trkpt lat="45.10234" lon="2.71638">
        <ele>1527</ele>
        <time>2000-01-01T13:08:18.000Z</time>
      </trkpt>
      <trkpt lat="45.10243" lon="2.71639">
        <ele>1530.3</ele>
        <time>2000-01-01T13:08:08.000Z</time>
      </trkpt>
      <trkpt lat="45.10248" lon="2.71639">
        <ele>1530.1</ele>
        <time>2000-01-01T13:07:58.000Z</time>
      </trkpt>
      <trkpt lat="45.1025" lon="2.7164">
        <ele>1530.4</ele>
        <time>2000-01-01T13:07:48.000Z</time>
      </trkpt>
      <trkpt lat="45.10261" lon="2.71641">
        <ele>1527</ele>
        <time>2000-01-01T13:07:38.000Z</time>
      </trkpt>
      <trkpt lat="45.10281" lon="2.71647">
        <ele>1527</ele>
        <time>2000-01-01T13:07:28.000Z</time>
      </trkpt>
      <trkpt lat="45.10299" lon="2.7165">
        <ele>1528.5</ele>
        <time>2000-01-01T13:07:18.000Z</time>
      </trkpt>
      <trkpt lat="45.10307" lon="2.71646">
        <ele>1527.8</ele>
        <time>2000-01-01T13:07:08.000Z</time>
      </trkpt>
      <trkpt lat="45.10315" lon="2.7164">
        <ele>1527</ele>
        <time>2000-01-01T13:06:58.000Z</time>
      </trkpt>
      <trkpt lat="45.1032" lon="2.71635">
        <ele>1530.3</ele>
        <time>2000-01-01T13:06:38.000Z</time>
      </trkpt>
      <trkpt lat="45.1033" lon="2.71632">
        <ele>1532.6</ele>
        <time>2000-01-01T13:06:28.000Z</time>
      </trkpt>
      <trkpt lat="45.10336" lon="2.71627">
        <ele>1529</ele>
        <time>2000-01-01T13:06:18.000Z</time>
      </trkpt>
      <trkpt lat="45.10345" lon="2.71621">
        <ele>1532.8</ele>
        <time>2000-01-01T13:06:08.000Z</time>
      </trkpt>
      <trkpt lat="45.10336" lon="2.71627">
        <ele>1533.1</ele>
        <time>2000-01-01T13:05:58.000Z</time>
      </trkpt>
      <trkpt lat="45.10345" lon="2.71621">
        <ele>1532</ele>
        <time>2000-01-01T13:05:48.000Z</time>
      </trkpt>
      <trkpt lat="45.10359" lon="2.71614">
        <ele>1533.6</ele>
        <time>2000-01-01T13:05:38.000Z</time>
      </trkpt>
      <trkpt lat="45.10376" lon="2.71608">
        <ele>1532</ele>
        <time>2000-01-01T13:05:18.000Z</time>
      </trkpt>
      <trkpt lat="45.10386" lon="2.716">
        <ele>1532.2</ele>
        <time>2000-01-01T13:05:08.000Z</time>
      </trkpt>
      <trkpt lat="45.10395" lon="2.71594">
        <ele>1532</ele>
        <time>2000-01-01T13:04:58.000Z</time>
      </trkpt>
      <trkpt lat="45.10399" lon="2.71585">
        <ele>1532</ele>
        <time>2000-01-01T13:04:48.000Z</time>
      </trkpt>
      <trkpt lat="45.10406" lon="2.71567">
        <ele>1532</ele>
        <time>2000-01-01T13:04:38.000Z</time>
      </trkpt>
      <trkpt lat="45.10409" lon="2.71558">
        <ele>1533.7</ele>
        <time>2000-01-01T13:04:28.000Z</time>
      </trkpt>
      <trkpt lat="45.10413" lon="2.71551">
        <ele>1534.6</ele>
        <time>2000-01-01T13:04:18.000Z</time>
      </trkpt>
      <trkpt lat="45.10418" lon="2.71543">
        <ele>1535.4</ele>
        <time>2000-01-01T13:04:08.000Z</time>
      </trkpt>
      <trkpt lat="45.10418" lon="2.71542">
        <ele>1532</ele>
        <time>2000-01-01T13:03:58.000Z</time>
      </trkpt>
      <trkpt lat="45.10421" lon="2.71543">
        <ele>1536.1</ele>
        <time>2000-01-01T13:03:38.000Z</time>
      </trkpt>
      <trkpt lat="45.10418" lon="2.71542">
        <ele>1535.3</ele>
        <time>2000-01-01T13:03:28.000Z</time>
      </trkpt>
      <trkpt lat="45.10425" lon="2.71522">
        <ele>1534</ele>
        <time>2000-01-01T13:03:18.000Z</time>
      </trkpt>
      <trkpt lat="45.10431" lon="2.71502">
        <ele>1537.3</ele>
        <time>2000-01-01T13:02:58.000Z</time>
      </trkpt>
      <trkpt lat="45.10436" lon="2.71484">
        <ele>1535</ele>
        <time>2000-01-01T13:02:38.000Z</time>
      </trkpt>
      <trkpt lat="45.1044" lon="2.71468">
        <ele>1540</ele>
        <time>2000-01-01T13:02:28.000Z</time>
      </trkpt>
      <trkpt lat="45.10441" lon="2.71454">
        <ele>1539</ele>
        <time>2000-01-01T13:02:18.000Z</time>
      </trkpt>
      <trkpt lat="45.10442" lon="2.71441">
        <ele>1543.3</ele>
        <time>2000-01-01T13:02:08.000Z</time>
      </trkpt>
      <trkpt lat="45.10438" lon="2.71426">
        <ele>1543.8</ele>
        <time>2000-01-01T13:01:58.000Z</time>
      </trkpt>
      <trkpt lat="45.10438" lon="2.71418">
        <ele>1542</ele>
        <time>2000-01-01T13:01:48.000Z</time>
      </trkpt>
      <trkpt lat="45.10437" lon="2.71402">
        <ele>1546.1</ele>
        <time>2000-01-01T13:01:38.000Z</time>
      </trkpt>
      <trkpt lat="45.10436" lon="2.71388">
        <ele>1544</ele>
        <time>2000-01-01T13:01:18.000Z</time>
      </trkpt>
      <trkpt lat="45.10436" lon="2.71373">
        <ele>1547.5</ele>
        <time>2000-01-01T13:01:08.000Z</time>
      </trkpt>
      <trkpt lat="45.10436" lon="2.71367">
        <ele>1547.9</ele>
        <time>2000-01-01T13:00:58.000Z</time>
      </trkpt>
      <trkpt lat="45.10436" lon="2.7136">
        <ele>1544</ele>
        <time>2000-01-01T13:00:48.000Z</time>
      </trkpt>
      <trkpt lat="45.10437" lon="2.71351">
        <ele>1548</ele>
        <time>2000-01-01T13:00:38.000Z</time>
      </trkpt>
      <trkpt lat="45.1044" lon="2.71342">
        <ele>1549.1</ele>
        <time>2000-01-01T13:00:28.000Z</time>
      </trkpt>
      <trkpt lat="45.1044" lon="2.71336">
        <ele>1548.5</ele>
        <time>2000-01-01T13:00:18.000Z</time>
      </trkpt>
      <trkpt lat="45.10442" lon="2.71333">
        <ele>1549.4</ele>
        <time>2000-01-01T13:00:08.000Z</time>
      </trkpt>
      <trkpt lat="45.10445" lon="2.7133">
        <ele>1545</ele>
        <time>2000-01-01T12:59:58.000Z</time>
      </trkpt>
      <trkpt lat="45.10452" lon="2.71328">
        <ele>1551.2</ele>
        <time>2000-01-01T12:59:48.000Z</time>
      </trkpt>
      <trkpt lat="45.10469" lon="2.71324">
        <ele>1551</ele>
        <time>2000-01-01T12:59:38.000Z</time>
      </trkpt>
      <trkpt lat="45.10475" lon="2.71323">
        <ele>1554.5</ele>
        <time>2000-01-01T12:59:28.000Z</time>
      </trkpt>
      <trkpt lat="45.10492" lon="2.71314">
        <ele>1552</ele>
        <time>2000-01-01T12:59:18.000Z</time>
      </trkpt>
      <trkpt lat="45.10501" lon="2.71308">
        <ele>1555.6</ele>
        <time>2000-01-01T12:58:58.000Z</time>
      </trkpt>
      <trkpt lat="45.10504" lon="2.71305">
        <ele>1556.3</ele>
        <time>2000-01-01T12:58:48.000Z</time>
      </trkpt>
      <trkpt lat="45.10508" lon="2.71294">
        <ele>1556.6</ele>
        <time>2000-01-01T12:58:38.000Z</time>
      </trkpt>
      <trkpt lat="45.10512" lon="2.71289">
        <ele>1556</ele>
        <time>2000-01-01T12:58:28.000Z</time>
      </trkpt>
      <trkpt lat="45.1052" lon="2.71279">
        <ele>1560.1</ele>
        <time>2000-01-01T12:58:18.000Z</time>
      </trkpt>
      <trkpt lat="45.10524" lon="2.71276">
        <ele>1561.7</ele>
        <time>2000-01-01T12:58:08.000Z</time>
      </trkpt>
      <trkpt lat="45.10527" lon="2.7127">
        <ele>1562.7</ele>
        <time>2000-01-01T12:57:58.000Z</time>
      </trkpt>
      <trkpt lat="45.10529" lon="2.71263">
        <ele>1556</ele>
        <time>2000-01-01T12:57:48.000Z</time>
      </trkpt>
      <trkpt lat="45.10533" lon="2.71255">
        <ele>1564.8</ele>
        <time>2000-01-01T12:57:38.000Z</time>
      </trkpt>
      <trkpt lat="45.10535" lon="2.71248">
        <ele>1565</ele>
        <time>2000-01-01T12:57:28.000Z</time>
      </trkpt>
      <trkpt lat="45.10539" lon="2.71238">
        <ele>1557</ele>
        <time>2000-01-01T12:57:18.000Z</time>
      </trkpt>
      <trkpt lat="45.10546" lon="2.71224">
        <ele>1567.8</ele>
        <time>2000-01-01T12:57:08.000Z</time>
      </trkpt>
      <trkpt lat="45.10547" lon="2.71216">
        <ele>1566.3</ele>
        <time>2000-01-01T12:56:58.000Z</time>
      </trkpt>
      <trkpt lat="45.1055" lon="2.71212">
        <ele>1567</ele>
        <time>2000-01-01T12:56:48.000Z</time>
      </trkpt>
      <trkpt lat="45.10552" lon="2.7121">
        <ele>1568</ele>
        <time>2000-01-01T12:56:38.000Z</time>
      </trkpt>
      <trkpt lat="45.10558" lon="2.71208">
        <ele>1570.1</ele>
        <time>2000-01-01T12:56:28.000Z</time>
      </trkpt>
      <trkpt lat="45.10561" lon="2.71207">
        <ele>1571.3</ele>
        <time>2000-01-01T12:56:18.000Z</time>
      </trkpt>
      <trkpt lat="45.10565" lon="2.71203">
        <ele>1572</ele>
        <time>2000-01-01T12:56:08.000Z</time>
      </trkpt>
      <trkpt lat="45.1057" lon="2.71197">
        <ele>1568</ele>
        <time>2000-01-01T12:55:58.000Z</time>
      </trkpt>
      <trkpt lat="45.10573" lon="2.71189">
        <ele>1572.6</ele>
        <time>2000-01-01T12:55:48.000Z</time>
      </trkpt>
      <trkpt lat="45.10575" lon="2.71187">
        <ele>1573.5</ele>
        <time>2000-01-01T12:55:38.000Z</time>
      </trkpt>
      <trkpt lat="45.10579" lon="2.71184">
        <ele>1575.4</ele>
        <time>2000-01-01T12:55:28.000Z</time>
      </trkpt>
      <trkpt lat="45.1058" lon="2.71181">
        <ele>1575.6</ele>
        <time>2000-01-01T12:55:18.000Z</time>
      </trkpt>
      <trkpt lat="45.1058" lon="2.71176">
        <ele>1575</ele>
        <time>2000-01-01T12:55:08.000Z</time>
      </trkpt>
      <trkpt lat="45.10584" lon="2.71171">
        <ele>1570</ele>
        <time>2000-01-01T12:54:58.000Z</time>
      </trkpt>
      <trkpt lat="45.10586" lon="2.71164">
        <ele>1577.4</ele>
        <time>2000-01-01T12:54:48.000Z</time>
      </trkpt>
      <trkpt lat="45.10589" lon="2.71145">
        <ele>1573</ele>
        <time>2000-01-01T12:54:38.000Z</time>
      </trkpt>
      <trkpt lat="45.10593" lon="2.71139">
        <ele>1577.8</ele>
        <time>2000-01-01T12:54:28.000Z</time>
      </trkpt>
      <trkpt lat="45.10599" lon="2.71132">
        <ele>1577.9</ele>
        <time>2000-01-01T12:54:18.000Z</time>
      </trkpt>
      <trkpt lat="45.10602" lon="2.71129">
        <ele>1578.1</ele>
        <time>2000-01-01T12:54:08.000Z</time>
      </trkpt>
      <trkpt lat="45.10604" lon="2.71124">
        <ele>1573</ele>
        <time>2000-01-01T12:53:58.000Z</time>
      </trkpt>
      <trkpt lat="45.10608" lon="2.71121">
        <ele>1577.5</ele>
        <time>2000-01-01T12:53:48.000Z</time>
      </trkpt>
      <trkpt lat="45.10612" lon="2.71121">
        <ele>1578.9</ele>
        <time>2000-01-01T12:53:38.000Z</time>
      </trkpt>
      <trkpt lat="45.10617" lon="2.71115">
        <ele>1578.3</ele>
        <time>2000-01-01T12:53:28.000Z</time>
      </trkpt>
      <trkpt lat="45.10622" lon="2.71112">
        <ele>1577</ele>
        <time>2000-01-01T12:53:18.000Z</time>
      </trkpt>
      <trkpt lat="45.10636" lon="2.71104">
        <ele>1580.7</ele>
        <time>2000-01-01T12:53:08.000Z</time>
      </trkpt>
      <trkpt lat="45.10646" lon="2.71094">
        <ele>1577</ele>
        <time>2000-01-01T12:52:58.000Z</time>
      </trkpt>
      <trkpt lat="45.10656" lon="2.71078">
        <ele>1581.5</ele>
        <time>2000-01-01T12:52:48.000Z</time>
      </trkpt>
      <trkpt lat="45.1066" lon="2.71074">
        <ele>1580</ele>
        <time>2000-01-01T12:52:38.000Z</time>
      </trkpt>
      <trkpt lat="45.10674" lon="2.71063">
        <ele>1585.1</ele>
        <time>2000-01-01T12:52:28.000Z</time>
      </trkpt>
      <trkpt lat="45.10677" lon="2.71058">
        <ele>1585.2</ele>
        <time>2000-01-01T12:52:18.000Z</time>
      </trkpt>
      <trkpt lat="45.10679" lon="2.71052">
        <ele>1585.2</ele>
        <time>2000-01-01T12:52:08.000Z</time>
      </trkpt>
      <trkpt lat="45.10682" lon="2.71048">
        <ele>1586.3</ele>
        <time>2000-01-01T12:51:58.000Z</time>
      </trkpt>
      <trkpt lat="45.10684" lon="2.71045">
        <ele>1587.1</ele>
        <time>2000-01-01T12:51:48.000Z</time>
      </trkpt>
      <trkpt lat="45.10684" lon="2.7104">
        <ele>1583</ele>
        <time>2000-01-01T12:51:38.000Z</time>
      </trkpt>
      <trkpt lat="45.10687" lon="2.71024">
        <ele>1586.6</ele>
        <time>2000-01-01T12:51:28.000Z</time>
      </trkpt>
      <trkpt lat="45.10689" lon="2.7102">
        <ele>1587.6</ele>
        <time>2000-01-01T12:51:18.000Z</time>
      </trkpt>
      <trkpt lat="45.1069" lon="2.71016">
        <ele>1588</ele>
        <time>2000-01-01T12:51:08.000Z</time>
      </trkpt>
      <trkpt lat="45.10689" lon="2.7101">
        <ele>1583</ele>
        <time>2000-01-01T12:50:58.000Z</time>
      </trkpt>
      <trkpt lat="45.10691" lon="2.70996">
        <ele>1588.7</ele>
        <time>2000-01-01T12:50:48.000Z</time>
      </trkpt>
      <trkpt lat="45.10692" lon="2.70992">
        <ele>1590</ele>
        <time>2000-01-01T12:50:38.000Z</time>
      </trkpt>
      <trkpt lat="45.10691" lon="2.70989">
        <ele>1589.8</ele>
        <time>2000-01-01T12:50:28.000Z</time>
      </trkpt>
      <trkpt lat="45.10688" lon="2.70983">
        <ele>1584</ele>
        <time>2000-01-01T12:50:18.000Z</time>
      </trkpt>
      <trkpt lat="45.10687" lon="2.70976">
        <ele>1589.3</ele>
        <time>2000-01-01T12:50:08.000Z</time>
      </trkpt>
      <trkpt lat="45.10685" lon="2.70962">
        <ele>1590.7</ele>
        <time>2000-01-01T12:49:58.000Z</time>
      </trkpt>
      <trkpt lat="45.1068" lon="2.70952">
        <ele>1586</ele>
        <time>2000-01-01T12:49:48.000Z</time>
      </trkpt>
      <trkpt lat="45.10672" lon="2.70937">
        <ele>1586.6</ele>
        <time>2000-01-01T12:49:38.000Z</time>
      </trkpt>
      <trkpt lat="45.10671" lon="2.70931">
        <ele>1586.7</ele>
        <time>2000-01-01T12:49:28.000Z</time>
      </trkpt>
      <trkpt lat="45.10671" lon="2.70927">
        <ele>1588</ele>
        <time>2000-01-01T12:49:18.000Z</time>
      </trkpt>
      <trkpt lat="45.10672" lon="2.70924">
        <ele>1588.2</ele>
        <time>2000-01-01T12:49:08.000Z</time>
      </trkpt>
      <trkpt lat="45.10677" lon="2.70916">
        <ele>1591.8</ele>
        <time>2000-01-01T12:48:58.000Z</time>
      </trkpt>
      <trkpt lat="45.10683" lon="2.70903">
        <ele>1588</ele>
        <time>2000-01-01T12:48:48.000Z</time>
      </trkpt>
      <trkpt lat="45.10687" lon="2.70889">
        <ele>1590.7</ele>
        <time>2000-01-01T12:48:38.000Z</time>
      </trkpt>
      <trkpt lat="45.10688" lon="2.70885">
        <ele>1590.7</ele>
        <time>2000-01-01T12:48:28.000Z</time>
      </trkpt>
      <trkpt lat="45.10691" lon="2.70881">
        <ele>1591.8</ele>
        <time>2000-01-01T12:48:18.000Z</time>
      </trkpt>
      <trkpt lat="45.10694" lon="2.70877">
        <ele>1593</ele>
        <time>2000-01-01T12:48:08.000Z</time>
      </trkpt>
      <trkpt lat="45.10695" lon="2.70873">
        <ele>1593</ele>
        <time>2000-01-01T12:47:58.000Z</time>
      </trkpt>
      <trkpt lat="45.10696" lon="2.70869">
        <ele>1588</ele>
        <time>2000-01-01T12:47:48.000Z</time>
      </trkpt>
      <trkpt lat="45.10697" lon="2.70864">
        <ele>1592.9</ele>
        <time>2000-01-01T12:47:38.000Z</time>
      </trkpt>
      <trkpt lat="45.10697" lon="2.70861">
        <ele>1592.5</ele>
        <time>2000-01-01T12:47:28.000Z</time>
      </trkpt>
      <trkpt lat="45.10698" lon="2.70855">
        <ele>1593.7</ele>
        <time>2000-01-01T12:47:18.000Z</time>
      </trkpt>
      <trkpt lat="45.10699" lon="2.70849">
        <ele>1594.9</ele>
        <time>2000-01-01T12:47:08.000Z</time>
      </trkpt>
      <trkpt lat="45.10698" lon="2.70846">
        <ele>1594.6</ele>
        <time>2000-01-01T12:46:58.000Z</time>
      </trkpt>
      <trkpt lat="45.10696" lon="2.70842">
        <ele>1589</ele>
        <time>2000-01-01T12:46:48.000Z</time>
      </trkpt>
      <trkpt lat="45.10693" lon="2.70835">
        <ele>1593.1</ele>
        <time>2000-01-01T12:46:38.000Z</time>
      </trkpt>
      <trkpt lat="45.10689" lon="2.70824">
        <ele>1591.1</ele>
        <time>2000-01-01T12:46:28.000Z</time>
      </trkpt>
      <trkpt lat="45.10689" lon="2.70822">
        <ele>1591.1</ele>
        <time>2000-01-01T12:46:18.000Z</time>
      </trkpt>
      <trkpt lat="45.10689" lon="2.70818">
        <ele>1591</ele>
        <time>2000-01-01T12:46:08.000Z</time>
      </trkpt>
      <trkpt lat="45.10689" lon="2.70813">
        <ele>1589</ele>
        <time>2000-01-01T12:45:58.000Z</time>
      </trkpt>
      <trkpt lat="45.10694" lon="2.70801">
        <ele>1593.7</ele>
        <time>2000-01-01T12:45:48.000Z</time>
      </trkpt>
      <trkpt lat="45.10695" lon="2.70797">
        <ele>1594.3</ele>
        <time>2000-01-01T12:45:38.000Z</time>
      </trkpt>
      <trkpt lat="45.10695" lon="2.70794">
        <ele>1594.3</ele>
        <time>2000-01-01T12:45:28.000Z</time>
      </trkpt>
      <trkpt lat="45.10693" lon="2.70785">
        <ele>1593.1</ele>
        <time>2000-01-01T12:45:18.000Z</time>
      </trkpt>
      <trkpt lat="45.10693" lon="2.7078">
        <ele>1590</ele>
        <time>2000-01-01T12:45:08.000Z</time>
      </trkpt>
      <trkpt lat="45.10692" lon="2.70774">
        <ele>1592.7</ele>
        <time>2000-01-01T12:44:58.000Z</time>
      </trkpt>
      <trkpt lat="45.1069" lon="2.70768">
        <ele>1591.7</ele>
        <time>2000-01-01T12:44:48.000Z</time>
      </trkpt>
      <trkpt lat="45.10689" lon="2.70763">
        <ele>1591.4</ele>
        <time>2000-01-01T12:44:38.000Z</time>
      </trkpt>
      <trkpt lat="45.10689" lon="2.70756">
        <ele>1591.8</ele>
        <time>2000-01-01T12:44:28.000Z</time>
      </trkpt>
      <trkpt lat="45.10687" lon="2.7075">
        <ele>1590</ele>
        <time>2000-01-01T12:44:18.000Z</time>
      </trkpt>
      <trkpt lat="45.10687" lon="2.70747">
        <ele>1591.4</ele>
        <time>2000-01-01T12:44:08.000Z</time>
      </trkpt>
      <trkpt lat="45.10687" lon="2.70742">
        <ele>1592.1</ele>
        <time>2000-01-01T12:43:58.000Z</time>
      </trkpt>
      <trkpt lat="45.10686" lon="2.70736">
        <ele>1592.5</ele>
        <time>2000-01-01T12:43:48.000Z</time>
      </trkpt>
      <trkpt lat="45.10685" lon="2.7073">
        <ele>1592.8</ele>
        <time>2000-01-01T12:43:38.000Z</time>
      </trkpt>
      <trkpt lat="45.10684" lon="2.70725">
        <ele>1593</ele>
        <time>2000-01-01T12:43:28.000Z</time>
      </trkpt>
      <trkpt lat="45.10683" lon="2.70722">
        <ele>1590</ele>
        <time>2000-01-01T12:43:18.000Z</time>
      </trkpt>
      <trkpt lat="45.10681" lon="2.70719">
        <ele>1592.4</ele>
        <time>2000-01-01T12:43:08.000Z</time>
      </trkpt>
      <trkpt lat="45.1068" lon="2.70716">
        <ele>1592.4</ele>
        <time>2000-01-01T12:42:58.000Z</time>
      </trkpt>
      <trkpt lat="45.10679" lon="2.70713">
        <ele>1592.5</ele>
        <time>2000-01-01T12:42:48.000Z</time>
      </trkpt>
      <trkpt lat="45.10678" lon="2.70708">
        <ele>1593</ele>
        <time>2000-01-01T12:42:38.000Z</time>
      </trkpt>
      <trkpt lat="45.10677" lon="2.70705">
        <ele>1593.1</ele>
        <time>2000-01-01T12:42:28.000Z</time>
      </trkpt>
      <trkpt lat="45.10676" lon="2.70702">
        <ele>1593.2</ele>
        <time>2000-01-01T12:42:18.000Z</time>
      </trkpt>
      <trkpt lat="45.10676" lon="2.70699">
        <ele>1593.8</ele>
        <time>2000-01-01T12:42:08.000Z</time>
      </trkpt>
      <trkpt lat="45.10674" lon="2.70696">
        <ele>1592</ele>
        <time>2000-01-01T12:41:58.000Z</time>
      </trkpt>
      <trkpt lat="45.1067" lon="2.70688">
        <ele>1593.7</ele>
        <time>2000-01-01T12:41:48.000Z</time>
      </trkpt>
      <trkpt lat="45.10668" lon="2.70686">
        <ele>1593.4</ele>
        <time>2000-01-01T12:41:38.000Z</time>
      </trkpt>
      <trkpt lat="45.10667" lon="2.70682">
        <ele>1594.2</ele>
        <time>2000-01-01T12:41:28.000Z</time>
      </trkpt>
      <trkpt lat="45.10665" lon="2.70679">
        <ele>1594.4</ele>
        <time>2000-01-01T12:41:18.000Z</time>
      </trkpt>
      <trkpt lat="45.10661" lon="2.70678">
        <ele>1593.3</ele>
        <time>2000-01-01T12:41:08.000Z</time>
      </trkpt>
      <trkpt lat="45.10658" lon="2.70676">
        <ele>1593</ele>
        <time>2000-01-01T12:40:58.000Z</time>
      </trkpt>
      <trkpt lat="45.10656" lon="2.70673">
        <ele>1592</ele>
        <time>2000-01-01T12:40:48.000Z</time>
      </trkpt>
      <trkpt lat="45.10654" lon="2.70669">
        <ele>1594.1</ele>
        <time>2000-01-01T12:40:38.000Z</time>
      </trkpt>
      <trkpt lat="45.10653" lon="2.70666">
        <ele>1594.9</ele>
        <time>2000-01-01T12:40:28.000Z</time>
      </trkpt>
      <trkpt lat="45.10651" lon="2.70664">
        <ele>1595.1</ele>
        <time>2000-01-01T12:40:18.000Z</time>
      </trkpt>
      <trkpt lat="45.10647" lon="2.70662">
        <ele>1594.6</ele>
        <time>2000-01-01T12:40:08.000Z</time>
      </trkpt>
      <trkpt lat="45.10644" lon="2.70659">
        <ele>1594.8</ele>
        <time>2000-01-01T12:39:58.000Z</time>
      </trkpt>
      <trkpt lat="45.10641" lon="2.70655">
        <ele>1596</ele>
        <time>2000-01-01T12:39:48.000Z</time>
      </trkpt>
      <trkpt lat="45.10639" lon="2.70652">
        <ele>1595.8</ele>
        <time>2000-01-01T12:39:38.000Z</time>
      </trkpt>
      <trkpt lat="45.10631" lon="2.70646">
        <ele>1595.8</ele>
        <time>2000-01-01T12:39:28.000Z</time>
      </trkpt>
      <trkpt lat="45.10626" lon="2.70643">
        <ele>1595.6</ele>
        <time>2000-01-01T12:39:18.000Z</time>
      </trkpt>
      <trkpt lat="45.10623" lon="2.70642">
        <ele>1596</ele>
        <time>2000-01-01T12:39:08.000Z</time>
      </trkpt>
      <trkpt lat="45.10621" lon="2.70639">
        <ele>1595.8</ele>
        <time>2000-01-01T12:38:58.000Z</time>
      </trkpt>
      <trkpt lat="45.10617" lon="2.70637">
        <ele>1595.4</ele>
        <time>2000-01-01T12:38:48.000Z</time>
      </trkpt>
      <trkpt lat="45.10611" lon="2.70627">
        <ele>1596.8</ele>
        <time>2000-01-01T12:38:38.000Z</time>
      </trkpt>
      <trkpt lat="45.10609" lon="2.70624">
        <ele>1596</ele>
        <time>2000-01-01T12:38:28.000Z</time>
      </trkpt>
      <trkpt lat="45.10608" lon="2.70621">
        <ele>1597.1</ele>
        <time>2000-01-01T12:38:18.000Z</time>
      </trkpt>
      <trkpt lat="45.10606" lon="2.7061">
        <ele>1599.8</ele>
        <time>2000-01-01T12:38:08.000Z</time>
      </trkpt>
      <trkpt lat="45.10605" lon="2.70606">
        <ele>1600.7</ele>
        <time>2000-01-01T12:37:58.000Z</time>
      </trkpt>
      <trkpt lat="45.10602" lon="2.70602">
        <ele>1600.8</ele>
        <time>2000-01-01T12:37:48.000Z</time>
      </trkpt>
      <trkpt lat="45.106" lon="2.706">
        <ele>1596</ele>
        <time>2000-01-01T12:37:38.000Z</time>
      </trkpt>
      <trkpt lat="45.10597" lon="2.70597">
        <ele>1600.5</ele>
        <time>2000-01-01T12:37:28.000Z</time>
      </trkpt>
      <trkpt lat="45.10595" lon="2.70594">
        <ele>1600.9</ele>
        <time>2000-01-01T12:37:18.000Z</time>
      </trkpt>
      <trkpt lat="45.10589" lon="2.70584">
        <ele>1602.7</ele>
        <time>2000-01-01T12:37:08.000Z</time>
      </trkpt>
      <trkpt lat="45.10588" lon="2.70579">
        <ele>1603.1</ele>
        <time>2000-01-01T12:36:58.000Z</time>
      </trkpt>
      <trkpt lat="45.10587" lon="2.70576">
        <ele>1600</ele>
        <time>2000-01-01T12:36:48.000Z</time>
      </trkpt>
      <trkpt lat="45.10586" lon="2.70569">
        <ele>1603</ele>
        <time>2000-01-01T12:36:38.000Z</time>
      </trkpt>
      <trkpt lat="45.10585" lon="2.70557">
        <ele>1603.2</ele>
        <time>2000-01-01T12:36:28.000Z</time>
      </trkpt>
      <trkpt lat="45.10585" lon="2.70549">
        <ele>1602</ele>
        <time>2000-01-01T12:36:18.000Z</time>
      </trkpt>
      <trkpt lat="45.10585" lon="2.70541">
        <ele>1604.2</ele>
        <time>2000-01-01T12:36:08.000Z</time>
      </trkpt>
      <trkpt lat="45.10585" lon="2.70537">
        <ele>1604.5</ele>
        <time>2000-01-01T12:35:58.000Z</time>
      </trkpt>
      <trkpt lat="45.10587" lon="2.7053">
        <ele>1606.2</ele>
        <time>2000-01-01T12:35:48.000Z</time>
      </trkpt>
      <trkpt lat="45.10587" lon="2.70527">
        <ele>1606.5</ele>
        <time>2000-01-01T12:35:38.000Z</time>
      </trkpt>
      <trkpt lat="45.10587" lon="2.70521">
        <ele>1607.3</ele>
        <time>2000-01-01T12:35:28.000Z</time>
      </trkpt>
      <trkpt lat="45.10587" lon="2.70517">
        <ele>1605</ele>
        <time>2000-01-01T12:35:18.000Z</time>
      </trkpt>
      <trkpt lat="45.10588" lon="2.70513">
        <ele>1609</ele>
        <time>2000-01-01T12:35:08.000Z</time>
      </trkpt>
      <trkpt lat="45.10588" lon="2.70509">
        <ele>1609.5</ele>
        <time>2000-01-01T12:34:58.000Z</time>
      </trkpt>
      <trkpt lat="45.10589" lon="2.70507">
        <ele>1610.4</ele>
        <time>2000-01-01T12:34:48.000Z</time>
      </trkpt>
      <trkpt lat="45.10589" lon="2.70498">
        <ele>1611.6</ele>
        <time>2000-01-01T12:34:38.000Z</time>
      </trkpt>
      <trkpt lat="45.10588" lon="2.70492">
        <ele>1611.8</ele>
        <time>2000-01-01T12:33:58.000Z</time>
      </trkpt>
      <trkpt lat="45.10588" lon="2.7049">
        <ele>1608</ele>
        <time>2000-01-01T12:33:48.000Z</time>
      </trkpt>
      <trkpt lat="45.10587" lon="2.70483">
        <ele>1612.6</ele>
        <time>2000-01-01T12:33:38.000Z</time>
      </trkpt>
      <trkpt lat="45.10586" lon="2.70478">
        <ele>1612.7</ele>
        <time>2000-01-01T12:33:28.000Z</time>
      </trkpt>
      <trkpt lat="45.10586" lon="2.7047">
        <ele>1613.6</ele>
        <time>2000-01-01T12:33:18.000Z</time>
      </trkpt>
      <trkpt lat="45.10585" lon="2.70468">
        <ele>1613.1</ele>
        <time>2000-01-01T12:33:08.000Z</time>
      </trkpt>
      <trkpt lat="45.10586" lon="2.70458">
        <ele>1610</ele>
        <time>2000-01-01T12:32:58.000Z</time>
      </trkpt>
      <trkpt lat="45.10587" lon="2.70453">
        <ele>1615</ele>
        <time>2000-01-01T12:32:48.000Z</time>
      </trkpt>
      <trkpt lat="45.10587" lon="2.70447">
        <ele>1615.3</ele>
        <time>2000-01-01T12:32:38.000Z</time>
      </trkpt>
      <trkpt lat="45.10587" lon="2.70443">
        <ele>1615.6</ele>
        <time>2000-01-01T12:32:28.000Z</time>
      </trkpt>
      <trkpt lat="45.10585" lon="2.70437">
        <ele>1615.4</ele>
        <time>2000-01-01T12:32:18.000Z</time>
      </trkpt>
      <trkpt lat="45.10584" lon="2.70431">
        <ele>1614</ele>
        <time>2000-01-01T12:32:08.000Z</time>
      </trkpt>
      <trkpt lat="45.10583" lon="2.70425">
        <ele>1616.3</ele>
        <time>2000-01-01T12:31:58.000Z</time>
      </trkpt>
      <trkpt lat="45.1058" lon="2.70416">
        <ele>1616.2</ele>
        <time>2000-01-01T12:31:48.000Z</time>
      </trkpt>
      <trkpt lat="45.10575" lon="2.70406">
        <ele>1616</ele>
        <time>2000-01-01T12:31:38.000Z</time>
      </trkpt>
      <trkpt lat="45.10571" lon="2.70393">
        <ele>1616.9</ele>
        <time>2000-01-01T12:31:28.000Z</time>
      </trkpt>
      <trkpt lat="45.1057" lon="2.70389">
        <ele>1617.3</ele>
        <time>2000-01-01T12:31:18.000Z</time>
      </trkpt>
      <trkpt lat="45.10567" lon="2.70384">
        <ele>1617.3</ele>
        <time>2000-01-01T12:31:08.000Z</time>
      </trkpt>
      <trkpt lat="45.10565" lon="2.70378">
        <ele>1618.3</ele>
        <time>2000-01-01T12:30:58.000Z</time>
      </trkpt>
      <trkpt lat="45.10564" lon="2.70375">
        <ele>1618</ele>
        <time>2000-01-01T12:30:48.000Z</time>
      </trkpt>
      <trkpt lat="45.10556" lon="2.70364">
        <ele>1619.9</ele>
        <time>2000-01-01T12:30:38.000Z</time>
      </trkpt>
      <trkpt lat="45.10553" lon="2.7036">
        <ele>1620.6</ele>
        <time>2000-01-01T12:30:28.000Z</time>
      </trkpt>
      <trkpt lat="45.1055" lon="2.70356">
        <ele>1621.1</ele>
        <time>2000-01-01T12:30:18.000Z</time>
      </trkpt>
      <trkpt lat="45.10548" lon="2.70352">
        <ele>1618</ele>
        <time>2000-01-01T12:30:08.000Z</time>
      </trkpt>
      <trkpt lat="45.10544" lon="2.70348">
        <ele>1621.4</ele>
        <time>2000-01-01T12:29:58.000Z</time>
      </trkpt>
      <trkpt lat="45.10543" lon="2.70343">
        <ele>1622.4</ele>
        <time>2000-01-01T12:29:48.000Z</time>
      </trkpt>
      <trkpt lat="45.10541" lon="2.70337">
        <ele>1623.2</ele>
        <time>2000-01-01T12:29:38.000Z</time>
      </trkpt>
      <trkpt lat="45.10539" lon="2.70331">
        <ele>1623.3</ele>
        <time>2000-01-01T12:29:28.000Z</time>
      </trkpt>
      <trkpt lat="45.10539" lon="2.70326">
        <ele>1618</ele>
        <time>2000-01-01T12:29:18.000Z</time>
      </trkpt>
      <trkpt lat="45.10539" lon="2.7032">
        <ele>1623.7</ele>
        <time>2000-01-01T12:29:08.000Z</time>
      </trkpt>
      <trkpt lat="45.10539" lon="2.70312">
        <ele>1624</ele>
        <time>2000-01-01T12:28:58.000Z</time>
      </trkpt>
      <trkpt lat="45.1054" lon="2.70305">
        <ele>1624.9</ele>
        <time>2000-01-01T12:28:48.000Z</time>
      </trkpt>
      <trkpt lat="45.1054" lon="2.70299">
        <ele>1624.2</ele>
        <time>2000-01-01T12:28:38.000Z</time>
      </trkpt>
      <trkpt lat="45.10541" lon="2.70294">
        <ele>1618</ele>
        <time>2000-01-01T12:28:28.000Z</time>
      </trkpt>
      <trkpt lat="45.10541" lon="2.70287">
        <ele>1623.5</ele>
        <time>2000-01-01T12:28:18.000Z</time>
      </trkpt>
      <trkpt lat="45.10541" lon="2.70283">
        <ele>1623.1</ele>
        <time>2000-01-01T12:28:08.000Z</time>
      </trkpt>
      <trkpt lat="45.10543" lon="2.70278">
        <ele>1624</ele>
        <time>2000-01-01T12:27:58.000Z</time>
      </trkpt>
      <trkpt lat="45.10545" lon="2.70272">
        <ele>1624.6</ele>
        <time>2000-01-01T12:27:48.000Z</time>
      </trkpt>
      <trkpt lat="45.10548" lon="2.70264">
        <ele>1619</ele>
        <time>2000-01-01T12:27:38.000Z</time>
      </trkpt>
      <trkpt lat="45.10548" lon="2.70257">
        <ele>1625</ele>
        <time>2000-01-01T12:27:28.000Z</time>
      </trkpt>
      <trkpt lat="45.10548" lon="2.70252">
        <ele>1624.4</ele>
        <time>2000-01-01T12:27:18.000Z</time>
      </trkpt>
      <trkpt lat="45.10547" lon="2.70248">
        <ele>1623.1</ele>
        <time>2000-01-01T12:27:08.000Z</time>
      </trkpt>
      <trkpt lat="45.10548" lon="2.70241">
        <ele>1623.3</ele>
        <time>2000-01-01T12:26:58.000Z</time>
      </trkpt>
      <trkpt lat="45.10547" lon="2.70237">
        <ele>1617</ele>
        <time>2000-01-01T12:26:48.000Z</time>
      </trkpt>
      <trkpt lat="45.10548" lon="2.70224">
        <ele>1621.7</ele>
        <time>2000-01-01T12:26:38.000Z</time>
      </trkpt>
      <trkpt lat="45.10549" lon="2.70217">
        <ele>1621.6</ele>
        <time>2000-01-01T12:26:28.000Z</time>
      </trkpt>
      <trkpt lat="45.1055" lon="2.70212">
        <ele>1621.7</ele>
        <time>2000-01-01T12:26:18.000Z</time>
      </trkpt>
      <trkpt lat="45.10552" lon="2.70209">
        <ele>1622.7</ele>
        <time>2000-01-01T12:26:08.000Z</time>
      </trkpt>
      <trkpt lat="45.10554" lon="2.70204">
        <ele>1623.3</ele>
        <time>2000-01-01T12:25:58.000Z</time>
      </trkpt>
      <trkpt lat="45.10554" lon="2.702">
        <ele>1619</ele>
        <time>2000-01-01T12:25:48.000Z</time>
      </trkpt>
      <trkpt lat="45.10555" lon="2.70196">
        <ele>1622.9</ele>
        <time>2000-01-01T12:25:38.000Z</time>
      </trkpt>
      <trkpt lat="45.10555" lon="2.70181">
        <ele>1623.6</ele>
        <time>2000-01-01T12:25:28.000Z</time>
      </trkpt>
      <trkpt lat="45.10554" lon="2.70173">
        <ele>1621</ele>
        <time>2000-01-01T12:25:18.000Z</time>
      </trkpt>
      <trkpt lat="45.10553" lon="2.70165">
        <ele>1623.6</ele>
        <time>2000-01-01T12:25:08.000Z</time>
      </trkpt>
      <trkpt lat="45.10552" lon="2.70157">
        <ele>1623.5</ele>
        <time>2000-01-01T12:24:58.000Z</time>
      </trkpt>
      <trkpt lat="45.10552" lon="2.70151">
        <ele>1623.9</ele>
        <time>2000-01-01T12:24:48.000Z</time>
      </trkpt>
      <trkpt lat="45.10553" lon="2.70144">
        <ele>1623</ele>
        <time>2000-01-01T12:24:38.000Z</time>
      </trkpt>
      <trkpt lat="45.10553" lon="2.70139">
        <ele>1625.3</ele>
        <time>2000-01-01T12:24:28.000Z</time>
      </trkpt>
      <trkpt lat="45.10553" lon="2.70134">
        <ele>1626</ele>
        <time>2000-01-01T12:24:18.000Z</time>
      </trkpt>
      <trkpt lat="45.10553" lon="2.70127">
        <ele>1627.1</ele>
        <time>2000-01-01T12:24:08.000Z</time>
      </trkpt>
      <trkpt lat="45.10553" lon="2.70123">
        <ele>1627.6</ele>
        <time>2000-01-01T12:23:58.000Z</time>
      </trkpt>
      <trkpt lat="45.10552" lon="2.70118">
        <ele>1627</ele>
        <time>2000-01-01T12:23:48.000Z</time>
      </trkpt>
      <trkpt lat="45.1055" lon="2.70112">
        <ele>1627.3</ele>
        <time>2000-01-01T12:23:38.000Z</time>
      </trkpt>
      <trkpt lat="45.10548" lon="2.70107">
        <ele>1627</ele>
        <time>2000-01-01T12:23:28.000Z</time>
      </trkpt>
      <trkpt lat="45.10546" lon="2.70096">
        <ele>1628.1</ele>
        <time>2000-01-01T12:23:18.000Z</time>
      </trkpt>
      <trkpt lat="45.10546" lon="2.70088">
        <ele>1627</ele>
        <time>2000-01-01T12:23:08.000Z</time>
      </trkpt>
      <trkpt lat="45.10545" lon="2.70083">
        <ele>1630.3</ele>
        <time>2000-01-01T12:22:58.000Z</time>
      </trkpt>
      <trkpt lat="45.10543" lon="2.70078">
        <ele>1629.7</ele>
        <time>2000-01-01T12:22:48.000Z</time>
      </trkpt>
      <trkpt lat="45.10542" lon="2.70076">
        <ele>1629.4</ele>
        <time>2000-01-01T12:22:38.000Z</time>
      </trkpt>
      <trkpt lat="45.10541" lon="2.70067">
        <ele>1630</ele>
        <time>2000-01-01T12:22:28.000Z</time>
      </trkpt>
      <trkpt lat="45.10539" lon="2.70059">
        <ele>1631</ele>
        <time>2000-01-01T12:22:18.000Z</time>
      </trkpt>
      <trkpt lat="45.10537" lon="2.70054">
        <ele>1630.8</ele>
        <time>2000-01-01T12:22:08.000Z</time>
      </trkpt>
      <trkpt lat="45.10536" lon="2.7005">
        <ele>1631.1</ele>
        <time>2000-01-01T12:21:58.000Z</time>
      </trkpt>
      <trkpt lat="45.10536" lon="2.70048">
        <ele>1631.3</ele>
        <time>2000-01-01T12:21:48.000Z</time>
      </trkpt>
      <trkpt lat="45.10537" lon="2.70046">
        <ele>1631.6</ele>
        <time>2000-01-01T12:21:38.000Z</time>
      </trkpt>
      <trkpt lat="45.10537" lon="2.70044">
        <ele>1631.8</ele>
        <time>2000-01-01T12:21:28.000Z</time>
      </trkpt>
      <trkpt lat="45.10535" lon="2.70039">
        <ele>1632.5</ele>
        <time>2000-01-01T12:21:18.000Z</time>
      </trkpt>
      <trkpt lat="45.10533" lon="2.70036">
        <ele>1633.1</ele>
        <time>2000-01-01T12:21:08.000Z</time>
      </trkpt>
      <trkpt lat="45.10531" lon="2.70031">
        <ele>1636</ele>
        <time>2000-01-01T12:20:58.000Z</time>
      </trkpt>
      <trkpt lat="45.10526" lon="2.70023">
        <ele>1635.1</ele>
        <time>2000-01-01T12:20:48.000Z</time>
      </trkpt>
      <trkpt lat="45.1052" lon="2.70013">
        <ele>1633.9</ele>
        <time>2000-01-01T12:20:38.000Z</time>
      </trkpt>
      <trkpt lat="45.10517" lon="2.70007">
        <ele>1638</ele>
        <time>2000-01-01T12:20:28.000Z</time>
      </trkpt>
      <trkpt lat="45.1051" lon="2.69998">
        <ele>1635.9</ele>
        <time>2000-01-01T12:20:18.000Z</time>
      </trkpt>
      <trkpt lat="45.10502" lon="2.69989">
        <ele>1637.3</ele>
        <time>2000-01-01T12:20:08.000Z</time>
      </trkpt>
      <trkpt lat="45.10496" lon="2.69982">
        <ele>1642</ele>
        <time>2000-01-01T12:19:58.000Z</time>
      </trkpt>
      <trkpt lat="45.10488" lon="2.69974">
        <ele>1640.3</ele>
        <time>2000-01-01T12:19:48.000Z</time>
      </trkpt>
      <trkpt lat="45.10483" lon="2.69968">
        <ele>1641.2</ele>
        <time>2000-01-01T12:19:38.000Z</time>
      </trkpt>
      <trkpt lat="45.10477" lon="2.69963">
        <ele>1645</ele>
        <time>2000-01-01T12:19:28.000Z</time>
      </trkpt>
      <trkpt lat="45.10471" lon="2.69953">
        <ele>1644.4</ele>
        <time>2000-01-01T12:19:18.000Z</time>
      </trkpt>
      <trkpt lat="45.10465" lon="2.69945">
        <ele>1645.7</ele>
        <time>2000-01-01T12:19:08.000Z</time>
      </trkpt>
      <trkpt lat="45.1046" lon="2.69938">
        <ele>1646</ele>
        <time>2000-01-01T12:18:58.000Z</time>
      </trkpt>
      <trkpt lat="45.10455" lon="2.69932">
        <ele>1645.7</ele>
        <time>2000-01-01T12:18:48.000Z</time>
      </trkpt>
      <trkpt lat="45.10451" lon="2.69929">
        <ele>1646.2</ele>
        <time>2000-01-01T12:18:38.000Z</time>
      </trkpt>
      <trkpt lat="45.10447" lon="2.69926">
        <ele>1646.8</ele>
        <time>2000-01-01T12:18:28.000Z</time>
      </trkpt>
      <trkpt lat="45.10444" lon="2.69924">
        <ele>1647</ele>
        <time>2000-01-01T12:18:18.000Z</time>
      </trkpt>
      <trkpt lat="45.10439" lon="2.69921">
        <ele>1647.3</ele>
        <time>2000-01-01T12:18:08.000Z</time>
      </trkpt>
      <trkpt lat="45.10437" lon="2.69918">
        <ele>1647.5</ele>
        <time>2000-01-01T12:17:58.000Z</time>
      </trkpt>
      <trkpt lat="45.10435" lon="2.69914">
        <ele>1647.2</ele>
        <time>2000-01-01T12:17:48.000Z</time>
      </trkpt>
      <trkpt lat="45.10431" lon="2.69908">
        <ele>1646.5</ele>
        <time>2000-01-01T12:17:38.000Z</time>
      </trkpt>
      <trkpt lat="45.10428" lon="2.69904">
        <ele>1646.3</ele>
        <time>2000-01-01T12:17:28.000Z</time>
      </trkpt>
      <trkpt lat="45.10426" lon="2.69901">
        <ele>1647</ele>
        <time>2000-01-01T12:17:18.000Z</time>
      </trkpt>
      <trkpt lat="45.10425" lon="2.69896">
        <ele>1645.8</ele>
        <time>2000-01-01T12:17:08.000Z</time>
      </trkpt>
      <trkpt lat="45.10422" lon="2.69886">
        <ele>1645.3</ele>
        <time>2000-01-01T12:16:58.000Z</time>
      </trkpt>
      <trkpt lat="45.1042" lon="2.69881">
        <ele>1645.2</ele>
        <time>2000-01-01T12:16:48.000Z</time>
      </trkpt>
      <trkpt lat="45.10419" lon="2.69875">
        <ele>1645</ele>
        <time>2000-01-01T12:16:38.000Z</time>
      </trkpt>
      <trkpt lat="45.10416" lon="2.69862">
        <ele>1643.9</ele>
        <time>2000-01-01T12:16:28.000Z</time>
      </trkpt>
      <trkpt lat="45.10415" lon="2.69858">
        <ele>1643</ele>
        <time>2000-01-01T12:16:18.000Z</time>
      </trkpt>
      <trkpt lat="45.10414" lon="2.69854">
        <ele>1642.2</ele>
        <time>2000-01-01T12:16:08.000Z</time>
      </trkpt>
      <trkpt lat="45.10412" lon="2.69848">
        <ele>1641</ele>
        <time>2000-01-01T12:15:58.000Z</time>
      </trkpt>
      <trkpt lat="45.10407" lon="2.69834">
        <ele>1639</ele>
        <time>2000-01-01T12:15:48.000Z</time>
      </trkpt>
      <trkpt lat="45.10402" lon="2.69822">
        <ele>1639</ele>
        <time>2000-01-01T12:15:38.000Z</time>
      </trkpt>
      <trkpt lat="45.104" lon="2.69813">
        <ele>1638.3</ele>
        <time>2000-01-01T12:15:28.000Z</time>
      </trkpt>
      <trkpt lat="45.10396" lon="2.698">
        <ele>1638.4</ele>
        <time>2000-01-01T12:15:18.000Z</time>
      </trkpt>
      <trkpt lat="45.10393" lon="2.69788">
        <ele>1638</ele>
        <time>2000-01-01T12:15:08.000Z</time>
      </trkpt>
      <trkpt lat="45.10388" lon="2.69771">
        <ele>1637.4</ele>
        <time>2000-01-01T12:14:58.000Z</time>
      </trkpt>
      <trkpt lat="45.10385" lon="2.69758">
        <ele>1638</ele>
        <time>2000-01-01T12:14:48.000Z</time>
      </trkpt>
      <trkpt lat="45.10383" lon="2.6975">
        <ele>1634.7</ele>
        <time>2000-01-01T12:14:38.000Z</time>
      </trkpt>
      <trkpt lat="45.10379" lon="2.69735">
        <ele>1634.2</ele>
        <time>2000-01-01T12:14:28.000Z</time>
      </trkpt>
      <trkpt lat="45.10377" lon="2.69725">
        <ele>1638</ele>
        <time>2000-01-01T12:14:18.000Z</time>
      </trkpt>
      <trkpt lat="45.10376" lon="2.69719">
        <ele>1634.6</ele>
        <time>2000-01-01T12:14:08.000Z</time>
      </trkpt>
      <trkpt lat="45.10374" lon="2.69706">
        <ele>1635.7</ele>
        <time>2000-01-01T12:13:58.000Z</time>
      </trkpt>
      <trkpt lat="45.1037" lon="2.69695">
        <ele>1639</ele>
        <time>2000-01-01T12:13:48.000Z</time>
      </trkpt>
      <trkpt lat="45.10367" lon="2.69683">
        <ele>1638.5</ele>
        <time>2000-01-01T12:13:38.000Z</time>
      </trkpt>
      <trkpt lat="45.10363" lon="2.6967">
        <ele>1641</ele>
        <time>2000-01-01T12:13:28.000Z</time>
      </trkpt>
      <trkpt lat="45.10361" lon="2.69664">
        <ele>1641.6</ele>
        <time>2000-01-01T12:13:18.000Z</time>
      </trkpt>
      <trkpt lat="45.10356" lon="2.6965">
        <ele>1638</ele>
        <time>2000-01-01T12:13:08.000Z</time>
      </trkpt>
      <trkpt lat="45.10354" lon="2.6964">
        <ele>1639</ele>
        <time>2000-01-01T12:12:58.000Z</time>
      </trkpt>
      <trkpt lat="45.1035" lon="2.69626">
        <ele>1635</ele>
        <time>2000-01-01T12:12:48.000Z</time>
      </trkpt>
      <trkpt lat="45.10348" lon="2.69611">
        <ele>1636</ele>
        <time>2000-01-01T12:12:38.000Z</time>
      </trkpt>
      <trkpt lat="45.10345" lon="2.69588">
        <ele>1633.2</ele>
        <time>2000-01-01T12:12:28.000Z</time>
      </trkpt>
      <trkpt lat="45.10343" lon="2.69572">
        <ele>1631.9</ele>
        <time>2000-01-01T12:12:18.000Z</time>
      </trkpt>
      <trkpt lat="45.10343" lon="2.69565">
        <ele>1634</ele>
        <time>2000-01-01T12:12:08.000Z</time>
      </trkpt>
      <trkpt lat="45.10343" lon="2.69557">
        <ele>1630.4</ele>
        <time>2000-01-01T12:11:58.000Z</time>
      </trkpt>
      <trkpt lat="45.10342" lon="2.69553">
        <ele>1630.4</ele>
        <time>2000-01-01T12:11:48.000Z</time>
      </trkpt>
      <trkpt lat="45.10342" lon="2.6955">
        <ele>1630.3</ele>
        <time>2000-01-01T12:11:38.000Z</time>
      </trkpt>
      <trkpt lat="45.10341" lon="2.69547">
        <ele>1630.5</ele>
        <time>2000-01-01T12:11:28.000Z</time>
      </trkpt>
      <trkpt lat="45.10337" lon="2.69534">
        <ele>1633</ele>
        <time>2000-01-01T12:11:18.000Z</time>
      </trkpt>
      <trkpt lat="45.10333" lon="2.69529">
        <ele>1633</ele>
        <time>2000-01-01T12:11:08.000Z</time>
      </trkpt>
      <trkpt lat="45.10328" lon="2.69526">
        <ele>1634.2</ele>
        <time>2000-01-01T12:10:58.000Z</time>
      </trkpt>
      <trkpt lat="45.10324" lon="2.69522">
        <ele>1635.4</ele>
        <time>2000-01-01T12:10:48.000Z</time>
      </trkpt>
      <trkpt lat="45.10321" lon="2.69517">
        <ele>1639</ele>
        <time>2000-01-01T12:10:38.000Z</time>
      </trkpt>
      <trkpt lat="45.10317" lon="2.69513">
        <ele>1638.5</ele>
        <time>2000-01-01T12:10:28.000Z</time>
      </trkpt>
      <trkpt lat="45.10314" lon="2.6951">
        <ele>1640.1</ele>
        <time>2000-01-01T12:10:18.000Z</time>
      </trkpt>
      <trkpt lat="45.1031" lon="2.69506">
        <ele>1642.5</ele>
        <time>2000-01-01T12:10:08.000Z</time>
      </trkpt>
      <trkpt lat="45.10305" lon="2.69503">
        <ele>1645.2</ele>
        <time>2000-01-01T12:09:58.000Z</time>
      </trkpt>
      <trkpt lat="45.10303" lon="2.695">
        <ele>1648</ele>
        <time>2000-01-01T12:09:48.000Z</time>
      </trkpt>
      <trkpt lat="45.103" lon="2.69495">
        <ele>1646.4</ele>
        <time>2000-01-01T12:09:38.000Z</time>
      </trkpt>
      <trkpt lat="45.10296" lon="2.6949">
        <ele>1647.2</ele>
        <time>2000-01-01T12:09:28.000Z</time>
      </trkpt>
      <trkpt lat="45.10292" lon="2.69486">
        <ele>1648.4</ele>
        <time>2000-01-01T12:09:18.000Z</time>
      </trkpt>
      <trkpt lat="45.10286" lon="2.69478">
        <ele>1654</ele>
        <time>2000-01-01T12:09:08.000Z</time>
      </trkpt>
      <trkpt lat="45.10281" lon="2.69472">
        <ele>1654.7</ele>
        <time>2000-01-01T12:08:58.000Z</time>
      </trkpt>
      <trkpt lat="45.10274" lon="2.69463">
        <ele>1655.7</ele>
        <time>2000-01-01T12:08:48.000Z</time>
      </trkpt>
      <trkpt lat="45.1027" lon="2.6946">
        <ele>1657</ele>
        <time>2000-01-01T12:08:38.000Z</time>
      </trkpt>
      <trkpt lat="45.10265" lon="2.69453">
        <ele>1658.1</ele>
        <time>2000-01-01T12:08:28.000Z</time>
      </trkpt>
      <trkpt lat="45.10262" lon="2.69445">
        <ele>1661.1</ele>
        <time>2000-01-01T12:08:18.000Z</time>
      </trkpt>
      <trkpt lat="45.10262" lon="2.69439">
        <ele>1661</ele>
        <time>2000-01-01T12:08:08.000Z</time>
      </trkpt>
      <trkpt lat="45.10262" lon="2.69431">
        <ele>1664</ele>
        <time>2000-01-01T12:07:58.000Z</time>
      </trkpt>
      <trkpt lat="45.10259" lon="2.69424">
        <ele>1662</ele>
        <time>2000-01-01T12:07:48.000Z</time>
      </trkpt>
      <trkpt lat="45.10257" lon="2.6942">
        <ele>1663</ele>
        <time>2000-01-01T12:07:38.000Z</time>
      </trkpt>
      <trkpt lat="45.10255" lon="2.69415">
        <ele>1663.9</ele>
        <time>2000-01-01T12:07:28.000Z</time>
      </trkpt>
      <trkpt lat="45.10252" lon="2.69409">
        <ele>1664.9</ele>
        <time>2000-01-01T12:07:18.000Z</time>
      </trkpt>
      <trkpt lat="45.10251" lon="2.69406">
        <ele>1665</ele>
        <time>2000-01-01T12:07:08.000Z</time>
      </trkpt>
      <trkpt lat="45.10249" lon="2.694">
        <ele>1665.2</ele>
        <time>2000-01-01T12:06:58.000Z</time>
      </trkpt>
      <trkpt lat="45.10248" lon="2.69395">
        <ele>1664.9</ele>
        <time>2000-01-01T12:06:48.000Z</time>
      </trkpt>
      <trkpt lat="45.10246" lon="2.6939">
        <ele>1664.9</ele>
        <time>2000-01-01T12:06:38.000Z</time>
      </trkpt>
      <trkpt lat="45.10244" lon="2.69386">
        <ele>1664.8</ele>
        <time>2000-01-01T12:06:28.000Z</time>
      </trkpt>
      <trkpt lat="45.10243" lon="2.6938">
        <ele>1668</ele>
        <time>2000-01-01T12:06:18.000Z</time>
      </trkpt>
      <trkpt lat="45.1024" lon="2.69374">
        <ele>1663.2</ele>
        <time>2000-01-01T12:06:08.000Z</time>
      </trkpt>
      <trkpt lat="45.10237" lon="2.69367">
        <ele>1662.2</ele>
        <time>2000-01-01T12:05:58.000Z</time>
      </trkpt>
      <trkpt lat="45.10236" lon="2.69363">
        <ele>1661.4</ele>
        <time>2000-01-01T12:05:48.000Z</time>
      </trkpt>
      <trkpt lat="45.10236" lon="2.69359">
        <ele>1661.2</ele>
        <time>2000-01-01T12:05:38.000Z</time>
      </trkpt>
      <trkpt lat="45.10236" lon="2.69355">
        <ele>1668</ele>
        <time>2000-01-01T12:05:28.000Z</time>
      </trkpt>
      <trkpt lat="45.10238" lon="2.69335">
        <ele>1663.3</ele>
        <time>2000-01-01T12:05:18.000Z</time>
      </trkpt>
      <trkpt lat="45.10239" lon="2.69325">
        <ele>1663.2</ele>
        <time>2000-01-01T12:05:08.000Z</time>
      </trkpt>
      <trkpt lat="45.1024" lon="2.69314">
        <ele>1669</ele>
        <time>2000-01-01T12:04:58.000Z</time>
      </trkpt>
      <trkpt lat="45.10241" lon="2.69308">
        <ele>1662.9</ele>
        <time>2000-01-01T12:04:48.000Z</time>
      </trkpt>
      <trkpt lat="45.10241" lon="2.69299">
        <ele>1662.6</ele>
        <time>2000-01-01T12:04:38.000Z</time>
      </trkpt>
      <trkpt lat="45.10241" lon="2.69293">
        <ele>1662.2</ele>
        <time>2000-01-01T12:04:28.000Z</time>
      </trkpt>
      <trkpt lat="45.10241" lon="2.69286">
        <ele>1669</ele>
        <time>2000-01-01T12:04:18.000Z</time>
      </trkpt>
      <trkpt lat="45.10241" lon="2.69281">
        <ele>1661.6</ele>
        <time>2000-01-01T12:04:08.000Z</time>
      </trkpt>
      <trkpt lat="45.10242" lon="2.69278">
        <ele>1661.7</ele>
        <time>2000-01-01T12:03:58.000Z</time>
      </trkpt>
      <trkpt lat="45.10245" lon="2.69271">
        <ele>1663.9</ele>
        <time>2000-01-01T12:03:48.000Z</time>
      </trkpt>
      <trkpt lat="45.10247" lon="2.69267">
        <ele>1665</ele>
        <time>2000-01-01T12:03:38.000Z</time>
      </trkpt>
      <trkpt lat="45.10248" lon="2.6926">
        <ele>1671</ele>
        <time>2000-01-01T12:03:28.000Z</time>
      </trkpt>
      <trkpt lat="45.10248" lon="2.69253">
        <ele>1667.5</ele>
        <time>2000-01-01T12:03:18.000Z</time>
      </trkpt>
      <trkpt lat="45.1025" lon="2.6924">
        <ele>1669.8</ele>
        <time>2000-01-01T12:03:08.000Z</time>
      </trkpt>
      <trkpt lat="45.10252" lon="2.69237">
        <ele>1669.5</ele>
        <time>2000-01-01T12:02:58.000Z</time>
      </trkpt>
      <trkpt lat="45.10254" lon="2.69233">
        <ele>1671</ele>
        <time>2000-01-01T12:02:48.000Z</time>
      </trkpt>
      <trkpt lat="45.10257" lon="2.69226">
        <ele>1669.8</ele>
        <time>2000-01-01T12:02:38.000Z</time>
      </trkpt>
      <trkpt lat="45.1026" lon="2.69219">
        <ele>1670</ele>
        <time>2000-01-01T12:02:28.000Z</time>
      </trkpt>
      <trkpt lat="45.10262" lon="2.69213">
        <ele>1669.8</ele>
        <time>2000-01-01T12:02:18.000Z</time>
      </trkpt>
      <trkpt lat="45.10264" lon="2.69206">
        <ele>1669</ele>
        <time>2000-01-01T12:02:08.000Z</time>
      </trkpt>
      <trkpt lat="45.10266" lon="2.69201">
        <ele>1669.3</ele>
        <time>2000-01-01T12:01:58.000Z</time>
      </trkpt>
      <trkpt lat="45.10271" lon="2.69182">
        <ele>1668.8</ele>
        <time>2000-01-01T12:01:48.000Z</time>
      </trkpt>
      <trkpt lat="45.10271" lon="2.69181">
        <ele>1668</ele>
        <time>2000-01-01T12:01:38.000Z</time>
      </trkpt>
      <trkpt lat="45.10275" lon="2.69168">
        <ele>1668.5</ele>
        <time>2000-01-01T12:01:28.000Z</time>
      </trkpt>
      <trkpt lat="45.10278" lon="2.6916">
        <ele>1668.2</ele>
        <time>2000-01-01T12:01:18.000Z</time>
      </trkpt>
      <trkpt lat="45.1028" lon="2.69153">
        <ele>1667.7</ele>
        <time>2000-01-01T12:01:08.000Z</time>
      </trkpt>
      <trkpt lat="45.10281" lon="2.69146">
        <ele>1667</ele>
        <time>2000-01-01T12:00:58.000Z</time>
      </trkpt>
      <trkpt lat="45.10286" lon="2.69131">
        <ele>1666.3</ele>
        <time>2000-01-01T12:00:48.000Z</time>
      </trkpt>
      <trkpt lat="45.10288" lon="2.69126">
        <ele>1665.7</ele>
        <time>2000-01-01T12:00:38.000Z</time>
      </trkpt>
      <trkpt lat="45.1029" lon="2.6912">
        <ele>1665.3</ele>
        <time>2000-01-01T12:00:28.000Z</time>
      </trkpt>
      <trkpt lat="45.10292" lon="2.69113">
        <ele>1664.9</ele>
        <time>2000-01-01T12:00:18.000Z</time>
      </trkpt>
      <trkpt lat="45.10293" lon="2.69107">
        <ele>1665</ele>
        <time>2000-01-01T12:00:08.000Z</time>
      </trkpt>
      <trkpt lat="45.10296" lon="2.69093">
        <ele>1662.5</ele>
        <time>2000-01-01T11:59:58.000Z</time>
      </trkpt>
      <trkpt lat="45.10298" lon="2.69086">
        <ele>1661.9</ele>
        <time>2000-01-01T11:59:48.000Z</time>
      </trkpt>
      <trkpt lat="45.10301" lon="2.69079">
        <ele>1661.1</ele>
        <time>2000-01-01T11:59:38.000Z</time>
      </trkpt>
      <trkpt lat="45.10302" lon="2.69077">
        <ele>1661</ele>
        <time>2000-01-01T11:59:28.000Z</time>
      </trkpt>
      <trkpt lat="45.10316" lon="2.69047">
        <ele>1656.6</ele>
        <time>2000-01-01T11:59:18.000Z</time>
      </trkpt>
      <trkpt lat="45.10319" lon="2.69041">
        <ele>1655.4</ele>
        <time>2000-01-01T11:59:08.000Z</time>
      </trkpt>
      <trkpt lat="45.1032" lon="2.69037">
        <ele>1654.8</ele>
        <time>2000-01-01T11:58:58.000Z</time>
      </trkpt>
      <trkpt lat="45.1032" lon="2.69031">
        <ele>1659</ele>
        <time>2000-01-01T11:58:48.000Z</time>
      </trkpt>
      <trkpt lat="45.1032" lon="2.69015">
        <ele>1653.5</ele>
        <time>2000-01-01T11:58:38.000Z</time>
      </trkpt>
      <trkpt lat="45.1032" lon="2.69005">
        <ele>1653.5</ele>
        <time>2000-01-01T11:58:28.000Z</time>
      </trkpt>
      <trkpt lat="45.1032" lon="2.68999">
        <ele>1653.6</ele>
        <time>2000-01-01T11:58:18.000Z</time>
      </trkpt>
      <trkpt lat="45.1032" lon="2.68994">
        <ele>1658</ele>
        <time>2000-01-01T11:58:08.000Z</time>
      </trkpt>
      <trkpt lat="45.1032" lon="2.68972">
        <ele>1658</ele>
        <time>2000-01-01T11:57:58.000Z</time>
      </trkpt>
      <trkpt lat="45.1032" lon="2.68966">
        <ele>1661</ele>
        <time>2000-01-01T11:57:48.000Z</time>
      </trkpt>
      <trkpt lat="45.10321" lon="2.68961">
        <ele>1660.2</ele>
        <time>2000-01-01T11:57:38.000Z</time>
      </trkpt>
      <trkpt lat="45.10323" lon="2.68958">
        <ele>1660.6</ele>
        <time>2000-01-01T11:57:28.000Z</time>
      </trkpt>
      <trkpt lat="45.10329" lon="2.68941">
        <ele>1665</ele>
        <time>2000-01-01T11:57:18.000Z</time>
      </trkpt>
      <trkpt lat="45.10333" lon="2.68935">
        <ele>1663.4</ele>
        <time>2000-01-01T11:57:08.000Z</time>
      </trkpt>
      <trkpt lat="45.10338" lon="2.68925">
        <ele>1664.2</ele>
        <time>2000-01-01T11:56:58.000Z</time>
      </trkpt>
      <trkpt lat="45.10343" lon="2.6892">
        <ele>1667</ele>
        <time>2000-01-01T11:56:48.000Z</time>
      </trkpt>
      <trkpt lat="45.10347" lon="2.68914">
        <ele>1664.5</ele>
        <time>2000-01-01T11:56:38.000Z</time>
      </trkpt>
      <trkpt lat="45.1035" lon="2.6891">
        <ele>1664.5</ele>
        <time>2000-01-01T11:56:28.000Z</time>
      </trkpt>
      <trkpt lat="45.10354" lon="2.68905">
        <ele>1664.6</ele>
        <time>2000-01-01T11:56:18.000Z</time>
      </trkpt>
      <trkpt lat="45.10357" lon="2.68897">
        <ele>1667</ele>
        <time>2000-01-01T11:56:08.000Z</time>
      </trkpt>
      <trkpt lat="45.10359" lon="2.68889">
        <ele>1667.3</ele>
        <time>2000-01-01T11:55:58.000Z</time>
      </trkpt>
      <trkpt lat="45.10362" lon="2.68878">
        <ele>1667.1</ele>
        <time>2000-01-01T11:55:48.000Z</time>
      </trkpt>
      <trkpt lat="45.10365" lon="2.68869">
        <ele>1668</ele>
        <time>2000-01-01T11:55:38.000Z</time>
      </trkpt>
      <trkpt lat="45.10368" lon="2.68855">
        <ele>1666.2</ele>
        <time>2000-01-01T11:55:28.000Z</time>
      </trkpt>
      <trkpt lat="45.10369" lon="2.68849">
        <ele>1665.6</ele>
        <time>2000-01-01T11:55:18.000Z</time>
      </trkpt>
      <trkpt lat="45.10369" lon="2.68845">
        <ele>1665.4</ele>
        <time>2000-01-01T11:55:08.000Z</time>
      </trkpt>
      <trkpt lat="45.1037" lon="2.68841">
        <ele>1664.9</ele>
        <time>2000-01-01T11:54:58.000Z</time>
      </trkpt>
      <trkpt lat="45.1037" lon="2.68835">
        <ele>1666</ele>
        <time>2000-01-01T11:54:48.000Z</time>
      </trkpt>
      <trkpt lat="45.10369" lon="2.68829">
        <ele>1664.1</ele>
        <time>2000-01-01T11:54:38.000Z</time>
      </trkpt>
      <trkpt lat="45.10364" lon="2.68806">
        <ele>1661</ele>
        <time>2000-01-01T11:54:28.000Z</time>
      </trkpt>
      <trkpt lat="45.10363" lon="2.68796">
        <ele>1661.4</ele>
        <time>2000-01-01T11:54:18.000Z</time>
      </trkpt>
      <trkpt lat="45.10362" lon="2.6879">
        <ele>1661</ele>
        <time>2000-01-01T11:54:08.000Z</time>
      </trkpt>
      <trkpt lat="45.10362" lon="2.68782">
        <ele>1660.1</ele>
        <time>2000-01-01T11:53:58.000Z</time>
      </trkpt>
      <trkpt lat="45.10362" lon="2.68776">
        <ele>1658</ele>
        <time>2000-01-01T11:53:48.000Z</time>
      </trkpt>
      <trkpt lat="45.10362" lon="2.6877">
        <ele>1658.8</ele>
        <time>2000-01-01T11:53:38.000Z</time>
      </trkpt>
      <trkpt lat="45.10362" lon="2.68763">
        <ele>1658</ele>
        <time>2000-01-01T11:53:28.000Z</time>
      </trkpt>
      <trkpt lat="45.10362" lon="2.68747">
        <ele>1655</ele>
        <time>2000-01-01T11:53:18.000Z</time>
      </trkpt>
      <trkpt lat="45.10364" lon="2.68721">
        <ele>1653.2</ele>
        <time>2000-01-01T11:53:08.000Z</time>
      </trkpt>
      <trkpt lat="45.10365" lon="2.68712">
        <ele>1652.8</ele>
        <time>2000-01-01T11:52:58.000Z</time>
      </trkpt>
      <trkpt lat="45.10366" lon="2.68707">
        <ele>1652.5</ele>
        <time>2000-01-01T11:52:48.000Z</time>
      </trkpt>
      <trkpt lat="45.10369" lon="2.68698">
        <ele>1652</ele>
        <time>2000-01-01T11:52:38.000Z</time>
      </trkpt>
      <trkpt lat="45.1037" lon="2.6869">
        <ele>1650.8</ele>
        <time>2000-01-01T11:52:28.000Z</time>
      </trkpt>
      <trkpt lat="45.10371" lon="2.68682">
        <ele>1648.9</ele>
        <time>2000-01-01T11:52:18.000Z</time>
      </trkpt>
      <trkpt lat="45.10373" lon="2.68675">
        <ele>1647.3</ele>
        <time>2000-01-01T11:52:08.000Z</time>
      </trkpt>
      <trkpt lat="45.10375" lon="2.68673">
        <ele>1646.8</ele>
        <time>2000-01-01T11:51:58.000Z</time>
      </trkpt>
      <trkpt lat="45.10376" lon="2.68671">
        <ele>1646.3</ele>
        <time>2000-01-01T11:51:48.000Z</time>
      </trkpt>
      <trkpt lat="45.10376" lon="2.68668">
        <ele>1645</ele>
        <time>2000-01-01T11:51:38.000Z</time>
      </trkpt>
      <trkpt lat="45.10375" lon="2.68665">
        <ele>1645.1</ele>
        <time>2000-01-01T11:51:28.000Z</time>
      </trkpt>
      <trkpt lat="45.10373" lon="2.68659">
        <ele>1643.5</ele>
        <time>2000-01-01T11:51:18.000Z</time>
      </trkpt>
      <trkpt lat="45.10373" lon="2.68656">
        <ele>1642.7</ele>
        <time>2000-01-01T11:51:08.000Z</time>
      </trkpt>
      <trkpt lat="45.10373" lon="2.68655">
        <ele>1642.5</ele>
        <time>2000-01-01T11:50:58.000Z</time>
      </trkpt>
      <trkpt lat="45.10375" lon="2.68649">
        <ele>1641</ele>
        <time>2000-01-01T11:50:48.000Z</time>
      </trkpt>
      <trkpt lat="45.10375" lon="2.68646">
        <ele>1640.3</ele>
        <time>2000-01-01T11:50:38.000Z</time>
      </trkpt>
      <trkpt lat="45.10375" lon="2.68643">
        <ele>1639.5</ele>
        <time>2000-01-01T11:50:28.000Z</time>
      </trkpt>
      <trkpt lat="45.10374" lon="2.68641">
        <ele>1640</ele>
        <time>2000-01-01T11:50:18.000Z</time>
      </trkpt>
      <trkpt lat="45.10372" lon="2.68632">
        <ele>1634.8</ele>
        <time>2000-01-01T11:50:08.000Z</time>
      </trkpt>
      <trkpt lat="45.10372" lon="2.6863">
        <ele>1633.9</ele>
        <time>2000-01-01T11:49:58.000Z</time>
      </trkpt>
      <trkpt lat="45.10372" lon="2.68629">
        <ele>1633.4</ele>
        <time>2000-01-01T11:49:48.000Z</time>
      </trkpt>
      <trkpt lat="45.10371" lon="2.68625">
        <ele>1631.4</ele>
        <time>2000-01-01T11:49:38.000Z</time>
      </trkpt>
      <trkpt lat="45.10372" lon="2.68617">
        <ele>1627.9</ele>
        <time>2000-01-01T11:49:28.000Z</time>
      </trkpt>
      <trkpt lat="45.10374" lon="2.68611">
        <ele>1636</ele>
        <time>2000-01-01T11:49:18.000Z</time>
      </trkpt>
      <trkpt lat="45.10376" lon="2.68602">
        <ele>1621.8</ele>
        <time>2000-01-01T11:49:08.000Z</time>
      </trkpt>
      <trkpt lat="45.10377" lon="2.686">
        <ele>1620.9</ele>
        <time>2000-01-01T11:48:58.000Z</time>
      </trkpt>
      <trkpt lat="45.10377" lon="2.68598">
        <ele>1620.1</ele>
        <time>2000-01-01T11:48:48.000Z</time>
      </trkpt>
      <trkpt lat="45.10376" lon="2.68597">
        <ele>1619.6</ele>
        <time>2000-01-01T11:48:38.000Z</time>
      </trkpt>
      <trkpt lat="45.10375" lon="2.68595">
        <ele>1618.8</ele>
        <time>2000-01-01T11:48:28.000Z</time>
      </trkpt>
      <trkpt lat="45.10373" lon="2.68594">
        <ele>1618.5</ele>
        <time>2000-01-01T11:48:18.000Z</time>
      </trkpt>
      <trkpt lat="45.10372" lon="2.68593">
        <ele>1618.2</ele>
        <time>2000-01-01T11:48:08.000Z</time>
      </trkpt>
      <trkpt lat="45.10372" lon="2.68591">
        <ele>1617.4</ele>
        <time>2000-01-01T11:47:58.000Z</time>
      </trkpt>
      <trkpt lat="45.10372" lon="2.68588">
        <ele>1616.2</ele>
        <time>2000-01-01T11:47:48.000Z</time>
      </trkpt>
      <trkpt lat="45.10372" lon="2.68584">
        <ele>1632</ele>
        <time>2000-01-01T11:47:38.000Z</time>
      </trkpt>
      <trkpt lat="45.10371" lon="2.68581">
        <ele>1616</ele>
        <time>2000-01-01T11:47:28.000Z</time>
      </trkpt>
      <trkpt lat="45.1037" lon="2.68579">
        <ele>1617.3</ele>
        <time>2000-01-01T11:47:18.000Z</time>
      </trkpt>
      <trkpt lat="45.10369" lon="2.68576">
        <ele>1619.3</ele>
        <time>2000-01-01T11:47:08.000Z</time>
      </trkpt>
      <trkpt lat="45.10369" lon="2.68575">
        <ele>1619.9</ele>
        <time>2000-01-01T11:46:58.000Z</time>
      </trkpt>
      <trkpt lat="45.10371" lon="2.68573">
        <ele>1620.7</ele>
        <time>2000-01-01T11:46:48.000Z</time>
      </trkpt>
      <trkpt lat="45.10372" lon="2.68572">
        <ele>1621.1</ele>
        <time>2000-01-01T11:46:38.000Z</time>
      </trkpt>
      <trkpt lat="45.10373" lon="2.6857">
        <ele>1622.1</ele>
        <time>2000-01-01T11:46:28.000Z</time>
      </trkpt>
      <trkpt lat="45.10374" lon="2.68569">
        <ele>1622.5</ele>
        <time>2000-01-01T11:46:18.000Z</time>
      </trkpt>
      <trkpt lat="45.10375" lon="2.68565">
        <ele>1624.6</ele>
        <time>2000-01-01T11:46:08.000Z</time>
      </trkpt>
      <trkpt lat="45.10374" lon="2.68563">
        <ele>1626</ele>
        <time>2000-01-01T11:45:58.000Z</time>
      </trkpt>
      <trkpt lat="45.10372" lon="2.68561">
        <ele>1634</ele>
        <time>2000-01-01T11:45:48.000Z</time>
      </trkpt>
      <trkpt lat="45.10371" lon="2.6856">
        <ele>1628.5</ele>
        <time>2000-01-01T11:45:38.000Z</time>
      </trkpt>
      <trkpt lat="45.1037" lon="2.68559">
        <ele>1629.4</ele>
        <time>2000-01-01T11:45:28.000Z</time>
      </trkpt>
      <trkpt lat="45.1037" lon="2.68557">
        <ele>1630.6</ele>
        <time>2000-01-01T11:45:18.000Z</time>
      </trkpt>
      <trkpt lat="45.1037" lon="2.68555">
        <ele>1631.7</ele>
        <time>2000-01-01T11:45:08.000Z</time>
      </trkpt>
      <trkpt lat="45.10372" lon="2.68552">
        <ele>1632.3</ele>
        <time>2000-01-01T11:44:58.000Z</time>
      </trkpt>
      <trkpt lat="45.10374" lon="2.6855">
        <ele>1632.6</ele>
        <time>2000-01-01T11:44:48.000Z</time>
      </trkpt>
      <trkpt lat="45.10377" lon="2.68547">
        <ele>1633.3</ele>
        <time>2000-01-01T11:44:38.000Z</time>
      </trkpt>
      <trkpt lat="45.1038" lon="2.68542">
        <ele>1642</ele>
        <time>2000-01-01T11:44:28.000Z</time>
      </trkpt>
      <trkpt lat="45.10386" lon="2.68532">
        <ele>1639.7</ele>
        <time>2000-01-01T11:44:18.000Z</time>
      </trkpt>
      <trkpt lat="45.1039" lon="2.68526">
        <ele>1641.9</ele>
        <time>2000-01-01T11:44:08.000Z</time>
      </trkpt>
      <trkpt lat="45.10391" lon="2.68522">
        <ele>1642</ele>
        <time>2000-01-01T11:43:58.000Z</time>
      </trkpt>
      <trkpt lat="45.10396" lon="2.68513">
        <ele>1642</ele>
        <time>2000-01-01T11:43:48.000Z</time>
      </trkpt>
      <trkpt lat="45.10398" lon="2.68509">
        <ele>1641.4</ele>
        <time>2000-01-01T11:43:38.000Z</time>
      </trkpt>
      <trkpt lat="45.10399" lon="2.68504">
        <ele>1641.7</ele>
        <time>2000-01-01T11:43:28.000Z</time>
      </trkpt>
      <trkpt lat="45.104" lon="2.685">
        <ele>1641.8</ele>
        <time>2000-01-01T11:43:18.000Z</time>
      </trkpt>
      <trkpt lat="45.10401" lon="2.68496">
        <ele>1641.4</ele>
        <time>2000-01-01T11:43:08.000Z</time>
      </trkpt>
      <trkpt lat="45.10403" lon="2.68485">
        <ele>1642</ele>
        <time>2000-01-01T11:42:58.000Z</time>
      </trkpt>
      <trkpt lat="45.10405" lon="2.68473">
        <ele>1640.1</ele>
        <time>2000-01-01T11:42:48.000Z</time>
      </trkpt>
      <trkpt lat="45.10407" lon="2.68465">
        <ele>1638.8</ele>
        <time>2000-01-01T11:42:38.000Z</time>
      </trkpt>
      <trkpt lat="45.10408" lon="2.68461">
        <ele>1638.1</ele>
        <time>2000-01-01T11:42:28.000Z</time>
      </trkpt>
      <trkpt lat="45.1041" lon="2.68457">
        <ele>1637.6</ele>
        <time>2000-01-01T11:42:18.000Z</time>
      </trkpt>
      <trkpt lat="45.10413" lon="2.68451">
        <ele>1638</ele>
        <time>2000-01-01T11:42:08.000Z</time>
      </trkpt>
      <trkpt lat="45.10416" lon="2.68444">
        <ele>1636.9</ele>
        <time>2000-01-01T11:41:58.000Z</time>
      </trkpt>
      <trkpt lat="45.10418" lon="2.68438">
        <ele>1636.2</ele>
        <time>2000-01-01T11:41:48.000Z</time>
      </trkpt>
      <trkpt lat="45.1042" lon="2.68435">
        <ele>1635.4</ele>
        <time>2000-01-01T11:41:38.000Z</time>
      </trkpt>
      <trkpt lat="45.10421" lon="2.6843">
        <ele>1635.1</ele>
        <time>2000-01-01T11:41:28.000Z</time>
      </trkpt>
      <trkpt lat="45.10423" lon="2.68426">
        <ele>1637</ele>
        <time>2000-01-01T11:41:18.000Z</time>
      </trkpt>
      <trkpt lat="45.10425" lon="2.68421">
        <ele>1634.5</ele>
        <time>2000-01-01T11:41:08.000Z</time>
      </trkpt>
      <trkpt lat="45.10426" lon="2.68418">
        <ele>1634.5</ele>
        <time>2000-01-01T11:40:58.000Z</time>
      </trkpt>
      <trkpt lat="45.10429" lon="2.68412">
        <ele>1633.6</ele>
        <time>2000-01-01T11:40:48.000Z</time>
      </trkpt>
      <trkpt lat="45.10433" lon="2.68403">
        <ele>1636</ele>
        <time>2000-01-01T11:40:38.000Z</time>
      </trkpt>
      <trkpt lat="45.1044" lon="2.68393">
        <ele>1633</ele>
        <time>2000-01-01T11:40:28.000Z</time>
      </trkpt>
      <trkpt lat="45.10444" lon="2.68386">
        <ele>1633.1</ele>
        <time>2000-01-01T11:40:18.000Z</time>
      </trkpt>
      <trkpt lat="45.10447" lon="2.68383">
        <ele>1631</ele>
        <time>2000-01-01T11:40:08.000Z</time>
      </trkpt>
      <trkpt lat="45.10451" lon="2.68376">
        <ele>1630</ele>
        <time>2000-01-01T11:39:58.000Z</time>
      </trkpt>
      <trkpt lat="45.10453" lon="2.68373">
        <ele>1626.9</ele>
        <time>2000-01-01T11:39:48.000Z</time>
      </trkpt>
      <trkpt lat="45.10459" lon="2.68366">
        <ele>1625.3</ele>
        <time>2000-01-01T11:39:38.000Z</time>
      </trkpt>
      <trkpt lat="45.10461" lon="2.68363">
        <ele>1625.3</ele>
        <time>2000-01-01T11:39:28.000Z</time>
      </trkpt>
      <trkpt lat="45.10464" lon="2.68356">
        <ele>1626</ele>
        <time>2000-01-01T11:39:18.000Z</time>
      </trkpt>
      <trkpt lat="45.10468" lon="2.68348">
        <ele>1621.6</ele>
        <time>2000-01-01T11:39:08.000Z</time>
      </trkpt>
      <trkpt lat="45.10471" lon="2.68344">
        <ele>1621.5</ele>
        <time>2000-01-01T11:38:58.000Z</time>
      </trkpt>
      <trkpt lat="45.10474" lon="2.68338">
        <ele>1619.9</ele>
        <time>2000-01-01T11:38:48.000Z</time>
      </trkpt>
      <trkpt lat="45.10476" lon="2.68335">
        <ele>1618.6</ele>
        <time>2000-01-01T11:38:38.000Z</time>
      </trkpt>
      <trkpt lat="45.10479" lon="2.68332">
        <ele>1616.3</ele>
        <time>2000-01-01T11:38:28.000Z</time>
      </trkpt>
      <trkpt lat="45.10482" lon="2.6833">
        <ele>1621</ele>
        <time>2000-01-01T11:38:18.000Z</time>
      </trkpt>
      <trkpt lat="45.10488" lon="2.68322">
        <ele>1610.8</ele>
        <time>2000-01-01T11:38:08.000Z</time>
      </trkpt>
      <trkpt lat="45.1049" lon="2.68319">
        <ele>1610.4</ele>
        <time>2000-01-01T11:37:58.000Z</time>
      </trkpt>
      <trkpt lat="45.10493" lon="2.68315">
        <ele>1610.7</ele>
        <time>2000-01-01T11:37:48.000Z</time>
      </trkpt>
      <trkpt lat="45.10497" lon="2.68304">
        <ele>1617</ele>
        <time>2000-01-01T11:37:38.000Z</time>
      </trkpt>
      <trkpt lat="45.105" lon="2.68297">
        <ele>1615.6</ele>
        <time>2000-01-01T11:37:28.000Z</time>
      </trkpt>
      <trkpt lat="45.10502" lon="2.68293">
        <ele>1615.3</ele>
        <time>2000-01-01T11:37:18.000Z</time>
      </trkpt>
      <trkpt lat="45.10505" lon="2.68291">
        <ele>1614.8</ele>
        <time>2000-01-01T11:37:08.000Z</time>
      </trkpt>
      <trkpt lat="45.1051" lon="2.68284">
        <ele>1615.1</ele>
        <time>2000-01-01T11:36:58.000Z</time>
      </trkpt>
      <trkpt lat="45.10513" lon="2.68281">
        <ele>1618</ele>
        <time>2000-01-01T11:36:48.000Z</time>
      </trkpt>
      <trkpt lat="45.10517" lon="2.68278">
        <ele>1616.3</ele>
        <time>2000-01-01T11:36:38.000Z</time>
      </trkpt>
      <trkpt lat="45.10522" lon="2.68273">
        <ele>1616</ele>
        <time>2000-01-01T11:36:28.000Z</time>
      </trkpt>
      <trkpt lat="45.10526" lon="2.6827">
        <ele>1616.2</ele>
        <time>2000-01-01T11:36:18.000Z</time>
      </trkpt>
      <trkpt lat="45.1053" lon="2.68267">
        <ele>1618</ele>
        <time>2000-01-01T11:36:08.000Z</time>
      </trkpt>
      <trkpt lat="45.10534" lon="2.68264">
        <ele>1612.7</ele>
        <time>2000-01-01T11:35:58.000Z</time>
      </trkpt>
      <trkpt lat="45.1054" lon="2.68259">
        <ele>1611.7</ele>
        <time>2000-01-01T11:35:48.000Z</time>
      </trkpt>
      <trkpt lat="45.10544" lon="2.68253">
        <ele>1614.3</ele>
        <time>2000-01-01T11:35:38.000Z</time>
      </trkpt>
      <trkpt lat="45.10547" lon="2.6825">
        <ele>1615</ele>
        <time>2000-01-01T11:35:28.000Z</time>
      </trkpt>
      <trkpt lat="45.10551" lon="2.68244">
        <ele>1615.1</ele>
        <time>2000-01-01T11:35:18.000Z</time>
      </trkpt>
      <trkpt lat="45.10554" lon="2.6824">
        <ele>1614.5</ele>
        <time>2000-01-01T11:35:08.000Z</time>
      </trkpt>
      <trkpt lat="45.10559" lon="2.68232">
        <ele>1611.3</ele>
        <time>2000-01-01T11:34:58.000Z</time>
      </trkpt>
      <trkpt lat="45.10561" lon="2.68229">
        <ele>1612</ele>
        <time>2000-01-01T11:34:48.000Z</time>
      </trkpt>
      <trkpt lat="45.10565" lon="2.68225">
        <ele>1609.3</ele>
        <time>2000-01-01T11:34:38.000Z</time>
      </trkpt>
      <trkpt lat="45.1057" lon="2.68218">
        <ele>1608.3</ele>
        <time>2000-01-01T11:34:28.000Z</time>
      </trkpt>
      <trkpt lat="45.10572" lon="2.68214">
        <ele>1607.5</ele>
        <time>2000-01-01T11:34:18.000Z</time>
      </trkpt>
      <trkpt lat="45.10576" lon="2.6821">
        <ele>1606.7</ele>
        <time>2000-01-01T11:34:08.000Z</time>
      </trkpt>
      <trkpt lat="45.10578" lon="2.68208">
        <ele>1607</ele>
        <time>2000-01-01T11:33:58.000Z</time>
      </trkpt>
      <trkpt lat="45.10582" lon="2.68205">
        <ele>1606</ele>
        <time>2000-01-01T11:33:48.000Z</time>
      </trkpt>
      <trkpt lat="45.10585" lon="2.68201">
        <ele>1605.3</ele>
        <time>2000-01-01T11:33:38.000Z</time>
      </trkpt>
      <trkpt lat="45.10592" lon="2.68195">
        <ele>1603.4</ele>
        <time>2000-01-01T11:33:28.000Z</time>
      </trkpt>
      <trkpt lat="45.10595" lon="2.68192">
        <ele>1607</ele>
        <time>2000-01-01T11:33:18.000Z</time>
      </trkpt>
      <trkpt lat="45.10598" lon="2.68189">
        <ele>1602.1</ele>
        <time>2000-01-01T11:33:08.000Z</time>
      </trkpt>
      <trkpt lat="45.10602" lon="2.68184">
        <ele>1602</ele>
        <time>2000-01-01T11:32:58.000Z</time>
      </trkpt>
      <trkpt lat="45.10606" lon="2.68179">
        <ele>1602.8</ele>
        <time>2000-01-01T11:32:48.000Z</time>
      </trkpt>
      <trkpt lat="45.10609" lon="2.68173">
        <ele>1607</ele>
        <time>2000-01-01T11:32:38.000Z</time>
      </trkpt>
      <trkpt lat="45.10613" lon="2.68168">
        <ele>1606</ele>
        <time>2000-01-01T11:32:28.000Z</time>
      </trkpt>
      <trkpt lat="45.10617" lon="2.68163">
        <ele>1604.7</ele>
        <time>2000-01-01T11:32:18.000Z</time>
      </trkpt>
      <trkpt lat="45.1062" lon="2.68161">
        <ele>1603.8</ele>
        <time>2000-01-01T11:32:08.000Z</time>
      </trkpt>
      <trkpt lat="45.10625" lon="2.68158">
        <ele>1602.8</ele>
        <time>2000-01-01T11:31:58.000Z</time>
      </trkpt>
      <trkpt lat="45.10628" lon="2.68155">
        <ele>1606</ele>
        <time>2000-01-01T11:31:48.000Z</time>
      </trkpt>
      <trkpt lat="45.10632" lon="2.68151">
        <ele>1602.8</ele>
        <time>2000-01-01T11:31:38.000Z</time>
      </trkpt>
      <trkpt lat="45.10635" lon="2.68148">
        <ele>1603.4</ele>
        <time>2000-01-01T11:31:28.000Z</time>
      </trkpt>
      <trkpt lat="45.10638" lon="2.68143">
        <ele>1604.8</ele>
        <time>2000-01-01T11:31:18.000Z</time>
      </trkpt>
      <trkpt lat="45.1064" lon="2.68141">
        <ele>1604.8</ele>
        <time>2000-01-01T11:31:08.000Z</time>
      </trkpt>
      <trkpt lat="45.1064" lon="2.68137">
        <ele>1605.1</ele>
        <time>2000-01-01T11:30:58.000Z</time>
      </trkpt>
      <trkpt lat="45.10642" lon="2.68132">
        <ele>1606</ele>
        <time>2000-01-01T11:30:48.000Z</time>
      </trkpt>
      <trkpt lat="45.10645" lon="2.68125">
        <ele>1601.7</ele>
        <time>2000-01-01T11:30:38.000Z</time>
      </trkpt>
      <trkpt lat="45.10648" lon="2.6812">
        <ele>1600.9</ele>
        <time>2000-01-01T11:30:28.000Z</time>
      </trkpt>
      <trkpt lat="45.1065" lon="2.68117">
        <ele>1600.7</ele>
        <time>2000-01-01T11:30:18.000Z</time>
      </trkpt>
      <trkpt lat="45.10653" lon="2.68111">
        <ele>1601</ele>
        <time>2000-01-01T11:30:08.000Z</time>
      </trkpt>
      <trkpt lat="45.10654" lon="2.68108">
        <ele>1601.3</ele>
        <time>2000-01-01T11:29:58.000Z</time>
      </trkpt>
      <trkpt lat="45.10656" lon="2.68105">
        <ele>1601.7</ele>
        <time>2000-01-01T11:29:48.000Z</time>
      </trkpt>
      <trkpt lat="45.10657" lon="2.68104">
        <ele>1607</ele>
        <time>2000-01-01T11:29:38.000Z</time>
      </trkpt>
      <trkpt lat="45.10658" lon="2.681">
        <ele>1602.5</ele>
        <time>2000-01-01T11:29:28.000Z</time>
      </trkpt>
      <trkpt lat="45.10659" lon="2.68098">
        <ele>1602.9</ele>
        <time>2000-01-01T11:29:18.000Z</time>
      </trkpt>
      <trkpt lat="45.10662" lon="2.6809">
        <ele>1604.7</ele>
        <time>2000-01-01T11:29:08.000Z</time>
      </trkpt>
      <trkpt lat="45.10663" lon="2.68082">
        <ele>1606.4</ele>
        <time>2000-01-01T11:28:58.000Z</time>
      </trkpt>
      <trkpt lat="45.10664" lon="2.68079">
        <ele>1609</ele>
        <time>2000-01-01T11:28:48.000Z</time>
      </trkpt>
      <trkpt lat="45.10664" lon="2.68076">
        <ele>1607.9</ele>
        <time>2000-01-01T11:28:38.000Z</time>
      </trkpt>
      <trkpt lat="45.10665" lon="2.68073">
        <ele>1608.8</ele>
        <time>2000-01-01T11:28:28.000Z</time>
      </trkpt>
      <trkpt lat="45.10666" lon="2.68065">
        <ele>1610.8</ele>
        <time>2000-01-01T11:28:18.000Z</time>
      </trkpt>
      <trkpt lat="45.10667" lon="2.68059">
        <ele>1612.2</ele>
        <time>2000-01-01T11:28:08.000Z</time>
      </trkpt>
      <trkpt lat="45.10668" lon="2.68056">
        <ele>1612.8</ele>
        <time>2000-01-01T11:27:58.000Z</time>
      </trkpt>
      <trkpt lat="45.10668" lon="2.68053">
        <ele>1613.2</ele>
        <time>2000-01-01T11:27:48.000Z</time>
      </trkpt>
      <trkpt lat="45.10668" lon="2.68052">
        <ele>1613</ele>
        <time>2000-01-01T11:27:38.000Z</time>
      </trkpt>
      <trkpt lat="45.10671" lon="2.68042">
        <ele>1614.9</ele>
        <time>2000-01-01T11:27:28.000Z</time>
      </trkpt>
      <trkpt lat="45.10673" lon="2.68036">
        <ele>1615.9</ele>
        <time>2000-01-01T11:27:18.000Z</time>
      </trkpt>
      <trkpt lat="45.10675" lon="2.68033">
        <ele>1616.6</ele>
        <time>2000-01-01T11:27:08.000Z</time>
      </trkpt>
      <trkpt lat="45.10676" lon="2.6803">
        <ele>1617.2</ele>
        <time>2000-01-01T11:26:58.000Z</time>
      </trkpt>
      <trkpt lat="45.10681" lon="2.68023">
        <ele>1620</ele>
        <time>2000-01-01T11:26:48.000Z</time>
      </trkpt>
      <trkpt lat="45.10686" lon="2.68014">
        <ele>1621.3</ele>
        <time>2000-01-01T11:26:38.000Z</time>
      </trkpt>
      <trkpt lat="45.1069" lon="2.68008">
        <ele>1623.9</ele>
        <time>2000-01-01T11:26:28.000Z</time>
      </trkpt>
      <trkpt lat="45.10695" lon="2.68001">
        <ele>1626</ele>
        <time>2000-01-01T11:26:18.000Z</time>
      </trkpt>
      <trkpt lat="45.10698" lon="2.67997">
        <ele>1628.3</ele>
        <time>2000-01-01T11:26:08.000Z</time>
      </trkpt>
      <trkpt lat="45.10702" lon="2.67991">
        <ele>1629.3</ele>
        <time>2000-01-01T11:25:58.000Z</time>
      </trkpt>
      <trkpt lat="45.10712" lon="2.67979">
        <ele>1635</ele>
        <time>2000-01-01T11:25:48.000Z</time>
      </trkpt>
      <trkpt lat="45.10719" lon="2.67968">
        <ele>1636.1</ele>
        <time>2000-01-01T11:25:38.000Z</time>
      </trkpt>
      <trkpt lat="45.10727" lon="2.67955">
        <ele>1638</ele>
        <time>2000-01-01T11:25:18.000Z</time>
      </trkpt>
      <trkpt lat="45.10733" lon="2.67942">
        <ele>1641.6</ele>
        <time>2000-01-01T11:25:08.000Z</time>
      </trkpt>
      <trkpt lat="45.10737" lon="2.67937">
        <ele>1643.3</ele>
        <time>2000-01-01T11:24:58.000Z</time>
      </trkpt>
      <trkpt lat="45.10741" lon="2.67932">
        <ele>1645.7</ele>
        <time>2000-01-01T11:24:48.000Z</time>
      </trkpt>
      <trkpt lat="45.10743" lon="2.67926">
        <ele>1648.2</ele>
        <time>2000-01-01T11:24:38.000Z</time>
      </trkpt>
      <trkpt lat="45.10746" lon="2.67923">
        <ele>1650</ele>
        <time>2000-01-01T11:24:28.000Z</time>
      </trkpt>
      <trkpt lat="45.10748" lon="2.6792">
        <ele>1652.6</ele>
        <time>2000-01-01T11:24:18.000Z</time>
      </trkpt>
      <trkpt lat="45.10751" lon="2.67916">
        <ele>1654.9</ele>
        <time>2000-01-01T11:24:08.000Z</time>
      </trkpt>
      <trkpt lat="45.10753" lon="2.67913">
        <ele>1654.9</ele>
        <time>2000-01-01T11:23:58.000Z</time>
      </trkpt>
      <trkpt lat="45.10754" lon="2.6791">
        <ele>1655.1</ele>
        <time>2000-01-01T11:23:48.000Z</time>
      </trkpt>
      <trkpt lat="45.10756" lon="2.67907">
        <ele>1655.5</ele>
        <time>2000-01-01T11:23:38.000Z</time>
      </trkpt>
      <trkpt lat="45.10758" lon="2.67904">
        <ele>1656.2</ele>
        <time>2000-01-01T11:23:28.000Z</time>
      </trkpt>
      <trkpt lat="45.1076" lon="2.67902">
        <ele>1661</ele>
        <time>2000-01-01T11:23:18.000Z</time>
      </trkpt>
      <trkpt lat="45.10763" lon="2.679">
        <ele>1658.2</ele>
        <time>2000-01-01T11:23:08.000Z</time>
      </trkpt>
      <trkpt lat="45.10766" lon="2.67899">
        <ele>1659.4</ele>
        <time>2000-01-01T11:22:58.000Z</time>
      </trkpt>
      <trkpt lat="45.10767" lon="2.67896">
        <ele>1660.8</ele>
        <time>2000-01-01T11:22:48.000Z</time>
      </trkpt>
      <trkpt lat="45.1077" lon="2.67892">
        <ele>1663.5</ele>
        <time>2000-01-01T11:22:38.000Z</time>
      </trkpt>
      <trkpt lat="45.10773" lon="2.6789">
        <ele>1665.9</ele>
        <time>2000-01-01T11:22:28.000Z</time>
      </trkpt>
      <trkpt lat="45.10776" lon="2.67887">
        <ele>1665</ele>
        <time>2000-01-01T11:22:18.000Z</time>
      </trkpt>
      <trkpt lat="45.10783" lon="2.67872">
        <ele>1671.4</ele>
        <time>2000-01-01T11:21:58.000Z</time>
      </trkpt>
      <trkpt lat="45.10789" lon="2.67862">
        <ele>1675</ele>
        <time>2000-01-01T11:21:48.000Z</time>
      </trkpt>
      <trkpt lat="45.10793" lon="2.67857">
        <ele>1677</ele>
        <time>2000-01-01T11:21:38.000Z</time>
      </trkpt>
      <trkpt lat="45.10797" lon="2.67855">
        <ele>1677.9</ele>
        <time>2000-01-01T11:21:28.000Z</time>
      </trkpt>
      <trkpt lat="45.10804" lon="2.67851">
        <ele>1681.5</ele>
        <time>2000-01-01T11:21:18.000Z</time>
      </trkpt>
      <trkpt lat="45.10804" lon="2.67849">
        <ele>1681.8</ele>
        <time>2000-01-01T11:21:08.000Z</time>
      </trkpt>
      <trkpt lat="45.10806" lon="2.67846">
        <ele>1683.4</ele>
        <time>2000-01-01T11:20:58.000Z</time>
      </trkpt>
      <trkpt lat="45.10809" lon="2.67844">
        <ele>1681</ele>
        <time>2000-01-01T11:20:48.000Z</time>
      </trkpt>
      <trkpt lat="45.10813" lon="2.6784">
        <ele>1686.5</ele>
        <time>2000-01-01T11:20:38.000Z</time>
      </trkpt>
      <trkpt lat="45.10814" lon="2.67839">
        <ele>1687.1</ele>
        <time>2000-01-01T11:20:28.000Z</time>
      </trkpt>
      <trkpt lat="45.10815" lon="2.67834">
        <ele>1688.9</ele>
        <time>2000-01-01T11:20:18.000Z</time>
      </trkpt>
      <trkpt lat="45.10816" lon="2.67834">
        <ele>1689.2</ele>
        <time>2000-01-01T11:20:08.000Z</time>
      </trkpt>
      <trkpt lat="45.10819" lon="2.67833">
        <ele>1690.4</ele>
        <time>2000-01-01T11:19:58.000Z</time>
      </trkpt>
      <trkpt lat="45.10822" lon="2.67832">
        <ele>1691.5</ele>
        <time>2000-01-01T11:19:48.000Z</time>
      </trkpt>
      <trkpt lat="45.10826" lon="2.6783">
        <ele>1693.4</ele>
        <time>2000-01-01T11:19:38.000Z</time>
      </trkpt>
      <trkpt lat="45.10828" lon="2.67828">
        <ele>1695</ele>
        <time>2000-01-01T11:19:28.000Z</time>
      </trkpt>
      <trkpt lat="45.1083" lon="2.67826">
        <ele>1696.3</ele>
        <time>2000-01-01T11:19:18.000Z</time>
      </trkpt>
      <trkpt lat="45.10831" lon="2.67822">
        <ele>1698.2</ele>
        <time>2000-01-01T11:19:08.000Z</time>
      </trkpt>
      <trkpt lat="45.10828" lon="2.67818">
        <ele>1697.6</ele>
        <time>2000-01-01T11:18:58.000Z</time>
      </trkpt>
      <trkpt lat="45.10828" lon="2.67815">
        <ele>1698.5</ele>
        <time>2000-01-01T11:18:48.000Z</time>
      </trkpt>
      <trkpt lat="45.1083" lon="2.67814">
        <ele>1700.2</ele>
        <time>2000-01-01T11:18:38.000Z</time>
      </trkpt>
      <trkpt lat="45.10835" lon="2.67813">
        <ele>1703.3</ele>
        <time>2000-01-01T11:18:28.000Z</time>
      </trkpt>
      <trkpt lat="45.10836" lon="2.67811">
        <ele>1703</ele>
        <time>2000-01-01T11:18:18.000Z</time>
      </trkpt>
      <trkpt lat="45.10837" lon="2.67808">
        <ele>1705.8</ele>
        <time>2000-01-01T11:18:08.000Z</time>
      </trkpt>
      <trkpt lat="45.1084" lon="2.67807">
        <ele>1706.8</ele>
        <time>2000-01-01T11:17:58.000Z</time>
      </trkpt>
      <trkpt lat="45.10844" lon="2.67806">
        <ele>1708.1</ele>
        <time>2000-01-01T11:17:48.000Z</time>
      </trkpt>
      <trkpt lat="45.10848" lon="2.67807">
        <ele>1708.5</ele>
        <time>2000-01-01T11:17:38.000Z</time>
      </trkpt>
      <trkpt lat="45.10849" lon="2.67807">
        <ele>1708.7</ele>
        <time>2000-01-01T11:17:28.000Z</time>
      </trkpt>
      <trkpt lat="45.10853" lon="2.67803">
        <ele>1711</ele>
        <time>2000-01-01T11:17:18.000Z</time>
      </trkpt>
      <trkpt lat="45.10861" lon="2.67796">
        <ele>1713.7</ele>
        <time>2000-01-01T11:17:08.000Z</time>
      </trkpt>
      <trkpt lat="45.10863" lon="2.67795">
        <ele>1714.3</ele>
        <time>2000-01-01T11:16:58.000Z</time>
      </trkpt>
      <trkpt lat="45.10865" lon="2.67794">
        <ele>1715</ele>
        <time>2000-01-01T11:16:48.000Z</time>
      </trkpt>
      <trkpt lat="45.10866" lon="2.67792">
        <ele>1715.7</ele>
        <time>2000-01-01T11:16:38.000Z</time>
      </trkpt>
      <trkpt lat="45.10867" lon="2.6779">
        <ele>1716.6</ele>
        <time>2000-01-01T11:16:28.000Z</time>
      </trkpt>
      <trkpt lat="45.10867" lon="2.67786">
        <ele>1717.7</ele>
        <time>2000-01-01T11:16:18.000Z</time>
      </trkpt>
      <trkpt lat="45.10869" lon="2.67784">
        <ele>1716</ele>
        <time>2000-01-01T11:16:08.000Z</time>
      </trkpt>
      <trkpt lat="45.10874" lon="2.67781">
        <ele>1722.2</ele>
        <time>2000-01-01T11:15:58.000Z</time>
      </trkpt>
      <trkpt lat="45.10879" lon="2.67778">
        <ele>1725.9</ele>
        <time>2000-01-01T11:15:48.000Z</time>
      </trkpt>
      <trkpt lat="45.10882" lon="2.67775">
        <ele>1728</ele>
        <time>2000-01-01T11:15:38.000Z</time>
      </trkpt>
      <trkpt lat="45.10885" lon="2.67775">
        <ele>1729.6</ele>
        <time>2000-01-01T11:15:28.000Z</time>
      </trkpt>
      <trkpt lat="45.10888" lon="2.67769">
        <ele>1731</ele>
        <time>2000-01-01T11:15:18.000Z</time>
      </trkpt>
      <trkpt lat="45.1089" lon="2.67768">
        <ele>1733.7</ele>
        <time>2000-01-01T11:15:08.000Z</time>
      </trkpt>
      <trkpt lat="45.1089" lon="2.67765">
        <ele>1734.5</ele>
        <time>2000-01-01T11:14:58.000Z</time>
      </trkpt>
      <trkpt lat="45.10891" lon="2.6776">
        <ele>1736.1</ele>
        <time>2000-01-01T11:14:48.000Z</time>
      </trkpt>
      <trkpt lat="45.10892" lon="2.67756">
        <ele>1737.6</ele>
        <time>2000-01-01T11:14:38.000Z</time>
      </trkpt>
      <trkpt lat="45.10893" lon="2.67756">
        <ele>1738</ele>
        <time>2000-01-01T11:14:28.000Z</time>
      </trkpt>
      <trkpt lat="45.10894" lon="2.67756">
        <ele>1738.3</ele>
        <time>2000-01-01T11:14:18.000Z</time>
      </trkpt>
      <trkpt lat="45.10894" lon="2.67754">
        <ele>1739</ele>
        <time>2000-01-01T11:14:08.000Z</time>
      </trkpt>
      <trkpt lat="45.10898" lon="2.67753">
        <ele>1740.9</ele>
        <time>2000-01-01T11:13:58.000Z</time>
      </trkpt>
      <trkpt lat="45.10898" lon="2.6775">
        <ele>1741</ele>
        <time>2000-01-01T11:13:48.000Z</time>
      </trkpt>
      <trkpt lat="45.10899" lon="2.67745">
        <ele>1743.4</ele>
        <time>2000-01-01T11:13:38.000Z</time>
      </trkpt>
      <trkpt lat="45.10902" lon="2.67744">
        <ele>1745.2</ele>
        <time>2000-01-01T11:13:28.000Z</time>
      </trkpt>
      <trkpt lat="45.10904" lon="2.67743">
        <ele>1746.5</ele>
        <time>2000-01-01T11:13:18.000Z</time>
      </trkpt>
      <trkpt lat="45.10906" lon="2.67741">
        <ele>1748.2</ele>
        <time>2000-01-01T11:13:08.000Z</time>
      </trkpt>
      <trkpt lat="45.10908" lon="2.6774">
        <ele>1749.7</ele>
        <time>2000-01-01T11:12:58.000Z</time>
      </trkpt>
      <trkpt lat="45.10909" lon="2.6774">
        <ele>1750.3</ele>
        <time>2000-01-01T11:12:48.000Z</time>
      </trkpt>
      <trkpt lat="45.1091" lon="2.67739">
        <ele>1751.2</ele>
        <time>2000-01-01T11:12:38.000Z</time>
      </trkpt>
      <trkpt lat="45.10909" lon="2.67736">
        <ele>1751.7</ele>
        <time>2000-01-01T11:12:28.000Z</time>
      </trkpt>
      <trkpt lat="45.10908" lon="2.6773">
        <ele>1749</ele>
        <time>2000-01-01T11:12:18.000Z</time>
      </trkpt>
      <trkpt lat="45.10908" lon="2.67726">
        <ele>1754.5</ele>
        <time>2000-01-01T11:12:08.000Z</time>
      </trkpt>
      <trkpt lat="45.10911" lon="2.67724">
        <ele>1757.6</ele>
        <time>2000-01-01T11:11:58.000Z</time>
      </trkpt>
      <trkpt lat="45.10913" lon="2.67723">
        <ele>1759.6</ele>
        <time>2000-01-01T11:11:48.000Z</time>
      </trkpt>
      <trkpt lat="45.10916" lon="2.67719">
        <ele>1762.4</ele>
        <time>2000-01-01T11:11:38.000Z</time>
      </trkpt>
      <trkpt lat="45.10917" lon="2.67717">
        <ele>1762.8</ele>
        <time>2000-01-01T11:11:28.000Z</time>
      </trkpt>
      <trkpt lat="45.10917" lon="2.67713">
        <ele>1762.8</ele>
        <time>2000-01-01T11:11:18.000Z</time>
      </trkpt>
      <trkpt lat="45.10917" lon="2.67709">
        <ele>1758</ele>
        <time>2000-01-01T11:11:08.000Z</time>
      </trkpt>
      <trkpt lat="45.1092" lon="2.67705">
        <ele>1760.6</ele>
        <time>2000-01-01T11:10:58.000Z</time>
      </trkpt>
      <trkpt lat="45.10922" lon="2.67701">
        <ele>1758.8</ele>
        <time>2000-01-01T11:10:48.000Z</time>
      </trkpt>
      <trkpt lat="45.10923" lon="2.67698">
        <ele>1757.8</ele>
        <time>2000-01-01T11:10:38.000Z</time>
      </trkpt>
      <trkpt lat="45.10922" lon="2.67685">
        <ele>1766</ele>
        <time>2000-01-01T11:10:28.000Z</time>
      </trkpt>
      <trkpt lat="45.10922" lon="2.6768">
        <ele>1759.3</ele>
        <time>2000-01-01T11:10:18.000Z</time>
      </trkpt>
      <trkpt lat="45.10923" lon="2.67677">
        <ele>1758.7</ele>
        <time>2000-01-01T11:10:08.000Z</time>
      </trkpt>
      <trkpt lat="45.10924" lon="2.67673">
        <ele>1758.3</ele>
        <time>2000-01-01T11:09:58.000Z</time>
      </trkpt>
      <trkpt lat="45.10925" lon="2.67667">
        <ele>1758</ele>
        <time>2000-01-01T11:09:48.000Z</time>
      </trkpt>
      <trkpt lat="45.10927" lon="2.67658">
        <ele>1768</ele>
        <time>2000-01-01T11:09:38.000Z</time>
      </trkpt>
      <trkpt lat="45.10928" lon="2.6765">
        <ele>1762.1</ele>
        <time>2000-01-01T11:09:28.000Z</time>
      </trkpt>
      <trkpt lat="45.10929" lon="2.67646">
        <ele>1763.5</ele>
        <time>2000-01-01T11:09:18.000Z</time>
      </trkpt>
      <trkpt lat="45.10929" lon="2.67644">
        <ele>1764.3</ele>
        <time>2000-01-01T11:09:08.000Z</time>
      </trkpt>
      <trkpt lat="45.10933" lon="2.6764">
        <ele>1766.2</ele>
        <time>2000-01-01T11:08:58.000Z</time>
      </trkpt>
      <trkpt lat="45.10935" lon="2.67637">
        <ele>1767.3</ele>
        <time>2000-01-01T11:08:48.000Z</time>
      </trkpt>
      <trkpt lat="45.10935" lon="2.67635">
        <ele>1777</ele>
        <time>2000-01-01T11:08:38.000Z</time>
      </trkpt>
      <trkpt lat="45.10933" lon="2.67629">
        <ele>1768.7</ele>
        <time>2000-01-01T11:08:28.000Z</time>
      </trkpt>
      <trkpt lat="45.10933" lon="2.67625">
        <ele>1769.5</ele>
        <time>2000-01-01T11:08:18.000Z</time>
      </trkpt>
      <trkpt lat="45.10933" lon="2.67618">
        <ele>1770.8</ele>
        <time>2000-01-01T11:08:08.000Z</time>
      </trkpt>
      <trkpt lat="45.10934" lon="2.67609">
        <ele>1772.4</ele>
        <time>2000-01-01T11:07:58.000Z</time>
      </trkpt>
      <trkpt lat="45.10935" lon="2.67603">
        <ele>1778</ele>
        <time>2000-01-01T11:07:48.000Z</time>
      </trkpt>
      <trkpt lat="45.10936" lon="2.67595">
        <ele>1773.7</ele>
        <time>2000-01-01T11:07:38.000Z</time>
      </trkpt>
      <trkpt lat="45.10937" lon="2.67589">
        <ele>1774.5</ele>
        <time>2000-01-01T11:07:28.000Z</time>
      </trkpt>
      <trkpt lat="45.10939" lon="2.67584">
        <ele>1775.8</ele>
        <time>2000-01-01T11:07:18.000Z</time>
      </trkpt>
      <trkpt lat="45.10942" lon="2.67576">
        <ele>1779</ele>
        <time>2000-01-01T11:07:08.000Z</time>
      </trkpt>
      <trkpt lat="45.10945" lon="2.67567">
        <ele>1776.3</ele>
        <time>2000-01-01T11:06:58.000Z</time>
      </trkpt>
      <trkpt lat="45.10949" lon="2.67556">
        <ele>1772.5</ele>
        <time>2000-01-01T11:06:48.000Z</time>
      </trkpt>
      <trkpt lat="45.10951" lon="2.67549">
        <ele>1770</ele>
        <time>2000-01-01T11:06:38.000Z</time>
      </trkpt>
      <trkpt lat="45.10952" lon="2.67543">
        <ele>1767.8</ele>
        <time>2000-01-01T11:06:28.000Z</time>
      </trkpt>
      <trkpt lat="45.10952" lon="2.67538">
        <ele>1766.8</ele>
        <time>2000-01-01T11:06:18.000Z</time>
      </trkpt>
      <trkpt lat="45.10951" lon="2.67534">
        <ele>1766.4</ele>
        <time>2000-01-01T11:06:08.000Z</time>
      </trkpt>
      <trkpt lat="45.1095" lon="2.67531">
        <ele>1766.1</ele>
        <time>2000-01-01T11:05:58.000Z</time>
      </trkpt>
      <trkpt lat="45.10947" lon="2.67526">
        <ele>1765.1</ele>
        <time>2000-01-01T11:05:48.000Z</time>
      </trkpt>
      <trkpt lat="45.10942" lon="2.67522">
        <ele>1762</ele>
        <time>2000-01-01T11:05:38.000Z</time>
      </trkpt>
      <trkpt lat="45.10938" lon="2.6752">
        <ele>1761.5</ele>
        <time>2000-01-01T11:05:28.000Z</time>
      </trkpt>
      <trkpt lat="45.10937" lon="2.67517">
        <ele>1759.6</ele>
        <time>2000-01-01T11:05:18.000Z</time>
      </trkpt>
      <trkpt lat="45.10937" lon="2.67515">
        <ele>1758.4</ele>
        <time>2000-01-01T11:05:08.000Z</time>
      </trkpt>
      <trkpt lat="45.10937" lon="2.67513">
        <ele>1757.2</ele>
        <time>2000-01-01T11:04:58.000Z</time>
      </trkpt>
      <trkpt lat="45.10938" lon="2.67512">
        <ele>1756.6</ele>
        <time>2000-01-01T11:04:48.000Z</time>
      </trkpt>
      <trkpt lat="45.10939" lon="2.67512">
        <ele>1756.6</ele>
        <time>2000-01-01T11:04:38.000Z</time>
      </trkpt>
      <trkpt lat="45.10944" lon="2.67511">
        <ele>1756.1</ele>
        <time>2000-01-01T11:04:28.000Z</time>
      </trkpt>
      <trkpt lat="45.10948" lon="2.6751">
        <ele>1749</ele>
        <time>2000-01-01T11:04:18.000Z</time>
      </trkpt>
      <trkpt lat="45.10958" lon="2.67506">
        <ele>1750.9</ele>
        <time>2000-01-01T11:04:08.000Z</time>
      </trkpt>
      <trkpt lat="45.10964" lon="2.67503">
        <ele>1748.5</ele>
        <time>2000-01-01T11:03:58.000Z</time>
      </trkpt>
      <trkpt lat="45.1097" lon="2.67501">
        <ele>1746.7</ele>
        <time>2000-01-01T11:03:48.000Z</time>
      </trkpt>
      <trkpt lat="45.10974" lon="2.675">
        <ele>1747</ele>
        <time>2000-01-01T11:03:38.000Z</time>
      </trkpt>
      <trkpt lat="45.10981" lon="2.67497">
        <ele>1742</ele>
        <time>2000-01-01T11:03:28.000Z</time>
      </trkpt>
      <trkpt lat="45.10985" lon="2.67495">
        <ele>1740</ele>
        <time>2000-01-01T11:03:18.000Z</time>
      </trkpt>
      <trkpt lat="45.10989" lon="2.67491">
        <ele>1737.3</ele>
        <time>2000-01-01T11:03:08.000Z</time>
      </trkpt>
      <trkpt lat="45.10991" lon="2.67487">
        <ele>1735.2</ele>
        <time>2000-01-01T11:02:58.000Z</time>
      </trkpt>
      <trkpt lat="45.10995" lon="2.67481">
        <ele>1732</ele>
        <time>2000-01-01T11:02:48.000Z</time>
      </trkpt>
      <trkpt lat="45.10996" lon="2.67479">
        <ele>1731</ele>
        <time>2000-01-01T11:02:38.000Z</time>
      </trkpt>
      <trkpt lat="45.11" lon="2.67478">
        <ele>1730.1</ele>
        <time>2000-01-01T11:02:28.000Z</time>
      </trkpt>
      <trkpt lat="45.11003" lon="2.67477">
        <ele>1728.5</ele>
        <time>2000-01-01T11:02:18.000Z</time>
      </trkpt>
      <trkpt lat="45.11007" lon="2.67474">
        <ele>1726.2</ele>
        <time>2000-01-01T11:02:08.000Z</time>
      </trkpt>
      <trkpt lat="45.11012" lon="2.6747">
        <ele>1724</ele>
        <time>2000-01-01T11:01:58.000Z</time>
      </trkpt>
      <trkpt lat="45.1102" lon="2.67464">
        <ele>1718.1</ele>
        <time>2000-01-01T11:01:48.000Z</time>
      </trkpt>
      <trkpt lat="45.11027" lon="2.67459">
        <ele>1714.4</ele>
        <time>2000-01-01T11:01:38.000Z</time>
      </trkpt>
      <trkpt lat="45.1103" lon="2.67456">
        <ele>1712.4</ele>
        <time>2000-01-01T11:01:28.000Z</time>
      </trkpt>
      <trkpt lat="45.11034" lon="2.67455">
        <ele>1710.8</ele>
        <time>2000-01-01T11:01:18.000Z</time>
      </trkpt>
      <trkpt lat="45.11037" lon="2.67455">
        <ele>1710</ele>
        <time>2000-01-01T11:01:08.000Z</time>
      </trkpt>
      <trkpt lat="45.11041" lon="2.67452">
        <ele>1707.7</ele>
        <time>2000-01-01T11:00:58.000Z</time>
      </trkpt>
      <trkpt lat="45.11044" lon="2.67452">
        <ele>1706.8</ele>
        <time>2000-01-01T11:00:48.000Z</time>
      </trkpt>
      <trkpt lat="45.11047" lon="2.67453">
        <ele>1706.2</ele>
        <time>2000-01-01T11:00:38.000Z</time>
      </trkpt>
      <trkpt lat="45.11052" lon="2.67456">
        <ele>1705.2</ele>
        <time>2000-01-01T11:00:28.000Z</time>
      </trkpt>
      <trkpt lat="45.11057" lon="2.67456">
        <ele>1705</ele>
        <time>2000-01-01T11:00:18.000Z</time>
      </trkpt>
      <trkpt lat="45.11059" lon="2.67455">
        <ele>1701.9</ele>
        <time>2000-01-01T11:00:08.000Z</time>
      </trkpt>
      <trkpt lat="45.1106" lon="2.67453">
        <ele>1701.1</ele>
        <time>2000-01-01T10:59:58.000Z</time>
      </trkpt>
      <trkpt lat="45.11061" lon="2.67452">
        <ele>1700.5</ele>
        <time>2000-01-01T10:59:48.000Z</time>
      </trkpt>
      <trkpt lat="45.11062" lon="2.67448">
        <ele>1699.8</ele>
        <time>2000-01-01T10:59:38.000Z</time>
      </trkpt>
      <trkpt lat="45.11063" lon="2.67444">
        <ele>1699.2</ele>
        <time>2000-01-01T10:59:28.000Z</time>
      </trkpt>
      <trkpt lat="45.11063" lon="2.67439">
        <ele>1697.5</ele>
        <time>2000-01-01T10:59:18.000Z</time>
      </trkpt>
      <trkpt lat="45.11063" lon="2.67435">
        <ele>1696.1</ele>
        <time>2000-01-01T10:59:08.000Z</time>
      </trkpt>
      <trkpt lat="45.11064" lon="2.67433">
        <ele>1696</ele>
        <time>2000-01-01T10:58:58.000Z</time>
      </trkpt>
      <trkpt lat="45.11068" lon="2.6743">
        <ele>1693.2</ele>
        <time>2000-01-01T10:58:48.000Z</time>
      </trkpt>
      <trkpt lat="45.11073" lon="2.67425">
        <ele>1690.7</ele>
        <time>2000-01-01T10:58:38.000Z</time>
      </trkpt>
      <trkpt lat="45.11079" lon="2.67421">
        <ele>1688.6</ele>
        <time>2000-01-01T10:58:28.000Z</time>
      </trkpt>
      <trkpt lat="45.11084" lon="2.67416">
        <ele>1686</ele>
        <time>2000-01-01T10:58:18.000Z</time>
      </trkpt>
      <trkpt lat="45.11088" lon="2.67411">
        <ele>1682</ele>
        <time>2000-01-01T10:58:08.000Z</time>
      </trkpt>
      <trkpt lat="45.11096" lon="2.67401">
        <ele>1675.9</ele>
        <time>2000-01-01T10:57:58.000Z</time>
      </trkpt>
      <trkpt lat="45.111" lon="2.67396">
        <ele>1674</ele>
        <time>2000-01-01T10:57:48.000Z</time>
      </trkpt>
      <trkpt lat="45.11104" lon="2.67392">
        <ele>1673.2</ele>
        <time>2000-01-01T10:57:38.000Z</time>
      </trkpt>
      <trkpt lat="45.11111" lon="2.67385">
        <ele>1671</ele>
        <time>2000-01-01T10:57:28.000Z</time>
      </trkpt>
      <trkpt lat="45.11112" lon="2.67383">
        <ele>1669.5</ele>
        <time>2000-01-01T10:57:18.000Z</time>
      </trkpt>
      <trkpt lat="45.11116" lon="2.67381">
        <ele>1670</ele>
        <time>2000-01-01T10:57:08.000Z</time>
      </trkpt>
      <trkpt lat="45.11122" lon="2.67378">
        <ele>1662.7</ele>
        <time>2000-01-01T10:56:58.000Z</time>
      </trkpt>
      <trkpt lat="45.11129" lon="2.67374">
        <ele>1659.6</ele>
        <time>2000-01-01T10:56:48.000Z</time>
      </trkpt>
      <trkpt lat="45.11138" lon="2.67368">
        <ele>1660</ele>
        <time>2000-01-01T10:56:38.000Z</time>
      </trkpt>
      <trkpt lat="45.11143" lon="2.67364">
        <ele>1657.5</ele>
        <time>2000-01-01T10:56:28.000Z</time>
      </trkpt>
      <trkpt lat="45.11144" lon="2.6736">
        <ele>1657.9</ele>
        <time>2000-01-01T10:56:18.000Z</time>
      </trkpt>
      <trkpt lat="45.11145" lon="2.67354">
        <ele>1656.1</ele>
        <time>2000-01-01T10:56:08.000Z</time>
      </trkpt>
      <trkpt lat="45.11147" lon="2.67349">
        <ele>1654.4</ele>
        <time>2000-01-01T10:55:58.000Z</time>
      </trkpt>
      <trkpt lat="45.11149" lon="2.67346">
        <ele>1653.4</ele>
        <time>2000-01-01T10:55:48.000Z</time>
      </trkpt>
      <trkpt lat="45.11151" lon="2.67344">
        <ele>1654</ele>
        <time>2000-01-01T10:55:38.000Z</time>
      </trkpt>
      <trkpt lat="45.11154" lon="2.67336">
        <ele>1651.3</ele>
        <time>2000-01-01T10:55:28.000Z</time>
      </trkpt>
      <trkpt lat="45.11157" lon="2.67333">
        <ele>1650.9</ele>
        <time>2000-01-01T10:55:18.000Z</time>
      </trkpt>
      <trkpt lat="45.1116" lon="2.67332">
        <ele>1650.5</ele>
        <time>2000-01-01T10:55:08.000Z</time>
      </trkpt>
      <trkpt lat="45.11166" lon="2.6733">
        <ele>1647</ele>
        <time>2000-01-01T10:54:58.000Z</time>
      </trkpt>
      <trkpt lat="45.1117" lon="2.67328">
        <ele>1648.3</ele>
        <time>2000-01-01T10:54:48.000Z</time>
      </trkpt>
      <trkpt lat="45.11176" lon="2.67328">
        <ele>1646.8</ele>
        <time>2000-01-01T10:54:38.000Z</time>
      </trkpt>
      <trkpt lat="45.11182" lon="2.67327">
        <ele>1645</ele>
        <time>2000-01-01T10:54:28.000Z</time>
      </trkpt>
      <trkpt lat="45.11187" lon="2.67328">
        <ele>1645</ele>
        <time>2000-01-01T10:54:18.000Z</time>
      </trkpt>
      <trkpt lat="45.11206" lon="2.67328">
        <ele>1638.3</ele>
        <time>2000-01-01T10:54:08.000Z</time>
      </trkpt>
      <trkpt lat="45.11211" lon="2.67327">
        <ele>1636.3</ele>
        <time>2000-01-01T10:53:58.000Z</time>
      </trkpt>
      <trkpt lat="45.11213" lon="2.67326">
        <ele>1635.5</ele>
        <time>2000-01-01T10:53:48.000Z</time>
      </trkpt>
      <trkpt lat="45.11214" lon="2.67324">
        <ele>1634.9</ele>
        <time>2000-01-01T10:53:38.000Z</time>
      </trkpt>
      <trkpt lat="45.11216" lon="2.67319">
        <ele>1633.6</ele>
        <time>2000-01-01T10:53:28.000Z</time>
      </trkpt>
      <trkpt lat="45.11219" lon="2.67316">
        <ele>1632</ele>
        <time>2000-01-01T10:53:18.000Z</time>
      </trkpt>
      <trkpt lat="45.11232" lon="2.67305">
        <ele>1629.8</ele>
        <time>2000-01-01T10:53:08.000Z</time>
      </trkpt>
      <trkpt lat="45.11235" lon="2.67305">
        <ele>1629.5</ele>
        <time>2000-01-01T10:52:58.000Z</time>
      </trkpt>
      <trkpt lat="45.11239" lon="2.67307">
        <ele>1629</ele>
        <time>2000-01-01T10:52:48.000Z</time>
      </trkpt>
      <trkpt lat="45.11245" lon="2.67309">
        <ele>1628</ele>
        <time>2000-01-01T10:52:38.000Z</time>
      </trkpt>
      <trkpt lat="45.11248" lon="2.6731">
        <ele>1627.3</ele>
        <time>2000-01-01T10:52:28.000Z</time>
      </trkpt>
      <trkpt lat="45.11252" lon="2.67307">
        <ele>1627</ele>
        <time>2000-01-01T10:52:18.000Z</time>
      </trkpt>
      <trkpt lat="45.11256" lon="2.67298">
        <ele>1625</ele>
        <time>2000-01-01T10:52:08.000Z</time>
      </trkpt>
      <trkpt lat="45.11263" lon="2.67284">
        <ele>1621.2</ele>
        <time>2000-01-01T10:51:58.000Z</time>
      </trkpt>
      <trkpt lat="45.11266" lon="2.67279">
        <ele>1620.4</ele>
        <time>2000-01-01T10:51:48.000Z</time>
      </trkpt>
      <trkpt lat="45.1127" lon="2.67275">
        <ele>1619</ele>
        <time>2000-01-01T10:51:38.000Z</time>
      </trkpt>
      <trkpt lat="45.11276" lon="2.6727">
        <ele>1617.2</ele>
        <time>2000-01-01T10:51:28.000Z</time>
      </trkpt>
      <trkpt lat="45.1128" lon="2.67266">
        <ele>1615.1</ele>
        <time>2000-01-01T10:51:18.000Z</time>
      </trkpt>
      <trkpt lat="45.11285" lon="2.67258">
        <ele>1611.9</ele>
        <time>2000-01-01T10:51:08.000Z</time>
      </trkpt>
      <trkpt lat="45.11287" lon="2.67254">
        <ele>1612</ele>
        <time>2000-01-01T10:50:58.000Z</time>
      </trkpt>
      <trkpt lat="45.11291" lon="2.67251">
        <ele>1610.1</ele>
        <time>2000-01-01T10:50:48.000Z</time>
      </trkpt>
      <trkpt lat="45.11299" lon="2.67247">
        <ele>1608.2</ele>
        <time>2000-01-01T10:50:38.000Z</time>
      </trkpt>
      <trkpt lat="45.11307" lon="2.67245">
        <ele>1608</ele>
        <time>2000-01-01T10:50:28.000Z</time>
      </trkpt>
      <trkpt lat="45.11312" lon="2.67243">
        <ele>1604.2</ele>
        <time>2000-01-01T10:50:18.000Z</time>
      </trkpt>
      <trkpt lat="45.11319" lon="2.67238">
        <ele>1601.8</ele>
        <time>2000-01-01T10:50:08.000Z</time>
      </trkpt>
      <trkpt lat="45.11325" lon="2.67232">
        <ele>1605</ele>
        <time>2000-01-01T10:49:58.000Z</time>
      </trkpt>
      <trkpt lat="45.11338" lon="2.67222">
        <ele>1600.4</ele>
        <time>2000-01-01T10:49:48.000Z</time>
      </trkpt>
      <trkpt lat="45.11353" lon="2.67214">
        <ele>1598</ele>
        <time>2000-01-01T10:49:38.000Z</time>
      </trkpt>
      <trkpt lat="45.11363" lon="2.67207">
        <ele>1593.7</ele>
        <time>2000-01-01T10:49:28.000Z</time>
      </trkpt>
      <trkpt lat="45.11367" lon="2.67205">
        <ele>1592.9</ele>
        <time>2000-01-01T10:49:18.000Z</time>
      </trkpt>
      <trkpt lat="45.11375" lon="2.67198">
        <ele>1593</ele>
        <time>2000-01-01T10:49:08.000Z</time>
      </trkpt>
      <trkpt lat="45.11384" lon="2.67195">
        <ele>1590.8</ele>
        <time>2000-01-01T10:48:58.000Z</time>
      </trkpt>
      <trkpt lat="45.11393" lon="2.67191">
        <ele>1589.3</ele>
        <time>2000-01-01T10:48:48.000Z</time>
      </trkpt>
      <trkpt lat="45.11399" lon="2.67188">
        <ele>1590</ele>
        <time>2000-01-01T10:48:38.000Z</time>
      </trkpt>
      <trkpt lat="45.11405" lon="2.67182">
        <ele>1588</ele>
        <time>2000-01-01T10:48:28.000Z</time>
      </trkpt>
      <trkpt lat="45.11408" lon="2.67179">
        <ele>1587.8</ele>
        <time>2000-01-01T10:48:18.000Z</time>
      </trkpt>
      <trkpt lat="45.11411" lon="2.67178">
        <ele>1587.7</ele>
        <time>2000-01-01T10:48:08.000Z</time>
      </trkpt>
      <trkpt lat="45.11411" lon="2.67179">
        <ele>1587</ele>
        <time>2000-01-01T10:01:04.000Z</time>
      </trkpt>
      <trkpt lat="45.11436" lon="2.67155">
        <ele>1586</ele>
        <time>2000-01-01T10:01:14.000Z</time>
      </trkpt>
      <trkpt lat="45.11474" lon="2.67116">
        <ele>1579</ele>
        <time>2000-01-01T10:01:24.000Z</time>
      </trkpt>
      <trkpt lat="45.11492" lon="2.67095">
        <ele>1575</ele>
        <time>2000-01-01T10:01:34.000Z</time>
      </trkpt>
      <trkpt lat="45.11511" lon="2.67064">
        <ele>1571</ele>
        <time>2000-01-01T10:01:44.000Z</time>
      </trkpt>
      <trkpt lat="45.1154" lon="2.67018">
        <ele>1558</ele>
        <time>2000-01-01T10:01:54.000Z</time>
      </trkpt>
      <trkpt lat="45.11555" lon="2.66988">
        <ele>1557</ele>
        <time>2000-01-01T10:02:04.000Z</time>
      </trkpt>
      <trkpt lat="45.11573" lon="2.66951">
        <ele>1556</ele>
        <time>2000-01-01T10:02:14.000Z</time>
      </trkpt>
      <trkpt lat="45.1158" lon="2.66934">
        <ele>1553.2</ele>
        <time>2000-01-01T10:02:24.000Z</time>
      </trkpt>
      <trkpt lat="45.11585" lon="2.66918">
        <ele>1549</ele>
        <time>2000-01-01T10:02:34.000Z</time>
      </trkpt>
      <trkpt lat="45.11591" lon="2.66902">
        <ele>1550.1</ele>
        <time>2000-01-01T10:02:44.000Z</time>
      </trkpt>
      <trkpt lat="45.11598" lon="2.66886">
        <ele>1544</ele>
        <time>2000-01-01T10:02:54.000Z</time>
      </trkpt>
      <trkpt lat="45.11603" lon="2.66877">
        <ele>1547.1</ele>
        <time>2000-01-01T10:03:04.000Z</time>
      </trkpt>
      <trkpt lat="45.11598" lon="2.66881">
        <ele>1546.4</ele>
        <time>2000-01-01T10:03:14.000Z</time>
      </trkpt>
      <trkpt lat="45.11588" lon="2.66885">
        <ele>1539</ele>
        <time>2000-01-01T10:03:24.000Z</time>
      </trkpt>
      <trkpt lat="45.11579" lon="2.66891">
        <ele>1542.7</ele>
        <time>2000-01-01T10:03:34.000Z</time>
      </trkpt>
      <trkpt lat="45.1157" lon="2.66898">
        <ele>1539</ele>
        <time>2000-01-01T10:03:44.000Z</time>
      </trkpt>
      <trkpt lat="45.11561" lon="2.66909">
        <ele>1539</ele>
        <time>2000-01-01T10:03:54.000Z</time>
      </trkpt>
      <trkpt lat="45.11551" lon="2.66915">
        <ele>1534</ele>
        <time>2000-01-01T10:04:04.000Z</time>
      </trkpt>
      <trkpt lat="45.11541" lon="2.66922">
        <ele>1535.4</ele>
        <time>2000-01-01T10:04:14.000Z</time>
      </trkpt>
      <trkpt lat="45.11531" lon="2.66922">
        <ele>1531</ele>
        <time>2000-01-01T10:04:24.000Z</time>
      </trkpt>
      <trkpt lat="45.11521" lon="2.66928">
        <ele>1531.2</ele>
        <time>2000-01-01T10:04:34.000Z</time>
      </trkpt>
      <trkpt lat="45.11512" lon="2.66931">
        <ele>1528</ele>
        <time>2000-01-01T10:04:44.000Z</time>
      </trkpt>
      <trkpt lat="45.11504" lon="2.6694">
        <ele>1529.2</ele>
        <time>2000-01-01T10:04:54.000Z</time>
      </trkpt>
      <trkpt lat="45.11495" lon="2.6694">
        <ele>1524</ele>
        <time>2000-01-01T10:05:04.000Z</time>
      </trkpt>
      <trkpt lat="45.11486" lon="2.66942">
        <ele>1523.8</ele>
        <time>2000-01-01T10:05:14.000Z</time>
      </trkpt>
      <trkpt lat="45.1148" lon="2.66939">
        <ele>1521.1</ele>
        <time>2000-01-01T10:05:24.000Z</time>
      </trkpt>
      <trkpt lat="45.11474" lon="2.66947">
        <ele>1517</ele>
        <time>2000-01-01T10:05:34.000Z</time>
      </trkpt>
      <trkpt lat="45.11442" lon="2.66961">
        <ele>1515</ele>
        <time>2000-01-01T10:05:44.000Z</time>
      </trkpt>
      <trkpt lat="45.11431" lon="2.66969">
        <ele>1516.1</ele>
        <time>2000-01-01T10:05:54.000Z</time>
      </trkpt>
      <trkpt lat="45.11418" lon="2.66973">
        <ele>1510</ele>
        <time>2000-01-01T10:06:04.000Z</time>
      </trkpt>
      <trkpt lat="45.11405" lon="2.66975">
        <ele>1511</ele>
        <time>2000-01-01T10:06:14.000Z</time>
      </trkpt>
      <trkpt lat="45.11381" lon="2.66984">
        <ele>1506</ele>
        <time>2000-01-01T10:06:24.000Z</time>
      </trkpt>
      <trkpt lat="45.11371" lon="2.66986">
        <ele>1507.9</ele>
        <time>2000-01-01T10:06:34.000Z</time>
      </trkpt>
      <trkpt lat="45.11359" lon="2.66982">
        <ele>1503</ele>
        <time>2000-01-01T10:06:44.000Z</time>
      </trkpt>
      <trkpt lat="45.11344" lon="2.66979">
        <ele>1503.9</ele>
        <time>2000-01-01T10:06:54.000Z</time>
      </trkpt>
      <trkpt lat="45.11338" lon="2.66981">
        <ele>1503</ele>
        <time>2000-01-01T10:07:04.000Z</time>
      </trkpt>
      <trkpt lat="45.11331" lon="2.66981">
        <ele>1504.2</ele>
        <time>2000-01-01T10:07:14.000Z</time>
      </trkpt>
      <trkpt lat="45.11324" lon="2.66976">
        <ele>1502.7</ele>
        <time>2000-01-01T10:07:24.000Z</time>
      </trkpt>
      <trkpt lat="45.11313" lon="2.66976">
        <ele>1503</ele>
        <time>2000-01-01T10:07:34.000Z</time>
      </trkpt>
      <trkpt lat="45.11302" lon="2.66981">
        <ele>1503.1</ele>
        <time>2000-01-01T10:07:44.000Z</time>
      </trkpt>
      <trkpt lat="45.11293" lon="2.66991">
        <ele>1503</ele>
        <time>2000-01-01T10:07:54.000Z</time>
      </trkpt>
      <trkpt lat="45.1128" lon="2.66995">
        <ele>1503.6</ele>
        <time>2000-01-01T10:08:04.000Z</time>
      </trkpt>
      <trkpt lat="45.11268" lon="2.67005">
        <ele>1501</ele>
        <time>2000-01-01T10:08:14.000Z</time>
      </trkpt>
      <trkpt lat="45.11257" lon="2.67009">
        <ele>1506</ele>
        <time>2000-01-01T10:08:24.000Z</time>
      </trkpt>
      <trkpt lat="45.11244" lon="2.67005">
        <ele>1501</ele>
        <time>2000-01-01T10:08:34.000Z</time>
      </trkpt>
      <trkpt lat="45.11221" lon="2.66996">
        <ele>1499</ele>
        <time>2000-01-01T10:08:44.000Z</time>
      </trkpt>
      <trkpt lat="45.11214" lon="2.66988">
        <ele>1501.3</ele>
        <time>2000-01-01T10:08:54.000Z</time>
      </trkpt>
      <trkpt lat="45.11202" lon="2.66987">
        <ele>1501</ele>
        <time>2000-01-01T10:09:04.000Z</time>
      </trkpt>
      <trkpt lat="45.11189" lon="2.66994">
        <ele>1504.4</ele>
        <time>2000-01-01T10:09:14.000Z</time>
      </trkpt>
      <trkpt lat="45.11182" lon="2.66991">
        <ele>1500</ele>
        <time>2000-01-01T10:09:24.000Z</time>
      </trkpt>
      <trkpt lat="45.11165" lon="2.66995">
        <ele>1504.4</ele>
        <time>2000-01-01T10:09:34.000Z</time>
      </trkpt>
      <trkpt lat="45.11153" lon="2.66994">
        <ele>1500</ele>
        <time>2000-01-01T10:09:44.000Z</time>
      </trkpt>
      <trkpt lat="45.11137" lon="2.66998">
        <ele>1500.7</ele>
        <time>2000-01-01T10:09:54.000Z</time>
      </trkpt>
      <trkpt lat="45.11128" lon="2.66999">
        <ele>1495</ele>
        <time>2000-01-01T10:10:04.000Z</time>
      </trkpt>
      <trkpt lat="45.11115" lon="2.67002">
        <ele>1497.6</ele>
        <time>2000-01-01T10:10:14.000Z</time>
      </trkpt>
      <trkpt lat="45.11107" lon="2.67008">
        <ele>1494</ele>
        <time>2000-01-01T10:10:24.000Z</time>
      </trkpt>
      <trkpt lat="45.11093" lon="2.67013">
        <ele>1498.5</ele>
        <time>2000-01-01T10:10:34.000Z</time>
      </trkpt>
      <trkpt lat="45.11081" lon="2.67013">
        <ele>1494</ele>
        <time>2000-01-01T10:10:44.000Z</time>
      </trkpt>
      <trkpt lat="45.11073" lon="2.67016">
        <ele>1496.8</ele>
        <time>2000-01-01T10:10:54.000Z</time>
      </trkpt>
      <trkpt lat="45.11066" lon="2.67015">
        <ele>1495.4</ele>
        <time>2000-01-01T10:11:04.000Z</time>
      </trkpt>
      <trkpt lat="45.1106" lon="2.67017">
        <ele>1492</ele>
        <time>2000-01-01T10:11:14.000Z</time>
      </trkpt>
      <trkpt lat="45.11054" lon="2.67022">
        <ele>1496.4</ele>
        <time>2000-01-01T10:11:24.000Z</time>
      </trkpt>
      <trkpt lat="45.11048" lon="2.67021">
        <ele>1494.9</ele>
        <time>2000-01-01T10:11:34.000Z</time>
      </trkpt>
      <trkpt lat="45.11039" lon="2.67023">
        <ele>1492</ele>
        <time>2000-01-01T10:11:44.000Z</time>
      </trkpt>
      <trkpt lat="45.1103" lon="2.67026">
        <ele>1493.6</ele>
        <time>2000-01-01T10:11:54.000Z</time>
      </trkpt>
      <trkpt lat="45.11027" lon="2.67024">
        <ele>1492.3</ele>
        <time>2000-01-01T10:12:04.000Z</time>
      </trkpt>
      <trkpt lat="45.11023" lon="2.67026">
        <ele>1492.5</ele>
        <time>2000-01-01T10:12:14.000Z</time>
      </trkpt>
      <trkpt lat="45.11017" lon="2.67022">
        <ele>1489</ele>
        <time>2000-01-01T10:12:24.000Z</time>
      </trkpt>
      <trkpt lat="45.11007" lon="2.67024">
        <ele>1489.3</ele>
        <time>2000-01-01T10:12:34.000Z</time>
      </trkpt>
      <trkpt lat="45.11001" lon="2.67028">
        <ele>1490.3</ele>
        <time>2000-01-01T10:12:44.000Z</time>
      </trkpt>
      <trkpt lat="45.10987" lon="2.67029">
        <ele>1488</ele>
        <time>2000-01-01T10:12:54.000Z</time>
      </trkpt>
      <trkpt lat="45.10973" lon="2.67034">
        <ele>1491.4</ele>
        <time>2000-01-01T10:13:04.000Z</time>
      </trkpt>
      <trkpt lat="45.10967" lon="2.67039">
        <ele>1488</ele>
        <time>2000-01-01T10:13:14.000Z</time>
      </trkpt>
      <trkpt lat="45.1096" lon="2.67039">
        <ele>1493.7</ele>
        <time>2000-01-01T10:13:24.000Z</time>
      </trkpt>
      <trkpt lat="45.10955" lon="2.67047">
        <ele>1497.5</ele>
        <time>2000-01-01T10:13:34.000Z</time>
      </trkpt>
      <trkpt lat="45.1095" lon="2.67053">
        <ele>1499</ele>
        <time>2000-01-01T10:13:44.000Z</time>
      </trkpt>
      <trkpt lat="45.10941" lon="2.67059">
        <ele>1502.9</ele>
        <time>2000-01-01T10:13:54.000Z</time>
      </trkpt>
      <trkpt lat="45.10923" lon="2.6706">
        <ele>1498</ele>
        <time>2000-01-01T10:14:04.000Z</time>
      </trkpt>
      <trkpt lat="45.10922" lon="2.67055">
        <ele>1501.5</ele>
        <time>2000-01-01T10:14:14.000Z</time>
      </trkpt>
      <trkpt lat="45.10918" lon="2.67053">
        <ele>1500.7</ele>
        <time>2000-01-01T10:14:24.000Z</time>
      </trkpt>
      <trkpt lat="45.10914" lon="2.67054">
        <ele>1501.2</ele>
        <time>2000-01-01T10:14:34.000Z</time>
      </trkpt>
      <trkpt lat="45.10909" lon="2.67052">
        <ele>1500.2</ele>
        <time>2000-01-01T10:14:44.000Z</time>
      </trkpt>
      <trkpt lat="45.10904" lon="2.67051">
        <ele>1497</ele>
        <time>2000-01-01T10:14:54.000Z</time>
      </trkpt>
      <trkpt lat="45.10901" lon="2.67047">
        <ele>1497.5</ele>
        <time>2000-01-01T10:15:04.000Z</time>
      </trkpt>
      <trkpt lat="45.10888" lon="2.67042">
        <ele>1494.8</ele>
        <time>2000-01-01T10:15:14.000Z</time>
      </trkpt>
      <trkpt lat="45.10879" lon="2.67044">
        <ele>1496</ele>
        <time>2000-01-01T10:15:24.000Z</time>
      </trkpt>
      <trkpt lat="45.10872" lon="2.67039">
        <ele>1494.9</ele>
        <time>2000-01-01T10:15:34.000Z</time>
      </trkpt>
      <trkpt lat="45.10868" lon="2.67043">
        <ele>1497.5</ele>
        <time>2000-01-01T10:15:44.000Z</time>
      </trkpt>
      <trkpt lat="45.10861" lon="2.67042">
        <ele>1495</ele>
        <time>2000-01-01T10:15:54.000Z</time>
      </trkpt>
      <trkpt lat="45.10855" lon="2.67036">
        <ele>1496</ele>
        <time>2000-01-01T10:16:04.000Z</time>
      </trkpt>
      <trkpt lat="45.1085" lon="2.67035">
        <ele>1496.6</ele>
        <time>2000-01-01T10:16:14.000Z</time>
      </trkpt>
      <trkpt lat="45.10842" lon="2.67027">
        <ele>1495</ele>
        <time>2000-01-01T10:16:24.000Z</time>
      </trkpt>
      <trkpt lat="45.10836" lon="2.67024">
        <ele>1493.4</ele>
        <time>2000-01-01T10:16:34.000Z</time>
      </trkpt>
      <trkpt lat="45.10827" lon="2.67021">
        <ele>1493.1</ele>
        <time>2000-01-01T10:16:44.000Z</time>
      </trkpt>
      <trkpt lat="45.10819" lon="2.6702">
        <ele>1495</ele>
        <time>2000-01-01T10:16:54.000Z</time>
      </trkpt>
      <trkpt lat="45.10812" lon="2.67015">
        <ele>1491.8</ele>
        <time>2000-01-01T10:17:04.000Z</time>
      </trkpt>
      <trkpt lat="45.10805" lon="2.67008">
        <ele>1489</ele>
        <time>2000-01-01T10:17:14.000Z</time>
      </trkpt>
      <trkpt lat="45.10798" lon="2.67005">
        <ele>1487</ele>
        <time>2000-01-01T10:17:24.000Z</time>
      </trkpt>
      <trkpt lat="45.10793" lon="2.67001">
        <ele>1485.9</ele>
        <time>2000-01-01T10:17:34.000Z</time>
      </trkpt>
      <trkpt lat="45.10784" lon="2.66999">
        <ele>1485.3</ele>
        <time>2000-01-01T10:17:44.000Z</time>
      </trkpt>
      <trkpt lat="45.10778" lon="2.67001">
        <ele>1486</ele>
        <time>2000-01-01T10:17:54.000Z</time>
      </trkpt>
      <trkpt lat="45.10772" lon="2.67004">
        <ele>1489.1</ele>
        <time>2000-01-01T10:18:04.000Z</time>
      </trkpt>
      <trkpt lat="45.10765" lon="2.66998">
        <ele>1488</ele>
        <time>2000-01-01T10:18:14.000Z</time>
      </trkpt>
      <trkpt lat="45.10746" lon="2.66966">
        <ele>1482</ele>
        <time>2000-01-01T10:18:24.000Z</time>
      </trkpt>
      <trkpt lat="45.10737" lon="2.66949">
        <ele>1480</ele>
        <time>2000-01-01T10:18:34.000Z</time>
      </trkpt>
      <trkpt lat="45.10726" lon="2.6693">
        <ele>1480</ele>
        <time>2000-01-01T10:18:44.000Z</time>
      </trkpt>
      <trkpt lat="45.10721" lon="2.66914">
        <ele>1476.8</ele>
        <time>2000-01-01T10:18:54.000Z</time>
      </trkpt>
      <trkpt lat="45.10718" lon="2.669">
        <ele>1479</ele>
        <time>2000-01-01T10:19:04.000Z</time>
      </trkpt>
      <trkpt lat="45.10713" lon="2.66889">
        <ele>1473</ele>
        <time>2000-01-01T10:19:14.000Z</time>
      </trkpt>
      <trkpt lat="45.10712" lon="2.66879">
        <ele>1470.3</ele>
        <time>2000-01-01T10:19:24.000Z</time>
      </trkpt>
      <trkpt lat="45.10705" lon="2.66868">
        <ele>1467</ele>
        <time>2000-01-01T10:19:34.000Z</time>
      </trkpt>
      <trkpt lat="45.10699" lon="2.66861">
        <ele>1470</ele>
        <time>2000-01-01T10:19:44.000Z</time>
      </trkpt>
      <trkpt lat="45.10691" lon="2.6684">
        <ele>1463</ele>
        <time>2000-01-01T10:19:54.000Z</time>
      </trkpt>
      <trkpt lat="45.10688" lon="2.66829">
        <ele>1463</ele>
        <time>2000-01-01T10:20:04.000Z</time>
      </trkpt>
      <trkpt lat="45.10681" lon="2.66816">
        <ele>1459</ele>
        <time>2000-01-01T10:20:14.000Z</time>
      </trkpt>
      <trkpt lat="45.10674" lon="2.66808">
        <ele>1460.3</ele>
        <time>2000-01-01T10:20:24.000Z</time>
      </trkpt>
      <trkpt lat="45.10667" lon="2.66798">
        <ele>1459.4</ele>
        <time>2000-01-01T10:20:34.000Z</time>
      </trkpt>
      <trkpt lat="45.10655" lon="2.66772">
        <ele>1456</ele>
        <time>2000-01-01T10:20:44.000Z</time>
      </trkpt>
      <trkpt lat="45.10648" lon="2.66765">
        <ele>1455.9</ele>
        <time>2000-01-01T10:20:54.000Z</time>
      </trkpt>
      <trkpt lat="45.10647" lon="2.6676">
        <ele>1454.7</ele>
        <time>2000-01-01T10:21:04.000Z</time>
      </trkpt>
      <trkpt lat="45.10644" lon="2.66756">
        <ele>1454.4</ele>
        <time>2000-01-01T10:21:14.000Z</time>
      </trkpt>
      <trkpt lat="45.10641" lon="2.66746">
        <ele>1450</ele>
        <time>2000-01-01T10:21:24.000Z</time>
      </trkpt>
      <trkpt lat="45.10638" lon="2.66733">
        <ele>1450.1</ele>
        <time>2000-01-01T10:21:34.000Z</time>
      </trkpt>
      <trkpt lat="45.10631" lon="2.66712">
        <ele>1449</ele>
        <time>2000-01-01T10:21:44.000Z</time>
      </trkpt>
      <trkpt lat="45.10625" lon="2.66668">
        <ele>1448</ele>
        <time>2000-01-01T10:21:54.000Z</time>
      </trkpt>
      <trkpt lat="45.10622" lon="2.6665">
        <ele>1446.9</ele>
        <time>2000-01-01T10:22:04.000Z</time>
      </trkpt>
      <trkpt lat="45.10625" lon="2.66637">
        <ele>1450</ele>
        <time>2000-01-01T10:22:14.000Z</time>
      </trkpt>
      <trkpt lat="45.10627" lon="2.66623">
        <ele>1440.8</ele>
        <time>2000-01-01T10:22:24.000Z</time>
      </trkpt>
      <trkpt lat="45.1062" lon="2.66601">
        <ele>1444</ele>
        <time>2000-01-01T10:22:34.000Z</time>
      </trkpt>
      <trkpt lat="45.10613" lon="2.66582">
        <ele>1443.9</ele>
        <time>2000-01-01T10:22:44.000Z</time>
      </trkpt>
      <trkpt lat="45.10605" lon="2.66526">
        <ele>1439</ele>
        <time>2000-01-01T10:22:54.000Z</time>
      </trkpt>
      <trkpt lat="45.106" lon="2.66508">
        <ele>1435.4</ele>
        <time>2000-01-01T10:23:04.000Z</time>
      </trkpt>
      <trkpt lat="45.10593" lon="2.66491">
        <ele>1442</ele>
        <time>2000-01-01T10:23:14.000Z</time>
      </trkpt>
      <trkpt lat="45.10586" lon="2.66476">
        <ele>1439</ele>
        <time>2000-01-01T10:23:24.000Z</time>
      </trkpt>
      <trkpt lat="45.10575" lon="2.66443">
        <ele>1445</ele>
        <time>2000-01-01T10:23:34.000Z</time>
      </trkpt>
      <trkpt lat="45.10567" lon="2.66426">
        <ele>1443.9</ele>
        <time>2000-01-01T10:23:44.000Z</time>
      </trkpt>
      <trkpt lat="45.10564" lon="2.66412">
        <ele>1447</ele>
        <time>2000-01-01T10:23:54.000Z</time>
      </trkpt>
      <trkpt lat="45.10561" lon="2.66402">
        <ele>1446</ele>
        <time>2000-01-01T10:24:04.000Z</time>
      </trkpt>
      <trkpt lat="45.10559" lon="2.66392">
        <ele>1447</ele>
        <time>2000-01-01T10:24:14.000Z</time>
      </trkpt>
      <trkpt lat="45.10555" lon="2.66383">
        <ele>1451</ele>
        <time>2000-01-01T10:24:24.000Z</time>
      </trkpt>
      <trkpt lat="45.10552" lon="2.66366">
        <ele>1451.6</ele>
        <time>2000-01-01T10:24:34.000Z</time>
      </trkpt>
      <trkpt lat="45.10549" lon="2.66356">
        <ele>1459</ele>
        <time>2000-01-01T10:24:44.000Z</time>
      </trkpt>
      <trkpt lat="45.10547" lon="2.66346">
        <ele>1455.4</ele>
        <time>2000-01-01T10:24:54.000Z</time>
      </trkpt>
      <trkpt lat="45.10547" lon="2.66336">
        <ele>1455.5</ele>
        <time>2000-01-01T10:25:04.000Z</time>
      </trkpt>
      <trkpt lat="45.10548" lon="2.66325">
        <ele>1464</ele>
        <time>2000-01-01T10:25:14.000Z</time>
      </trkpt>
      <trkpt lat="45.10547" lon="2.66314">
        <ele>1457.4</ele>
        <time>2000-01-01T10:25:24.000Z</time>
      </trkpt>
      <trkpt lat="45.1054" lon="2.66302">
        <ele>1463.8</ele>
        <time>2000-01-01T10:25:34.000Z</time>
      </trkpt>
      <trkpt lat="45.10538" lon="2.66293">
        <ele>1471</ele>
        <time>2000-01-01T10:25:44.000Z</time>
      </trkpt>
      <trkpt lat="45.1054" lon="2.66288">
        <ele>1469</ele>
        <time>2000-01-01T10:25:54.000Z</time>
      </trkpt>
      <trkpt lat="45.10544" lon="2.66285">
        <ele>1468</ele>
        <time>2000-01-01T10:26:04.000Z</time>
      </trkpt>
      <trkpt lat="45.10545" lon="2.66282">
        <ele>1468.7</ele>
        <time>2000-01-01T10:26:14.000Z</time>
      </trkpt>
      <trkpt lat="45.10547" lon="2.66279">
        <ele>1468.8</ele>
        <time>2000-01-01T10:26:24.000Z</time>
      </trkpt>
      <trkpt lat="45.10547" lon="2.66272">
        <ele>1470.7</ele>
        <time>2000-01-01T10:26:34.000Z</time>
      </trkpt>
      <trkpt lat="45.10546" lon="2.66267">
        <ele>1479</ele>
        <time>2000-01-01T10:26:44.000Z</time>
      </trkpt>
      <trkpt lat="45.10548" lon="2.66262">
        <ele>1472.6</ele>
        <time>2000-01-01T10:26:54.000Z</time>
      </trkpt>
      <trkpt lat="45.10548" lon="2.66258">
        <ele>1473.6</ele>
        <time>2000-01-01T10:27:04.000Z</time>
      </trkpt>
      <trkpt lat="45.10545" lon="2.66259">
        <ele>1474.8</ele>
        <time>2000-01-01T10:27:14.000Z</time>
      </trkpt>
      <trkpt lat="45.10543" lon="2.66263">
        <ele>1474.8</ele>
        <time>2000-01-01T10:27:24.000Z</time>
      </trkpt>
      <trkpt lat="45.1054" lon="2.66264">
        <ele>1476</ele>
        <time>2000-01-01T10:27:34.000Z</time>
      </trkpt>
      <trkpt lat="45.10538" lon="2.66266">
        <ele>1476.5</ele>
        <time>2000-01-01T10:27:44.000Z</time>
      </trkpt>
      <trkpt lat="45.10536" lon="2.66266">
        <ele>1483</ele>
        <time>2000-01-01T10:27:54.000Z</time>
      </trkpt>
      <trkpt lat="45.10535" lon="2.66262">
        <ele>1478.9</ele>
        <time>2000-01-01T10:28:04.000Z</time>
      </trkpt>
      <trkpt lat="45.10535" lon="2.66257">
        <ele>1480</ele>
        <time>2000-01-01T10:28:14.000Z</time>
      </trkpt>
      <trkpt lat="45.10537" lon="2.66243">
        <ele>1481.9</ele>
        <time>2000-01-01T10:28:24.000Z</time>
      </trkpt>
      <trkpt lat="45.10536" lon="2.66238">
        <ele>1487</ele>
        <time>2000-01-01T10:28:34.000Z</time>
      </trkpt>
      <trkpt lat="45.10538" lon="2.66225">
        <ele>1484.5</ele>
        <time>2000-01-01T10:28:44.000Z</time>
      </trkpt>
      <trkpt lat="45.1054" lon="2.6622">
        <ele>1484.5</ele>
        <time>2000-01-01T10:28:54.000Z</time>
      </trkpt>
      <trkpt lat="45.10541" lon="2.66213">
        <ele>1485.1</ele>
        <time>2000-01-01T10:29:04.000Z</time>
      </trkpt>
      <trkpt lat="45.10543" lon="2.66205">
        <ele>1487</ele>
        <time>2000-01-01T10:29:14.000Z</time>
      </trkpt>
      <trkpt lat="45.10546" lon="2.66197">
        <ele>1485.4</ele>
        <time>2000-01-01T10:29:24.000Z</time>
      </trkpt>
      <trkpt lat="45.10547" lon="2.6619">
        <ele>1486.3</ele>
        <time>2000-01-01T10:29:34.000Z</time>
      </trkpt>
      <trkpt lat="45.10551" lon="2.66174">
        <ele>1488</ele>
        <time>2000-01-01T10:29:44.000Z</time>
      </trkpt>
      <trkpt lat="45.1055" lon="2.66171">
        <ele>1489.1</ele>
        <time>2000-01-01T10:29:54.000Z</time>
      </trkpt>
      <trkpt lat="45.10534" lon="2.66174">
        <ele>1494.4</ele>
        <time>2000-01-01T10:30:04.000Z</time>
      </trkpt>
      <trkpt lat="45.10521" lon="2.66178">
        <ele>1499</ele>
        <time>2000-01-01T10:30:14.000Z</time>
      </trkpt>
      <trkpt lat="45.10517" lon="2.66181">
        <ele>1499.9</ele>
        <time>2000-01-01T10:30:24.000Z</time>
      </trkpt>
      <trkpt lat="45.10511" lon="2.66183">
        <ele>1502.1</ele>
        <time>2000-01-01T10:30:34.000Z</time>
      </trkpt>
      <trkpt lat="45.10509" lon="2.66189">
        <ele>1502</ele>
        <time>2000-01-01T10:30:44.000Z</time>
      </trkpt>
      <trkpt lat="45.10506" lon="2.66193">
        <ele>1505</ele>
        <time>2000-01-01T10:30:54.000Z</time>
      </trkpt>
      <trkpt lat="45.105" lon="2.66198">
        <ele>1504.6</ele>
        <time>2000-01-01T10:31:04.000Z</time>
      </trkpt>
      <trkpt lat="45.10493" lon="2.66206">
        <ele>1506.7</ele>
        <time>2000-01-01T10:31:14.000Z</time>
      </trkpt>
      <trkpt lat="45.10489" lon="2.66207">
        <ele>1511</ele>
        <time>2000-01-01T10:31:24.000Z</time>
      </trkpt>
      <trkpt lat="45.10484" lon="2.66196">
        <ele>1511.2</ele>
        <time>2000-01-01T10:31:34.000Z</time>
      </trkpt>
      <trkpt lat="45.10482" lon="2.66186">
        <ele>1513.1</ele>
        <time>2000-01-01T10:31:44.000Z</time>
      </trkpt>
      <trkpt lat="45.10479" lon="2.66178">
        <ele>1520</ele>
        <time>2000-01-01T10:31:54.000Z</time>
      </trkpt>
      <trkpt lat="45.10478" lon="2.66168">
        <ele>1516.8</ele>
        <time>2000-01-01T10:32:04.000Z</time>
      </trkpt>
      <trkpt lat="45.1048" lon="2.66154">
        <ele>1519.3</ele>
        <time>2000-01-01T10:32:14.000Z</time>
      </trkpt>
      <trkpt lat="45.10478" lon="2.66149">
        <ele>1526</ele>
        <time>2000-01-01T10:32:24.000Z</time>
      </trkpt>
      <trkpt lat="45.10472" lon="2.66154">
        <ele>1522.3</ele>
        <time>2000-01-01T10:32:34.000Z</time>
      </trkpt>
      <trkpt lat="45.10457" lon="2.66171">
        <ele>1527</ele>
        <time>2000-01-01T10:32:44.000Z</time>
      </trkpt>
      <trkpt lat="45.10454" lon="2.66178">
        <ele>1525.9</ele>
        <time>2000-01-01T10:32:54.000Z</time>
      </trkpt>
      <trkpt lat="45.1045" lon="2.66185">
        <ele>1527.1</ele>
        <time>2000-01-01T10:33:04.000Z</time>
      </trkpt>
      <trkpt lat="45.10448" lon="2.66193">
        <ele>1527.4</ele>
        <time>2000-01-01T10:33:14.000Z</time>
      </trkpt>
      <trkpt lat="45.10444" lon="2.662">
        <ele>1530</ele>
        <time>2000-01-01T10:33:24.000Z</time>
      </trkpt>
      <trkpt lat="45.10441" lon="2.66204">
        <ele>1529</ele>
        <time>2000-01-01T10:33:34.000Z</time>
      </trkpt>
      <trkpt lat="45.10438" lon="2.66202">
        <ele>1528.9</ele>
        <time>2000-01-01T10:33:44.000Z</time>
      </trkpt>
      <trkpt lat="45.10436" lon="2.6619">
        <ele>1528.8</ele>
        <time>2000-01-01T10:33:54.000Z</time>
      </trkpt>
      <trkpt lat="45.10436" lon="2.66181">
        <ele>1532</ele>
        <time>2000-01-01T10:34:04.000Z</time>
      </trkpt>
      <trkpt lat="45.10435" lon="2.66173">
        <ele>1529.2</ele>
        <time>2000-01-01T10:34:14.000Z</time>
      </trkpt>
      <trkpt lat="45.10439" lon="2.66159">
        <ele>1530.7</ele>
        <time>2000-01-01T10:34:24.000Z</time>
      </trkpt>
      <trkpt lat="45.1044" lon="2.66152">
        <ele>1533</ele>
        <time>2000-01-01T10:34:34.000Z</time>
      </trkpt>
      <trkpt lat="45.1044" lon="2.66145">
        <ele>1532.3</ele>
        <time>2000-01-01T10:34:44.000Z</time>
      </trkpt>
      <trkpt lat="45.10436" lon="2.66128">
        <ele>1534.3</ele>
        <time>2000-01-01T10:34:54.000Z</time>
      </trkpt>
      <trkpt lat="45.10434" lon="2.66123">
        <ele>1537</ele>
        <time>2000-01-01T10:35:04.000Z</time>
      </trkpt>
      <trkpt lat="45.10429" lon="2.66117">
        <ele>1535.3</ele>
        <time>2000-01-01T10:35:14.000Z</time>
      </trkpt>
      <trkpt lat="45.10426" lon="2.66109">
        <ele>1536.4</ele>
        <time>2000-01-01T10:35:24.000Z</time>
      </trkpt>
      <trkpt lat="45.10425" lon="2.66099">
        <ele>1540</ele>
        <time>2000-01-01T10:35:34.000Z</time>
      </trkpt>
      <trkpt lat="45.10425" lon="2.6608">
        <ele>1541.2</ele>
        <time>2000-01-01T10:35:44.000Z</time>
      </trkpt>
      <trkpt lat="45.1042" lon="2.66063">
        <ele>1546</ele>
        <time>2000-01-01T10:35:54.000Z</time>
      </trkpt>
      <trkpt lat="45.10417" lon="2.66055">
        <ele>1545.2</ele>
        <time>2000-01-01T10:36:04.000Z</time>
      </trkpt>
      <trkpt lat="45.10417" lon="2.66047">
        <ele>1547.3</ele>
        <time>2000-01-01T10:36:14.000Z</time>
      </trkpt>
      <trkpt lat="45.10415" lon="2.6604">
        <ele>1547.9</ele>
        <time>2000-01-01T10:36:24.000Z</time>
      </trkpt>
      <trkpt lat="45.10415" lon="2.66033">
        <ele>1547</ele>
        <time>2000-01-01T10:36:34.000Z</time>
      </trkpt>
      <trkpt lat="45.10412" lon="2.66011">
        <ele>1553.1</ele>
        <time>2000-01-01T10:36:44.000Z</time>
      </trkpt>
      <trkpt lat="45.10406" lon="2.6599">
        <ele>1553</ele>
        <time>2000-01-01T10:36:54.000Z</time>
      </trkpt>
      <trkpt lat="45.10401" lon="2.65983">
        <ele>1555.9</ele>
        <time>2000-01-01T10:37:04.000Z</time>
      </trkpt>
      <trkpt lat="45.10396" lon="2.65965">
        <ele>1557</ele>
        <time>2000-01-01T10:37:14.000Z</time>
      </trkpt>
      <trkpt lat="45.10392" lon="2.65948">
        <ele>1562.7</ele>
        <time>2000-01-01T10:37:24.000Z</time>
      </trkpt>
      <trkpt lat="45.10388" lon="2.6594">
        <ele>1559</ele>
        <time>2000-01-01T10:37:34.000Z</time>
      </trkpt>
      <trkpt lat="45.10384" lon="2.65929">
        <ele>1565.2</ele>
        <time>2000-01-01T10:37:44.000Z</time>
      </trkpt>
      <trkpt lat="45.10381" lon="2.65928">
        <ele>1563.8</ele>
        <time>2000-01-01T10:37:54.000Z</time>
      </trkpt>
      <trkpt lat="45.1038" lon="2.65927">
        <ele>1563.6</ele>
        <time>2000-01-01T10:38:04.000Z</time>
      </trkpt>
      <trkpt lat="45.10379" lon="2.6592">
        <ele>1565.7</ele>
        <time>2000-01-01T10:38:14.000Z</time>
      </trkpt>
      <trkpt lat="45.1038" lon="2.65913">
        <ele>1569</ele>
        <time>2000-01-01T10:38:24.000Z</time>
      </trkpt>
      <trkpt lat="45.1038" lon="2.65906">
        <ele>1571.6</ele>
        <time>2000-01-01T10:38:34.000Z</time>
      </trkpt>
      <trkpt lat="45.10378" lon="2.65898">
        <ele>1573.7</ele>
        <time>2000-01-01T10:38:44.000Z</time>
      </trkpt>
      <trkpt lat="45.1037" lon="2.65891">
        <ele>1572</ele>
        <time>2000-01-01T10:38:54.000Z</time>
      </trkpt>
      <trkpt lat="45.10364" lon="2.6589">
        <ele>1570.7</ele>
        <time>2000-01-01T10:39:04.000Z</time>
      </trkpt>
      <trkpt lat="45.10359" lon="2.65884">
        <ele>1571.4</ele>
        <time>2000-01-01T10:39:14.000Z</time>
      </trkpt>
      <trkpt lat="45.1035" lon="2.65869">
        <ele>1574</ele>
        <time>2000-01-01T10:39:24.000Z</time>
      </trkpt>
      <trkpt lat="45.10345" lon="2.65869">
        <ele>1573.6</ele>
        <time>2000-01-01T10:39:34.000Z</time>
      </trkpt>
      <trkpt lat="45.10343" lon="2.65862">
        <ele>1576.4</ele>
        <time>2000-01-01T10:39:44.000Z</time>
      </trkpt>
      <trkpt lat="45.10339" lon="2.65859">
        <ele>1576.1</ele>
        <time>2000-01-01T10:39:54.000Z</time>
      </trkpt>
      <trkpt lat="45.10339" lon="2.65842">
        <ele>1576</ele>
        <time>2000-01-01T10:40:04.000Z</time>
      </trkpt>
      <trkpt lat="45.10337" lon="2.65839">
        <ele>1579.3</ele>
        <time>2000-01-01T10:40:14.000Z</time>
      </trkpt>
      <trkpt lat="45.10337" lon="2.65834">
        <ele>1580.2</ele>
        <time>2000-01-01T10:40:24.000Z</time>
      </trkpt>
      <trkpt lat="45.10339" lon="2.65827">
        <ele>1581.8</ele>
        <time>2000-01-01T10:40:34.000Z</time>
      </trkpt>
      <trkpt lat="45.10339" lon="2.65821">
        <ele>1582</ele>
        <time>2000-01-01T10:40:44.000Z</time>
      </trkpt>
      <trkpt lat="45.10337" lon="2.65817">
        <ele>1577</ele>
        <time>2000-01-01T10:40:54.000Z</time>
      </trkpt>
      <trkpt lat="45.10337" lon="2.65806">
        <ele>1580.4</ele>
        <time>2000-01-01T10:41:04.000Z</time>
      </trkpt>
      <trkpt lat="45.10336" lon="2.65799">
        <ele>1579.5</ele>
        <time>2000-01-01T10:41:14.000Z</time>
      </trkpt>
      <trkpt lat="45.10336" lon="2.65789">
        <ele>1577</ele>
        <time>2000-01-01T10:41:24.000Z</time>
      </trkpt>
      <trkpt lat="45.10335" lon="2.65782">
        <ele>1578.6</ele>
        <time>2000-01-01T10:41:34.000Z</time>
      </trkpt>
      <trkpt lat="45.10335" lon="2.65775">
        <ele>1579.3</ele>
        <time>2000-01-01T10:41:44.000Z</time>
      </trkpt>
      <trkpt lat="45.10334" lon="2.65768">
        <ele>1580.1</ele>
        <time>2000-01-01T10:41:54.000Z</time>
      </trkpt>
      <trkpt lat="45.10331" lon="2.65762">
        <ele>1576</ele>
        <time>2000-01-01T10:42:04.000Z</time>
      </trkpt>
      <trkpt lat="45.10328" lon="2.65754">
        <ele>1578.5</ele>
        <time>2000-01-01T10:42:14.000Z</time>
      </trkpt>
      <trkpt lat="45.10327" lon="2.65746">
        <ele>1579.5</ele>
        <time>2000-01-01T10:42:24.000Z</time>
      </trkpt>
      <trkpt lat="45.10325" lon="2.65741">
        <ele>1578.9</ele>
        <time>2000-01-01T10:42:34.000Z</time>
      </trkpt>
      <trkpt lat="45.10324" lon="2.65736">
        <ele>1576</ele>
        <time>2000-01-01T10:42:44.000Z</time>
      </trkpt>
      <trkpt lat="45.10325" lon="2.65732">
        <ele>1580.7</ele>
        <time>2000-01-01T10:42:54.000Z</time>
      </trkpt>
      <trkpt lat="45.10321" lon="2.65724">
        <ele>1579.3</ele>
        <time>2000-01-01T10:43:04.000Z</time>
      </trkpt>
      <trkpt lat="45.10318" lon="2.65715">
        <ele>1579</ele>
        <time>2000-01-01T10:43:14.000Z</time>
      </trkpt>
      <trkpt lat="45.10309" lon="2.65696">
        <ele>1576</ele>
        <time>2000-01-01T10:43:24.000Z</time>
      </trkpt>
      <trkpt lat="45.10308" lon="2.65687">
        <ele>1576.9</ele>
        <time>2000-01-01T10:43:34.000Z</time>
      </trkpt>
      <trkpt lat="45.10306" lon="2.65676">
        <ele>1577</ele>
        <time>2000-01-01T10:43:44.000Z</time>
      </trkpt>
      <trkpt lat="45.10304" lon="2.65667">
        <ele>1576</ele>
        <time>2000-01-01T10:43:54.000Z</time>
      </trkpt>
      <trkpt lat="45.10301" lon="2.65658">
        <ele>1577.2</ele>
        <time>2000-01-01T10:44:04.000Z</time>
      </trkpt>
      <trkpt lat="45.10299" lon="2.65637">
        <ele>1577</ele>
        <time>2000-01-01T10:44:14.000Z</time>
      </trkpt>
      <trkpt lat="45.10296" lon="2.65631">
        <ele>1581.3</ele>
        <time>2000-01-01T10:44:24.000Z</time>
      </trkpt>
      <trkpt lat="45.10292" lon="2.65618">
        <ele>1583.1</ele>
        <time>2000-01-01T10:44:34.000Z</time>
      </trkpt>
      <trkpt lat="45.10289" lon="2.65613">
        <ele>1578</ele>
        <time>2000-01-01T10:44:44.000Z</time>
      </trkpt>
      <trkpt lat="45.10286" lon="2.65605">
        <ele>1583.3</ele>
        <time>2000-01-01T10:44:54.000Z</time>
      </trkpt>
      <trkpt lat="45.10286" lon="2.65594">
        <ele>1586</ele>
        <time>2000-01-01T10:45:04.000Z</time>
      </trkpt>
      <trkpt lat="45.10277" lon="2.65571">
        <ele>1585</ele>
        <time>2000-01-01T10:45:14.000Z</time>
      </trkpt>
      <trkpt lat="45.10275" lon="2.65562">
        <ele>1590</ele>
        <time>2000-01-01T10:45:24.000Z</time>
      </trkpt>
      <trkpt lat="45.10274" lon="2.65553">
        <ele>1592.6</ele>
        <time>2000-01-01T10:45:34.000Z</time>
      </trkpt>
      <trkpt lat="45.1027" lon="2.65546">
        <ele>1590</ele>
        <time>2000-01-01T10:45:44.000Z</time>
      </trkpt>
      <trkpt lat="45.10267" lon="2.65537">
        <ele>1595</ele>
        <time>2000-01-01T10:45:54.000Z</time>
      </trkpt>
      <trkpt lat="45.10265" lon="2.65529">
        <ele>1596.5</ele>
        <time>2000-01-01T10:46:04.000Z</time>
      </trkpt>
      <trkpt lat="45.10262" lon="2.655">
        <ele>1605</ele>
        <time>2000-01-01T10:46:14.000Z</time>
      </trkpt>
      <trkpt lat="45.1026" lon="2.65489">
        <ele>1606.2</ele>
        <time>2000-01-01T10:46:24.000Z</time>
      </trkpt>
      <trkpt lat="45.10254" lon="2.65468">
        <ele>1613</ele>
        <time>2000-01-01T10:46:34.000Z</time>
      </trkpt>
      <trkpt lat="45.10252" lon="2.65465">
        <ele>1612.3</ele>
        <time>2000-01-01T10:46:44.000Z</time>
      </trkpt>
      <trkpt lat="45.10251" lon="2.6546">
        <ele>1614</ele>
        <time>2000-01-01T10:46:54.000Z</time>
      </trkpt>
      <trkpt lat="45.10252" lon="2.65455">
        <ele>1616.2</ele>
        <time>2000-01-01T10:47:04.000Z</time>
      </trkpt>
      <trkpt lat="45.10255" lon="2.65452">
        <ele>1618</ele>
        <time>2000-01-01T10:47:14.000Z</time>
      </trkpt>
      <trkpt lat="45.10256" lon="2.65448">
        <ele>1619.7</ele>
        <time>2000-01-01T10:47:24.000Z</time>
      </trkpt>
      <trkpt lat="45.10255" lon="2.65446">
        <ele>1620.3</ele>
        <time>2000-01-01T10:47:34.000Z</time>
      </trkpt>
      <trkpt lat="45.10243" lon="2.65439">
        <ele>1625</ele>
        <time>2000-01-01T10:47:44.000Z</time>
      </trkpt>
      <trkpt lat="45.10237" lon="2.6544">
        <ele>1623.3</ele>
        <time>2000-01-01T10:47:54.000Z</time>
      </trkpt>
      <trkpt lat="45.10228" lon="2.65438">
        <ele>1625</ele>
        <time>2000-01-01T10:48:04.000Z</time>
      </trkpt>
      <trkpt lat="45.10225" lon="2.65434">
        <ele>1629</ele>
        <time>2000-01-01T10:48:14.000Z</time>
      </trkpt>
      <trkpt lat="45.10225" lon="2.65431">
        <ele>1628.1</ele>
        <time>2000-01-01T10:48:24.000Z</time>
      </trkpt>
      <trkpt lat="45.10227" lon="2.65427">
        <ele>1629.6</ele>
        <time>2000-01-01T10:48:34.000Z</time>
      </trkpt>
      <trkpt lat="45.10234" lon="2.65418">
        <ele>1633</ele>
        <time>2000-01-01T10:48:44.000Z</time>
      </trkpt>
      <trkpt lat="45.10235" lon="2.65414">
        <ele>1634.3</ele>
        <time>2000-01-01T10:48:54.000Z</time>
      </trkpt>
      <trkpt lat="45.10235" lon="2.65404">
        <ele>1640</ele>
        <time>2000-01-01T10:49:04.000Z</time>
      </trkpt>
      <trkpt lat="45.10238" lon="2.65399">
        <ele>1638.2</ele>
        <time>2000-01-01T10:49:14.000Z</time>
      </trkpt>
      <trkpt lat="45.10239" lon="2.65395">
        <ele>1639.2</ele>
        <time>2000-01-01T10:49:24.000Z</time>
      </trkpt>
      <trkpt lat="45.10238" lon="2.6539">
        <ele>1640.6</ele>
        <time>2000-01-01T10:49:34.000Z</time>
      </trkpt>
      <trkpt lat="45.10238" lon="2.65388">
        <ele>1640.6</ele>
        <time>2000-01-01T04:30:58.000Z</time>
      </trkpt>
      <trkpt lat="45.10238" lon="2.65386">
        <ele>1640.2</ele>
        <time>2000-01-01T04:30:48.000Z</time>
      </trkpt>
      <trkpt lat="45.1023" lon="2.65385">
        <ele>1639</ele>
        <time>2000-01-01T04:30:38.000Z</time>
      </trkpt>
      <trkpt lat="45.10221" lon="2.65385">
        <ele>1641.5</ele>
        <time>2000-01-01T04:30:28.000Z</time>
      </trkpt>
      <trkpt lat="45.10217" lon="2.65384">
        <ele>1642.3</ele>
        <time>2000-01-01T04:30:18.000Z</time>
      </trkpt>
      <trkpt lat="45.1021" lon="2.6538">
        <ele>1643.3</ele>
        <time>2000-01-01T04:30:08.000Z</time>
      </trkpt>
      <trkpt lat="45.10208" lon="2.65377">
        <ele>1643.2</ele>
        <time>2000-01-01T04:29:58.000Z</time>
      </trkpt>
      <trkpt lat="45.10205" lon="2.65383">
        <ele>1646</ele>
        <time>2000-01-01T04:29:38.000Z</time>
      </trkpt>
      <trkpt lat="45.10208" lon="2.65377">
        <ele>1643.2</ele>
        <time>2000-01-01T04:29:28.000Z</time>
      </trkpt>
      <trkpt lat="45.10204" lon="2.65374">
        <ele>1643.7</ele>
        <time>2000-01-01T04:29:18.000Z</time>
      </trkpt>
      <trkpt lat="45.10196" lon="2.65365">
        <ele>1648</ele>
        <time>2000-01-01T04:29:08.000Z</time>
      </trkpt>
      <trkpt lat="45.10189" lon="2.6536">
        <ele>1645.9</ele>
        <time>2000-01-01T04:28:58.000Z</time>
      </trkpt>
      <trkpt lat="45.10184" lon="2.65354">
        <ele>1646.8</ele>
        <time>2000-01-01T04:28:48.000Z</time>
      </trkpt>
      <trkpt lat="45.10175" lon="2.65342">
        <ele>1650</ele>
        <time>2000-01-01T04:28:38.000Z</time>
      </trkpt>
      <trkpt lat="45.1017" lon="2.65334">
        <ele>1649.5</ele>
        <time>2000-01-01T04:28:28.000Z</time>
      </trkpt>
      <trkpt lat="45.10165" lon="2.65328">
        <ele>1650.3</ele>
        <time>2000-01-01T04:28:18.000Z</time>
      </trkpt>
      <trkpt lat="45.10158" lon="2.65321">
        <ele>1652</ele>
        <time>2000-01-01T04:28:08.000Z</time>
      </trkpt>
      <trkpt lat="45.1015" lon="2.65314">
        <ele>1652.1</ele>
        <time>2000-01-01T04:27:58.000Z</time>
      </trkpt>
      <trkpt lat="45.10141" lon="2.65306">
        <ele>1654</ele>
        <time>2000-01-01T04:27:48.000Z</time>
      </trkpt>
      <trkpt lat="45.10135" lon="2.65303">
        <ele>1654.2</ele>
        <time>2000-01-01T04:27:38.000Z</time>
      </trkpt>
      <trkpt lat="45.10131" lon="2.653">
        <ele>1654.3</ele>
        <time>2000-01-01T04:27:28.000Z</time>
      </trkpt>
      <trkpt lat="45.10122" lon="2.65296">
        <ele>1654</ele>
        <time>2000-01-01T04:27:18.000Z</time>
      </trkpt>
      <trkpt lat="45.1011" lon="2.65289">
        <ele>1657</ele>
        <time>2000-01-01T04:27:08.000Z</time>
      </trkpt>
      <trkpt lat="45.10101" lon="2.65282">
        <ele>1658</ele>
        <time>2000-01-01T04:26:58.000Z</time>
      </trkpt>
      <trkpt lat="45.1009" lon="2.65275">
        <ele>1659.2</ele>
        <time>2000-01-01T04:26:48.000Z</time>
      </trkpt>
      <trkpt lat="45.10081" lon="2.6527">
        <ele>1661.1</ele>
        <time>2000-01-01T04:26:38.000Z</time>
      </trkpt>
      <trkpt lat="45.10074" lon="2.65267">
        <ele>1662</ele>
        <time>2000-01-01T04:26:28.000Z</time>
      </trkpt>
      <trkpt lat="45.10069" lon="2.65262">
        <ele>1663.2</ele>
        <time>2000-01-01T04:26:18.000Z</time>
      </trkpt>
      <trkpt lat="45.10065" lon="2.65256">
        <ele>1663.2</ele>
        <time>2000-01-01T04:26:08.000Z</time>
      </trkpt>
      <trkpt lat="45.10061" lon="2.65249">
        <ele>1663</ele>
        <time>2000-01-01T04:25:58.000Z</time>
      </trkpt>
      <trkpt lat="45.10057" lon="2.65244">
        <ele>1664</ele>
        <time>2000-01-01T04:25:48.000Z</time>
      </trkpt>
      <trkpt lat="45.1005" lon="2.65238">
        <ele>1664</ele>
        <time>2000-01-01T04:25:38.000Z</time>
      </trkpt>
      <trkpt lat="45.10042" lon="2.65228">
        <ele>1664.2</ele>
        <time>2000-01-01T04:25:28.000Z</time>
      </trkpt>
      <trkpt lat="45.10036" lon="2.65221">
        <ele>1665</ele>
        <time>2000-01-01T04:25:18.000Z</time>
      </trkpt>
      <trkpt lat="45.10029" lon="2.65214">
        <ele>1664.8</ele>
        <time>2000-01-01T04:25:08.000Z</time>
      </trkpt>
      <trkpt lat="45.10024" lon="2.65207">
        <ele>1665.3</ele>
        <time>2000-01-01T04:24:58.000Z</time>
      </trkpt>
      <trkpt lat="45.1002" lon="2.65199">
        <ele>1665.5</ele>
        <time>2000-01-01T04:24:48.000Z</time>
      </trkpt>
      <trkpt lat="45.10018" lon="2.65195">
        <ele>1668</ele>
        <time>2000-01-01T04:24:38.000Z</time>
      </trkpt>
      <trkpt lat="45.10014" lon="2.65185">
        <ele>1665.9</ele>
        <time>2000-01-01T04:24:28.000Z</time>
      </trkpt>
      <trkpt lat="45.10009" lon="2.65171">
        <ele>1671</ele>
        <time>2000-01-01T04:24:18.000Z</time>
      </trkpt>
      <trkpt lat="45.10005" lon="2.65161">
        <ele>1667.3</ele>
        <time>2000-01-01T04:24:08.000Z</time>
      </trkpt>
      <trkpt lat="45.10001" lon="2.65154">
        <ele>1668.6</ele>
        <time>2000-01-01T04:23:58.000Z</time>
      </trkpt>
      <trkpt lat="45.1" lon="2.65147">
        <ele>1668.2</ele>
        <time>2000-01-01T04:23:48.000Z</time>
      </trkpt>
      <trkpt lat="45.09997" lon="2.65139">
        <ele>1671</ele>
        <time>2000-01-01T04:23:38.000Z</time>
      </trkpt>
      <trkpt lat="45.09994" lon="2.6513">
        <ele>1668.3</ele>
        <time>2000-01-01T04:23:28.000Z</time>
      </trkpt>
      <trkpt lat="45.09991" lon="2.65123">
        <ele>1668.4</ele>
        <time>2000-01-01T04:23:18.000Z</time>
      </trkpt>
      <trkpt lat="45.09988" lon="2.65114">
        <ele>1672</ele>
        <time>2000-01-01T04:23:08.000Z</time>
      </trkpt>
      <trkpt lat="45.09983" lon="2.65107">
        <ele>1669.4</ele>
        <time>2000-01-01T04:22:58.000Z</time>
      </trkpt>
      <trkpt lat="45.09978" lon="2.651">
        <ele>1670.9</ele>
        <time>2000-01-01T04:22:48.000Z</time>
      </trkpt>
      <trkpt lat="45.09972" lon="2.65089">
        <ele>1673</ele>
        <time>2000-01-01T04:22:38.000Z</time>
      </trkpt>
      <trkpt lat="45.09967" lon="2.65083">
        <ele>1672.8</ele>
        <time>2000-01-01T04:22:28.000Z</time>
      </trkpt>
      <trkpt lat="45.09962" lon="2.65075">
        <ele>1672.9</ele>
        <time>2000-01-01T04:22:18.000Z</time>
      </trkpt>
      <trkpt lat="45.09958" lon="2.65068">
        <ele>1675</ele>
        <time>2000-01-01T04:22:08.000Z</time>
      </trkpt>
      <trkpt lat="45.09952" lon="2.65057">
        <ele>1673.7</ele>
        <time>2000-01-01T04:21:58.000Z</time>
      </trkpt>
      <trkpt lat="45.0995" lon="2.65053">
        <ele>1674</ele>
        <time>2000-01-01T04:21:48.000Z</time>
      </trkpt>
      <trkpt lat="45.09947" lon="2.65046">
        <ele>1675</ele>
        <time>2000-01-01T04:21:38.000Z</time>
      </trkpt>
      <trkpt lat="45.09944" lon="2.65037">
        <ele>1674.5</ele>
        <time>2000-01-01T04:21:28.000Z</time>
      </trkpt>
      <trkpt lat="45.09942" lon="2.65029">
        <ele>1674.2</ele>
        <time>2000-01-01T04:21:18.000Z</time>
      </trkpt>
      <trkpt lat="45.09941" lon="2.65022">
        <ele>1673.7</ele>
        <time>2000-01-01T04:21:08.000Z</time>
      </trkpt>
      <trkpt lat="45.09939" lon="2.65017">
        <ele>1676</ele>
        <time>2000-01-01T04:20:58.000Z</time>
      </trkpt>
      <trkpt lat="45.09937" lon="2.65008">
        <ele>1673.6</ele>
        <time>2000-01-01T04:20:48.000Z</time>
      </trkpt>
      <trkpt lat="45.09936" lon="2.64999">
        <ele>1672.9</ele>
        <time>2000-01-01T04:20:38.000Z</time>
      </trkpt>
      <trkpt lat="45.09934" lon="2.64989">
        <ele>1673.1</ele>
        <time>2000-01-01T04:20:28.000Z</time>
      </trkpt>
      <trkpt lat="45.09933" lon="2.64982">
        <ele>1677</ele>
        <time>2000-01-01T04:20:18.000Z</time>
      </trkpt>
      <trkpt lat="45.09933" lon="2.64976">
        <ele>1672.6</ele>
        <time>2000-01-01T04:20:08.000Z</time>
      </trkpt>
      <trkpt lat="45.09931" lon="2.6497">
        <ele>1673.1</ele>
        <time>2000-01-01T04:19:58.000Z</time>
      </trkpt>
      <trkpt lat="45.09928" lon="2.64964">
        <ele>1674</ele>
        <time>2000-01-01T04:19:48.000Z</time>
      </trkpt>
      <trkpt lat="45.09924" lon="2.64956">
        <ele>1676</ele>
        <time>2000-01-01T04:19:38.000Z</time>
      </trkpt>
      <trkpt lat="45.09919" lon="2.64947">
        <ele>1676.3</ele>
        <time>2000-01-01T04:19:28.000Z</time>
      </trkpt>
      <trkpt lat="45.09915" lon="2.64939">
        <ele>1677.2</ele>
        <time>2000-01-01T04:19:18.000Z</time>
      </trkpt>
      <trkpt lat="45.09911" lon="2.64929">
        <ele>1676</ele>
        <time>2000-01-01T04:19:08.000Z</time>
      </trkpt>
      <trkpt lat="45.09907" lon="2.64917">
        <ele>1678.2</ele>
        <time>2000-01-01T04:18:58.000Z</time>
      </trkpt>
      <trkpt lat="45.09904" lon="2.6491">
        <ele>1678.3</ele>
        <time>2000-01-01T04:18:48.000Z</time>
      </trkpt>
      <trkpt lat="45.09902" lon="2.64897">
        <ele>1677.3</ele>
        <time>2000-01-01T04:18:38.000Z</time>
      </trkpt>
      <trkpt lat="45.099" lon="2.64892">
        <ele>1676</ele>
        <time>2000-01-01T04:18:28.000Z</time>
      </trkpt>
      <trkpt lat="45.09897" lon="2.64886">
        <ele>1677.5</ele>
        <time>2000-01-01T04:18:18.000Z</time>
      </trkpt>
      <trkpt lat="45.09894" lon="2.64879">
        <ele>1677.2</ele>
        <time>2000-01-01T04:18:08.000Z</time>
      </trkpt>
      <trkpt lat="45.0989" lon="2.64868">
        <ele>1678</ele>
        <time>2000-01-01T04:17:58.000Z</time>
      </trkpt>
      <trkpt lat="45.09886" lon="2.64862">
        <ele>1676.5</ele>
        <time>2000-01-01T04:17:48.000Z</time>
      </trkpt>
      <trkpt lat="45.09885" lon="2.64858">
        <ele>1676</ele>
        <time>2000-01-01T04:17:38.000Z</time>
      </trkpt>
      <trkpt lat="45.09882" lon="2.64851">
        <ele>1675.4</ele>
        <time>2000-01-01T04:17:28.000Z</time>
      </trkpt>
      <trkpt lat="45.09876" lon="2.64842">
        <ele>1678</ele>
        <time>2000-01-01T04:17:18.000Z</time>
      </trkpt>
      <trkpt lat="45.09869" lon="2.64831">
        <ele>1675.6</ele>
        <time>2000-01-01T04:17:08.000Z</time>
      </trkpt>
      <trkpt lat="45.0986" lon="2.6482">
        <ele>1678</ele>
        <time>2000-01-01T04:16:58.000Z</time>
      </trkpt>
      <trkpt lat="45.09854" lon="2.64809">
        <ele>1673.1</ele>
        <time>2000-01-01T04:16:48.000Z</time>
      </trkpt>
      <trkpt lat="45.09848" lon="2.64802">
        <ele>1672.4</ele>
        <time>2000-01-01T04:16:38.000Z</time>
      </trkpt>
      <trkpt lat="45.09844" lon="2.64796">
        <ele>1672.8</ele>
        <time>2000-01-01T04:16:28.000Z</time>
      </trkpt>
      <trkpt lat="45.09843" lon="2.64792">
        <ele>1678</ele>
        <time>2000-01-01T04:16:18.000Z</time>
      </trkpt>
      <trkpt lat="45.09842" lon="2.64785">
        <ele>1674.6</ele>
        <time>2000-01-01T04:16:08.000Z</time>
      </trkpt>
      <trkpt lat="45.09839" lon="2.64781">
        <ele>1675.9</ele>
        <time>2000-01-01T04:15:58.000Z</time>
      </trkpt>
      <trkpt lat="45.09836" lon="2.64775">
        <ele>1677.2</ele>
        <time>2000-01-01T04:15:48.000Z</time>
      </trkpt>
      <trkpt lat="45.09832" lon="2.64765">
        <ele>1678</ele>
        <time>2000-01-01T04:15:38.000Z</time>
      </trkpt>
      <trkpt lat="45.09829" lon="2.6475">
        <ele>1678.7</ele>
        <time>2000-01-01T04:15:28.000Z</time>
      </trkpt>
      <trkpt lat="45.09826" lon="2.6474">
        <ele>1679.4</ele>
        <time>2000-01-01T04:15:18.000Z</time>
      </trkpt>
      <trkpt lat="45.09823" lon="2.64729">
        <ele>1680</ele>
        <time>2000-01-01T04:15:08.000Z</time>
      </trkpt>
      <trkpt lat="45.09815" lon="2.64718">
        <ele>1683.1</ele>
        <time>2000-01-01T04:14:58.000Z</time>
      </trkpt>
      <trkpt lat="45.09811" lon="2.64708">
        <ele>1683.9</ele>
        <time>2000-01-01T04:14:48.000Z</time>
      </trkpt>
      <trkpt lat="45.09805" lon="2.64695">
        <ele>1686</ele>
        <time>2000-01-01T04:14:38.000Z</time>
      </trkpt>
      <trkpt lat="45.098" lon="2.64682">
        <ele>1682.9</ele>
        <time>2000-01-01T04:14:28.000Z</time>
      </trkpt>
      <trkpt lat="45.09794" lon="2.64666">
        <ele>1687</ele>
        <time>2000-01-01T04:14:18.000Z</time>
      </trkpt>
      <trkpt lat="45.09786" lon="2.64651">
        <ele>1684.8</ele>
        <time>2000-01-01T04:14:08.000Z</time>
      </trkpt>
      <trkpt lat="45.09783" lon="2.64642">
        <ele>1687.1</ele>
        <time>2000-01-01T04:13:58.000Z</time>
      </trkpt>
      <trkpt lat="45.0978" lon="2.64636">
        <ele>1690</ele>
        <time>2000-01-01T04:13:48.000Z</time>
      </trkpt>
      <trkpt lat="45.09774" lon="2.64623">
        <ele>1688.9</ele>
        <time>2000-01-01T04:13:38.000Z</time>
      </trkpt>
      <trkpt lat="45.09764" lon="2.64607">
        <ele>1695</ele>
        <time>2000-01-01T04:13:28.000Z</time>
      </trkpt>
      <trkpt lat="45.09759" lon="2.64596">
        <ele>1694.4</ele>
        <time>2000-01-01T04:13:18.000Z</time>
      </trkpt>
      <trkpt lat="45.09755" lon="2.6459">
        <ele>1697.8</ele>
        <time>2000-01-01T04:13:08.000Z</time>
      </trkpt>
      <trkpt lat="45.09751" lon="2.64586">
        <ele>1701.3</ele>
        <time>2000-01-01T04:12:58.000Z</time>
      </trkpt>
      <trkpt lat="45.09745" lon="2.64582">
        <ele>1704</ele>
        <time>2000-01-01T04:12:48.000Z</time>
      </trkpt>
      <trkpt lat="45.09738" lon="2.64579">
        <ele>1703.2</ele>
        <time>2000-01-01T04:12:38.000Z</time>
      </trkpt>
      <trkpt lat="45.09733" lon="2.64577">
        <ele>1703.6</ele>
        <time>2000-01-01T04:12:28.000Z</time>
      </trkpt>
      <trkpt lat="45.09729" lon="2.64575">
        <ele>1704.1</ele>
        <time>2000-01-01T04:12:18.000Z</time>
      </trkpt>
      <trkpt lat="45.09724" lon="2.64571">
        <ele>1707</ele>
        <time>2000-01-01T04:12:08.000Z</time>
      </trkpt>
      <trkpt lat="45.09719" lon="2.64563">
        <ele>1705.8</ele>
        <time>2000-01-01T04:11:58.000Z</time>
      </trkpt>
      <trkpt lat="45.09716" lon="2.64558">
        <ele>1706.7</ele>
        <time>2000-01-01T04:11:48.000Z</time>
      </trkpt>
      <trkpt lat="45.09707" lon="2.64554">
        <ele>1710</ele>
        <time>2000-01-01T04:11:38.000Z</time>
      </trkpt>
      <trkpt lat="45.09699" lon="2.64549">
        <ele>1708.9</ele>
        <time>2000-01-01T04:11:28.000Z</time>
      </trkpt>
      <trkpt lat="45.0969" lon="2.64537">
        <ele>1719</ele>
        <time>2000-01-01T04:11:18.000Z</time>
      </trkpt>
      <trkpt lat="45.09675" lon="2.64523">
        <ele>1719.4</ele>
        <time>2000-01-01T04:11:08.000Z</time>
      </trkpt>
      <trkpt lat="45.09672" lon="2.6452">
        <ele>1720.7</ele>
        <time>2000-01-01T04:10:58.000Z</time>
      </trkpt>
      <trkpt lat="45.09671" lon="2.64516">
        <ele>1721.6</ele>
        <time>2000-01-01T04:10:48.000Z</time>
      </trkpt>
      <trkpt lat="45.09669" lon="2.64511">
        <ele>1728</ele>
        <time>2000-01-01T04:10:38.000Z</time>
      </trkpt>
      <trkpt lat="45.09666" lon="2.64506">
        <ele>1725.1</ele>
        <time>2000-01-01T04:10:28.000Z</time>
      </trkpt>
      <trkpt lat="45.0966" lon="2.64505">
        <ele>1726.7</ele>
        <time>2000-01-01T04:10:18.000Z</time>
      </trkpt>
      <trkpt lat="45.09656" lon="2.645">
        <ele>1729.1</ele>
        <time>2000-01-01T04:10:08.000Z</time>
      </trkpt>
      <trkpt lat="45.09651" lon="2.64492">
        <ele>1733</ele>
        <time>2000-01-01T04:09:58.000Z</time>
      </trkpt>
      <trkpt lat="45.09645" lon="2.64485">
        <ele>1732.4</ele>
        <time>2000-01-01T04:09:48.000Z</time>
      </trkpt>
      <trkpt lat="45.09641" lon="2.6448">
        <ele>1734.4</ele>
        <time>2000-01-01T04:09:38.000Z</time>
      </trkpt>
      <trkpt lat="45.09637" lon="2.64474">
        <ele>1735.8</ele>
        <time>2000-01-01T04:09:28.000Z</time>
      </trkpt>
      <trkpt lat="45.09632" lon="2.6447">
        <ele>1733</ele>
        <time>2000-01-01T04:09:18.000Z</time>
      </trkpt>
      <trkpt lat="45.0962" lon="2.64469">
        <ele>1735.2</ele>
        <time>2000-01-01T04:09:08.000Z</time>
      </trkpt>
      <trkpt lat="45.09607" lon="2.64468">
        <ele>1734</ele>
        <time>2000-01-01T04:08:58.000Z</time>
      </trkpt>
      <trkpt lat="45.09586" lon="2.6447">
        <ele>1732</ele>
        <time>2000-01-01T04:08:48.000Z</time>
      </trkpt>
      <trkpt lat="45.09577" lon="2.64468">
        <ele>1732.5</ele>
        <time>2000-01-01T04:08:38.000Z</time>
      </trkpt>
      <trkpt lat="45.09565" lon="2.64465">
        <ele>1731</ele>
        <time>2000-01-01T04:08:28.000Z</time>
      </trkpt>
      <trkpt lat="45.09553" lon="2.6446">
        <ele>1730.8</ele>
        <time>2000-01-01T04:08:18.000Z</time>
      </trkpt>
      <trkpt lat="45.09541" lon="2.64454">
        <ele>1729</ele>
        <time>2000-01-01T04:08:08.000Z</time>
      </trkpt>
      <trkpt lat="45.09528" lon="2.64446">
        <ele>1729.2</ele>
        <time>2000-01-01T04:07:58.000Z</time>
      </trkpt>
      <trkpt lat="45.09513" lon="2.64438">
        <ele>1725</ele>
        <time>2000-01-01T04:07:48.000Z</time>
      </trkpt>
      <trkpt lat="45.095" lon="2.64429">
        <ele>1724.8</ele>
        <time>2000-01-01T04:07:38.000Z</time>
      </trkpt>
      <trkpt lat="45.09492" lon="2.6442">
        <ele>1721</ele>
        <time>2000-01-01T04:07:28.000Z</time>
      </trkpt>
      <trkpt lat="45.0948" lon="2.64411">
        <ele>1719.4</ele>
        <time>2000-01-01T04:07:18.000Z</time>
      </trkpt>
      <trkpt lat="45.09472" lon="2.64399">
        <ele>1715</ele>
        <time>2000-01-01T04:07:08.000Z</time>
      </trkpt>
      <trkpt lat="45.09465" lon="2.64387">
        <ele>1713.2</ele>
        <time>2000-01-01T04:06:58.000Z</time>
      </trkpt>
      <trkpt lat="45.0946" lon="2.64375">
        <ele>1710</ele>
        <time>2000-01-01T04:06:48.000Z</time>
      </trkpt>
      <trkpt lat="45.09451" lon="2.64366">
        <ele>1708.6</ele>
        <time>2000-01-01T04:06:38.000Z</time>
      </trkpt>
      <trkpt lat="45.09437" lon="2.64356">
        <ele>1706</ele>
        <time>2000-01-01T04:06:28.000Z</time>
      </trkpt>
      <trkpt lat="45.09419" lon="2.64346">
        <ele>1703</ele>
        <time>2000-01-01T04:06:18.000Z</time>
      </trkpt>
      <trkpt lat="45.09388" lon="2.64332">
        <ele>1702.9</ele>
        <time>2000-01-01T04:06:08.000Z</time>
      </trkpt>
      <trkpt lat="45.09382" lon="2.64331">
        <ele>1702.8</ele>
        <time>2000-01-01T04:05:58.000Z</time>
      </trkpt>
      <trkpt lat="45.09379" lon="2.64333">
        <ele>1702</ele>
        <time>2000-01-01T04:05:48.000Z</time>
      </trkpt>
      <trkpt lat="45.09374" lon="2.64333">
        <ele>1703</ele>
        <time>2000-01-01T04:05:38.000Z</time>
      </trkpt>
      <trkpt lat="45.0937" lon="2.64332">
        <ele>1702.9</ele>
        <time>2000-01-01T04:05:28.000Z</time>
      </trkpt>
      <trkpt lat="45.09365" lon="2.64327">
        <ele>1702.5</ele>
        <time>2000-01-01T04:05:18.000Z</time>
      </trkpt>
      <trkpt lat="45.0936" lon="2.64319">
        <ele>1701</ele>
        <time>2000-01-01T04:05:08.000Z</time>
      </trkpt>
      <trkpt lat="45.09352" lon="2.64311">
        <ele>1701.7</ele>
        <time>2000-01-01T04:04:58.000Z</time>
      </trkpt>
      <trkpt lat="45.09335" lon="2.64301">
        <ele>1701</ele>
        <time>2000-01-01T04:04:48.000Z</time>
      </trkpt>
      <trkpt lat="45.0932" lon="2.64295">
        <ele>1699.3</ele>
        <time>2000-01-01T04:04:38.000Z</time>
      </trkpt>
      <trkpt lat="45.09309" lon="2.64293">
        <ele>1699</ele>
        <time>2000-01-01T04:04:28.000Z</time>
      </trkpt>
      <trkpt lat="45.09301" lon="2.64287">
        <ele>1697.3</ele>
        <time>2000-01-01T04:04:18.000Z</time>
      </trkpt>
      <trkpt lat="45.09284" lon="2.64276">
        <ele>1697</ele>
        <time>2000-01-01T04:04:08.000Z</time>
      </trkpt>
      <trkpt lat="45.09273" lon="2.64268">
        <ele>1696</ele>
        <time>2000-01-01T04:03:58.000Z</time>
      </trkpt>
      <trkpt lat="45.09262" lon="2.64262">
        <ele>1695</ele>
        <time>2000-01-01T04:03:48.000Z</time>
      </trkpt>
      <trkpt lat="45.09252" lon="2.64259">
        <ele>1693.8</ele>
        <time>2000-01-01T04:03:38.000Z</time>
      </trkpt>
      <trkpt lat="45.09249" lon="2.64259">
        <ele>1693.6</ele>
        <time>2000-01-01T04:03:28.000Z</time>
      </trkpt>
      <trkpt lat="45.09238" lon="2.64258">
        <ele>1692</ele>
        <time>2000-01-01T04:03:18.000Z</time>
      </trkpt>
      <trkpt lat="45.09226" lon="2.64259">
        <ele>1691.9</ele>
        <time>2000-01-01T04:03:08.000Z</time>
      </trkpt>
      <trkpt lat="45.09218" lon="2.64258">
        <ele>1690</ele>
        <time>2000-01-01T04:02:58.000Z</time>
      </trkpt>
      <trkpt lat="45.09207" lon="2.64258">
        <ele>1690.2</ele>
        <time>2000-01-01T04:02:48.000Z</time>
      </trkpt>
      <trkpt lat="45.09196" lon="2.64258">
        <ele>1686</ele>
        <time>2000-01-01T04:02:38.000Z</time>
      </trkpt>
      <trkpt lat="45.09184" lon="2.64261">
        <ele>1685.4</ele>
        <time>2000-01-01T04:02:28.000Z</time>
      </trkpt>
      <trkpt lat="45.09169" lon="2.64264">
        <ele>1677</ele>
        <time>2000-01-01T04:02:18.000Z</time>
      </trkpt>
      <trkpt lat="45.09159" lon="2.64266">
        <ele>1676.8</ele>
        <time>2000-01-01T04:02:08.000Z</time>
      </trkpt>
      <trkpt lat="45.0915" lon="2.64269">
        <ele>1673.6</ele>
        <time>2000-01-01T04:01:58.000Z</time>
      </trkpt>
      <trkpt lat="45.09144" lon="2.64269">
        <ele>1668</ele>
        <time>2000-01-01T04:01:48.000Z</time>
      </trkpt>
      <trkpt lat="45.09138" lon="2.64271">
        <ele>1669.2</ele>
        <time>2000-01-01T04:01:38.000Z</time>
      </trkpt>
      <trkpt lat="45.09132" lon="2.64278">
        <ele>1667.3</ele>
        <time>2000-01-01T04:01:28.000Z</time>
      </trkpt>
      <trkpt lat="45.09125" lon="2.64283">
        <ele>1662</ele>
        <time>2000-01-01T04:01:18.000Z</time>
      </trkpt>
      <trkpt lat="45.09118" lon="2.64286">
        <ele>1661.7</ele>
        <time>2000-01-01T04:01:08.000Z</time>
      </trkpt>
      <trkpt lat="45.09112" lon="2.6429">
        <ele>1659.4</ele>
        <time>2000-01-01T04:00:58.000Z</time>
      </trkpt>
      <trkpt lat="45.09108" lon="2.64295">
        <ele>1653</ele>
        <time>2000-01-01T04:00:48.000Z</time>
      </trkpt>
      <trkpt lat="45.09099" lon="2.64303">
        <ele>1653.3</ele>
        <time>2000-01-01T04:00:38.000Z</time>
      </trkpt>
      <trkpt lat="45.09084" lon="2.64319">
        <ele>1644</ele>
        <time>2000-01-01T04:00:28.000Z</time>
      </trkpt>
      <trkpt lat="45.09075" lon="2.64324">
        <ele>1642.5</ele>
        <time>2000-01-01T04:00:18.000Z</time>
      </trkpt>
      <trkpt lat="45.0907" lon="2.64331">
        <ele>1641.1</ele>
        <time>2000-01-01T04:00:08.000Z</time>
      </trkpt>
      <trkpt lat="45.09067" lon="2.64332">
        <ele>1640.2</ele>
        <time>2000-01-01T03:59:58.000Z</time>
      </trkpt>
      <trkpt lat="45.09061" lon="2.64335">
        <ele>1638</ele>
        <time>2000-01-01T03:59:48.000Z</time>
      </trkpt>
      <trkpt lat="45.09053" lon="2.64339">
        <ele>1635.5</ele>
        <time>2000-01-01T03:59:38.000Z</time>
      </trkpt>
      <trkpt lat="45.09046" lon="2.64345">
        <ele>1632.9</ele>
        <time>2000-01-01T03:59:28.000Z</time>
      </trkpt>
      <trkpt lat="45.09043" lon="2.64347">
        <ele>1631.9</ele>
        <time>2000-01-01T03:59:18.000Z</time>
      </trkpt>
      <trkpt lat="45.0904" lon="2.6435">
        <ele>1630.9</ele>
        <time>2000-01-01T03:59:08.000Z</time>
      </trkpt>
      <trkpt lat="45.09038" lon="2.64354">
        <ele>1629</ele>
        <time>2000-01-01T03:58:58.000Z</time>
      </trkpt>
      <trkpt lat="45.0903" lon="2.64366">
        <ele>1627.5</ele>
        <time>2000-01-01T03:58:48.000Z</time>
      </trkpt>
      <trkpt lat="45.09025" lon="2.64372">
        <ele>1625.6</ele>
        <time>2000-01-01T03:58:38.000Z</time>
      </trkpt>
      <trkpt lat="45.09017" lon="2.6438">
        <ele>1623</ele>
        <time>2000-01-01T03:58:28.000Z</time>
      </trkpt>
      <trkpt lat="45.0901" lon="2.64386">
        <ele>1622.5</ele>
        <time>2000-01-01T03:58:18.000Z</time>
      </trkpt>
      <trkpt lat="45.09003" lon="2.64391">
        <ele>1621.7</ele>
        <time>2000-01-01T03:58:08.000Z</time>
      </trkpt>
      <trkpt lat="45.08994" lon="2.64396">
        <ele>1620</ele>
        <time>2000-01-01T03:57:58.000Z</time>
      </trkpt>
      <trkpt lat="45.08986" lon="2.64401">
        <ele>1619.9</ele>
        <time>2000-01-01T03:57:48.000Z</time>
      </trkpt>
      <trkpt lat="45.08979" lon="2.64405">
        <ele>1619.8</ele>
        <time>2000-01-01T03:57:38.000Z</time>
      </trkpt>
      <trkpt lat="45.08972" lon="2.64407">
        <ele>1620</ele>
        <time>2000-01-01T03:57:28.000Z</time>
      </trkpt>
      <trkpt lat="45.08965" lon="2.64408">
        <ele>1620.2</ele>
        <time>2000-01-01T03:57:18.000Z</time>
      </trkpt>
      <trkpt lat="45.08959" lon="2.6441">
        <ele>1620.4</ele>
        <time>2000-01-01T03:57:08.000Z</time>
      </trkpt>
      <trkpt lat="45.08946" lon="2.64412">
        <ele>1620</ele>
        <time>2000-01-01T03:56:58.000Z</time>
      </trkpt>
      <trkpt lat="45.08934" lon="2.64412">
        <ele>1619.1</ele>
        <time>2000-01-01T03:56:48.000Z</time>
      </trkpt>
      <trkpt lat="45.08923" lon="2.64413">
        <ele>1617.5</ele>
        <time>2000-01-01T03:56:38.000Z</time>
      </trkpt>
      <trkpt lat="45.08916" lon="2.64411">
        <ele>1616</ele>
        <time>2000-01-01T03:56:28.000Z</time>
      </trkpt>
      <trkpt lat="45.08909" lon="2.64407">
        <ele>1612.1</ele>
        <time>2000-01-01T03:56:18.000Z</time>
      </trkpt>
      <trkpt lat="45.08896" lon="2.644">
        <ele>1605</ele>
        <time>2000-01-01T03:56:08.000Z</time>
      </trkpt>
      <trkpt lat="45.08888" lon="2.64396">
        <ele>1602.4</ele>
        <time>2000-01-01T03:55:58.000Z</time>
      </trkpt>
      <trkpt lat="45.08886" lon="2.64391">
        <ele>1601.2</ele>
        <time>2000-01-01T03:55:48.000Z</time>
      </trkpt>
      <trkpt lat="45.08884" lon="2.64385">
        <ele>1599.1</ele>
        <time>2000-01-01T03:55:38.000Z</time>
      </trkpt>
      <trkpt lat="45.08881" lon="2.64381">
        <ele>1597</ele>
        <time>2000-01-01T03:55:28.000Z</time>
      </trkpt>
      <trkpt lat="45.08875" lon="2.64378">
        <ele>1592.5</ele>
        <time>2000-01-01T03:55:18.000Z</time>
      </trkpt>
      <trkpt lat="45.0887" lon="2.64378">
        <ele>1589.8</ele>
        <time>2000-01-01T03:55:08.000Z</time>
      </trkpt>
      <trkpt lat="45.08864" lon="2.64384">
        <ele>1587.2</ele>
        <time>2000-01-01T03:54:58.000Z</time>
      </trkpt>
      <trkpt lat="45.08859" lon="2.64387">
        <ele>1580</ele>
        <time>2000-01-01T03:54:48.000Z</time>
      </trkpt>
      <trkpt lat="45.08851" lon="2.64392">
        <ele>1581.1</ele>
        <time>2000-01-01T03:54:38.000Z</time>
      </trkpt>
      <trkpt lat="45.08842" lon="2.64394">
        <ele>1576.8</ele>
        <time>2000-01-01T03:54:28.000Z</time>
      </trkpt>
      <trkpt lat="45.08834" lon="2.64394">
        <ele>1572</ele>
        <time>2000-01-01T03:54:18.000Z</time>
      </trkpt>
      <trkpt lat="45.08829" lon="2.64391">
        <ele>1571.9</ele>
        <time>2000-01-01T03:54:08.000Z</time>
      </trkpt>
      <trkpt lat="45.08825" lon="2.64386">
        <ele>1570.5</ele>
        <time>2000-01-01T03:53:58.000Z</time>
      </trkpt>
      <trkpt lat="45.08822" lon="2.64383">
        <ele>1569</ele>
        <time>2000-01-01T03:53:48.000Z</time>
      </trkpt>
      <trkpt lat="45.08814" lon="2.64384">
        <ele>1564</ele>
        <time>2000-01-01T03:53:38.000Z</time>
      </trkpt>
      <trkpt lat="45.08799" lon="2.64385">
        <ele>1560.9</ele>
        <time>2000-01-01T03:53:28.000Z</time>
      </trkpt>
      <trkpt lat="45.08786" lon="2.64387">
        <ele>1554</ele>
        <time>2000-01-01T03:53:18.000Z</time>
      </trkpt>
      <trkpt lat="45.08768" lon="2.64395">
        <ele>1550</ele>
        <time>2000-01-01T03:53:08.000Z</time>
      </trkpt>
      <trkpt lat="45.08754" lon="2.64402">
        <ele>1547.9</ele>
        <time>2000-01-01T03:52:58.000Z</time>
      </trkpt>
      <trkpt lat="45.08741" lon="2.6441">
        <ele>1546</ele>
        <time>2000-01-01T03:52:48.000Z</time>
      </trkpt>
      <trkpt lat="45.08718" lon="2.64422">
        <ele>1541.3</ele>
        <time>2000-01-01T03:52:38.000Z</time>
      </trkpt>
      <trkpt lat="45.08701" lon="2.64431">
        <ele>1541</ele>
        <time>2000-01-01T03:52:28.000Z</time>
      </trkpt>
      <trkpt lat="45.08689" lon="2.64437">
        <ele>1537.5</ele>
        <time>2000-01-01T03:52:18.000Z</time>
      </trkpt>
      <trkpt lat="45.08673" lon="2.64446">
        <ele>1539</ele>
        <time>2000-01-01T03:52:08.000Z</time>
      </trkpt>
      <trkpt lat="45.08664" lon="2.6445">
        <ele>1539.2</ele>
        <time>2000-01-01T03:51:58.000Z</time>
      </trkpt>
      <trkpt lat="45.08656" lon="2.64451">
        <ele>1539.2</ele>
        <time>2000-01-01T03:51:48.000Z</time>
      </trkpt>
      <trkpt lat="45.08648" lon="2.64453">
        <ele>1539</ele>
        <time>2000-01-01T03:51:38.000Z</time>
      </trkpt>
      <trkpt lat="45.08639" lon="2.64453">
        <ele>1539.6</ele>
        <time>2000-01-01T03:51:28.000Z</time>
      </trkpt>
      <trkpt lat="45.0863" lon="2.64453">
        <ele>1540.6</ele>
        <time>2000-01-01T03:51:18.000Z</time>
      </trkpt>
      <trkpt lat="45.08624" lon="2.64452">
        <ele>1541</ele>
        <time>2000-01-01T03:51:08.000Z</time>
      </trkpt>
      <trkpt lat="45.08615" lon="2.64448">
        <ele>1541.8</ele>
        <time>2000-01-01T03:50:58.000Z</time>
      </trkpt>
      <trkpt lat="45.08602" lon="2.64442">
        <ele>1543</ele>
        <time>2000-01-01T03:50:48.000Z</time>
      </trkpt>
      <trkpt lat="45.08588" lon="2.64437">
        <ele>1544.2</ele>
        <time>2000-01-01T03:50:38.000Z</time>
      </trkpt>
      <trkpt lat="45.08574" lon="2.64427">
        <ele>1546</ele>
        <time>2000-01-01T03:50:28.000Z</time>
      </trkpt>
      <trkpt lat="45.08561" lon="2.64418">
        <ele>1546</ele>
        <time>2000-01-01T03:50:18.000Z</time>
      </trkpt>
      <trkpt lat="45.08557" lon="2.64414">
        <ele>1546.9</ele>
        <time>2000-01-01T03:50:08.000Z</time>
      </trkpt>
      <trkpt lat="45.08555" lon="2.6441">
        <ele>1547.2</ele>
        <time>2000-01-01T03:49:58.000Z</time>
      </trkpt>
      <trkpt lat="45.08553" lon="2.64406">
        <ele>1549</ele>
        <time>2000-01-01T03:49:48.000Z</time>
      </trkpt>
      <trkpt lat="45.0855" lon="2.64403">
        <ele>1547.9</ele>
        <time>2000-01-01T03:49:38.000Z</time>
      </trkpt>
      <trkpt lat="45.08542" lon="2.644">
        <ele>1549</ele>
        <time>2000-01-01T03:49:28.000Z</time>
      </trkpt>
      <trkpt lat="45.08536" lon="2.64399">
        <ele>1549.8</ele>
        <time>2000-01-01T03:49:18.000Z</time>
      </trkpt>
      <trkpt lat="45.08537" lon="2.64402">
        <ele>1549</ele>
        <time>2000-01-01T03:49:08.000Z</time>
      </trkpt>
      <trkpt lat="45.08536" lon="2.64401">
        <ele>1553</ele>
        <time>2000-01-01T03:48:58.000Z</time>
      </trkpt>
      <trkpt lat="45.08537" lon="2.64406">
        <ele>1548.2</ele>
        <time>2000-01-01T11:21:34.000Z</time>
      </trkpt>
      <trkpt lat="45.08541" lon="2.64412">
        <ele>1546.9</ele>
        <time>2000-01-01T11:21:44.000Z</time>
      </trkpt>
      <trkpt lat="45.08541" lon="2.64415">
        <ele>1546.3</ele>
        <time>2000-01-01T11:21:54.000Z</time>
      </trkpt>
      <trkpt lat="45.08537" lon="2.64421">
        <ele>1543.6</ele>
        <time>2000-01-01T11:22:04.000Z</time>
      </trkpt>
      <trkpt lat="45.08527" lon="2.64427">
        <ele>1543</ele>
        <time>2000-01-01T11:22:14.000Z</time>
      </trkpt>
      <trkpt lat="45.08515" lon="2.64444">
        <ele>1533.5</ele>
        <time>2000-01-01T11:22:24.000Z</time>
      </trkpt>
      <trkpt lat="45.08505" lon="2.64454">
        <ele>1531</ele>
        <time>2000-01-01T11:22:34.000Z</time>
      </trkpt>
      <trkpt lat="45.08491" lon="2.64472">
        <ele>1524.4</ele>
        <time>2000-01-01T11:22:44.000Z</time>
      </trkpt>
      <trkpt lat="45.08487" lon="2.64479">
        <ele>1528</ele>
        <time>2000-01-01T11:22:54.000Z</time>
      </trkpt>
      <trkpt lat="45.08483" lon="2.64491">
        <ele>1517.5</ele>
        <time>2000-01-01T11:23:04.000Z</time>
      </trkpt>
      <trkpt lat="45.08479" lon="2.64495">
        <ele>1516.6</ele>
        <time>2000-01-01T11:23:14.000Z</time>
      </trkpt>
      <trkpt lat="45.08472" lon="2.64505">
        <ele>1517</ele>
        <time>2000-01-01T11:23:24.000Z</time>
      </trkpt>
      <trkpt lat="45.08463" lon="2.64524">
        <ele>1508.7</ele>
        <time>2000-01-01T11:23:34.000Z</time>
      </trkpt>
      <trkpt lat="45.08457" lon="2.6453">
        <ele>1511</ele>
        <time>2000-01-01T11:23:44.000Z</time>
      </trkpt>
      <trkpt lat="45.08448" lon="2.64544">
        <ele>1504.4</ele>
        <time>2000-01-01T11:23:54.000Z</time>
      </trkpt>
      <trkpt lat="45.08444" lon="2.6456">
        <ele>1502</ele>
        <time>2000-01-01T11:24:04.000Z</time>
      </trkpt>
      <trkpt lat="45.0844" lon="2.64568">
        <ele>1498.9</ele>
        <time>2000-01-01T11:24:14.000Z</time>
      </trkpt>
      <trkpt lat="45.08439" lon="2.64577">
        <ele>1496.2</ele>
        <time>2000-01-01T11:24:24.000Z</time>
      </trkpt>
      <trkpt lat="45.08436" lon="2.64581">
        <ele>1496.7</ele>
        <time>2000-01-01T11:24:34.000Z</time>
      </trkpt>
      <trkpt lat="45.08433" lon="2.64588">
        <ele>1499</ele>
        <time>2000-01-01T11:24:44.000Z</time>
      </trkpt>
      <trkpt lat="45.08429" lon="2.64594">
        <ele>1495.9</ele>
        <time>2000-01-01T11:24:54.000Z</time>
      </trkpt>
      <trkpt lat="45.08428" lon="2.646">
        <ele>1493.8</ele>
        <time>2000-01-01T11:25:04.000Z</time>
      </trkpt>
      <trkpt lat="45.08425" lon="2.64604">
        <ele>1493.8</ele>
        <time>2000-01-01T11:25:14.000Z</time>
      </trkpt>
      <trkpt lat="45.08419" lon="2.64617">
        <ele>1498</ele>
        <time>2000-01-01T11:25:24.000Z</time>
      </trkpt>
      <trkpt lat="45.08416" lon="2.64622">
        <ele>1491.1</ele>
        <time>2000-01-01T11:25:34.000Z</time>
      </trkpt>
      <trkpt lat="45.08412" lon="2.64627">
        <ele>1489.1</ele>
        <time>2000-01-01T11:25:44.000Z</time>
      </trkpt>
      <trkpt lat="45.08407" lon="2.64631">
        <ele>1487.3</ele>
        <time>2000-01-01T11:25:54.000Z</time>
      </trkpt>
      <trkpt lat="45.08395" lon="2.64634">
        <ele>1493</ele>
        <time>2000-01-01T11:26:04.000Z</time>
      </trkpt>
      <trkpt lat="45.08389" lon="2.64631">
        <ele>1486.3</ele>
        <time>2000-01-01T11:26:14.000Z</time>
      </trkpt>
      <trkpt lat="45.08383" lon="2.64627">
        <ele>1487.2</ele>
        <time>2000-01-01T11:26:24.000Z</time>
      </trkpt>
      <trkpt lat="45.08376" lon="2.64628">
        <ele>1489</ele>
        <time>2000-01-01T11:26:34.000Z</time>
      </trkpt>
      <trkpt lat="45.08371" lon="2.6463">
        <ele>1482.9</ele>
        <time>2000-01-01T11:26:44.000Z</time>
      </trkpt>
      <trkpt lat="45.08364" lon="2.64631">
        <ele>1480.8</ele>
        <time>2000-01-01T11:26:54.000Z</time>
      </trkpt>
      <trkpt lat="45.08358" lon="2.64631">
        <ele>1480.8</ele>
        <time>2000-01-01T11:27:04.000Z</time>
      </trkpt>
      <trkpt lat="45.08352" lon="2.64638">
        <ele>1479</ele>
        <time>2000-01-01T11:27:14.000Z</time>
      </trkpt>
      <trkpt lat="45.08344" lon="2.64642">
        <ele>1476.3</ele>
        <time>2000-01-01T11:27:24.000Z</time>
      </trkpt>
      <trkpt lat="45.08336" lon="2.64648">
        <ele>1474</ele>
        <time>2000-01-01T11:27:34.000Z</time>
      </trkpt>
      <trkpt lat="45.08327" lon="2.64651">
        <ele>1475</ele>
        <time>2000-01-01T11:27:44.000Z</time>
      </trkpt>
      <trkpt lat="45.08322" lon="2.64655">
        <ele>1473</ele>
        <time>2000-01-01T11:27:54.000Z</time>
      </trkpt>
      <trkpt lat="45.08329" lon="2.64656">
        <ele>1470.6</ele>
        <time>2000-01-01T11:28:04.000Z</time>
      </trkpt>
      <trkpt lat="45.08352" lon="2.64655">
        <ele>1470</ele>
        <time>2000-01-01T11:28:14.000Z</time>
      </trkpt>
      <trkpt lat="45.08357" lon="2.64657">
        <ele>1466.3</ele>
        <time>2000-01-01T11:28:24.000Z</time>
      </trkpt>
      <trkpt lat="45.08361" lon="2.64661">
        <ele>1463.9</ele>
        <time>2000-01-01T11:28:34.000Z</time>
      </trkpt>
      <trkpt lat="45.08367" lon="2.64662">
        <ele>1465</ele>
        <time>2000-01-01T11:28:44.000Z</time>
      </trkpt>
      <trkpt lat="45.08374" lon="2.64671">
        <ele>1460</ele>
        <time>2000-01-01T11:28:54.000Z</time>
      </trkpt>
      <trkpt lat="45.08383" lon="2.64679">
        <ele>1461.9</ele>
        <time>2000-01-01T11:29:04.000Z</time>
      </trkpt>
      <trkpt lat="45.08385" lon="2.64683">
        <ele>1460.7</ele>
        <time>2000-01-01T11:29:14.000Z</time>
      </trkpt>
      <trkpt lat="45.08389" lon="2.64685">
        <ele>1461.1</ele>
        <time>2000-01-01T11:29:24.000Z</time>
      </trkpt>
      <trkpt lat="45.08387" lon="2.6469">
        <ele>1459</ele>
        <time>2000-01-01T11:29:34.000Z</time>
      </trkpt>
      <trkpt lat="45.08384" lon="2.64689">
        <ele>1457.8</ele>
        <time>2000-01-01T11:29:44.000Z</time>
      </trkpt>
      <trkpt lat="45.08372" lon="2.64678">
        <ele>1459</ele>
        <time>2000-01-01T11:29:54.000Z</time>
      </trkpt>
      <trkpt lat="45.08362" lon="2.64673">
        <ele>1459</ele>
        <time>2000-01-01T11:30:04.000Z</time>
      </trkpt>
      <trkpt lat="45.08355" lon="2.64673">
        <ele>1458.5</ele>
        <time>2000-01-01T11:30:14.000Z</time>
      </trkpt>
      <trkpt lat="45.08348" lon="2.64678">
        <ele>1456.6</ele>
        <time>2000-01-01T11:30:24.000Z</time>
      </trkpt>
      <trkpt lat="45.0834" lon="2.64681">
        <ele>1457</ele>
        <time>2000-01-01T11:30:34.000Z</time>
      </trkpt>
      <trkpt lat="45.0833" lon="2.64686">
        <ele>1455.3</ele>
        <time>2000-01-01T11:30:44.000Z</time>
      </trkpt>
      <trkpt lat="45.08321" lon="2.64694">
        <ele>1454</ele>
        <time>2000-01-01T11:30:54.000Z</time>
      </trkpt>
      <trkpt lat="45.08318" lon="2.64705">
        <ele>1452.7</ele>
        <time>2000-01-01T11:31:04.000Z</time>
      </trkpt>
      <trkpt lat="45.08318" lon="2.64712">
        <ele>1450.1</ele>
        <time>2000-01-01T11:31:14.000Z</time>
      </trkpt>
      <trkpt lat="45.08314" lon="2.64722">
        <ele>1450</ele>
        <time>2000-01-01T11:31:24.000Z</time>
      </trkpt>
      <trkpt lat="45.0831" lon="2.64728">
        <ele>1448.1</ele>
        <time>2000-01-01T11:31:34.000Z</time>
      </trkpt>
      <trkpt lat="45.08304" lon="2.64734">
        <ele>1448.7</ele>
        <time>2000-01-01T11:31:44.000Z</time>
      </trkpt>
      <trkpt lat="45.08302" lon="2.64744">
        <ele>1449</ele>
        <time>2000-01-01T11:31:54.000Z</time>
      </trkpt>
      <trkpt lat="45.08299" lon="2.6475">
        <ele>1444.3</ele>
        <time>2000-01-01T11:32:04.000Z</time>
      </trkpt>
      <trkpt lat="45.08283" lon="2.64769">
        <ele>1449</ele>
        <time>2000-01-01T11:32:14.000Z</time>
      </trkpt>
      <trkpt lat="45.08259" lon="2.64789">
        <ele>1445</ele>
        <time>2000-01-01T11:32:24.000Z</time>
      </trkpt>
      <trkpt lat="45.08251" lon="2.64799">
        <ele>1434.8</ele>
        <time>2000-01-01T11:32:34.000Z</time>
      </trkpt>
      <trkpt lat="45.08244" lon="2.64805">
        <ele>1431.8</ele>
        <time>2000-01-01T11:32:44.000Z</time>
      </trkpt>
      <trkpt lat="45.08234" lon="2.6481">
        <ele>1431</ele>
        <time>2000-01-01T11:32:54.000Z</time>
      </trkpt>
      <trkpt lat="45.08221" lon="2.6481">
        <ele>1430.5</ele>
        <time>2000-01-01T11:33:04.000Z</time>
      </trkpt>
      <trkpt lat="45.08209" lon="2.64807">
        <ele>1428</ele>
        <time>2000-01-01T11:33:14.000Z</time>
      </trkpt>
      <trkpt lat="45.08197" lon="2.64806">
        <ele>1424.6</ele>
        <time>2000-01-01T11:33:24.000Z</time>
      </trkpt>
      <trkpt lat="45.0818" lon="2.64794">
        <ele>1420</ele>
        <time>2000-01-01T11:33:34.000Z</time>
      </trkpt>
      <trkpt lat="45.08166" lon="2.64781">
        <ele>1419</ele>
        <time>2000-01-01T11:33:44.000Z</time>
      </trkpt>
      <trkpt lat="45.08151" lon="2.64779">
        <ele>1410</ele>
        <time>2000-01-01T11:33:54.000Z</time>
      </trkpt>
      <trkpt lat="45.0814" lon="2.64794">
        <ele>1401.6</ele>
        <time>2000-01-01T11:34:04.000Z</time>
      </trkpt>
      <trkpt lat="45.08127" lon="2.64888">
        <ele>1372</ele>
        <time>2000-01-01T11:34:14.000Z</time>
      </trkpt>
      <trkpt lat="45.08116" lon="2.64942">
        <ele>1342</ele>
        <time>2000-01-01T11:34:24.000Z</time>
      </trkpt>
      <trkpt lat="45.08105" lon="2.64977">
        <ele>1330</ele>
        <time>2000-01-01T11:34:34.000Z</time>
      </trkpt>
      <trkpt lat="45.08096" lon="2.65">
        <ele>1318.9</ele>
        <time>2000-01-01T11:34:44.000Z</time>
      </trkpt>
      <trkpt lat="45.08089" lon="2.65022">
        <ele>1312</ele>
        <time>2000-01-01T11:34:54.000Z</time>
      </trkpt>
      <trkpt lat="45.08082" lon="2.6506">
        <ele>1306</ele>
        <time>2000-01-01T11:35:04.000Z</time>
      </trkpt>
      <trkpt lat="45.08075" lon="2.6507">
        <ele>1300</ele>
        <time>2000-01-01T11:35:14.000Z</time>
      </trkpt>
      <trkpt lat="45.08066" lon="2.65077">
        <ele>1299</ele>
        <time>2000-01-01T11:35:24.000Z</time>
      </trkpt>
      <trkpt lat="45.08057" lon="2.65078">
        <ele>1295.9</ele>
        <time>2000-01-01T11:35:34.000Z</time>
      </trkpt>
      <trkpt lat="45.08047" lon="2.65085">
        <ele>1290</ele>
        <time>2000-01-01T11:35:44.000Z</time>
      </trkpt>
      <trkpt lat="45.08039" lon="2.65092">
        <ele>1288.2</ele>
        <time>2000-01-01T11:35:54.000Z</time>
      </trkpt>
      <trkpt lat="45.08032" lon="2.65104">
        <ele>1285</ele>
        <time>2000-01-01T11:36:04.000Z</time>
      </trkpt>
      <trkpt lat="45.08021" lon="2.65125">
        <ele>1277.8</ele>
        <time>2000-01-01T11:36:14.000Z</time>
      </trkpt>
      <trkpt lat="45.07999" lon="2.65153">
        <ele>1268</ele>
        <time>2000-01-01T11:36:24.000Z</time>
      </trkpt>
      <trkpt lat="45.07993" lon="2.65162">
        <ele>1267.6</ele>
        <time>2000-01-01T11:36:34.000Z</time>
      </trkpt>
      <trkpt lat="45.07985" lon="2.6517">
        <ele>1264.7</ele>
        <time>2000-01-01T11:36:44.000Z</time>
      </trkpt>
      <trkpt lat="45.07979" lon="2.6518">
        <ele>1261</ele>
        <time>2000-01-01T11:36:54.000Z</time>
      </trkpt>
      <trkpt lat="45.07972" lon="2.65199">
        <ele>1260.3</ele>
        <time>2000-01-01T11:37:04.000Z</time>
      </trkpt>
      <trkpt lat="45.07963" lon="2.6522">
        <ele>1257</ele>
        <time>2000-01-01T11:37:14.000Z</time>
      </trkpt>
      <trkpt lat="45.07955" lon="2.65237">
        <ele>1253.2</ele>
        <time>2000-01-01T11:37:24.000Z</time>
      </trkpt>
      <trkpt lat="45.07952" lon="2.65242">
        <ele>1254</ele>
        <time>2000-01-01T11:37:34.000Z</time>
      </trkpt>
      <trkpt lat="45.0795" lon="2.65248">
        <ele>1252.4</ele>
        <time>2000-01-01T11:37:44.000Z</time>
      </trkpt>
      <trkpt lat="45.07947" lon="2.65254">
        <ele>1251.8</ele>
        <time>2000-01-01T11:37:54.000Z</time>
      </trkpt>
      <trkpt lat="45.07946" lon="2.65264">
        <ele>1250.1</ele>
        <time>2000-01-01T11:38:04.000Z</time>
      </trkpt>
      <trkpt lat="45.07946" lon="2.65271">
        <ele>1249</ele>
        <time>2000-01-01T11:38:14.000Z</time>
      </trkpt>
      <trkpt lat="45.07943" lon="2.65285">
        <ele>1245.8</ele>
        <time>2000-01-01T11:38:24.000Z</time>
      </trkpt>
      <trkpt lat="45.07938" lon="2.653">
        <ele>1241</ele>
        <time>2000-01-01T11:38:34.000Z</time>
      </trkpt>
      <trkpt lat="45.07938" lon="2.65313">
        <ele>1238.6</ele>
        <time>2000-01-01T11:38:44.000Z</time>
      </trkpt>
      <trkpt lat="45.07934" lon="2.65319">
        <ele>1237</ele>
        <time>2000-01-01T11:38:54.000Z</time>
      </trkpt>
      <trkpt lat="45.07934" lon="2.65322">
        <ele>1236.4</ele>
        <time>2000-01-01T11:39:04.000Z</time>
      </trkpt>
      <trkpt lat="45.07936" lon="2.6533">
        <ele>1236</ele>
        <time>2000-01-01T11:39:14.000Z</time>
      </trkpt>
      <trkpt lat="45.07935" lon="2.65335">
        <ele>1233.9</ele>
        <time>2000-01-01T11:39:24.000Z</time>
      </trkpt>
      <trkpt lat="45.07935" lon="2.65339">
        <ele>1233</ele>
        <time>2000-01-01T11:39:34.000Z</time>
      </trkpt>
      <trkpt lat="45.07934" lon="2.65345">
        <ele>1231.6</ele>
        <time>2000-01-01T11:39:44.000Z</time>
      </trkpt>
      <trkpt lat="45.07933" lon="2.6535">
        <ele>1230.5</ele>
        <time>2000-01-01T11:39:54.000Z</time>
      </trkpt>
      <trkpt lat="45.07931" lon="2.65356">
        <ele>1232</ele>
        <time>2000-01-01T11:40:04.000Z</time>
      </trkpt>
      <trkpt lat="45.07931" lon="2.65361">
        <ele>1228</ele>
        <time>2000-01-01T11:40:14.000Z</time>
      </trkpt>
      <trkpt lat="45.07929" lon="2.65367">
        <ele>1226.3</ele>
        <time>2000-01-01T11:40:24.000Z</time>
      </trkpt>
      <trkpt lat="45.07923" lon="2.65377">
        <ele>1223.7</ele>
        <time>2000-01-01T11:40:34.000Z</time>
      </trkpt>
      <trkpt lat="45.0792" lon="2.65377">
        <ele>1228</ele>
        <time>2000-01-01T11:40:44.000Z</time>
      </trkpt>
      <trkpt lat="45.07917" lon="2.65375">
        <ele>1224.5</ele>
        <time>2000-01-01T11:40:54.000Z</time>
      </trkpt>
      <trkpt lat="45.07916" lon="2.65372">
        <ele>1224.9</ele>
        <time>2000-01-01T11:41:04.000Z</time>
      </trkpt>
      <trkpt lat="45.07908" lon="2.65372">
        <ele>1221.1</ele>
        <time>2000-01-01T11:41:14.000Z</time>
      </trkpt>
      <trkpt lat="45.07905" lon="2.6537">
        <ele>1220.3</ele>
        <time>2000-01-01T11:41:24.000Z</time>
      </trkpt>
      <trkpt lat="45.07904" lon="2.65366">
        <ele>1221</ele>
        <time>2000-01-01T11:41:34.000Z</time>
      </trkpt>
      <trkpt lat="45.07902" lon="2.65365">
        <ele>1220.5</ele>
        <time>2000-01-01T11:41:44.000Z</time>
      </trkpt>
      <trkpt lat="45.07899" lon="2.65361">
        <ele>1220.4</ele>
        <time>2000-01-01T11:41:54.000Z</time>
      </trkpt>
      <trkpt lat="45.07895" lon="2.65353">
        <ele>1220.1</ele>
        <time>2000-01-01T11:42:04.000Z</time>
      </trkpt>
      <trkpt lat="45.07892" lon="2.65351">
        <ele>1219.2</ele>
        <time>2000-01-01T11:42:14.000Z</time>
      </trkpt>
      <trkpt lat="45.07888" lon="2.65352">
        <ele>1215</ele>
        <time>2000-01-01T11:42:24.000Z</time>
      </trkpt>
      <trkpt lat="45.07878" lon="2.6534">
        <ele>1215.2</ele>
        <time>2000-01-01T11:42:34.000Z</time>
      </trkpt>
      <trkpt lat="45.0787" lon="2.65325">
        <ele>1212</ele>
        <time>2000-01-01T11:42:44.000Z</time>
      </trkpt>
      <trkpt lat="45.07867" lon="2.65321">
        <ele>1213.3</ele>
        <time>2000-01-01T11:42:54.000Z</time>
      </trkpt>
      <trkpt lat="45.07865" lon="2.65321">
        <ele>1212.5</ele>
        <time>2000-01-01T11:43:04.000Z</time>
      </trkpt>
      <trkpt lat="45.07862" lon="2.65322">
        <ele>1211.2</ele>
        <time>2000-01-01T11:43:14.000Z</time>
      </trkpt>
      <trkpt lat="45.07856" lon="2.65329">
        <ele>1208.2</ele>
        <time>2000-01-01T11:43:24.000Z</time>
      </trkpt>
      <trkpt lat="45.07855" lon="2.65335">
        <ele>1205</ele>
        <time>2000-01-01T11:43:34.000Z</time>
      </trkpt>
      <trkpt lat="45.07855" lon="2.65353">
        <ele>1202</ele>
        <time>2000-01-01T11:43:44.000Z</time>
      </trkpt>
      <trkpt lat="45.07857" lon="2.65372">
        <ele>1196</ele>
        <time>2000-01-01T11:43:54.000Z</time>
      </trkpt>
      <trkpt lat="45.07861" lon="2.65379">
        <ele>1196.8</ele>
        <time>2000-01-01T11:44:04.000Z</time>
      </trkpt>
      <trkpt lat="45.07863" lon="2.65385">
        <ele>1196</ele>
        <time>2000-01-01T11:44:14.000Z</time>
      </trkpt>
      <trkpt lat="45.07868" lon="2.65392">
        <ele>1196.1</ele>
        <time>2000-01-01T11:44:24.000Z</time>
      </trkpt>
      <trkpt lat="45.07871" lon="2.65399">
        <ele>1195</ele>
        <time>2000-01-01T11:44:34.000Z</time>
      </trkpt>
      <trkpt lat="45.07872" lon="2.65404">
        <ele>1194.3</ele>
        <time>2000-01-01T11:44:44.000Z</time>
      </trkpt>
      <trkpt lat="45.07872" lon="2.6541">
        <ele>1192.5</ele>
        <time>2000-01-01T11:44:54.000Z</time>
      </trkpt>
      <trkpt lat="45.07868" lon="2.65412">
        <ele>1190.5</ele>
        <time>2000-01-01T11:45:04.000Z</time>
      </trkpt>
      <trkpt lat="45.07863" lon="2.65413">
        <ele>1188.6</ele>
        <time>2000-01-01T11:45:14.000Z</time>
      </trkpt>
      <trkpt lat="45.07851" lon="2.65417">
        <ele>1184</ele>
        <time>2000-01-01T11:45:24.000Z</time>
      </trkpt>
      <trkpt lat="45.07844" lon="2.65418">
        <ele>1183.2</ele>
        <time>2000-01-01T11:45:34.000Z</time>
      </trkpt>
      <trkpt lat="45.07837" lon="2.65416">
        <ele>1181.9</ele>
        <time>2000-01-01T11:45:44.000Z</time>
      </trkpt>
      <trkpt lat="45.0783" lon="2.65412">
        <ele>1180</ele>
        <time>2000-01-01T11:45:54.000Z</time>
      </trkpt>
      <trkpt lat="45.0782" lon="2.65402">
        <ele>1180.7</ele>
        <time>2000-01-01T11:46:04.000Z</time>
      </trkpt>
      <trkpt lat="45.07816" lon="2.65399">
        <ele>1180.3</ele>
        <time>2000-01-01T11:46:14.000Z</time>
      </trkpt>
      <trkpt lat="45.07805" lon="2.65401">
        <ele>1177</ele>
        <time>2000-01-01T11:46:24.000Z</time>
      </trkpt>
      <trkpt lat="45.078" lon="2.65404">
        <ele>1177.7</ele>
        <time>2000-01-01T11:46:34.000Z</time>
      </trkpt>
      <trkpt lat="45.0778" lon="2.65408">
        <ele>1177</ele>
        <time>2000-01-01T11:46:44.000Z</time>
      </trkpt>
      <trkpt lat="45.07768" lon="2.65412">
        <ele>1175.2</ele>
        <time>2000-01-01T11:46:54.000Z</time>
      </trkpt>
      <trkpt lat="45.07761" lon="2.65412">
        <ele>1174</ele>
        <time>2000-01-01T11:47:04.000Z</time>
      </trkpt>
      <trkpt lat="45.07748" lon="2.65417">
        <ele>1172.5</ele>
        <time>2000-01-01T11:47:14.000Z</time>
      </trkpt>
      <trkpt lat="45.0773" lon="2.65418">
        <ele>1169</ele>
        <time>2000-01-01T11:47:24.000Z</time>
      </trkpt>
      <trkpt lat="45.07717" lon="2.65421">
        <ele>1165.3</ele>
        <time>2000-01-01T11:47:34.000Z</time>
      </trkpt>
      <trkpt lat="45.07712" lon="2.65424">
        <ele>1163.8</ele>
        <time>2000-01-01T11:47:44.000Z</time>
      </trkpt>
      <trkpt lat="45.07696" lon="2.6543">
        <ele>1159</ele>
        <time>2000-01-01T11:47:54.000Z</time>
      </trkpt>
      <trkpt lat="45.07686" lon="2.6543">
        <ele>1158.3</ele>
        <time>2000-01-01T11:48:04.000Z</time>
      </trkpt>
      <trkpt lat="45.07682" lon="2.65433">
        <ele>1157.7</ele>
        <time>2000-01-01T11:48:14.000Z</time>
      </trkpt>
      <trkpt lat="45.07677" lon="2.65434">
        <ele>1156</ele>
        <time>2000-01-01T11:48:24.000Z</time>
      </trkpt>
      <trkpt lat="45.07666" lon="2.65434">
        <ele>1155.8</ele>
        <time>2000-01-01T11:48:34.000Z</time>
      </trkpt>
      <trkpt lat="45.07653" lon="2.6544">
        <ele>1155</ele>
        <time>2000-01-01T11:48:44.000Z</time>
      </trkpt>
      <trkpt lat="45.07644" lon="2.6544">
        <ele>1154.8</ele>
        <time>2000-01-01T11:48:54.000Z</time>
      </trkpt>
      <trkpt lat="45.0764" lon="2.65441">
        <ele>1154.6</ele>
        <time>2000-01-01T11:49:04.000Z</time>
      </trkpt>
      <trkpt lat="45.07633" lon="2.65439">
        <ele>1151</ele>
        <time>2000-01-01T11:49:14.000Z</time>
      </trkpt>
      <trkpt lat="45.07629" lon="2.65437">
        <ele>1152.6</ele>
        <time>2000-01-01T11:49:24.000Z</time>
      </trkpt>
      <trkpt lat="45.07623" lon="2.65437">
        <ele>1151.8</ele>
        <time>2000-01-01T11:49:34.000Z</time>
      </trkpt>
      <trkpt lat="45.07614" lon="2.65429">
        <ele>1146</ele>
        <time>2000-01-01T11:49:44.000Z</time>
      </trkpt>
      <trkpt lat="45.07613" lon="2.65426">
        <ele>1147.7</ele>
        <time>2000-01-01T11:49:54.000Z</time>
      </trkpt>
      <trkpt lat="45.07611" lon="2.65424">
        <ele>1146.8</ele>
        <time>2000-01-01T11:50:04.000Z</time>
      </trkpt>
      <trkpt lat="45.07607" lon="2.65423">
        <ele>1145.6</ele>
        <time>2000-01-01T11:50:14.000Z</time>
      </trkpt>
      <trkpt lat="45.07598" lon="2.65425">
        <ele>1143.9</ele>
        <time>2000-01-01T11:50:24.000Z</time>
      </trkpt>
      <trkpt lat="45.07595" lon="2.65424">
        <ele>1140</ele>
        <time>2000-01-01T11:50:34.000Z</time>
      </trkpt>
      <trkpt lat="45.07592" lon="2.65425">
        <ele>1142.5</ele>
        <time>2000-01-01T11:50:44.000Z</time>
      </trkpt>
      <trkpt lat="45.07584" lon="2.65425">
        <ele>1140.6</ele>
        <time>2000-01-01T11:50:54.000Z</time>
      </trkpt>
      <trkpt lat="45.0758" lon="2.65429">
        <ele>1140.3</ele>
        <time>2000-01-01T11:51:04.000Z</time>
      </trkpt>
      <trkpt lat="45.07577" lon="2.65431">
        <ele>1136</ele>
        <time>2000-01-01T11:51:14.000Z</time>
      </trkpt>
      <trkpt lat="45.0757" lon="2.6543">
        <ele>1136.8</ele>
        <time>2000-01-01T11:51:24.000Z</time>
      </trkpt>
      <trkpt lat="45.07562" lon="2.65433">
        <ele>1134.3</ele>
        <time>2000-01-01T11:51:34.000Z</time>
      </trkpt>
      <trkpt lat="45.07559" lon="2.65429">
        <ele>1130</ele>
        <time>2000-01-01T11:51:44.000Z</time>
      </trkpt>
      <trkpt lat="45.07554" lon="2.65434">
        <ele>1131.2</ele>
        <time>2000-01-01T11:51:54.000Z</time>
      </trkpt>
      <trkpt lat="45.0755" lon="2.65447">
        <ele>1129.6</ele>
        <time>2000-01-01T11:52:04.000Z</time>
      </trkpt>
      <trkpt lat="45.07551" lon="2.6546">
        <ele>1128</ele>
        <time>2000-01-01T11:52:14.000Z</time>
      </trkpt>
      <trkpt lat="45.07555" lon="2.65476">
        <ele>1128.5</ele>
        <time>2000-01-01T11:52:24.000Z</time>
      </trkpt>
      <trkpt lat="45.07553" lon="2.6548">
        <ele>1127.2</ele>
        <time>2000-01-01T11:52:34.000Z</time>
      </trkpt>
      <trkpt lat="45.07541" lon="2.65496">
        <ele>1117</ele>
        <time>2000-01-01T11:52:44.000Z</time>
      </trkpt>
      <trkpt lat="45.07521" lon="2.65516">
        <ele>1108</ele>
        <time>2000-01-01T11:52:54.000Z</time>
      </trkpt>
      <trkpt lat="45.07511" lon="2.65535">
        <ele>1104.9</ele>
        <time>2000-01-01T11:53:04.000Z</time>
      </trkpt>
      <trkpt lat="45.07508" lon="2.65544">
        <ele>1100</ele>
        <time>2000-01-01T11:53:14.000Z</time>
      </trkpt>
      <trkpt lat="45.07509" lon="2.65552">
        <ele>1102.8</ele>
        <time>2000-01-01T11:53:24.000Z</time>
      </trkpt>
      <trkpt lat="45.07518" lon="2.65563">
        <ele>1101.9</ele>
        <time>2000-01-01T11:53:34.000Z</time>
      </trkpt>
      <trkpt lat="45.07526" lon="2.65578">
        <ele>1099</ele>
        <time>2000-01-01T11:53:44.000Z</time>
      </trkpt>
      <trkpt lat="45.07526" lon="2.65587">
        <ele>1093.3</ele>
        <time>2000-01-01T11:53:54.000Z</time>
      </trkpt>
      <trkpt lat="45.07507" lon="2.6558">
        <ele>1090</ele>
        <time>2000-01-01T11:54:04.000Z</time>
      </trkpt>
      <trkpt lat="45.07483" lon="2.6557">
        <ele>1083</ele>
        <time>2000-01-01T11:54:14.000Z</time>
      </trkpt>
      <trkpt lat="45.0748" lon="2.65555">
        <ele>1087</ele>
        <time>2000-01-01T11:54:24.000Z</time>
      </trkpt>
      <trkpt lat="45.07478" lon="2.65533">
        <ele>1086</ele>
        <time>2000-01-01T11:54:34.000Z</time>
      </trkpt>
      <trkpt lat="45.07491" lon="2.65484">
        <ele>1086</ele>
        <time>2000-01-01T11:54:44.000Z</time>
      </trkpt>
      <trkpt lat="45.0748" lon="2.65466">
        <ele>1088.6</ele>
        <time>2000-01-01T11:54:54.000Z</time>
      </trkpt>
      <trkpt lat="45.07469" lon="2.65451">
        <ele>1086</ele>
        <time>2000-01-01T11:55:04.000Z</time>
      </trkpt>
      <trkpt lat="45.07449" lon="2.65442">
        <ele>1082</ele>
        <time>2000-01-01T11:55:14.000Z</time>
      </trkpt>
      <trkpt lat="45.07429" lon="2.65441">
        <ele>1078</ele>
        <time>2000-01-01T11:55:24.000Z</time>
      </trkpt>
      <trkpt lat="45.07407" lon="2.65447">
        <ele>1074</ele>
        <time>2000-01-01T11:55:34.000Z</time>
      </trkpt>
      <trkpt lat="45.07387" lon="2.65451">
        <ele>1065</ele>
        <time>2000-01-01T11:55:44.000Z</time>
      </trkpt>
      <trkpt lat="45.07372" lon="2.65457">
        <ele>1062.7</ele>
        <time>2000-01-01T11:55:54.000Z</time>
      </trkpt>
      <trkpt lat="45.07338" lon="2.65478">
        <ele>1053</ele>
        <time>2000-01-01T11:56:04.000Z</time>
      </trkpt>
      <trkpt lat="45.07325" lon="2.65485">
        <ele>1049.7</ele>
        <time>2000-01-01T11:56:14.000Z</time>
      </trkpt>
      <trkpt lat="45.07312" lon="2.65499">
        <ele>1048</ele>
        <time>2000-01-01T11:56:24.000Z</time>
      </trkpt>
      <trkpt lat="45.073" lon="2.65509">
        <ele>1042.2</ele>
        <time>2000-01-01T11:56:34.000Z</time>
      </trkpt>
      <trkpt lat="45.07294" lon="2.65535">
        <ele>1037</ele>
        <time>2000-01-01T11:56:44.000Z</time>
      </trkpt>
      <trkpt lat="45.07294" lon="2.65547">
        <ele>1030.1</ele>
        <time>2000-01-01T11:56:54.000Z</time>
      </trkpt>
      <trkpt lat="45.07291" lon="2.65576">
        <ele>1024</ele>
        <time>2000-01-01T11:57:04.000Z</time>
      </trkpt>
      <trkpt lat="45.0729" lon="2.65605">
        <ele>1012</ele>
        <time>2000-01-01T11:57:14.000Z</time>
      </trkpt>
      <trkpt lat="45.07301" lon="2.65614">
        <ele>1008</ele>
        <time>2000-01-01T11:57:24.000Z</time>
      </trkpt>
      <trkpt lat="45.07301" lon="2.65633">
        <ele>1002</ele>
        <time>2000-01-01T11:57:34.000Z</time>
      </trkpt>
      <trkpt lat="45.07294" lon="2.6565">
        <ele>1000.8</ele>
        <time>2000-01-01T11:57:44.000Z</time>
      </trkpt>
      <trkpt lat="45.07283" lon="2.65656">
        <ele>999</ele>
        <time>2000-01-01T11:57:54.000Z</time>
      </trkpt>
      <trkpt lat="45.07272" lon="2.65669">
        <ele>992.8</ele>
        <time>2000-01-01T11:58:04.000Z</time>
      </trkpt>
      <trkpt lat="45.07271" lon="2.65682">
        <ele>989</ele>
        <time>2000-01-01T11:58:14.000Z</time>
      </trkpt>
      <trkpt lat="45.07263" lon="2.65682">
        <ele>991</ele>
        <time>2000-01-01T11:58:24.000Z</time>
      </trkpt>
      <trkpt lat="45.07252" lon="2.65688">
        <ele>988</ele>
        <time>2000-01-01T11:58:34.000Z</time>
      </trkpt>
      <trkpt lat="45.07244" lon="2.65697">
        <ele>985.4</ele>
        <time>2000-01-01T11:58:44.000Z</time>
      </trkpt>
      <trkpt lat="45.07236" lon="2.65701">
        <ele>984</ele>
        <time>2000-01-01T11:58:54.000Z</time>
      </trkpt>
      <trkpt lat="45.07222" lon="2.657">
        <ele>982</ele>
        <time>2000-01-01T11:59:04.000Z</time>
      </trkpt>
      <trkpt lat="45.07201" lon="2.65701">
        <ele>978</ele>
        <time>2000-01-01T11:59:14.000Z</time>
      </trkpt>
      <trkpt lat="45.07186" lon="2.65694">
        <ele>975.1</ele>
        <time>2000-01-01T11:59:24.000Z</time>
      </trkpt>
      <trkpt lat="45.0717" lon="2.65684">
        <ele>969</ele>
        <time>2000-01-01T11:59:34.000Z</time>
      </trkpt>
      <trkpt lat="45.07155" lon="2.65672">
        <ele>967.6</ele>
        <time>2000-01-01T11:59:44.000Z</time>
      </trkpt>
      <trkpt lat="45.0714" lon="2.65664">
        <ele>963</ele>
        <time>2000-01-01T11:59:54.000Z</time>
      </trkpt>
      <trkpt lat="45.07125" lon="2.65658">
        <ele>961.6</ele>
        <time>2000-01-01T12:00:04.000Z</time>
      </trkpt>
      <trkpt lat="45.07112" lon="2.65657">
        <ele>961</ele>
        <time>2000-01-01T12:00:14.000Z</time>
      </trkpt>
      <trkpt lat="45.07095" lon="2.65644">
        <ele>956</ele>
        <time>2000-01-01T12:00:24.000Z</time>
      </trkpt>
      <trkpt lat="45.07086" lon="2.65632">
        <ele>954.2</ele>
        <time>2000-01-01T12:00:34.000Z</time>
      </trkpt>
      <trkpt lat="45.07086" lon="2.656">
        <ele>949</ele>
        <time>2000-01-01T12:00:44.000Z</time>
      </trkpt>
      <trkpt lat="45.0709" lon="2.65587">
        <ele>955</ele>
        <time>2000-01-01T12:00:54.000Z</time>
      </trkpt>
      <trkpt lat="45.07084" lon="2.6558">
        <ele>952.1</ele>
        <time>2000-01-01T12:01:04.000Z</time>
      </trkpt>
      <trkpt lat="45.07073" lon="2.65581">
        <ele>949</ele>
        <time>2000-01-01T12:01:14.000Z</time>
      </trkpt>
      <trkpt lat="45.07063" lon="2.65579">
        <ele>949.4</ele>
        <time>2000-01-01T12:01:24.000Z</time>
      </trkpt>
      <trkpt lat="45.07051" lon="2.65579">
        <ele>949</ele>
        <time>2000-01-01T12:01:34.000Z</time>
      </trkpt>
      <trkpt lat="45.07041" lon="2.65574">
        <ele>947.9</ele>
        <time>2000-01-01T12:01:44.000Z</time>
      </trkpt>
      <trkpt lat="45.07031" lon="2.65574">
        <ele>946</ele>
        <time>2000-01-01T12:01:54.000Z</time>
      </trkpt>
      <trkpt lat="45.07019" lon="2.65559">
        <ele>946.3</ele>
        <time>2000-01-01T12:02:04.000Z</time>
      </trkpt>
      <trkpt lat="45.07001" lon="2.6558">
        <ele>940</ele>
        <time>2000-01-01T12:02:14.000Z</time>
      </trkpt>
      <trkpt lat="45.0701" lon="2.65601">
        <ele>936.9</ele>
        <time>2000-01-01T12:02:24.000Z</time>
      </trkpt>
      <trkpt lat="45.07024" lon="2.65619">
        <ele>936</ele>
        <time>2000-01-01T12:02:34.000Z</time>
      </trkpt>
      <trkpt lat="45.0704" lon="2.65631">
        <ele>935.7</ele>
        <time>2000-01-01T12:02:44.000Z</time>
      </trkpt>
      <trkpt lat="45.07041" lon="2.65648">
        <ele>930</ele>
        <time>2000-01-01T12:02:54.000Z</time>
      </trkpt>
      <trkpt lat="45.07032" lon="2.65663">
        <ele>928</ele>
        <time>2000-01-01T12:03:04.000Z</time>
      </trkpt>
      <trkpt lat="45.07018" lon="2.65679">
        <ele>923</ele>
        <time>2000-01-01T12:03:14.000Z</time>
      </trkpt>
      <trkpt lat="45.07004" lon="2.65692">
        <ele>923.2</ele>
        <time>2000-01-01T12:03:24.000Z</time>
      </trkpt>
      <trkpt lat="45.06993" lon="2.65704">
        <ele>922</ele>
        <time>2000-01-01T12:03:34.000Z</time>
      </trkpt>
      <trkpt lat="45.07002" lon="2.65719">
        <ele>923</ele>
        <time>2000-01-01T12:03:44.000Z</time>
      </trkpt>
      <trkpt lat="45.06997" lon="2.6573">
        <ele>922.4</ele>
        <time>2000-01-01T12:03:54.000Z</time>
      </trkpt>
      <trkpt lat="45.06985" lon="2.65747">
        <ele>921.9</ele>
        <time>2000-01-01T12:04:04.000Z</time>
      </trkpt>
      <trkpt lat="45.06947" lon="2.65771">
        <ele>922.7</ele>
        <time>2000-01-01T12:04:24.000Z</time>
      </trkpt>
      <trkpt lat="45.06926" lon="2.65764">
        <ele>923.5</ele>
        <time>2000-01-01T12:05:04.000Z</time>
      </trkpt>
      <trkpt lat="45.06879" lon="2.65724">
        <ele>923.2</ele>
      </trkpt>
      <trkpt lat="45.06849" lon="2.65686">
        <ele>922.9</ele>
      </trkpt>
    </trkseg>
  </trk>
</gpx>